SondeTracker

Meteorological Radiosondes Database

Operations
Statistics for the Launch Site: München (DE)

5312

31

38746.00 m / 30371.00 m / 31522.00 m

5.28 m/s / 5.44 m/s

6.19 m/s / 5.38 m/s

1557

123

152

Radiosondes Table with Launch Site: München (DE) (5313)
Number Type Last Frame [UTC] φ λ Course Speed Altitude Climbing Frequency Nearest City Distance from QTH Status
V1030913 RS41 2024-02-25 02:29:30 49.8169 15.1419 339 ° 19 km/h 655 m -2.0 m/s 402.30 MHz Kutná Hora (CZ) 0.00 km UNKNOWN
V2431447 RS41 2024-02-24 13:06:59 49.7623 14.2394 35 ° 13 km/h 677 m -8.7 m/s 402.30 MHz Dobříš (CZ) 0.00 km UNKNOWN
V2431462 RS41-SGP 2024-02-24 02:04:46 50.6251 14.7803 106 ° 9 km/h 466 m -2.7 m/s 402.30 MHz Mimoň (CZ) 0.00 km UNKNOWN
V1030714 RS41 2024-02-23 14:08:06 50.3312 14.8986 76 ° 11 km/h 334 m -1.8 m/s 402.300 MHz Benátky nad Jizerou (CZ) 0.00 km UNKNOWN
V1050618 RS41 2024-02-23 01:14:04 49.4685 14.0036 71 ° 74 km/h 835 m -5.2 m/s 402.30 MHz Blatná (CZ) 0.00 km UNKNOWN
V1651680 RS41 2024-02-22 13:19:09 48.0478 14.2782 250 ° 6 km/h 468 m -6.4 m/s 402.300 MHz Sierning (AT) 0.00 km UNKNOWN
V1030554 RS41 2024-02-22 02:18:52 47.6937 13.2972 252 ° 11 km/h 1556 m -8.6 m/s 404.700 MHz Sankt Gilgen (AT) 0.00 km UNKNOWN
V1050606 RS41 2024-02-22 00:52:17 47.6317 13.2404 253 ° 6 km/h 1396 m -3.6 m/s 402.30 MHz Golling an der Salzach (AT) 0.00 km UNKNOWN
V1651686 RS41 2024-02-21 14:13:53 47.0481 13.659 224 ° 6 km/h 2446 m -3.1 m/s 402.30 MHz Sankt Michael im Lungau (AT) 0.00 km UNKNOWN
V3641522 RS41-SGP 2024-02-21 01:35:58 47.2545 12.9267 114 ° 24 km/h 1950 m -4.4 m/s 402.30 MHz Taxenbach (AT) 0.00 km UNKNOWN
V1030713 RS41 2024-02-20 13:14:39 47.0496 12.5301 137 ° 26 km/h 3149 m -6.0 m/s 402.30 MHz Matrei in Osttirol (AT) 0.00 km UNKNOWN
V1030937 RS41 2024-02-20 02:04:06 47.5068 13.1852 74 ° 6 km/h 1340 m -1.8 m/s 402.30 MHz Werfen (AT) 0.00 km UNKNOWN
V1030829 RS41 2024-02-19 14:07:36 47.1927 13.8456 131 ° 31 km/h 1942 m -2.9 m/s 402.30 MHz Tamsweg (AT) 0.00 km UNKNOWN
V1030709 RS41 2024-02-19 00:50:21 47.9687 13.1149 94 ° 37 km/h 864 m -3.9 m/s 402.300 MHz Mattsee (AT) 0.00 km UNKNOWN
V0510184 RS41 2024-02-18 14:02:53 46.8698 12.7685 117 ° 24 km/h 2591 m -1.8 m/s 402.30 MHz Lienz (AT) 0.00 km UNKNOWN
V2431396 RS41 2024-02-18 01:40:28 47.3926 13.2027 165 ° 2 km/h 1056 m -2.6 m/s 402.300 MHz Bischofshofen (AT) 0.00 km LOST
V0530471 RS41 2024-02-17 13:08:14 47.4773 12.6415 154 ° 22 km/h 2081 m -10.0 m/s 402.30 MHz Fieberbrunn (AT) 0.00 km FOUND
V1030934 RS41 2024-02-17 00:57:36 47.999 12.3808 117 ° 24 km/h 736 m -7.6 m/s 402.300 MHz Traunreut (DE) 0.00 km UNKNOWN
V1030931 RS41 2024-02-16 14:01:11 47.9789 12.9299 153 ° 4 km/h 662 m -1.6 m/s 402.30 MHz Bürmoos (AT) 0.00 km UNKNOWN
V0530339 RS41 2024-02-16 01:12:44 47.857 12.7449 62 ° 6 km/h 1017 m -8.0 m/s 402.30 MHz Traunreut (DE) 0.00 km LOST
V0920838 RS41 2024-02-15 13:08:56 47.6732 12.901 66 ° 11 km/h 1707 m -8.7 m/s 402.300 MHz Grossgmain (AT) 0.00 km UNKNOWN
V0510173 RS41 2024-02-15 01:03:31 47.3206 12.9819 145 ° 4 km/h 1124 m -9.0 m/s 402.300 MHz Taxenbach (AT) 0.00 km UNKNOWN
V1030710 RS41 2024-02-14 12:33:10 47.599 12.6217 91 ° 39 km/h 1872 m -11.4 m/s 402.300 MHz Kirchdorf in Tirol (AT) 0.00 km UNKNOWN
V1030712 RS41 2024-02-14 00:53:45 47.6149 12.6488 109 ° 46 km/h 1995 m -2.9 m/s 402.300 MHz Kirchdorf in Tirol (AT) 0.00 km UNKNOWN
V1030579 RS41 2024-02-13 13:16:39 47.4632 13.2798 89 ° 9 km/h 1381 m -11.7 m/s 402.30 MHz Bischofshofen (AT) 0.00 km UNKNOWN
V3730364 RS41 2024-02-13 01:20:55 47.7315 13.597 149 ° 9 km/h 1587 m -7.4 m/s 402.30 MHz Bad Ischl (AT) 0.00 km UNKNOWN
V1050626 RS41 2024-02-12 14:33:37 47.918 14.2751 75 ° 17 km/h 933 m -3.4 m/s 402.30 MHz Molln (AT) 0.00 km UNKNOWN
V1040015 RS41 2024-02-12 01:07:24 48.2066 13.2031 66 ° 15 km/h 484 m -6.0 m/s 402.300 MHz Altheim (AT) 0.00 km FOUND
V0920536 RS41 2024-02-11 13:14:39 48.3248 13.3266 63 ° 20 km/h 400 m -6.3 m/s 402.30 MHz Altheim (AT) 0.00 km FOUND
V1040014 RS41 2024-02-11 01:31:58 48.5873 13.2683 315 ° 24 km/h 589 m -3.3 m/s 402.30 MHz Passau (DE) 0.00 km UNKNOWN
V3730371 RS41 2024-02-10 13:54:33 49.1084 14.867 290 ° 41 km/h 707 m -3.0 m/s 402.30 MHz Jindřichŭv Hradec (CZ) 0.00 km UNKNOWN
V1030578 RS41 2024-02-10 01:00:39 48.5033 14.5433 323 ° 19 km/h 831 m -6.7 m/s 402.300 MHz Freistadt (AT) 0.00 km UNKNOWN
V0920544 RS41 2024-02-09 12:43:32 48.4779 14.7166 1 ° 7 km/h 906 m -16.6 m/s 402.30 MHz Unterweissenbach (AT) 0.00 km UNKNOWN
V3730368 RS41 2024-02-09 00:55:01 48.0153 14.6858 354 ° 13 km/h 579 m -7.1 m/s 402.30 MHz Biberbach (AT) 0.00 km FOUND
V0521305 RS41-SGP 2024-02-08 13:21:53 47.7111 15.5122 43 ° 22 km/h 1444 m -3.1 m/s 402.30 MHz Neuberg an der Mürz (AT) 0.00 km UNKNOWN
V0920836 RS41-SGP 2024-02-08 01:12:13 47.7953 15.2062 253 ° 4 km/h 1160 m -4.3 m/s 402.30 MHz Mariazell (AT) 0.00 km UNKNOWN
V1030708 RS41 2024-02-07 13:15:22 47.7012 15.1435 86 ° 37 km/h 1658 m -6.0 m/s 402.300 MHz Mariazell (AT) 0.00 km UNKNOWN
V1030703 RS41 2024-02-07 01:23:52 47.8791 15.0254 102 ° 43 km/h 997 m -13.0 m/s 404.70 MHz Gaming (AT) 0.00 km UNKNOWN
V1651672 RS41 2024-02-07 01:06:11 47.8711 15.2546 51 ° 4 km/h 1214 m -6.9 m/s 402.300 MHz Mariazell (AT) 0.00 km UNKNOWN
V1720281 RS41 2024-02-06 13:15:46 47.8528 15.6505 105 ° 39 km/h 951 m -5.7 m/s 402.30 MHz Lilienfeld (AT) 0.00 km UNKNOWN
V1820572 RS41 2024-02-06 01:00:51 47.6762 14.8985 98 ° 11 km/h 1082 m -10.1 m/s 402.300 MHz Landl (AT) 0.00 km UNKNOWN
V1720117 RS41 2024-02-05 13:03:22 47.511 14.7364 152 ° 26 km/h 1597 m -4.0 m/s 402.30 MHz Eisenerz (AT) 0.00 km UNKNOWN
V0510418 RS41 2024-02-05 01:11:15 47.0369 14.5504 140 ° 31 km/h 1834 m -5.6 m/s 402.30 MHz Obdach (AT) 0.00 km UNKNOWN
V1030707 RS41 2024-02-04 13:53:18 46.5156 14.9848 308 ° 4 km/h 792 m -2.6 m/s 402.300 MHz Ravne na Koroškem (SI) 0.00 km UNKNOWN
V1030711 RS41 2024-02-04 02:26:30 46.65 15.6525 218 ° 7 km/h 383 m -1.7 m/s 402.300 MHz Zgornja Kungota (SI) 0.00 km FOUND
V3641519 RS41 2024-02-03 13:34:32 47.0056 13.9059 129 ° 52 km/h 2335 m -2.5 m/s 402.30 MHz Tamsweg (AT) 0.00 km UNKNOWN
V1030603 RS41 2024-02-03 01:08:45 46.925 12.6873 169 ° 93 km/h 3357 m -11.5 m/s 402.300 MHz Lienz (AT) 0.00 km UNKNOWN
V0510112 RS41 2024-02-02 13:13:24 46.5797 11.7943 182 ° 93 km/h 3472 m -8.2 m/s 402.30 MHz Bressanone (IT) 0.00 km UNKNOWN
V1050629 RS41 2024-02-02 01:04:56 46.6206 12.0461 162 ° 74 km/h 3680 m -12.0 m/s 402.300 MHz Brunico (IT) 0.00 km UNKNOWN
V1050614 RS41 2024-02-01 14:05:22 47.1712 13.3877 91 ° 24 km/h 2192 m -4.1 m/s 402.30 MHz Grossarl (AT) 0.00 km UNKNOWN
V1651689 RS41 2024-02-01 01:31:35 47.1166 12.055 151 ° 31 km/h 3367 m -3.8 m/s 402.300 MHz Mayrhofen (AT) 0.00 km UNKNOWN
V1720103 RS41 2024-01-31 13:05:28 47.7192 12.7797 148 ° 6 km/h 1347 m -7.5 m/s 402.30 MHz Grossgmain (AT) 0.00 km UNKNOWN
V1030577 RS41 2024-01-31 01:04:53 47.9538 12.6195 95 ° 26 km/h 772 m -4.5 m/s 402.300 MHz Traunreut (DE) 0.00 km FOUND
V1030705 RS41 2024-01-30 13:18:54 47.8535 12.2912 238 ° 4 km/h 696 m -5.9 m/s 402.30 MHz Rosenheim (DE) 0.00 km FOUND
V3730365 RS41 2024-01-30 01:08:46 47.6359 12.031 56 ° 6 km/h 1651 m -7.2 m/s 402.30 MHz Kufstein (AT) 0.00 km UNKNOWN
V1011416 RS41 2024-01-29 13:58:29 47.3354 12.12 14 ° 4 km/h 2260 m -1.7 m/s 402.300 MHz Westendorf (AT) 0.00 km UNKNOWN
V1040061 RS41-SGP 2024-01-29 00:58:50 47.3466 12.0227 87 ° 6 km/h 2178 m -8.3 m/s 402.30 MHz Alpbach (AT) 0.00 km UNKNOWN
V1011415 RS41 2024-01-28 14:00:08 46.6401 12.3215 87 ° 6 km/h 2690 m -2.3 m/s 402.30 MHz Brunico (IT) 0.00 km UNKNOWN
V1030736 RS41 2024-01-28 01:22:41 46.6838 12.5787 110 ° 17 km/h 2370 m -4.1 m/s 402.30 MHz Lienz (AT) 0.00 km UNKNOWN
V1050609 RS41 2024-01-27 13:55:21 46.4797 13.301 150 ° 13 km/h 1796 m -2.9 m/s 402.30 MHz Hermagor (AT) 0.00 km UNKNOWN
V1040062 RS41 2024-01-27 01:41:59 46.7508 14.5277 159 ° 43 km/h 1069 m -3.0 m/s 402.30 MHz Brückl (AT) 0.00 km UNKNOWN
V1011413 RS41 2024-01-26 13:21:32 47.0395 14.1226 122 ° 63 km/h 2166 m -10.5 m/s 402.300 MHz Murau (AT) 0.00 km UNKNOWN
V1011412 RS41 2024-01-26 02:07:46 46.0721 14.624 310 ° 7 km/h 1524 m -1.8 m/s 402.300 MHz Dol (SI) 0.00 km FOUND
U3450972 RS41 2024-01-25 14:11:36 45.7577 14.7472 124 ° 26 km/h 1520 m -2.9 m/s 402.30 MHz Sodražica (SI) 0.00 km FOUND
V3730363 RS41 2024-01-25 01:16:43 46.627 14.9748 131 ° 59 km/h 1104 m -7.7 m/s 402.30 MHz Lavamünd (AT) 0.00 km UNKNOWN
V3641520 RS41 2024-01-24 13:27:00 47.0386 15.6345 198 ° 2 km/h 536 m -6.3 m/s 402.30 MHz Nestelbach bei Graz (AT) 0.00 km FOUND
V3730362 RS41 2024-01-24 01:02:05 47.0883 14.1751 109 ° 28 km/h 1973 m -5.6 m/s 402.30 MHz Murau (AT) 0.00 km UNKNOWN
V3730376 RS41 2024-01-23 13:00:23 47.0026 14.1331 132 ° 72 km/h 3186 m -7.3 m/s 402.30 MHz Murau (AT) 0.00 km UNKNOWN
V1030935 RS41 2024-01-23 01:50:59 48.3252 15.1183 108 ° 26 km/h 693 m -2.5 m/s 402.30 MHz Pöggstall (AT) 0.00 km LOST
V1030915 RS41 2024-01-22 13:52:56 48.3472 14.9553 16 ° 7 km/h 796 m -4.9 m/s 402.300 MHz Waldhausen im Strudengau (AT) 0.00 km UNKNOWN
V1040093 RS41-SGP 2024-01-22 02:04:48 47.4202 13.683 26 ° 11 km/h 1905 m -2.4 m/s 402.30 MHz Schladming (AT) 0.00 km UNKNOWN
V0920545 RS41-SGP 2024-01-21 13:25:34 48.3803 13.9237 149 ° 4 km/h 579 m -3.0 m/s 402.30 MHz Hartkirchen (AT) 0.00 km UNKNOWN
V1011414 RS41 2024-01-21 02:22:32 47.6437 13.726 315 ° 20 km/h 1815 m -1.8 m/s 402.30 MHz Bad Aussee (AT) 0.00 km UNKNOWN
V0920361 RS41 2024-01-20 13:31:37 47.2793 13.2793 359 ° 2 km/h 1960 m -3.1 m/s 402.30 MHz Wagrain (AT) 0.00 km UNKNOWN
V1030932 RS41 2024-01-20 01:25:43 47.146 13.8801 230 ° 48 km/h 2771 m -8.1 m/s 402.30 MHz Tamsweg (AT) 0.00 km UNKNOWN
V0920365 RS41 2024-01-19 13:41:36 48.0551 15.4181 23 ° 6 km/h 596 m -3.4 m/s 402.30 MHz Kirchberg an der Pielach (AT) 0.00 km UNKNOWN
V0920362 RS41 2024-01-19 02:24:15 48.5392 16.6471 141 ° 35 km/h 310 m -1.7 m/s 402.30 MHz Wilfersdorf (AT) 0.00 km FOUND
V1030771 RS41 2024-01-18 13:08:18 48.4777 15.3944 80 ° 37 km/h 707 m -8.0 m/s 402.30 MHz Gföhl (AT) 0.00 km FOUND
V1030772 RS41 2024-01-18 08:07:29 48.6758 16.0251 24 ° 22 km/h 324 m -2.5 m/s 402.300 MHz Zellerndorf (AT) 0.00 km FOUND
V1011411 RS41 2024-01-18 01:10:11 48.7596 14.6287 47 ° 31 km/h 721 m -5.8 m/s 402.30 MHz Trhové Sviny (CZ) 0.00 km UNKNOWN
V1040077 RS41 2024-01-17 14:22:22 48.3746 17.9658 312 ° 52 km/h 295 m -2.2 m/s 402.30 MHz Veľké Zálužie (SK) 0.00 km UNKNOWN
V1030784 RS41 2024-01-17 08:45:03 47.8656 19.404 295 ° 37 km/h 413 m -2.1 m/s 402.300 MHz Rétság (HU) 0.00 km UNKNOWN
U4044267 RS41 2024-01-17 01:06:36 47.5803 16.115 360 ° 4 km/h 655 m -4.3 m/s 402.30 MHz Krumbach Markt (AT) 0.00 km UNKNOWN
U3350187 RS41 2024-01-16 13:10:30 47.7542 16.577 244 ° 4 km/h 300 m -11.3 m/s 402.30 MHz Siegendorf im Burgenland (AT) 0.00 km FOUND
U4044262 RS41 2024-01-16 01:54:20 47.3611 17.7847 83 ° 22 km/h 350 m -2.1 m/s 402.300 MHz Zirc (HU) 0.00 km UNKNOWN
U3360402 RS41 2024-01-15 13:10:39 47.8454 16.5964 105 ° 39 km/h 198 m -6.8 m/s 402.30 MHz Sankt Margarethen im Burgenland (AT) 0.00 km FOUND
U3350217 RS41 2024-01-15 01:32:09 47.628 16.1173 68 ° 17 km/h 750 m -2.6 m/s 402.30 MHz Kirchberg am Wechsel (AT) 0.00 km UNKNOWN
U4044264 RS41 2024-01-14 12:55:48 47.2472 14.8775 103 ° 52 km/h 1877 m -14.1 m/s 402.30 MHz Sankt Margarethen bei Knittelfeld (AT) 0.00 km UNKNOWN
V0510102 RS41 2024-01-14 01:07:42 47.0794 15.0324 236 ° 4 km/h 940 m -9.9 m/s 402.300 MHz Maria Lankowitz (AT) 0.00 km FOUND
U3634723 RS41 2024-01-13 13:12:00 47.3335 14.6964 128 ° 17 km/h 2199 m -11.7 m/s 402.30 MHz Fohnsdorf (AT) 0.00 km UNKNOWN
V0510223 RS41 2024-01-13 01:04:56 47.1557 12.7353 187 ° 43 km/h 3447 m -9.5 m/s 402.30 MHz Piesendorf (AT) 0.00 km UNKNOWN
V1030933 RS41 2024-01-12 13:11:20 46.862 12.649 185 ° 24 km/h 2903 m -4.3 m/s 402.30 MHz Lienz (AT) 0.00 km UNKNOWN
V0510174 RS41 2024-01-12 02:01:42 46.4706 11.8471 208 ° 39 km/h 4059 m -4.2 m/s 402.300 MHz Bressanone (IT) 0.00 km UNKNOWN
V0521541 RS41 2024-01-11 13:05:22 47.1549 12.2357 236 ° 13 km/h 2941 m -9.2 m/s 402.30 MHz Neukirchen am Großvenediger (AT) 0.00 km UNKNOWN
V0920839 RS41 2024-01-11 00:53:11 47.6649 12.3518 69 ° 2 km/h 1179 m -5.7 m/s 402.30 MHz Kössen (AT) 0.00 km UNKNOWN
V1030831 RS41 2024-01-10 13:34:59 47.922 12.9036 295 ° 11 km/h 762 m -3.8 m/s 402.30 MHz Oberndorf bei Salzburg (AT) 0.00 km UNKNOWN
U3350351 RS41 2024-01-10 01:56:00 48.0142 12.5797 59 ° 6 km/h 685 m -2.5 m/s 402.30 MHz Traunreut (DE) 0.00 km UNKNOWN
V1030581 RS41 2024-01-09 13:01:46 47.8958 12.3845 249 ° 20 km/h 777 m -12.4 m/s 402.30 MHz Traunreut (DE) 0.00 km UNKNOWN
U3644461 RS41 2024-01-09 01:11:14 47.768 12.3433 171 ° 7 km/h 976 m -1.6 m/s 402.30 MHz Kössen (AT) 0.00 km UNKNOWN
U3360637 RS41 2024-01-08 13:12:33 48.0578 11.6417 268 ° 20 km/h 612 m -3.8 m/s 402.300 MHz Unterhaching (DE) 0.00 km UNKNOWN
U3370083 RS41 2024-01-08 01:50:06 47.8829 12.3097 253 ° 19 km/h 944 m -3.0 m/s 402.300 MHz Rosenheim (DE) 0.00 km UNKNOWN
U4044320 RS41 2024-01-07 13:10:33 48.0289 12.3677 222 ° 15 km/h 682 m -8.4 m/s 402.30 MHz Traunreut (DE) 0.00 km UNKNOWN
V0510939 RS41 2024-01-07 01:03:38 48.3937 12.0581 201 ° 33 km/h 977 m -4.2 m/s 402.30 MHz Erding (DE) 0.00 km UNKNOWN
V0510187 RS41 2024-01-06 13:14:58 48.5197 12.8224 139 ° 26 km/h 760 m -6.4 m/s 402.30 MHz Braunau am Inn (AT) 0.00 km FOUND
U3350190 RS41 2024-01-06 00:55:17 48.9458 12.9581 62 ° 6 km/h 1925 m -3.5 m/s 402.30 MHz Deggendorf (DE) 0.00 km UNKNOWN
V0511006 RS41 2024-01-05 13:18:08 48.2471 14.0862 30 ° 11 km/h 431 m -6.1 m/s 402.30 MHz Scharten (AT) 0.00 km FOUND
V0530346 RS41 2024-01-05 01:57:45 47.6439 15.296 68 ° 37 km/h 1572 m -2.8 m/s 402.300 MHz Mariazell (AT) 0.00 km UNKNOWN
V0521339 RS41 2024-01-04 13:05:00 47.646 13.9716 113 ° 80 km/h 2329 m -4.5 m/s 402.300 MHz Bad Aussee (AT) 0.00 km UNKNOWN
U3824268 RS41 2024-01-04 01:10:46 47.6267 14.4154 68 ° 26 km/h 1653 m -2.4 m/s 402.30 MHz Admont (AT) 0.00 km UNKNOWN
V0510624 RS41 2024-01-03 14:02:56 47.159 15.8441 44 ° 19 km/h 512 m -1.8 m/s 402.300 MHz Pischelsdorf in Steiermark (AT) 0.00 km UNKNOWN
V0521304 RS41 2024-01-03 02:12:45 47.2872 16.2452 78 ° 6 km/h 359 m -3.2 m/s 402.30 MHz Oberwart (AT) 0.00 km FOUND
V0510208 RS41-SGP 2024-01-02 13:51:06 46.3668 15.4755 73 ° 52 km/h 455 m -5.4 m/s 402.30 MHz Oplotnica (SI) 0.00 km FOUND
U3360604 RS41 2024-01-02 01:23:42 46.4696 14.7543 20 ° 26 km/h 1697 m -3.6 m/s 402.30 MHz Solčava (SI) 0.00 km UNKNOWN
V1030570 RS41 2024-01-01 14:27:22 47.7203 17.1563 160 ° 28 km/h 185 m -2.6 m/s 402.300 MHz Jánossomorja (HU) 0.00 km UNKNOWN
V1030580 RS41 2024-01-01 00:36:53 48.6941 13.522 75 ° 35 km/h 933 m -6.0 m/s 402.300 MHz Passau (DE) 0.00 km UNKNOWN
V1040196 RS41 2023-12-31 13:29:59 48.4586 15.5987 190 ° 6 km/h 549 m -6.9 m/s 402.30 MHz Krems an der Donau (AT) 0.00 km FOUND
V1040172 RS41 2023-12-31 01:06:06 48.2839 14.4645 219 ° 9 km/h 381 m -4.9 m/s 402.30 MHz Sankt Georgen an der Gusen (AT) 0.00 km FOUND
V1030706 RS41 2023-12-30 14:27:51 47.8811 16.9796 137 ° 41 km/h 194 m -2.5 m/s 402.30 MHz Gols (AT) 0.00 km FOUND
V1040173 RS41 2023-12-30 01:03:27 48.117 15.2329 77 ° 30 km/h 383 m -6.9 m/s 402.30 MHz Ruprechtshofen (AT) 0.00 km UNKNOWN
V1040175 RS41 2023-12-29 13:25:54 48.0446 15.9798 40 ° 13 km/h 603 m -8.1 m/s 402.30 MHz Alland (AT) 0.00 km FOUND
V1030704 RS41 2023-12-29 01:01:35 48.1393 14.9767 108 ° 9 km/h 346 m -10.2 m/s 402.30 MHz Blindenmarkt (AT) 0.00 km UNKNOWN
V1040194 RS41 2023-12-28 13:07:04 48.5142 15.0273 55 ° 19 km/h 903 m -5.2 m/s 402.30 MHz Grossgerungs (AT) 0.00 km FOUND
V0511007 RS41-SGP 2023-12-28 01:39:16 48.5207 16.0708 321 ° 15 km/h 353 m -4.6 m/s 402.30 MHz Göllersdorf (AT) 0.00 km FOUND
U3360605 RS41 2023-12-27 14:14:27 47.5377 16.9655 28 ° 17 km/h 206 m -2.3 m/s 402.300 MHz Kapuvár (HU) 0.00 km UNKNOWN
V0510618 RS41 2023-12-27 01:07:42 47.6446 15.5002 136 ° 46 km/h 1584 m -9.8 m/s 402.30 MHz Neuberg an der Mürz (AT) 0.00 km UNKNOWN
V0510633 RS41 2023-12-26 13:42:37 48.3608 16.4159 85 ° 44 km/h 299 m -3.2 m/s 402.30 MHz Hagenbrunn (AT) 0.00 km NEED ATTENTION
V1651674 RS41 2023-12-26 01:09:08 48.022 14.9207 79 ° 28 km/h 702 m -6.7 m/s 402.300 MHz Neuhofen an der Ybbs (AT) 0.00 km LOST
V1651673 RS41 2023-12-25 13:09:40 47.6224 15.558 97 ° 43 km/h 1547 m -4.9 m/s 402.30 MHz Neuberg an der Mürz (AT) 0.00 km UNKNOWN
V1651685 RS41 2023-12-25 00:53:09 47.4198 14.445 129 ° 65 km/h 1971 m -8.2 m/s 402.30 MHz Trieben (AT) 0.00 km UNKNOWN
V1651728 RS41 2023-12-24 13:56:47 46.849 16.5379 40 ° 11 km/h 304 m -8.5 m/s 402.30 MHz Zalalövő (HU) 0.00 km UNKNOWN
V1651720 RS41 2023-12-24 03:09:06 45.0271 18.6244 136 ° 19 km/h 832 m -1.7 m/s 402.300 MHz Domaljevac (BA) 0.00 km UNKNOWN
V1651717 RS41 2023-12-24 02:47:30 46.7866 15.8049 84 ° 6 km/h 434 m -7.5 m/s 404.70 MHz Sankt Peter am Ottersbach (AT) 0.00 km FOUND
V1651688 RS41 2023-12-23 13:51:09 45.8248 17.2303 318 ° 4 km/h 344 m -3.4 m/s 402.30 MHz Špišić-Bukovica (HR) 0.00 km FOUND
V1720378 RS41 2023-12-23 02:19:24 45.1992 18.2765 114 ° 87 km/h 624 m -2.0 m/s 402.300 MHz Donji Andrijevci (HR) 0.00 km FOUND
V1720148 RS41 2023-12-22 14:29:04 46.5901 16.4581 237 ° 11 km/h 247 m -10.7 m/s 402.30 MHz Lendava (SI) 0.00 km FOUND
V1720147 RS41 2023-12-22 13:43:00 46.1169 17.3185 124 ° 41 km/h 494 m -10.3 m/s 402.30 MHz Ferdinandovac (HR) 0.00 km UNKNOWN
V1720145 RS41 2023-12-22 01:55:37 46.695 14.3039 26 ° 9 km/h 730 m -5.2 m/s 404.70 MHz Maria Saal (AT) 0.00 km FOUND
V1720146 RS41 2023-12-22 01:02:00 46.8388 15.7362 150 ° 4 km/h 379 m -3.4 m/s 402.300 MHz Sankt Peter am Ottersbach (AT) 0.00 km FOUND
V1720149 RS41 2023-12-21 12:56:43 47.2594 15.1272 92 ° 48 km/h 1882 m -12.7 m/s 402.30 MHz Sankt Michael in Obersteiermark (AT) 0.00 km FOUND
V1720133 RS41 2023-12-21 00:57:28 47.5403 14.5112 102 ° 67 km/h 2109 m -12.3 m/s 402.30 MHz Admont (AT) 0.00 km UNKNOWN
V1720135 RS41 2023-12-20 13:11:28 48.1879 15.5763 68 ° 30 km/h 370 m -11.6 m/s 402.30 MHz Obergrafendorf (AT) 0.00 km UNKNOWN
U4044299 RS41-SGP 2023-12-20 01:02:18 48.5331 14.6479 92 ° 24 km/h 985 m -9.5 m/s 402.300 MHz Sankt Oswald bei Freistadt (AT) 0.00 km UNKNOWN
V0510592 RS41 2023-12-19 13:50:31 48.3741 14.7465 68 ° 15 km/h 714 m -4.0 m/s 402.300 MHz Unterweissenbach (AT) 0.00 km UNKNOWN
U3450968 RS41 2023-12-19 01:28:19 48.0319 13.7146 59 ° 17 km/h 581 m -7.1 m/s 402.30 MHz Attnang-Puchheim (AT) 0.00 km UNKNOWN
U3450966 RS41 2023-12-18 13:22:28 47.9731 13.6786 77 ° 6 km/h 609 m -6.4 m/s 402.30 MHz Vöcklabruck (AT) 0.00 km UNKNOWN
V0530481 RS41 2023-12-18 00:56:49 47.8972 12.7969 55 ° 4 km/h 695 m -8.6 m/s 402.300 MHz Sankt Georgen bei Salzburg (AT) 0.00 km UNKNOWN
V0521356 RS41 2023-12-17 13:18:37 47.579 12.6712 88 ° 9 km/h 1476 m -6.6 m/s 402.30 MHz Fieberbrunn (AT) 0.00 km FOUND
U3350247 RS41 2023-12-17 01:05:07 47.5731 12.7203 146 ° 17 km/h 2240 m -7.8 m/s 402.30 MHz Fieberbrunn (AT) 0.00 km UNKNOWN
V0521337 RS41 2023-12-16 13:53:35 46.7056 11.5136 203 ° 85 km/h 3573 m -1.7 m/s 402.30 MHz Bressanone (IT) 0.00 km UNKNOWN
V0530424 RS41 2023-12-16 01:31:13 46.5557 11.5983 203 ° 72 km/h 3641 m -6.4 m/s 402.30 MHz Bressanone (IT) 0.00 km UNKNOWN
V0521347 RS41 2023-12-15 13:44:02 46.9243 12.872 189 ° 13 km/h 2030 m -6.1 m/s 402.300 MHz Dölsach (AT) 0.00 km UNKNOWN
U4044272 RS41 2023-12-15 01:01:37 47.4047 12.724 140 ° 52 km/h 2986 m -8.0 m/s 402.300 MHz Leogang (AT) 0.00 km UNKNOWN
U4044323 RS41 2023-12-14 12:55:07 47.6158 13.2761 133 ° 33 km/h 1931 m -13.0 m/s 402.30 MHz Golling an der Salzach (AT) 0.00 km UNKNOWN
V0521348 RS41 2023-12-14 00:48:18 48.2724 13.0355 72 ° 15 km/h 416 m -11.1 m/s 402.300 MHz Braunau am Inn (AT) 0.00 km FOUND
V0521341 RS41 2023-12-13 13:58:30 48.3598 16.3887 45 ° 2 km/h 299 m -3.0 m/s 402.300 MHz Hagenbrunn (AT) 0.00 km FOUND
U3350243 RS41 2023-12-13 00:29:56 48.2726 14.4919 302 ° 4 km/h 426 m -8.5 m/s 402.30 MHz Langenstein (AT) 0.00 km FOUND
V0530423 RS41 2023-12-12 13:10:58 47.7136 16.3752 351 ° 30 km/h 470 m -7.4 m/s 402.30 MHz Mattersburg (AT) 0.00 km FOUND
V0521351 RS41 2023-12-12 02:10:09 47.0377 18.0317 130 ° 26 km/h 663 m -3.0 m/s 402.30 MHz Balatonalmádi (HU) 0.00 km UNKNOWN
V0510191 RS41 2023-12-11 14:31:33 47.4808 19.5293 334 ° 13 km/h 326 m -2.1 m/s 402.30 MHz Kóka (HU) 0.00 km FOUND
V0510640 RS41 2023-12-11 00:31:34 47.6491 14.5753 31 ° 24 km/h 1299 m -11.8 m/s 402.300 MHz Admont (AT) 0.00 km UNKNOWN
V0510114 RS41 2023-12-10 13:13:11 47.3141 15.2695 154 ° 37 km/h 1412 m -7.9 m/s 402.300 MHz Frohnleiten (AT) 0.00 km UNKNOWN
U3350227 RS41-SGP 2023-12-10 01:00:44 48.1515 14.5632 303 ° 9 km/h 440 m -4.8 m/s 402.30 MHz Sankt Valentin (AT) 0.00 km FOUND
U3460848 RS41 2023-12-09 12:56:25 47.3533 14.6373 133 ° 6 km/h 2452 m -13.6 m/s 402.30 MHz Pöls (AT) 0.00 km UNKNOWN
V0521346 RS41 2023-12-09 00:45:54 48.5419 13.268 68 ° 20 km/h 804 m -10.1 m/s 402.30 MHz Passau (DE) 0.00 km UNKNOWN
V0510606 RS41-SGP 2023-12-08 12:54:37 48.3986 13.7223 293 ° 7 km/h 539 m -8.3 m/s 402.30 MHz Natternbach (AT) 0.00 km UNKNOWN
V0510189 RS41 2023-12-08 01:08:58 47.3151 14.3332 148 ° 22 km/h 2675 m -13.4 m/s 402.30 MHz Oberwölz Stadt (AT) 0.00 km UNKNOWN
U3634722 RS41 2023-12-07 13:02:11 47.3531 13.8185 106 ° 15 km/h 2417 m -9.4 m/s 402.30 MHz Schladming (AT) 0.00 km UNKNOWN
U3644340 RS41 2023-12-07 01:32:13 47.6167 14.0342 119 ° 33 km/h 2228 m -8.8 m/s 402.30 MHz Stainach (AT) 0.00 km UNKNOWN
V0510605 RS41 2023-12-06 13:17:38 48.1352 13.9472 52 ° 7 km/h 427 m -7.4 m/s 402.300 MHz Gunskirchen (AT) 0.00 km UNKNOWN
V0521355 RS41 2023-12-06 01:17:05 48.3314 13.8779 343 ° 2 km/h 461 m -10.5 m/s 402.300 MHz Waizenkirchen (AT) 0.00 km UNKNOWN
V0510603 RS41 2023-12-05 13:01:51 48.4925 13.5419 320 ° 19 km/h 648 m -12.4 m/s 402.300 MHz Münzkirchen (AT) 0.00 km UNKNOWN
V0521461 RS41 2023-12-05 01:05:37 48.4339 13.6197 284 ° 28 km/h 562 m -2.0 m/s 402.300 MHz Sankt Florian am Inn (AT) 0.00 km UNKNOWN
V0530467 RS41-SGP 2023-12-04 13:06:12 48.2893 14.2092 83 ° 13 km/h 440 m -8.4 m/s 402.30 MHz Puchenau (AT) 0.00 km FOUND
V0530466 RS41 2023-12-04 00:48:54 47.7492 13.4599 12 ° 17 km/h 1485 m -6.7 m/s 402.30 MHz Sankt Wolfgang im Salzkammergut (AT) 0.00 km UNKNOWN
V0521342 RS41 2023-12-03 14:22:57 48.11 15.0735 108 ° 17 km/h 388 m -2.0 m/s 402.300 MHz Steinakirchen am Forst (AT) 0.00 km UNKNOWN
U3714655 RS41 2023-12-03 01:16:02 48.2859 13.8798 86 ° 31 km/h 476 m -2.6 m/s 402.300 MHz Prambachkirchen (AT) 0.00 km FOUND
U3350222 RS41 2023-12-02 13:54:47 49.0979 14.3879 191 ° 24 km/h 1159 m -2.4 m/s 402.30 MHz Hluboká nad Vltavou (CZ) 0.00 km UNKNOWN
V0530452 RS41-SGP 2023-12-02 01:03:04 48.9012 14.1732 192 ° 22 km/h 1034 m -9.2 m/s 402.30 MHz Český Krumlov (CZ) 0.00 km UNKNOWN
V0530445 RS41 2023-12-01 13:09:56 48.6733 15.1548 278 ° 11 km/h 738 m -11.5 m/s 402.30 MHz Zwettl (AT) 0.00 km FOUND
V0510403 RS41 2023-12-01 01:57:10 48.4865 16.7261 209 ° 2 km/h 269 m -3.0 m/s 402.30 MHz Zistersdorf (AT) 0.00 km LOST
V0510180 RS41 2023-11-30 13:21:45 48.3018 15.6656 204 ° 20 km/h 344 m -12.5 m/s 402.30 MHz Herzogenburg (AT) 0.00 km FOUND
U4044260 RS41 2023-11-30 01:22:50 47.9989 15.2851 165 ° 4 km/h 986 m -5.2 m/s 402.30 MHz Oberndorf an der Melk (AT) 0.00 km UNKNOWN
U4044266 RS41 2023-11-29 13:13:45 47.7989 14.2966 96 ° 6 km/h 1229 m -10.6 m/s 402.30 MHz Windischgarsten (AT) 0.00 km UNKNOWN
V0510629 RS41 2023-11-29 01:20:48 47.8301 14.4247 111 ° 31 km/h 1256 m -8.5 m/s 402.30 MHz Grossraming (AT) 0.00 km UNKNOWN
U3360232 RS41 2023-11-28 13:11:31 47.6594 14.213 302 ° 7 km/h 1775 m -3.2 m/s 402.30 MHz Spital am Pyhrn (AT) 0.00 km UNKNOWN
V0521335 RS41 2023-11-28 01:11:56 47.9646 14.0704 41 ° 7 km/h 621 m -5.2 m/s 402.300 MHz Pettenbach (AT) 0.00 km UNKNOWN
V0521350 RS41 2023-11-27 13:25:38 47.2578 14.7375 94 ° 22 km/h 1765 m -4.9 m/s 402.300 MHz Spielberg bei Knittelfeld (AT) 0.00 km UNKNOWN
V0530453 RS41 2023-11-27 01:20:23 46.9166 14.3129 123 ° 37 km/h 1928 m -4.6 m/s 402.300 MHz Friesach (AT) 0.00 km UNKNOWN
U3350200 RS41 2023-11-26 01:02:21 47.0171 13.5167 141 ° 67 km/h 3005 m -3.9 m/s 402.30 MHz Gmünd (AT) 0.00 km UNKNOWN
V0530465 RS41 2023-11-25 13:04:38 47.1712 13.3227 132 ° 35 km/h 2282 m -8.2 m/s 402.300 MHz Grossarl (AT) 0.00 km UNKNOWN
V0521340 RS41 2023-11-25 01:26:27 47.1499 14.1902 94 ° 19 km/h 1862 m -2.8 m/s 402.300 MHz Murau (AT) 0.00 km UNKNOWN
V0521336 RS41-SGP 2023-11-24 12:48:58 47.3325 14.3209 119 ° 93 km/h 2539 m -14.4 m/s 402.30 MHz Oberwölz Stadt (AT) 0.00 km UNKNOWN
U3360390 RS41 2023-11-24 00:59:30 47.4033 14.1224 98 ° 74 km/h 2403 m -10.1 m/s 402.30 MHz Irdning (AT) 0.00 km UNKNOWN
U4044268 RS41 2023-11-23 13:12:24 47.1827 12.5306 168 ° 46 km/h 3462 m -5.7 m/s 402.300 MHz Uttendorf (AT) 0.00 km UNKNOWN
U4044259 RS41 2023-11-23 00:46:05 47.0308 11.2674 216 ° 37 km/h 3981 m -5.6 m/s 402.30 MHz Neustift im Stubaital (AT) 0.00 km UNKNOWN
V2431403 RS41 2023-11-22 13:00:52 46.6843 10.7886 194 ° 24 km/h 4461 m -3.9 m/s 402.30 MHz Merano (IT) 0.00 km UNKNOWN
V0521338 RS41 2023-11-22 01:24:50 47.2671 12.6391 193 ° 22 km/h 2770 m -3.8 m/s 402.300 MHz Niedernsill (AT) 0.00 km UNKNOWN
U4044307 RS41 2023-11-21 13:00:54 47.8424 13.3694 116 ° 15 km/h 1131 m -5.6 m/s 402.30 MHz Tiefgraben (AT) 0.00 km UNKNOWN
U4044274 RS41 2023-11-20 12:57:00 47.7353 15.1884 107 ° 46 km/h 1497 m -11.2 m/s 402.300 MHz Mariazell (AT) 0.00 km UNKNOWN
V0510845 RS41 2023-11-20 00:59:00 47.2518 15.295 189 ° 4 km/h 901 m -9.5 m/s 402.30 MHz Frohnleiten (AT) 0.00 km FOUND
U3360229 RS41 2023-11-19 13:24:11 47.192 15.8887 61 ° 4 km/h 505 m -5.3 m/s 402.30 MHz Kaindorf (AT) 0.00 km FOUND
V0510580 RS41 2023-11-19 00:34:47 47.1483 13.5615 127 ° 46 km/h 2330 m -4.3 m/s 402.30 MHz Sankt Michael im Lungau (AT) 0.00 km UNKNOWN
V0510417 RS41 2023-11-18 12:47:42 46.9023 13.4291 156 ° 17 km/h 2724 m -13.1 m/s 402.300 MHz Gmünd (AT) 0.00 km UNKNOWN
V0530332 RS41 2023-11-18 00:50:56 46.7778 13.3602 129 ° 61 km/h 2648 m -10.5 m/s 402.30 MHz Spittal an der Drau (AT) 0.00 km UNKNOWN
V0530354 RS41 2023-11-17 13:29:19 47.3879 13.8141 106 ° 37 km/h 2061 m -3.9 m/s 402.30 MHz Gröbming (AT) 0.00 km UNKNOWN
V0530454 RS41 2023-11-17 04:07:13 47.4738 16.8178 168 ° 20 km/h 240 m -2.2 m/s 402.30 MHz Bük (HU) 0.00 km UNKNOWN
V0510631Z RS41 2023-11-17 03:52:14 47.8 14.5992 102 ° 70 km/h 1635 m -9.9 m/s 404.70 MHz Weyer Markt (AT) 0.00 km UNKNOWN
V0510631 RS41 2023-11-16 23:58:39 48.3116 12.1226 86 ° 19 km/h 797 m -2.7 m/s 404.70 MHz Erding (DE) 0.00 km UNKNOWN
V0530336 RS41 2023-11-16 12:55:33 47.9691 14.088 235 ° 9 km/h 603 m -9.3 m/s 402.30 MHz Wartberg an der Krems (AT) 0.00 km UNKNOWN
V0530456 RS41 2023-11-16 01:25:53 47.0607 14.7833 112 ° 28 km/h 1992 m -3.1 m/s 402.30 MHz Obdach (AT) 0.00 km UNKNOWN
V0510917 RS41 2023-11-15 12:40:52 47.7603 13.706 107 ° 52 km/h 1480 m -15.5 m/s 402.30 MHz Ebensee (AT) 0.00 km UNKNOWN
V2431506 RS41 2023-11-15 01:23:14 47.5953 15.8817 78 ° 44 km/h 1291 m -7.5 m/s 402.30 MHz Kirchberg am Wechsel (AT) 0.00 km UNKNOWN
V0510821 RS41 2023-11-14 13:52:54 47.5635 16.5034 20 ° 13 km/h 362 m -2.8 m/s 402.300 MHz Oberpullendorf (AT) 0.00 km FOUND
V0510842 RS41 2023-11-14 01:03:51 47.3524 15.193 89 ° 37 km/h 1675 m -14.9 m/s 402.300 MHz Niklasdorf (AT) 0.00 km UNKNOWN
V0530338 RS41 2023-11-13 14:08:30 46.8181 15.8597 96 ° 4 km/h 340 m -2.4 m/s 402.30 MHz Straden (AT) 0.00 km FOUND
V0510420 RS41 2023-11-13 02:00:00 46.5785 15.5085 82 ° 41 km/h 675 m -2.8 m/s 402.30 MHz Selnica ob Dravi (SI) 0.00 km UNKNOWN
V0510411 RS41 2023-11-12 12:53:43 47.6166 13.9648 83 ° 11 km/h 2377 m -6.2 m/s 402.30 MHz Bad Aussee (AT) 0.00 km UNKNOWN
V0510416 RS41 2023-11-12 00:37:38 47.5153 14.0562 35 ° 7 km/h 1287 m -13.3 m/s 402.30 MHz Irdning (AT) 0.00 km UNKNOWN
V0510817 RS41 2023-11-11 13:26:41 47.6455 14.7224 79 ° 24 km/h 952 m -3.5 m/s 402.30 MHz Landl (AT) 0.00 km UNKNOWN
V0530464 RS41 2023-11-11 01:20:20 48.2789 14.2093 116 ° 13 km/h 419 m -4.3 m/s 402.300 MHz Pasching (AT) 0.00 km FOUND
V0510642 RS41 2023-11-10 12:53:27 48.5606 13.9585 108 ° 26 km/h 744 m -10.0 m/s 402.30 MHz Rohrbach (AT) 0.00 km UNKNOWN
V0510616 RS41 2023-11-09 00:47:52 47.8143 13.5747 2 ° 11 km/h 1611 m -9.4 m/s 402.300 MHz Bad Ischl (AT) 0.00 km UNKNOWN
V0511003 RS41 2023-11-08 13:11:14 47.5585 13.8098 121 ° 26 km/h 2245 m -4.1 m/s 402.30 MHz Bad Aussee (AT) 0.00 km UNKNOWN
V0510935 RS41 2023-11-08 01:07:47 48.178 13.8562 57 ° 26 km/h 445 m -4.5 m/s 402.30 MHz Pichl bei Wels (AT) 0.00 km UNKNOWN
V0530472 RS41 2023-11-07 13:10:57 48.6506 14.0985 63 ° 24 km/h 1116 m -5.5 m/s 402.300 MHz Haslach an der Mühl (AT) 0.00 km UNKNOWN
V0521469 RS41 2023-11-07 00:53:41 48.6576 13.9555 104 ° 37 km/h 983 m -5.3 m/s 402.300 MHz Ulrichsberg (AT) 0.00 km UNKNOWN
V0530470 RS41 2023-11-06 13:25:04 48.4646 14.7828 60 ° 22 km/h 892 m -4.7 m/s 402.30 MHz Unterweissenbach (AT) 0.00 km UNKNOWN
V2431399 RS41 2023-11-06 00:47:15 48.0662 14.121 81 ° 33 km/h 519 m -10.7 m/s 402.300 MHz Kremsmünster (AT) 0.00 km UNKNOWN
V2431393 RS41-SGP 2023-11-05 12:54:38 48.6741 14.5072 74 ° 65 km/h 1052 m -4.8 m/s 402.30 MHz Kaplice (CZ) 0.00 km UNKNOWN
V0530348 RS41 2023-11-05 02:01:30 48.7103 15.6513 5 ° 13 km/h 577 m -1.7 m/s 402.30 MHz Horn (AT) 0.00 km LOST
V0510626 RS41 2023-11-04 14:03:54 47.2742 15.4591 15 ° 31 km/h 1176 m -2.5 m/s 402.30 MHz Passail (AT) 0.00 km FOUND
V2431518 RS41 2023-11-04 01:32:31 48.1175 13.3743 20 ° 20 km/h 708 m -2.4 m/s 402.30 MHz Lohnsburg (AT) 0.00 km FOUND
V2431402 RS41 2023-11-03 12:53:56 48.688 12.5995 314 ° 15 km/h 3691 m -11.5 m/s 402.300 MHz Straubing (DE) 0.00 km FOUND
V0530347 RS41 2023-11-03 00:53:28 49.3567 13.1197 48 ° 17 km/h 704 m -5.6 m/s 402.300 MHz Kdyně (CZ) 0.00 km UNKNOWN
V2440028 RS41 2023-11-02 12:55:26 48.839 13.4952 18 ° 30 km/h 1432 m -12.2 m/s 402.300 MHz Passau (DE) 0.00 km UNKNOWN
V2431394 RS41 2023-11-02 00:45:23 48.5103 13.0407 133 ° 13 km/h 1120 m -7.0 m/s 402.30 MHz Braunau am Inn (AT) 0.00 km FOUND
V0510925 RS41 2023-11-01 12:54:29 48.5798 13.2231 326 ° 15 km/h 628 m -10.6 m/s 402.30 MHz Passau (DE) 0.00 km UNKNOWN
V0510172 RS41 2023-11-01 01:12:38 47.9371 13.9701 65 ° 39 km/h 764 m -4.3 m/s 402.30 MHz Kirchdorf (AT) 0.00 km UNKNOWN
U3350304 RS41-SGP 2023-10-31 14:08:20 48.9632 13.3649 108 ° 46 km/h 1233 m -1.8 m/s 402.300 MHz Vimperk (CZ) 0.00 km UNKNOWN
V0510918 RS41 2023-10-31 01:06:19 49.6867 12.8853 89 ° 57 km/h 866 m -6.3 m/s 404.700 MHz Stříbro (CZ) 0.00 km FOUND
V0530353 RS41 2023-10-30 14:44:26 49.2061 14.3358 345 ° 26 km/h 866 m -11.2 m/s 404.70 MHz Týn nad Vltavou (CZ) 0.00 km FOUND
V0530349 RS41 2023-10-28 01:10:20 48.6159 13.3465 72 ° 37 km/h 790 m -9.4 m/s 402.300 MHz Passau (DE) 0.00 km UNKNOWN
V0510627 RS41 2023-10-27 13:13:25 48.6999 13.5572 99 ° 56 km/h 1383 m -4.2 m/s 402.30 MHz Esternberg (AT) 0.00 km UNKNOWN
V0530337 RS41 2023-10-27 01:33:56 48.8244 14.4505 296 ° 17 km/h 1018 m -2.8 m/s 402.30 MHz Český Krumlov (CZ) 0.00 km UNKNOWN
V0510833 RS41 2023-10-26 13:31:02 47.8996 14.7907 68 ° 15 km/h 1028 m -4.2 m/s 402.300 MHz Waidhofen an der Ybbs (AT) 0.00 km UNKNOWN
V0510113 RS41 2023-10-26 02:11:31 48.3027 14.9475 114 ° 6 km/h 686 m -7.5 m/s 402.30 MHz Waldhausen im Strudengau (AT) 0.00 km UNKNOWN
U3634659 RS41 2023-10-25 13:35:59 48.4543 13.7994 301 ° 9 km/h 630 m -3.6 m/s 402.30 MHz Natternbach (AT) 0.00 km UNKNOWN
V0510401 RS41 2023-10-25 01:25:34 48.4663 13.8404 107 ° 20 km/h 697 m -4.9 m/s 402.30 MHz Altenfelden (AT) 0.00 km UNKNOWN
V0510916 RS41 2023-10-24 13:04:23 49.0367 13.8807 10 ° 39 km/h 1280 m -6.7 m/s 402.30 MHz Vimperk (CZ) 0.00 km FOUND
V0510843 RS41 2023-10-24 01:53:24 48.8876 15.1437 284 ° 19 km/h 667 m -3.9 m/s 402.30 MHz Heidenreichstein (AT) 0.00 km UNKNOWN
V0510915 RS41 2023-10-23 12:51:41 48.6233 14.0256 272 ° 11 km/h 958 m -13.5 m/s 402.30 MHz Haslach an der Mühl (AT) 0.00 km FOUND
V0530343 RS41-SGP 2023-10-23 00:53:30 48.5956 13.6456 242 ° 7 km/h 717 m -3.6 m/s 402.300 MHz Esternberg (AT) 0.00 km FOUND
V3641430 RS41-SGP 2023-10-22 13:31:00 48.6873 14.0756 76 ° 43 km/h 1062 m -4.3 m/s 402.300 MHz Ulrichsberg (AT) 0.00 km UNKNOWN
V3641409 RS41 2023-10-22 02:16:18 49.402 13.5446 111 ° 35 km/h 764 m -3.5 m/s 402.30 MHz Horažďovice (CZ) 0.00 km UNKNOWN
V3641412 RS41 2023-10-21 13:08:29 49.3026 13.0926 113 ° 4 km/h 805 m -6.7 m/s 402.300 MHz Kdyně (CZ) 0.00 km UNKNOWN
V3641419 RS41 2023-10-21 01:29:50 49.715 13.7841 147 ° 2 km/h 686 m -2.7 m/s 402.30 MHz Rokycany (CZ) 0.00 km UNKNOWN
V3641414 RS41 2023-10-20 14:37:32 49.9708 14.9978 21 ° 46 km/h 941 m -2.6 m/s 402.30 MHz Český Brod (CZ) 0.00 km UNKNOWN
V3641422 RS41 2023-10-20 01:22:23 48.5184 14.3602 329 ° 9 km/h 858 m -3.7 m/s 402.300 MHz Rainbach im Mühlkreis (AT) 0.00 km UNKNOWN
V3641447 RS41 2023-10-19 12:58:26 48.6037 13.2267 295 ° 7 km/h 631 m -3.2 m/s 402.30 MHz Passau (DE) 0.00 km UNKNOWN
V3650051 RS41-SGP 2023-10-19 00:57:11 48.184 13.2147 265 ° 11 km/h 534 m -8.8 m/s 402.300 MHz Mauerkirchen (AT) 0.00 km FOUND
V3641415 RS41 2023-10-18 13:24:07 48.074 13.7275 255 ° 22 km/h 545 m -4.8 m/s 402.30 MHz Schwanenstadt (AT) 0.00 km UNKNOWN
V3641420 RS41 2023-10-18 01:05:54 47.6826 13.6173 360 ° 9 km/h 1480 m -5.2 m/s 402.300 MHz Bad Ischl (AT) 0.00 km UNKNOWN
V3641405 RS41 2023-10-17 14:22:48 47.4739 15.0227 191 ° 6 km/h 1695 m -1.7 m/s 402.30 MHz Trofaiach (AT) 0.00 km UNKNOWN
V3641408 RS41 2023-10-17 02:09:31 47.8747 14.3208 314 ° 19 km/h 1173 m -1.9 m/s 402.30 MHz Molln (AT) 0.00 km UNKNOWN
V3730374 RS41 2023-10-16 13:04:57 48.1211 13.7913 263 ° 6 km/h 566 m -8.2 m/s 402.30 MHz Gaspoltshofen (AT) 0.00 km UNKNOWN
V3641433 RS41 2023-10-16 02:04:00 47.1648 15.117 297 ° 4 km/h 1012 m -2.4 m/s 402.30 MHz Köflach (AT) 0.00 km UNKNOWN
V3641406 RS41 2023-10-15 13:32:59 48.3859 15.3693 161 ° 28 km/h 813 m -2.8 m/s 402.300 MHz Pöggstall (AT) 0.00 km FOUND
V3641432 RS41 2023-10-15 01:21:33 48.6639 15.1963 102 ° 31 km/h 729 m -5.7 m/s 402.300 MHz Zwettl (AT) 0.00 km LOST
V3750888 RS41 2023-10-14 12:52:56 48.7716 14.1926 66 ° 43 km/h 1091 m -9.0 m/s 402.300 MHz Český Krumlov (CZ) 0.00 km UNKNOWN
V3751158 RS41 2023-10-14 00:44:26 48.7047 13.4336 354 ° 6 km/h 635 m -11.0 m/s 402.300 MHz Passau (DE) 0.00 km UNKNOWN
V3641416 RS41 2023-10-13 13:04:13 48.293 13.0671 293 ° 4 km/h 452 m -6.5 m/s 402.30 MHz Braunau am Inn (AT) 0.00 km FOUND
V3641443 RS41 2023-10-13 01:34:05 47.6165 14.1806 108 ° 46 km/h 2024 m -4.7 m/s 402.300 MHz Liezen (AT) 0.00 km UNKNOWN
V3641421 RS41 2023-10-12 13:34:40 48.0374 14.2718 246 ° 6 km/h 473 m -4.4 m/s 402.30 MHz Sierning (AT) 0.00 km UNKNOWN
V3641442 RS41 2023-10-12 01:06:07 48.1807 13.3923 65 ° 30 km/h 572 m -4.9 m/s 402.30 MHz Mettmach (AT) 0.00 km FOUND
V3750885 RS41 2023-10-11 13:02:00 48.1268 12.9996 133 ° 7 km/h 574 m -5.1 m/s 402.30 MHz Eggelsberg (AT) 0.00 km FOUND
V3751155 RS41 2023-10-11 00:41:37 47.7394 12.2947 89 ° 19 km/h 1374 m -5.7 m/s 402.30 MHz Kössen (AT) 0.00 km UNKNOWN
V3750883 RS41 2023-10-10 13:41:03 47.1017 13.1042 150 ° 7 km/h 1966 m -1.7 m/s 402.30 MHz Badgastein (AT) 0.00 km UNKNOWN
V3751153 RS41 2023-10-10 01:02:39 47.2835 13.0832 110 ° 26 km/h 1611 m -4.7 m/s 402.30 MHz Goldegg (AT) 0.00 km UNKNOWN
V3641417 RS41 2023-10-09 12:58:21 47.4618 13.3708 187 ° 30 km/h 1204 m -5.0 m/s 402.30 MHz Eben im Pongau (AT) 0.00 km UNKNOWN
V3751157 RS41 2023-10-09 02:32:52 47.1924 13.6622 112 ° 48 km/h 2338 m -6.6 m/s 404.70 MHz Mariapfarr (AT) 0.00 km UNKNOWN
V3751154 RS41 2023-10-09 00:24:19 47.3901 12.7444 109 ° 59 km/h 2368 m -3.5 m/s 402.30 MHz Leogang (AT) 0.00 km UNKNOWN
V3751156 RS41 2023-10-08 12:55:28 47.463 13.3768 14 ° 9 km/h 1099 m -8.6 m/s 402.30 MHz Eben im Pongau (AT) 0.00 km FOUND
V0521542 RS41-SGP 2023-10-08 01:42:29 47.245 13.4151 102 ° 43 km/h 2048 m -3.3 m/s 402.30 MHz Flachau (AT) 0.00 km UNKNOWN
V0530483 RS41 2023-10-07 13:08:38 47.7304 13.3433 104 ° 28 km/h 1544 m -8.7 m/s 402.300 MHz Sankt Gilgen (AT) 0.00 km UNKNOWN
V0530333 RS41 2023-10-07 01:30:48 47.3501 13.2796 64 ° 15 km/h 1426 m -3.7 m/s 402.30 MHz Wagrain (AT) 0.00 km UNKNOWN
V0510658 RS41 2023-10-06 13:03:30 47.4258 12.8858 121 ° 17 km/h 1776 m -5.8 m/s 402.30 MHz Saalfelden am Steinernen Meer (AT) 0.00 km UNKNOWN
V0530350 RS41 2023-10-06 02:16:35 46.8915 14.4205 144 ° 2 km/h 1064 m -2.6 m/s 402.30 MHz Althofen (AT) 0.00 km UNKNOWN
V0530344 RS41 2023-10-05 13:04:27 47.4774 13.4675 154 ° 20 km/h 1620 m -6.3 m/s 402.30 MHz Eben im Pongau (AT) 0.00 km UNKNOWN
V0510400 RS41 2023-10-05 01:41:39 47.4581 13.5438 336 ° 4 km/h 1801 m -2.6 m/s 402.300 MHz Radstadt (AT) 0.00 km UNKNOWN
V0510827 RS41 2023-10-04 12:52:49 47.9726 13.1845 122 ° 19 km/h 1331 m -11.6 m/s 402.30 MHz Köstendorf (AT) 0.00 km UNKNOWN
V0510419 RS41 2023-10-04 02:19:39 48.3072 15.1109 87 ° 13 km/h 837 m -4.1 m/s 402.300 MHz Pöggstall (AT) 0.00 km UNKNOWN
V0510660 RS41 2023-10-03 14:03:20 48.2743 13.7788 93 ° 19 km/h 517 m -3.2 m/s 402.300 MHz Kallham (AT) 0.00 km FOUND
U3350352 RS41-SGP 2023-10-03 01:35:56 47.7094 13.2354 60 ° 13 km/h 1544 m -3.4 m/s 402.300 MHz Faistenau (AT) 0.00 km UNKNOWN
U4044298 RS41 2023-10-02 12:57:19 47.7592 12.6532 3 ° 6 km/h 1638 m -9.4 m/s 402.30 MHz Grossgmain (AT) 0.00 km UNKNOWN
V0510412 RS41 2023-10-02 01:00:58 47.5977 12.6576 108 ° 11 km/h 1992 m -7.9 m/s 402.30 MHz Kirchdorf in Tirol (AT) 0.00 km UNKNOWN
V0521309 RS41 2023-10-01 14:11:06 47.0707 12.9693 19 ° 13 km/h 1834 m -3.5 m/s 402.30 MHz Badgastein (AT) 0.00 km UNKNOWN
V0510832 RS41-SGP 2023-10-01 01:11:31 47.4137 12.5834 109 ° 37 km/h 2969 m -6.0 m/s 402.30 MHz Fieberbrunn (AT) 0.00 km UNKNOWN
V0530334 RS41 2023-09-30 13:45:20 47.1697 12.9762 169 ° 9 km/h 1209 m -2.0 m/s 402.30 MHz Rauris (AT) 0.00 km FOUND
V0510413 RS41 2023-09-30 01:00:12 47.9256 12.6766 113 ° 17 km/h 694 m -6.8 m/s 402.30 MHz Traunreut (DE) 0.00 km UNKNOWN
V0510813 RS41 2023-09-29 12:52:04 48.0102 12.1526 96 ° 20 km/h 1089 m -10.5 m/s 402.30 MHz Rosenheim (DE) 0.00 km UNKNOWN
V0510927 RS41 2023-09-29 01:51:24 47.7329 11.9349 1 ° 6 km/h 998 m -2.4 m/s 402.30 MHz Rosenheim (DE) 0.00 km UNKNOWN
V0530351 RS41 2023-09-28 14:04:46 48.0103 12.0754 290 ° 11 km/h 776 m -2.5 m/s 404.70 MHz Rosenheim (DE) 0.00 km UNKNOWN
V0530345 RS41 2023-09-28 02:19:28 47.992 12.0311 62 ° 15 km/h 590 m -2.5 m/s 402.30 MHz Rosenheim (DE) 0.00 km FOUND
V0510822 RS41 2023-09-27 13:37:29 48.315 11.7773 281 ° 20 km/h 814 m -3.2 m/s 404.70 MHz Freising (DE) 0.00 km FOUND
V0510183 RS41 2023-09-27 01:02:31 48.3188 11.7991 142 ° 2 km/h 850 m -6.6 m/s 402.30 MHz Erding (DE) 0.00 km FOUND
V0530463 RS41 2023-09-26 12:50:14 48.2899 11.7076 283 ° 2 km/h 982 m -13.8 m/s 402.30 MHz Unterschleißheim (DE) 0.00 km UNKNOWN
V0511008 RS41 2023-09-26 02:32:34 48.0755 11.7335 292 ° 9 km/h 657 m -2.0 m/s 402.30 MHz Vaterstetten (DE) 0.00 km FOUND
V0510884 RS41 2023-09-25 13:23:30 47.956 11.4662 244 ° 11 km/h 781 m -4.9 m/s 402.30 MHz Starnberg (DE) 0.00 km UNKNOWN
V0510823 RS41 2023-09-25 00:54:05 47.4962 11.2579 324 ° 20 km/h 2020 m -13.8 m/s 402.300 MHz Garmisch-Partenkirchen (DE) 0.00 km UNKNOWN
V0530352 RS41 2023-09-24 13:41:13 47.0192 11.6138 220 ° 11 km/h 3143 m -3.8 m/s 402.30 MHz Steinach am Brenner (AT) 0.00 km UNKNOWN
V0510110 RS41 2023-09-24 02:27:08 48.094 12.5149 109 ° 13 km/h 647 m -1.6 m/s 402.300 MHz Waldkraiburg (DE) 0.00 km UNKNOWN
V0510803 RS41 2023-09-23 14:19:46 49.4119 12.9477 118 ° 7 km/h 549 m -2.2 m/s 402.30 MHz Domažlice (CZ) 0.00 km UNKNOWN
V0510614 RS41 2023-09-23 02:13:27 50.0693 13.4657 105 ° 39 km/h 1205 m -1.8 m/s 402.30 MHz Podbořany (CZ) 0.00 km UNKNOWN
V0510101 RS41 2023-09-22 13:57:02 50.0588 13.4335 73 ° 15 km/h 1161 m -2.6 m/s 402.30 MHz Podbořany (CZ) 0.00 km UNKNOWN
V0521312 RS41 2023-09-22 01:48:10 49.3145 13.0628 90 ° 22 km/h 649 m -3.4 m/s 402.30 MHz Kdyně (CZ) 0.00 km UNKNOWN
V0510625 RS41 2023-09-21 13:53:20 48.7673 12.4587 324 ° 9 km/h 1257 m -1.9 m/s 404.70 MHz Straubing (DE) 0.00 km UNKNOWN
V0510186 RS41 2023-09-21 01:53:13 48.7625 12.3473 319 ° 33 km/h 696 m -3.0 m/s 402.30 MHz Straubing (DE) 0.00 km UNKNOWN
V0510225 RS41 2023-09-20 14:00:12 48.5636 12.2234 295 ° 9 km/h 590 m -5.5 m/s 402.30 MHz Landshut (DE) 0.00 km UNKNOWN
V0510087 RS41 2023-09-20 01:45:12 48.2437 12.7673 38 ° 7 km/h 483 m -2.8 m/s 402.30 MHz Hochburg-Ach (AT) 0.00 km FOUND
V0521459 RS41 2023-09-19 14:22:10 47.9151 13.2627 110 ° 28 km/h 1052 m -1.7 m/s 402.30 MHz Neumarkt am Wallersee (AT) 0.00 km UNKNOWN
V0510890 RS41 2023-09-19 01:18:45 48.6786 12.7806 105 ° 44 km/h 1189 m -3.8 m/s 402.300 MHz Deggendorf (DE) 0.00 km FOUND
V0510893 RS41 2023-09-18 13:56:25 49.0177 13.0873 117 ° 28 km/h 1661 m -2.2 m/s 402.30 MHz Deggendorf (DE) 0.00 km UNKNOWN
V0510894 RS41 2023-09-18 01:30:10 48.4112 13.0117 309 ° 31 km/h 625 m -3.5 m/s 402.30 MHz Braunau am Inn (AT) 0.00 km FOUND
V0510179 RS41 2023-09-17 13:22:07 48.1698 13.0539 222 ° 9 km/h 482 m -5.4 m/s 402.30 MHz Neukirchen an der Enknach (AT) 0.00 km FOUND
V0521314 RS41 2023-09-17 01:11:02 48.3446 12.4752 310 ° 9 km/h 918 m -6.3 m/s 402.30 MHz Waldkraiburg (DE) 0.00 km FOUND
V0510228 RS41 2023-09-16 14:05:29 48.3478 12.4576 243 ° 11 km/h 1066 m -2.1 m/s 402.30 MHz Waldkraiburg (DE) 0.00 km FOUND
V0530260 RS41 2023-09-16 01:47:21 48.2977 12.2471 278 ° 11 km/h 900 m -2.9 m/s 402.300 MHz Waldkraiburg (DE) 0.00 km UNKNOWN
V0521307 RS41 2023-09-15 13:04:17 48.4252 11.8528 282 ° 20 km/h 1201 m -12.6 m/s 402.300 MHz Freising (DE) 0.00 km UNKNOWN
V0510209 RS41 2023-09-15 01:24:10 48.2986 11.8357 284 ° 28 km/h 939 m -3.3 m/s 402.30 MHz Erding (DE) 0.00 km FOUND
V0510907 RS41 2023-09-14 13:01:48 48.1696 11.7483 206 ° 9 km/h 877 m -6.1 m/s 402.30 MHz Vaterstetten (DE) 0.00 km UNKNOWN
V0510169 RS41 2023-09-14 01:13:09 48.2177 12.2537 111 ° 15 km/h 699 m -5.9 m/s 402.30 MHz Waldkraiburg (DE) 0.00 km FOUND
V0530295 RS41 2023-09-13 14:20:23 48.6845 13.094 104 ° 17 km/h 1346 m -2.1 m/s 402.30 MHz Deggendorf (DE) 0.00 km UNKNOWN
V0510171 RS41 2023-09-13 00:57:26 48.4241 12.3383 89 ° 28 km/h 744 m -7.8 m/s 402.300 MHz Landshut (DE) 0.00 km FOUND
V0510207 RS41 2023-09-12 13:40:52 48.5494 12.455 325 ° 7 km/h 1031 m -3.3 m/s 402.30 MHz Landshut (DE) 0.00 km FOUND
V0521311 RS41 2023-09-12 01:44:04 48.4214 12.3476 314 ° 7 km/h 739 m -3.3 m/s 402.30 MHz Landshut (DE) 0.00 km FOUND
V0510226 RS41 2023-09-11 12:56:45 48.3411 12.1061 50 ° 2 km/h 920 m -10.4 m/s 402.30 MHz Erding (DE) 0.00 km FOUND
V0510176 RS41 2023-09-11 00:54:58 48.2645 12.0257 236 ° 4 km/h 909 m -10.6 m/s 402.30 MHz Erding (DE) 0.00 km LOST
V0521467 RS41 2023-09-10 13:22:40 48.3052 11.9479 250 ° 7 km/h 905 m -5.9 m/s 402.30 MHz Erding (DE) 0.00 km FOUND
V0530259 RS41 2023-09-10 01:49:53 48.1619 11.7686 307 ° 9 km/h 655 m -2.6 m/s 402.30 MHz Vaterstetten (DE) 0.00 km FOUND
V0521310 RS41 2023-09-09 13:26:06 48.0828 11.5379 245 ° 9 km/h 637 m -3.0 m/s 402.30 MHz Unterhaching (DE) 0.00 km UNKNOWN
V0521538 RS41 2023-09-09 02:09:24 47.9353 11.4553 340 ° 4 km/h 874 m -2.5 m/s 402.300 MHz Geretsried (DE) 0.00 km UNKNOWN
V0510846 RS41 2023-09-08 13:43:12 47.9584 11.2136 357 ° 2 km/h 1440 m -4.0 m/s 402.30 MHz Starnberg (DE) 0.00 km LOST
V0510224 RS41 2023-09-08 01:16:35 47.9222 11.1849 85 ° 13 km/h 1056 m -4.1 m/s 402.30 MHz Weilheim in Oberbayern (DE) 0.00 km FOUND
V0530341 RS41 2023-09-07 14:23:27 47.938 10.9285 219 ° 13 km/h 1219 m -2.0 m/s 402.300 MHz Landsberg am Lech (DE) 0.00 km UNKNOWN
V0530342 RS41 2023-09-07 01:06:00 48.0722 11.1166 295 ° 22 km/h 1097 m -3.2 m/s 402.30 MHz Fürstenfeldbruck (DE) 0.00 km UNKNOWN
V0510227 RS41 2023-09-06 13:26:51 47.9911 10.936 258 ° 20 km/h 1529 m -5.1 m/s 402.30 MHz Landsberg am Lech (DE) 0.00 km FOUND
V0510936 RS41 2023-09-06 01:27:09 47.8291 10.9415 254 ° 24 km/h 1993 m -3.9 m/s 402.30 MHz Weilheim in Oberbayern (DE) 0.00 km UNKNOWN
V0530282 RS41 2023-09-05 13:37:50 47.8425 10.747 272 ° 17 km/h 1390 m -4.0 m/s 402.300 MHz Kaufbeuren (DE) 0.00 km LOST
V0510404 RS41 2023-09-05 01:00:28 47.8263 10.8447 230 ° 63 km/h 4642 m -11.7 m/s 402.300 MHz Kaufbeuren (DE) 0.00 km UNKNOWN
V0530469 RS41 2023-09-04 13:55:48 47.4257 10.4197 294 ° 15 km/h 1936 m -4.9 m/s 404.700 MHz Sonthofen (DE) 0.00 km UNKNOWN
U3634209 RS41 2023-09-04 01:55:54 47.0985 11.0315 207 ° 46 km/h 3841 m -2.8 m/s 404.700 MHz Umhausen (AT) 0.00 km UNKNOWN
V0521308 RS41 2023-09-03 13:10:39 47.4317 11.1863 94 ° 26 km/h 2282 m -2.6 m/s 402.300 MHz Leutasch (AT) 0.00 km UNKNOWN
V0521306 RS41 2023-09-03 01:45:00 47.6118 12.5142 80 ° 11 km/h 1616 m -4.2 m/s 402.30 MHz Kirchdorf in Tirol (AT) 0.00 km UNKNOWN
V0530474 RS41 2023-09-02 12:54:36 48.167 12.1746 264 ° 9 km/h 707 m -3.6 m/s 402.300 MHz Waldkraiburg (DE) 0.00 km FOUND
V0510620 RS41 2023-09-02 01:16:02 48.2417 12.6493 63 ° 9 km/h 533 m -3.2 m/s 402.300 MHz Waldkraiburg (DE) 0.00 km FOUND
U3370048 RS41 2023-09-01 13:12:16 48.332 12.8167 104 ° 13 km/h 811 m -4.4 m/s 402.300 MHz Braunau am Inn (AT) 0.00 km FOUND
U3460801 RS41 2023-09-01 02:16:59 47.9443 13.7657 116 ° 6 km/h 622 m -1.9 m/s 402.30 MHz Pinsdorf (AT) 0.00 km UNKNOWN
V0530482 RS41 2023-08-31 13:30:44 48.1972 13.0266 83 ° 17 km/h 472 m -2.7 m/s 402.30 MHz Neukirchen an der Enknach (AT) 0.00 km FOUND
V0510100 RS41 2023-08-31 01:07:51 48.4382 12.3276 93 ° 41 km/h 715 m -5.5 m/s 402.300 MHz Landshut (DE) 0.00 km FOUND
V0510891 RS41 2023-08-30 13:16:04 48.6759 11.883 82 ° 9 km/h 984 m -3.1 m/s 402.30 MHz Landshut (DE) 0.00 km UNKNOWN
U4044275 RS41 2023-08-30 01:42:26 48.478 11.7197 103 ° 17 km/h 596 m -3.0 m/s 402.30 MHz Freising (DE) 0.00 km UNKNOWN
V0510109 RS41 2023-08-29 12:41:47 48.6333 11.2628 193 ° 24 km/h 2412 m -6.2 m/s 402.30 MHz Neuburg an der Donau (DE) 0.00 km FOUND
U3360414 RS41 2023-08-29 02:21:55 49.0335 10.559 178 ° 31 km/h 674 m -2.1 m/s 402.30 MHz Ansbach (DE) 0.00 km FOUND
U3370081 RS41 2023-08-28 13:48:11 49.5718 11.509 227 ° 28 km/h 1000 m -2.8 m/s 402.300 MHz Lauf an der Pegnitz (DE) 0.00 km FOUND
V0510192 RS41 2023-08-27 14:06:44 49.5844 13.33 41 ° 9 km/h 445 m -2.1 m/s 402.30 MHz Přeštice (CZ) 0.00 km FOUND
U3634200 RS41 2023-08-27 01:40:18 49.2475 13.1799 6 ° 19 km/h 865 m -4.2 m/s 402.30 MHz Klatovy (CZ) 0.00 km UNKNOWN
V0510177 RS41 2023-08-26 12:17:48 48.9778 12.8038 263 ° 2 km/h 1052 m -5.2 m/s 402.30 MHz Deggendorf (DE) 0.00 km UNKNOWN
U3824414 RS41 2023-08-26 02:08:35 49.0626 13.1926 60 ° 35 km/h 1340 m -2.4 m/s 402.300 MHz Deggendorf (DE) 0.00 km UNKNOWN
U3634201 RS41 2023-08-25 13:22:59 48.6686 12.8209 112 ° 30 km/h 1293 m -5.1 m/s 402.300 MHz Deggendorf (DE) 0.00 km FOUND
U3370047 RS41 2023-08-25 03:00:39 48.1076 14.2797 277 ° 2 km/h 436 m -6.4 m/s 402.30 MHz Sankt Marien (AT) 0.00 km UNKNOWN
U3824288 RS41 2023-08-25 02:15:43 48.2626 12.941 14 ° 17 km/h 544 m -3.2 m/s 404.700 MHz Braunau am Inn (AT) 0.00 km UNKNOWN
U3634206 RS41 2023-08-24 13:08:48 48.0549 12.5502 273 ° 13 km/h 956 m -4.6 m/s 402.30 MHz Traunreut (DE) 0.00 km UNKNOWN
U3634210 RS41 2023-08-24 01:10:56 47.875 12.5029 357 ° 22 km/h 684 m -5.0 m/s 402.30 MHz Traunreut (DE) 0.00 km UNKNOWN
U4044276 RS41 2023-08-23 13:49:32 47.9604 12.6539 173 ° 13 km/h 722 m -3.4 m/s 402.30 MHz Traunreut (DE) 0.00 km UNKNOWN
U4044265 RS41 2023-08-23 02:10:21 48.0203 12.8697 188 ° 4 km/h 615 m -1.6 m/s 402.30 MHz Ostermiething (AT) 0.00 km UNKNOWN
U3470014 RS41 2023-08-22 13:08:34 48.2132 12.3381 127 ° 20 km/h 721 m -5.6 m/s 402.30 MHz Waldkraiburg (DE) 0.00 km FOUND
U3370046 RS41 2023-08-22 01:39:08 48.06 12.237 65 ° 7 km/h 627 m -3.2 m/s 402.30 MHz Waldkraiburg (DE) 0.00 km UNKNOWN
U4044319 RS41 2023-08-21 13:35:29 48.0978 12.1916 204 ° 6 km/h 543 m -3.3 m/s 402.30 MHz Waldkraiburg (DE) 0.00 km FOUND
U3360603 RS41 2023-08-21 02:22:21 47.6581 11.9996 9 ° 11 km/h 1394 m -1.9 m/s 402.30 MHz Kufstein (AT) 0.00 km UNKNOWN
U3370082 RS41 2023-08-20 13:48:37 47.6824 11.8653 177 ° 6 km/h 1476 m -2.8 m/s 402.30 MHz Achenkirch (AT) 0.00 km UNKNOWN
U3634601 RS41 2023-08-20 01:55:59 47.655 11.8485 79 ° 7 km/h 1717 m -2.1 m/s 402.30 MHz Achenkirch (AT) 0.00 km UNKNOWN
U3370045 RS41 2023-08-19 13:39:08 47.8247 11.5071 104 ° 9 km/h 790 m -3.7 m/s 402.300 MHz Geretsried (DE) 0.00 km FOUND
U3370043 RS41 2023-08-19 01:54:56 47.8136 11.3994 7 ° 11 km/h 763 m -3.1 m/s 402.30 MHz Geretsried (DE) 0.00 km FOUND
U4044273 RS41 2023-08-18 13:17:40 48.3285 11.4791 306 ° 7 km/h 1096 m -4.2 m/s 402.300 MHz Dachau (DE) 0.00 km UNKNOWN
V0521353 RS41 2023-08-18 01:07:04 48.4719 11.3869 23 ° 11 km/h 1488 m -7.7 m/s 402.30 MHz Pfaffenhofen an der Ilm (DE) 0.00 km UNKNOWN
V0510602 RS41 2023-08-17 13:11:15 48.5898 11.519 282 ° 6 km/h 1440 m -4.1 m/s 402.30 MHz Pfaffenhofen an der Ilm (DE) 0.00 km FOUND
U3360606 RS41 2023-08-17 01:19:53 48.4562 11.6212 314 ° 15 km/h 1308 m -4.4 m/s 402.30 MHz Freising (DE) 0.00 km FOUND
V0510199 RS41 2023-08-16 13:13:43 48.4392 11.6493 279 ° 19 km/h 1041 m -3.6 m/s 404.70 MHz Freising (DE) 0.00 km FOUND
V0510622 RS41 2023-08-16 01:19:00 48.4695 11.5595 208 ° 6 km/h 1400 m -4.4 m/s 402.30 MHz Pfaffenhofen an der Ilm (DE) 0.00 km FOUND
V0510193 RS41 2023-08-15 13:10:29 48.7456 11.5802 153 ° 13 km/h 2022 m -6.5 m/s 402.30 MHz Ingolstadt (DE) 0.00 km FOUND
V0510178 RS41 2023-08-15 01:31:32 48.7116 11.7808 40 ° 7 km/h 1251 m -4.0 m/s 402.30 MHz Ingolstadt (DE) 0.00 km UNKNOWN
V0510194 RS41 2023-08-14 14:01:44 48.9203 12.1219 348 ° 11 km/h 955 m -2.3 m/s 402.300 MHz Regensburg (DE) 0.00 km FOUND
V0521313 RS41 2023-08-14 01:36:30 48.5862 12.0804 355 ° 9 km/h 579 m -3.6 m/s 402.30 MHz Landshut (DE) 0.00 km UNKNOWN
V0510926 RS41 2023-08-13 14:14:59 48.5252 12.6405 266 ° 11 km/h 1261 m -1.9 m/s 402.30 MHz Landshut (DE) 0.00 km LOST
V0521352 RS41 2023-08-13 01:55:56 48.4326 12.3729 133 ° 15 km/h 834 m -2.5 m/s 402.30 MHz Landshut (DE) 0.00 km FOUND
V0521349 RS41 2023-08-12 13:37:50 48.6136 12.2141 22 ° 15 km/h 760 m -4.1 m/s 402.300 MHz Landshut (DE) 0.00 km UNKNOWN
V0510650 RS41 2023-08-12 01:30:51 48.0148 11.7315 324 ° 11 km/h 745 m -3.3 m/s 402.300 MHz Unterhaching (DE) 0.00 km FOUND
V0521464 RS41 2023-08-11 13:27:48 47.7911 11.7176 129 ° 4 km/h 1546 m -5.6 m/s 402.30 MHz Geretsried (DE) 0.00 km UNKNOWN
V0521462 RS41 2023-08-11 03:58:21 47.4732 11.2022 108 ° 19 km/h 2087 m -12.0 m/s 402.30 MHz Garmisch-Partenkirchen (DE) 0.00 km UNKNOWN
V0510195 RS41 2023-07-31 13:26:36 47.6458 13.0226 83 ° 9 km/h 1580 m -3.5 m/s 402.30 MHz Hallein (AT) 0.00 km UNKNOWN
V0521537 RS41 2023-07-31 02:07:21 47.8787 13.2995 92 ° 11 km/h 967 m -2.3 m/s 402.30 MHz Mondsee (AT) 0.00 km UNKNOWN
V0510200 RS41 2023-07-30 13:36:34 48.3066 12.9373 116 ° 28 km/h 562 m -3.6 m/s 402.300 MHz Braunau am Inn (AT) 0.00 km FOUND
V0510628 RS41 2023-07-30 01:24:54 48.6399 13.5327 84 ° 13 km/h 675 m -3.4 m/s 402.30 MHz Esternberg (AT) 0.00 km NEED ATTENTION
V0510185 RS41 2023-07-29 13:30:27 48.3672 13.192 85 ° 9 km/h 536 m -3.9 m/s 402.30 MHz Altheim (AT) 0.00 km UNKNOWN
V0510997 RS41 2023-07-29 01:31:05 48.1858 12.674 70 ° 26 km/h 522 m -3.0 m/s 402.30 MHz Hochburg-Ach (AT) 0.00 km FOUND
V0510479 RS41 2023-07-28 14:14:57 48.3438 13.6409 143 ° 24 km/h 551 m -1.9 m/s 402.300 MHz Raab (AT) 0.00 km UNKNOWN
V0510476 RS41 2023-07-28 01:59:17 48.2959 13.4737 91 ° 20 km/h 539 m -2.0 m/s 402.30 MHz Aurolzmünster (AT) 0.00 km UNKNOWN
V0510613 RS41 2023-07-27 12:57:15 47.7876 12.6929 60 ° 9 km/h 1551 m -6.8 m/s 402.300 MHz Grossgmain (AT) 0.00 km UNKNOWN
V0510561 RS41 2023-07-27 01:45:59 46.9176 13.283 178 ° 6 km/h 1994 m -2.2 m/s 402.30 MHz Obervellach (AT) 0.00 km UNKNOWN
V0510617 RS41 2023-07-26 13:04:29 48.1972 12.2843 99 ° 61 km/h 843 m -10.9 m/s 402.30 MHz Waldkraiburg (DE) 0.00 km FOUND
V0510630 RS41 2023-07-26 01:53:49 48.6642 12.7617 140 ° 48 km/h 991 m -2.8 m/s 402.30 MHz Deggendorf (DE) 0.00 km FOUND
V0510478 RS41 2023-07-25 13:52:28 48.9394 12.9386 78 ° 28 km/h 1241 m -1.6 m/s 402.30 MHz Deggendorf (DE) 0.00 km UNKNOWN
V0510190 RS41 2023-07-25 00:55:39 48.7384 12.5442 78 ° 54 km/h 2174 m -17.2 m/s 402.300 MHz Straubing (DE) 0.00 km FOUND
V0510639 RS41 2023-07-24 12:57:30 48.7077 12.6996 90 ° 41 km/h 1606 m -8.7 m/s 402.30 MHz Straubing (DE) 0.00 km UNKNOWN
U3370044 RS41 2023-07-24 01:02:26 48.4171 12.5653 0 ° 28 km/h 986 m -6.7 m/s 402.30 MHz Waldkraiburg (DE) 0.00 km FOUND
U3450994 RS41 2023-07-23 13:22:07 48.3443 12.8294 61 ° 13 km/h 1106 m -5.4 m/s 402.300 MHz Braunau am Inn (AT) 0.00 km FOUND
U3634203 RS41 2023-07-23 01:03:37 48.2295 12.4954 37 ° 28 km/h 685 m -6.6 m/s 402.30 MHz Waldkraiburg (DE) 0.00 km UNKNOWN
U3350221 RS41 2023-07-22 13:58:25 48.6538 13.3088 56 ° 17 km/h 836 m -3.7 m/s 402.30 MHz Passau (DE) 0.00 km UNKNOWN
U3824410 RS41 2023-07-22 01:30:54 48.6295 13.3887 126 ° 33 km/h 927 m -4.1 m/s 402.30 MHz Passau (DE) 0.00 km UNKNOWN
U3360412 RS41 2023-07-21 13:19:17 48.8773 13.108 45 ° 19 km/h 1220 m -4.6 m/s 402.300 MHz Deggendorf (DE) 0.00 km UNKNOWN
U3350426 RS41 2023-07-21 01:04:13 48.4895 12.7023 100 ° 50 km/h 2994 m -9.8 m/s 402.300 MHz Braunau am Inn (AT) 0.00 km FOUND
U3350250 RS41 2023-07-20 13:56:07 48.2242 13.85 96 ° 30 km/h 466 m -3.9 m/s 402.30 MHz Schlüsslberg (AT) 0.00 km UNKNOWN
U3714485 RS41 2023-07-20 00:56:36 48.391 12.9891 94 ° 78 km/h 4234 m -7.7 m/s 402.30 MHz Braunau am Inn (AT) 0.00 km FOUND
U3824285 RS41 2023-07-19 13:26:19 48.3339 13.5141 92 ° 46 km/h 556 m -4.1 m/s 402.30 MHz Andorf (AT) 0.00 km UNKNOWN
U2110002 RS41 2023-07-19 02:17:00 48.2726 14.4815 100 ° 15 km/h 449 m -3.1 m/s 402.30 MHz Langenstein (AT) 0.00 km LOST
U3824219 RS41 2023-07-18 13:39:48 48.2892 14.1355 109 ° 11 km/h 335 m -3.8 m/s 402.300 MHz Alkoven (AT) 0.00 km UNKNOWN
U3370065 RS41 2023-07-18 00:58:00 48.208 13.2317 115 ° 9 km/h 538 m -9.9 m/s 402.300 MHz Altheim (AT) 0.00 km NEED ATTENTION
U3714501 RS41 2023-07-17 13:08:58 48.6367 12.9677 74 ° 87 km/h 3724 m -9.8 m/s 402.30 MHz Deggendorf (DE) 0.00 km UNKNOWN
U3824244 RS41 2023-07-17 07:42:06 48.9854 13.2661 72 ° 24 km/h 1377 m -2.3 m/s 402.30 MHz Deggendorf (DE) 0.00 km UNKNOWN
U3824237 RS41 2023-07-17 01:03:41 48.7264 12.471 101 ° 11 km/h 1426 m -11.7 m/s 402.30 MHz Straubing (DE) 0.00 km UNKNOWN
V2431400 RS41 2023-07-16 13:06:03 48.8942 12.6685 145 ° 7 km/h 773 m -6.6 m/s 402.30 MHz Straubing (DE) 0.00 km UNKNOWN
V2420367 RS41 2023-07-16 01:48:13 48.941 12.8955 138 ° 26 km/h 1422 m -5.4 m/s 402.30 MHz Deggendorf (DE) 0.00 km NEED ATTENTION
V2410806 RS41 2023-07-15 13:20:35 48.6822 12.5155 343 ° 17 km/h 1428 m -4.6 m/s 402.30 MHz Straubing (DE) 0.00 km FOUND
V2431503 RS41 2023-07-15 00:56:09 48.2954 12.4414 66 ° 17 km/h 993 m -6.7 m/s 402.30 MHz Waldkraiburg (DE) 0.00 km FOUND
V2410814 RS41 2023-07-14 13:32:16 48.4096 12.7929 353 ° 15 km/h 696 m -4.2 m/s 402.300 MHz Braunau am Inn (AT) 0.00 km FOUND
V2431505 RS41 2023-07-14 01:19:13 48.1758 12.6181 31 ° 6 km/h 542 m -4.5 m/s 402.300 MHz Waldkraiburg (DE) 0.00 km FOUND
V2410812 RS41 2023-07-13 14:00:33 48.8568 13.1098 96 ° 28 km/h 1332 m -4.9 m/s 402.30 MHz Deggendorf (DE) 0.00 km UNKNOWN
V2411073 RS41 2023-07-13 01:05:50 48.7753 12.3346 89 ° 43 km/h 919 m -8.0 m/s 402.30 MHz Straubing (DE) 0.00 km UNKNOWN
V2431516 RS41 2023-07-12 14:02:28 48.8762 13.6346 92 ° 20 km/h 1522 m -2.7 m/s 402.30 MHz Vimperk (CZ) 0.00 km UNKNOWN
V2431515 RS41 2023-07-12 08:03:21 48.5074 13.4796 124 ° 6 km/h 535 m -2.9 m/s 402.30 MHz Schardenberg (AT) 0.00 km UNKNOWN
V2410816 RS41 2023-07-12 04:32:04 49.4894 14.9015 73 ° 35 km/h 1190 m -3.8 m/s 402.300 MHz Sezimovo Ústí (CZ) 0.00 km UNKNOWN
V2410811 RS41 2023-07-11 19:52:30 48.2615 12.8449 297 ° 28 km/h 558 m -2.7 m/s 404.700 MHz Braunau am Inn (AT) 0.00 km LOST
V2410010 RS41 2023-07-11 13:37:58 48.2294 12.7285 153 ° 13 km/h 523 m -3.5 m/s 402.30 MHz Hochburg-Ach (AT) 0.00 km FOUND
V2410618 RS41 2023-07-11 06:55:38 48.0427 12.2597 289 ° 9 km/h 821 m -6.2 m/s 402.30 MHz Waldkraiburg (DE) 0.00 km UNKNOWN
V2410815 RS41 2023-07-11 01:15:43 47.9133 12.4602 70 ° 11 km/h 699 m -5.1 m/s 402.30 MHz Traunreut (DE) 0.00 km UNKNOWN
V2410617 RS41 2023-07-10 19:16:34 47.8181 12.8692 110 ° 9 km/h 1298 m -3.6 m/s 402.30 MHz Viehausen (AT) 0.00 km UNKNOWN
V2410813 RS41 2023-07-10 13:29:42 48.0567 12.7751 73 ° 26 km/h 610 m -4.1 m/s 402.30 MHz Ostermiething (AT) 0.00 km FOUND
V2350510 RS41 2023-07-10 07:09:30 48.1225 12.1777 41 ° 24 km/h 774 m -5.9 m/s 402.30 MHz Waldkraiburg (DE) 0.00 km FOUND
V2411477 RS41 2023-07-10 01:31:40 47.9915 12.1648 40 ° 9 km/h 518 m -3.9 m/s 402.30 MHz Rosenheim (DE) 0.00 km UNKNOWN
V2431523 RS41 2023-07-09 18:56:37 48.1064 11.9076 291 ° 9 km/h 689 m -6.4 m/s 402.30 MHz Vaterstetten (DE) 0.00 km UNKNOWN
V2431427 RS41 2023-07-09 14:02:17 48.043 12.4399 296 ° 15 km/h 821 m -2.2 m/s 402.30 MHz Traunreut (DE) 0.00 km UNKNOWN
V2350896 RS41 2023-07-09 01:32:39 47.9297 12.3706 71 ° 9 km/h 892 m -3.5 m/s 402.30 MHz Traunreut (DE) 0.00 km UNKNOWN
V2410615 RS41 2023-07-08 13:22:14 48.1313 12.3367 141 ° 11 km/h 621 m -1.7 m/s 402.30 MHz Waldkraiburg (DE) 0.00 km FOUND
V2410898 RS41 2023-07-08 01:50:22 48.4312 12.3794 301 ° 48 km/h 840 m -2.4 m/s 402.30 MHz Landshut (DE) 0.00 km UNKNOWN
V2431514 RS41 2023-07-07 12:58:56 48.2282 11.9963 225 ° 6 km/h 1262 m -5.5 m/s 402.30 MHz Erding (DE) 0.00 km FOUND
V2431502 RS41 2023-07-07 01:10:00 48.3537 11.7238 284 ° 6 km/h 1042 m -6.1 m/s 402.30 MHz Freising (DE) 0.00 km FOUND
V2440086 RS41 2023-07-06 13:16:23 48.592 12.2338 46 ° 6 km/h 744 m -7.6 m/s 402.30 MHz Landshut (DE) 0.00 km UNKNOWN
V2341700 RS41 2023-07-06 00:48:55 48.5868 12.241 170 ° 20 km/h 761 m -17.5 m/s 402.30 MHz Landshut (DE) 0.00 km UNKNOWN
V1940728 RS41 2023-07-05 19:04:26 48.6037 12.3046 64 ° 17 km/h 863 m -7.5 m/s 402.30 MHz Landshut (DE) 0.00 km UNKNOWN
U4044456 RS41 2023-07-05 14:05:28 49.014 13.2687 109 ° 37 km/h 1328 m -1.7 m/s 402.30 MHz Deggendorf (DE) 0.00 km UNKNOWN
U4044451 RS41 2023-07-05 07:33:54 48.7877 12.4226 56 ° 61 km/h 1180 m -3.8 m/s 402.300 MHz Straubing (DE) 0.00 km UNKNOWN
U3824240 RS41 2023-07-05 01:39:20 48.7768 12.454 349 ° 22 km/h 906 m -3.3 m/s 402.30 MHz Straubing (DE) 0.00 km UNKNOWN
U3824238 RS41 2023-07-04 19:27:53 48.6158 12.2337 22 ° 15 km/h 727 m -4.1 m/s 402.30 MHz Landshut (DE) 0.00 km UNKNOWN
U3714483 RS41 2023-07-04 13:07:31 48.5779 12.3445 57 ° 26 km/h 1569 m -9.9 m/s 402.30 MHz Landshut (DE) 0.00 km FOUND
U3350204 RS41 2023-07-04 08:43:08 48.7676 13.39 90 ° 33 km/h 987 m -2.4 m/s 402.300 MHz Passau (DE) 0.00 km UNKNOWN
U4044393 RS41 2023-07-04 01:03:57 48.5401 12.3871 79 ° 31 km/h 781 m -6.2 m/s 402.30 MHz Landshut (DE) 0.00 km UNKNOWN
U4044380 RS41 2023-07-03 12:49:59 48.605 12.5537 85 ° 35 km/h 1515 m -9.9 m/s 402.30 MHz Straubing (DE) 0.00 km FOUND
U4044407 RS41 2023-07-03 01:37:39 48.4672 13.122 123 ° 17 km/h 576 m -2.9 m/s 402.300 MHz Schärding (AT) 0.00 km FOUND
U4044293 RS41 2023-07-02 13:38:20 47.9893 12.8091 85 ° 22 km/h 719 m -3.0 m/s 402.30 MHz Sankt Georgen bei Salzburg (AT) 0.00 km UNKNOWN
U4044405 RS41 2023-07-02 01:40:14 47.6059 12.2186 99 ° 19 km/h 1734 m -4.4 m/s 402.30 MHz Ebbs (AT) 0.00 km UNKNOWN
U3350401 RS41 2023-07-01 13:05:38 48.3118 11.8573 50 ° 26 km/h 696 m -6.7 m/s 402.30 MHz Erding (DE) 0.00 km FOUND
U3350174 RS41 2023-07-01 01:48:45 48.306 11.9214 115 ° 22 km/h 626 m -2.4 m/s 402.30 MHz Erding (DE) 0.00 km FOUND
U3350230 RS41 2023-06-30 13:15:53 48.456 12.0906 46 ° 11 km/h 939 m -5.5 m/s 402.30 MHz Landshut (DE) 0.00 km UNKNOWN
U4044334 RS41 2023-06-30 02:05:21 48.5813 12.3539 132 ° 11 km/h 728 m -1.9 m/s 402.30 MHz Landshut (DE) 0.00 km FOUND
U3350167 RS41 2023-06-29 13:05:35 48.1356 12.0348 354 ° 11 km/h 740 m -5.0 m/s 402.30 MHz Vaterstetten (DE) 0.00 km UNKNOWN
U3350166 RS41 2023-06-29 01:03:31 47.7233 11.7826 19 ° 6 km/h 1335 m -5.8 m/s 402.30 MHz Achenkirch (AT) 0.00 km UNKNOWN
U3350229 RS41 2023-06-28 14:17:42 47.4086 11.9972 105 ° 15 km/h 1765 m -3.7 m/s 404.70 MHz Alpbach (AT) 0.00 km UNKNOWN
U3360523 RS41 2023-06-28 11:44:13 47.6263 12.0295 103 ° 11 km/h 1803 m -9.9 m/s 402.30 MHz Kufstein (AT) 0.00 km UNKNOWN
U3350213 RS41 2023-06-28 01:06:49 47.6387 12.6188 155 ° 17 km/h 1829 m -6.4 m/s 402.30 MHz Kirchdorf in Tirol (AT) 0.00 km UNKNOWN
U3350210 RS41 2023-06-27 13:55:01 47.645 13.1551 127 ° 26 km/h 1626 m -2.5 m/s 404.70 MHz Kuchl (AT) 0.00 km FOUND
U4044286 RS41 2023-06-27 01:07:08 48.1006 12.8196 89 ° 28 km/h 572 m -5.7 m/s 402.30 MHz Hochburg-Ach (AT) 0.00 km NEED ATTENTION
U4044279 RS41 2023-06-26 19:33:32 48.1011 12.2226 146 ° 19 km/h 601 m -4.4 m/s 402.30 MHz Waldkraiburg (DE) 0.00 km FOUND
U4044332 RS41 2023-06-26 13:26:21 48.0149 12.0139 90 ° 35 km/h 854 m -3.5 m/s 402.30 MHz Rosenheim (DE) 0.00 km FOUND
U4044333 RS41 2023-06-26 01:04:51 48.0268 11.5849 18 ° 13 km/h 669 m -7.1 m/s 402.30 MHz Unterhaching (DE) 0.00 km UNKNOWN
U4044283 RS41 2023-06-25 13:28:37 47.959 11.5689 249 ° 15 km/h 783 m -4.7 m/s 402.30 MHz Unterhaching (DE) 0.00 km UNKNOWN
U3350231 RS41 2023-06-25 00:58:42 47.9558 11.3872 210 ° 20 km/h 3388 m -12.0 m/s 402.30 MHz Starnberg (DE) 0.00 km FOUND
U4044335 RS41 2023-06-24 13:34:28 47.5967 11.3225 273 ° 6 km/h 987 m -4.3 m/s 402.30 MHz Garmisch-Partenkirchen (DE) 0.00 km UNKNOWN
U3634187 RS41 2023-06-24 01:46:05 47.4312 11.317 164 ° 15 km/h 2359 m -1.7 m/s 402.30 MHz Leutasch (AT) 0.00 km UNKNOWN
U4044284 RS41 2023-06-23 13:08:40 48.3518 11.7372 112 ° 39 km/h 1063 m -6.4 m/s 402.30 MHz Freising (DE) 0.00 km UNKNOWN
U4044288 RS41 2023-06-23 01:19:19 48.7209 11.7989 68 ° 39 km/h 654 m -5.0 m/s 402.300 MHz Ingolstadt (DE) 0.00 km NEED ATTENTION
U4044290 RS41 2023-06-22 19:31:41 48.5386 11.7031 24 ° 44 km/h 1031 m -4.9 m/s 402.300 MHz Pfaffenhofen an der Ilm (DE) 0.00 km UNKNOWN
U3350168 RS41 2023-06-22 12:51:54 48.4969 11.9508 49 ° 24 km/h 3596 m -6.9 m/s 402.30 MHz Landshut (DE) 0.00 km UNKNOWN
U4044282 RS41 2023-06-22 07:21:08 48.4583 12.1594 272 ° 26 km/h 643 m -4.7 m/s 402.30 MHz Landshut (DE) 0.00 km UNKNOWN
U3714487 RS41 2023-06-22 01:06:55 48.3809 12.0094 284 ° 39 km/h 712 m -4.8 m/s 402.300 MHz Erding (DE) 0.00 km UNKNOWN
U3545128 RS41 2023-06-21 19:53:52 48.3836 12.5059 71 ° 11 km/h 925 m -2.6 m/s 402.30 MHz Waldkraiburg (DE) 0.00 km UNKNOWN
U4044327 RS41 2023-06-21 13:06:07 48.4679 12.2776 116 ° 28 km/h 678 m -7.0 m/s 402.30 MHz Landshut (DE) 0.00 km FOUND
U4044281 RS41 2023-06-21 07:33:48 48.4376 12.0545 148 ° 20 km/h 1043 m -4.9 m/s 402.30 MHz Landshut (DE) 0.00 km UNKNOWN
U4044291 RS41 2023-06-21 02:12:51 48.3591 12.4681 153 ° 9 km/h 885 m -2.1 m/s 402.30 MHz Waldkraiburg (DE) 0.00 km FOUND
U3360524 RS41 2023-06-20 13:23:17 48.3649 12.3535 319 ° 9 km/h 885 m -4.6 m/s 402.30 MHz Waldkraiburg (DE) 0.00 km FOUND
U4044285 RS41 2023-06-20 01:20:55 48.3393 12.0139 41 ° 11 km/h 681 m -3.8 m/s 402.30 MHz Erding (DE) 0.00 km FOUND
U3714573 RS41 2023-06-19 13:26:55 48.2638 11.9164 112 ° 11 km/h 873 m -3.4 m/s 402.30 MHz Erding (DE) 0.00 km FOUND
U4044287 RS41 2023-06-19 01:25:07 48.1141 12.0874 314 ° 20 km/h 750 m -5.5 m/s 402.30 MHz Vaterstetten (DE) 0.00 km FOUND
U4044441 RS41 2023-06-18 13:09:31 48.0064 12.1003 104 ° 2 km/h 605 m -6.7 m/s 402.30 MHz Rosenheim (DE) 0.00 km FOUND
U4044454 RS41 2023-06-18 01:42:07 47.6578 12.2825 56 ° 13 km/h 1614 m -3.1 m/s 402.300 MHz Niederndorf (AT) 0.00 km UNKNOWN
U4044452 RS41 2023-06-17 12:56:47 47.6894 12.1782 121 ° 4 km/h 1313 m -5.2 m/s 404.70 MHz Niederndorf (AT) 0.00 km UNKNOWN
U4044406 RS41 2023-06-17 01:18:04 47.8846 11.8096 137 ° 35 km/h 2792 m -4.4 m/s 402.300 MHz Rosenheim (DE) 0.00 km UNKNOWN
U4044443 RS41 2023-06-16 14:06:39 47.7187 12.297 86 ° 13 km/h 1648 m -3.9 m/s 402.30 MHz Niederndorf (AT) 0.00 km UNKNOWN
U3350195 RS41 2023-06-16 02:03:14 47.8867 11.9596 117 ° 13 km/h 816 m -2.4 m/s 402.30 MHz Rosenheim (DE) 0.00 km UNKNOWN
U3350177 RS41 2023-06-15 14:01:55 47.9882 11.8689 201 ° 15 km/h 704 m -2.5 m/s 402.30 MHz Vaterstetten (DE) 0.00 km UNKNOWN
U3350394 RS41 2023-06-15 02:19:38 48.0387 11.8553 281 ° 24 km/h 735 m -1.9 m/s 402.30 MHz Vaterstetten (DE) 0.00 km UNKNOWN
U3350175 RS41 2023-06-14 13:07:13 48.1171 11.6021 231 ° 19 km/h 621 m -6.8 m/s 402.30 MHz München (DE) 0.00 km UNKNOWN
U4044331 RS41 2023-06-14 01:21:26 47.8951 11.7973 275 ° 15 km/h 849 m -4.9 m/s 402.300 MHz Unterhaching (DE) 0.00 km UNKNOWN
U4044392 RS41 2023-06-13 13:52:07 47.7163 11.9063 226 ° 30 km/h 1320 m -2.3 m/s 402.30 MHz Rosenheim (DE) 0.00 km UNKNOWN
U3350202 RS41 2023-06-13 02:00:37 47.6071 11.832 313 ° 22 km/h 1746 m -2.6 m/s 402.300 MHz Achenkirch (AT) 0.00 km UNKNOWN
U3350203 RS41 2023-06-12 13:41:39 47.6738 11.982 188 ° 20 km/h 1395 m -2.4 m/s 402.30 MHz Kufstein (AT) 0.00 km UNKNOWN
U3350397 RS41 2023-06-12 02:00:21 47.5997 11.3693 157 ° 4 km/h 1603 m -2.6 m/s 402.30 MHz Garmisch-Partenkirchen (DE) 0.00 km UNKNOWN
U4044383 RS41 2023-06-11 13:09:42 47.9162 11.4529 251 ° 28 km/h 907 m -7.0 m/s 402.30 MHz Geretsried (DE) 0.00 km UNKNOWN
U4044455 RS41 2023-06-11 01:00:30 47.9231 11.3373 261 ° 28 km/h 825 m -12.3 m/s 402.30 MHz Starnberg (DE) 0.00 km FOUND
U3714621 RS41 2023-06-10 14:09:01 47.7984 11.2559 208 ° 17 km/h 764 m -2.6 m/s 402.30 MHz Weilheim in Oberbayern (DE) 0.00 km UNKNOWN
U3714499 RS41 2023-06-10 02:08:36 47.9704 11.9652 305 ° 15 km/h 738 m -2.2 m/s 402.300 MHz Rosenheim (DE) 0.00 km UNKNOWN
U3714490 RS41 2023-06-09 13:49:37 47.9992 11.9443 214 ° 17 km/h 771 m -1.6 m/s 402.300 MHz Vaterstetten (DE) 0.00 km UNKNOWN
U4044384 RS41 2023-06-09 02:01:50 48.058 12.2415 304 ° 11 km/h 636 m -2.3 m/s 402.30 MHz Waldkraiburg (DE) 0.00 km FOUND
U3824218 RS41 2023-06-08 13:38:23 48.3209 11.8873 239 ° 19 km/h 756 m -1.6 m/s 402.30 MHz Erding (DE) 0.00 km FOUND
U3714620 RS41 2023-06-08 01:06:26 48.2542 11.7236 316 ° 22 km/h 653 m -4.0 m/s 402.30 MHz Unterschleißheim (DE) 0.00 km FOUND
U3714500 RS41 2023-06-07 13:25:40 48.3303 11.8035 290 ° 7 km/h 561 m -4.7 m/s 402.30 MHz Erding (DE) 0.00 km LOST
U4044439 RS41 2023-06-07 01:43:13 48.3152 11.741 158 ° 11 km/h 626 m -3.6 m/s 402.30 MHz Freising (DE) 0.00 km UNKNOWN
U3714488 RS41 2023-06-06 13:14:54 48.4232 11.6464 133 ° 11 km/h 1005 m -3.3 m/s 402.300 MHz Freising (DE) 0.00 km UNKNOWN
U3350201 RS41 2023-06-06 02:15:02 48.4037 11.7981 195 ° 4 km/h 558 m -1.6 m/s 402.30 MHz Freising (DE) 0.00 km UNKNOWN
U3350194 RS41 2023-06-05 13:05:15 48.5237 11.6519 277 ° 28 km/h 716 m -4.6 m/s 402.30 MHz Pfaffenhofen an der Ilm (DE) 0.00 km FOUND
U3350169 RS41 2023-06-05 01:47:48 48.5247 11.8842 284 ° 19 km/h 598 m -3.3 m/s 402.30 MHz Freising (DE) 0.00 km UNKNOWN
U3350180 RS41 2023-06-04 13:38:14 48.4889 11.9895 209 ° 20 km/h 789 m -1.7 m/s 402.30 MHz Landshut (DE) 0.00 km UNKNOWN
U2230120 RS41 2023-06-04 01:29:00 48.2947 12.0519 289 ° 35 km/h 746 m -3.4 m/s 402.30 MHz Erding (DE) 0.00 km UNKNOWN
U2071055 RS41 2023-06-03 13:49:40 48.2642 12.0071 243 ° 24 km/h 777 m -2.5 m/s 402.30 MHz Erding (DE) 0.00 km UNKNOWN
U3350178 RS41 2023-06-03 01:53:47 48.0683 11.7407 257 ° 22 km/h 651 m -1.9 m/s 402.30 MHz Vaterstetten (DE) 0.00 km UNKNOWN
U3714613 RS41 2023-06-02 13:27:45 48.1509 11.4026 149 ° 13 km/h 844 m -2.4 m/s 402.300 MHz Germering (DE) 0.00 km UNKNOWN
U3714486 RS41 2023-06-02 01:00:48 48.1299 11.4045 171 ° 11 km/h 3691 m -7.3 m/s 402.300 MHz Germering (DE) 0.00 km FOUND
U3350165 RS41 2023-06-01 13:26:01 48.1706 11.1097 192 ° 17 km/h 1258 m -3.5 m/s 404.70 MHz Fürstenfeldbruck (DE) 0.00 km FOUND
U2221028 RS41 2023-06-01 01:01:07 48.1576 10.7719 245 ° 26 km/h 706 m -6.3 m/s 402.30 MHz Landsberg am Lech (DE) 0.00 km FOUND
U3350196 RS41 2023-05-31 13:34:18 48.1888 10.1834 219 ° 35 km/h 723 m -4.0 m/s 402.30 MHz Senden (DE) 0.00 km FOUND
U3360602 RS41 2023-05-31 01:04:49 47.9956 10.5892 264 ° 35 km/h 816 m -9.0 m/s 402.30 MHz Kaufbeuren (DE) 0.00 km UNKNOWN
U3350197 RS41 2023-05-30 14:25:05 47.5354 10.0075 264 ° 30 km/h 1255 m -2.7 m/s 402.30 MHz Egg (AT) 0.00 km UNKNOWN
U2110052 RS41 2023-05-30 02:33:11 47.6662 10.5552 278 ° 6 km/h 938 m -2.0 m/s 402.30 MHz Kempten (DE) 0.00 km UNKNOWN
U3350163 RS41 2023-05-29 14:25:34 47.9994 10.722 231 ° 26 km/h 1066 m -2.6 m/s 402.300 MHz Landsberg am Lech (DE) 0.00 km FOUND
U3350391 RS41 2023-05-29 01:30:12 48.1625 11.1753 286 ° 26 km/h 707 m -2.4 m/s 402.300 MHz Fürstenfeldbruck (DE) 0.00 km FOUND
U3350214 RS41 2023-05-28 12:58:10 48.2389 11.3609 234 ° 17 km/h 829 m -5.5 m/s 402.300 MHz Olching (DE) 0.00 km UNKNOWN
U3350198 RS41 2023-05-28 01:00:36 48.2317 11.4643 272 ° 43 km/h 712 m -6.1 m/s 402.30 MHz Dachau (DE) 0.00 km UNKNOWN
U3350399 RS41 2023-05-27 13:59:01 48.1922 11.5766 240 ° 28 km/h 585 m -3.6 m/s 402.30 MHz München (DE) 0.00 km FOUND
U3824236 RS41 2023-05-27 01:04:08 48.0257 11.5983 252 ° 20 km/h 715 m -6.2 m/s 402.300 MHz Unterhaching (DE) 0.00 km NEED ATTENTION
U3350395 RS41 2023-05-26 13:11:03 48.0291 11.695 204 ° 24 km/h 720 m -4.3 m/s 402.300 MHz Unterhaching (DE) 0.00 km FOUND
U3714489 RS41 2023-05-26 01:51:56 48.1518 11.1877 247 ° 19 km/h 873 m -2.0 m/s 402.30 MHz Fürstenfeldbruck (DE) 0.00 km UNKNOWN
U3824229 RS41 2023-05-25 13:15:33 48.4353 11.0777 231 ° 15 km/h 716 m -4.4 m/s 402.30 MHz Aichach (DE) 0.00 km FOUND
U3350393 RS41 2023-05-25 02:06:59 48.8189 11.1348 258 ° 28 km/h 1294 m -2.1 m/s 402.30 MHz Neuburg an der Donau (DE) 0.00 km UNKNOWN
U3350398 RS41 2023-05-24 12:40:35 48.5396 12.0837 170 ° 15 km/h 715 m -7.3 m/s 402.30 MHz Landshut (DE) 0.00 km UNKNOWN
U3360607 RS41 2023-05-24 02:06:35 48.233 12.4402 149 ° 24 km/h 676 m -1.7 m/s 402.30 MHz Waldkraiburg (DE) 0.00 km UNKNOWN
U3350683 RS41 2023-05-23 13:11:27 48.2301 11.8531 141 ° 28 km/h 852 m -4.3 m/s 402.30 MHz Erding (DE) 0.00 km NEED ATTENTION
U3350206 RS41 2023-05-23 03:26:02 48.1147 11.7222 79 ° 26 km/h 658 m -2.0 m/s 404.70 MHz Vaterstetten (DE) 0.00 km FOUND
U2110005 RS41 2023-05-23 00:10:37 48.166 11.6325 50 ° 9 km/h 595 m -8.3 m/s 402.30 MHz München (DE) 0.00 km UNKNOWN
U3360514 RS41 2023-05-22 19:04:25 48.1633 11.4687 41 ° 7 km/h 604 m -7.8 m/s 402.30 MHz Germering (DE) 0.00 km UNKNOWN
U3350392 RS41 2023-05-22 12:55:55 48.2656 11.3727 152 ° 11 km/h 883 m -5.5 m/s 402.30 MHz Dachau (DE) 0.00 km UNKNOWN
U4044403 RS41 2023-05-22 07:23:37 48.2392 11.1541 79 ° 15 km/h 792 m -7.2 m/s 402.30 MHz Fürstenfeldbruck (DE) 0.00 km FOUND
U4044440 RS41 2023-05-22 02:05:55 48.3356 10.9541 269 ° 13 km/h 563 m -2.0 m/s 402.30 MHz Augsburg (DE) 0.00 km UNKNOWN
U2110006 RS41 2023-05-21 19:02:43 48.2713 11.1171 260 ° 37 km/h 731 m -9.6 m/s 402.30 MHz Fürstenfeldbruck (DE) 0.00 km FOUND
U3350170 RS41 2023-05-21 13:43:16 48.4287 11.0174 286 ° 24 km/h 625 m -2.8 m/s 402.30 MHz Aichach (DE) 0.00 km UNKNOWN
U2110003 RS41 2023-05-21 02:06:23 48.6206 11.1009 308 ° 43 km/h 809 m -2.4 m/s 402.300 MHz Neuburg an der Donau (DE) 0.00 km UNKNOWN
U3824230 RS41 2023-05-20 14:09:05 48.9124 11.2435 269 ° 26 km/h 1106 m -2.9 m/s 402.300 MHz Neuburg an der Donau (DE) 0.00 km UNKNOWN
U3350171 RS41 2023-05-20 01:26:43 48.6865 11.2017 269 ° 44 km/h 799 m -3.8 m/s 402.30 MHz Neuburg an der Donau (DE) 0.00 km FOUND
U3824235 RS41 2023-05-19 14:08:27 48.8764 11.3007 227 ° 26 km/h 1231 m -1.7 m/s 402.30 MHz Ingolstadt (DE) 0.00 km NEED ATTENTION
U3350172 RS41 2023-05-19 01:12:46 48.52 11.6992 275 ° 41 km/h 860 m -5.0 m/s 402.30 MHz Freising (DE) 0.00 km FOUND
U3370072 RS41 2023-05-18 12:51:19 48.4995 11.569 300 ° 9 km/h 3959 m -10.1 m/s 402.30 MHz Pfaffenhofen an der Ilm (DE) 0.00 km FOUND
U3714482 RS41 2023-05-18 01:15:17 48.3177 11.5529 257 ° 30 km/h 680 m -4.0 m/s 402.30 MHz Unterschleißheim (DE) 0.00 km UNKNOWN
U3350684 RS41 2023-05-17 13:31:14 48.3028 11.5532 202 ° 15 km/h 659 m -2.6 m/s 402.30 MHz Unterschleißheim (DE) 0.00 km FOUND
U2221064 RS41 2023-05-17 02:00:58 48.4862 11.4894 189 ° 39 km/h 845 m -2.1 m/s 402.30 MHz Pfaffenhofen an der Ilm (DE) 0.00 km UNKNOWN
U3350682 RS41 2023-05-16 13:54:39 48.768 11.4567 195 ° 37 km/h 869 m -2.7 m/s 402.30 MHz Ingolstadt (DE) 0.00 km FOUND
U2230326 RS41 2023-05-16 01:02:27 48.5701 11.8789 152 ° 24 km/h 828 m -3.7 m/s 402.30 MHz Landshut (DE) 0.00 km UNKNOWN
U3350679 RS41 2023-05-15 13:10:24 48.3991 12.0448 114 ° 11 km/h 845 m -5.1 m/s 402.30 MHz Erding (DE) 0.00 km UNKNOWN
U3350179 RS41 2023-05-15 02:01:04 48.1949 11.8707 104 ° 17 km/h 600 m -7.5 m/s 404.70 MHz Vaterstetten (DE) 0.00 km FOUND
U2230328 RS41 2023-05-15 00:15:54 48.0894 11.5747 145 ° 11 km/h 675 m -3.8 m/s 402.30 MHz Unterhaching (DE) 0.00 km FOUND
U3470030 RS41 2023-05-14 12:42:33 48.4356 11.6097 262 ° 15 km/h 2645 m -13.0 m/s 402.300 MHz Freising (DE) 0.00 km FOUND
U2110001 RS41 2023-05-14 00:47:23 48.3107 11.6109 258 ° 24 km/h 643 m -14.6 m/s 402.30 MHz Unterschleißheim (DE) 0.00 km FOUND
U3370067 RS41 2023-05-13 14:19:53 48.4842 11.3325 201 ° 17 km/h 838 m -2.2 m/s 402.30 MHz Pfaffenhofen an der Ilm (DE) 0.00 km FOUND
U3370070 RS41 2023-05-13 01:25:32 48.2645 11.2745 248 ° 20 km/h 729 m -3.8 m/s 402.30 MHz Olching (DE) 0.00 km FOUND
U3360504 RS41 2023-05-12 13:51:31 48.4527 11.0103 279 ° 17 km/h 636 m -2.7 m/s 402.30 MHz Aichach (DE) 0.00 km NEED ATTENTION
U2221032 RS41 2023-05-12 02:12:27 48.6557 10.8544 151 ° 6 km/h 837 m -1.9 m/s 402.30 MHz Neuburg an der Donau (DE) 0.00 km UNKNOWN
U3360609 RS41 2023-05-11 13:54:41 48.7546 11.0315 181 ° 11 km/h 983 m -2.6 m/s 402.30 MHz Neuburg an der Donau (DE) 0.00 km FOUND
V0510549 RS41 2023-05-11 01:24:16 48.5891 11.4616 82 ° 28 km/h 689 m -5.6 m/s 402.30 MHz Pfaffenhofen an der Ilm (DE) 0.00 km UNKNOWN
U3370064 RS41 2023-05-10 14:05:50 48.6756 11.8493 95 ° 13 km/h 659 m -2.7 m/s 402.30 MHz Landshut (DE) 0.00 km UNKNOWN
V0510373 RS41 2023-05-10 01:26:59 48.2029 12.1916 100 ° 44 km/h 1103 m -5.9 m/s 402.30 MHz Waldkraiburg (DE) 0.00 km FOUND
V0510550 RS41 2023-05-09 13:30:21 47.5899 12.2239 278 ° 19 km/h 1560 m -3.7 m/s 402.30 MHz Kufstein (AT) 0.00 km UNKNOWN
V0510547 RS41 2023-05-09 01:27:10 47.455 12.1202 35 ° 11 km/h 1818 m -3.5 m/s 402.30 MHz Hopfgarten im Brixental (AT) 0.00 km UNKNOWN
V0510315 RS41 2023-05-08 13:43:02 48.046 12.0199 246 ° 9 km/h 737 m -2.9 m/s 402.30 MHz Vaterstetten (DE) 0.00 km FOUND
V0510553 RS41 2023-05-08 01:56:23 48.0415 12.225 278 ° 13 km/h 700 m -1.9 m/s 402.30 MHz Rosenheim (DE) 0.00 km FOUND
V0510571 RS41 2023-05-07 14:25:58 48.1514 12.6962 233 ° 11 km/h 586 m -1.9 m/s 402.300 MHz Hochburg-Ach (AT) 0.00 km FOUND
V0510555 RS41 2023-05-07 01:22:56 48.0062 12.6886 282 ° 9 km/h 647 m -3.7 m/s 402.30 MHz Traunreut (DE) 0.00 km FOUND
V0510552 RS41 2023-05-06 13:37:33 48.0774 12.9605 61 ° 11 km/h 621 m -2.4 m/s 402.300 MHz Eggelsberg (AT) 0.00 km NEED ATTENTION
V0510551 RS41 2023-05-06 01:15:46 48.2041 12.7718 87 ° 22 km/h 654 m -2.9 m/s 402.30 MHz Hochburg-Ach (AT) 0.00 km FOUND
V0510322 RS41 2023-05-05 14:04:39 48.3291 12.8092 129 ° 13 km/h 659 m -3.0 m/s 402.30 MHz Braunau am Inn (AT) 0.00 km FOUND
V0530484 RS41 2023-05-05 01:03:26 48.1754 12.2938 328 ° 7 km/h 596 m -7.3 m/s 402.30 MHz Waldkraiburg (DE) 0.00 km NEED ATTENTION
V0530485 RS41 2023-05-04 13:59:59 47.6605 12.1562 136 ° 7 km/h 919 m -3.4 m/s 402.30 MHz Niederndorf (AT) 0.00 km FOUND
V0530486 RS41 2023-05-04 00:47:14 47.5714 11.6075 136 ° 11 km/h 2425 m -6.8 m/s 402.30 MHz Achenkirch (AT) 0.00 km UNKNOWN
V0510569 RS41 2023-05-03 13:11:47 47.8671 11.6515 276 ° 11 km/h 891 m -5.8 m/s 402.30 MHz Geretsried (DE) 0.00 km FOUND
V0510327 RS41 2023-05-03 02:04:36 47.6711 11.6313 188 ° 9 km/h 1550 m -1.8 m/s 402.30 MHz Achenkirch (AT) 0.00 km UNKNOWN
V0510558 RS41 2023-05-02 13:49:18 48.669 12.5142 324 ° 4 km/h 946 m -1.8 m/s 402.30 MHz Straubing (DE) 0.00 km FOUND
V0510572 RS41 2023-05-02 01:52:04 48.6017 12.416 99 ° 30 km/h 720 m -2.7 m/s 402.30 MHz Landshut (DE) 0.00 km FOUND
V0510560 RS41 2023-05-01 13:08:56 48.593 12.1053 89 ° 11 km/h 1287 m -6.4 m/s 402.30 MHz Landshut (DE) 0.00 km UNKNOWN
V0510567 RS41 2023-05-01 01:15:46 48.3364 12.0811 289 ° 56 km/h 1201 m -4.3 m/s 402.30 MHz Erding (DE) 0.00 km FOUND
V0510568 RS41 2023-04-30 13:37:10 47.9885 12.4352 261 ° 17 km/h 718 m -2.7 m/s 402.300 MHz Traunreut (DE) 0.00 km UNKNOWN
V0510559 RS41 2023-04-30 00:51:11 47.9724 12.3686 161 ° 13 km/h 724 m -5.8 m/s 402.30 MHz Traunreut (DE) 0.00 km UNKNOWN
V0510319 RS41 2023-04-29 02:01:27 47.2897 14.0977 120 ° 46 km/h 2430 m -1.7 m/s 402.300 MHz Oberwölz Stadt (AT) 0.00 km UNKNOWN
V0530473 RS41 2023-04-28 13:19:09 47.6287 13.6178 81 ° 28 km/h 1688 m -5.5 m/s 402.30 MHz Bad Goisern (AT) 0.00 km UNKNOWN
V0510565 RS41 2023-04-28 00:46:06 47.8213 12.7785 60 ° 15 km/h 1419 m -10.1 m/s 402.30 MHz Grossgmain (AT) 0.00 km UNKNOWN
V0510313 RS41 2023-04-27 13:47:21 47.0996 13.6268 124 ° 48 km/h 2854 m -1.7 m/s 402.30 MHz Sankt Michael im Lungau (AT) 0.00 km UNKNOWN
V0510587 RS41 2023-04-27 00:50:27 47.8098 12.8504 78 ° 7 km/h 1099 m -8.4 m/s 402.30 MHz Grossgmain (AT) 0.00 km FOUND
V0510321 RS41 2023-04-26 12:56:50 47.8826 12.8661 129 ° 17 km/h 697 m -6.6 m/s 402.30 MHz Oberndorf bei Salzburg (AT) 0.00 km UNKNOWN
V0510314 RS41 2023-04-26 01:22:33 47.494 13.0515 100 ° 30 km/h 2302 m -4.6 m/s 402.30 MHz Werfen (AT) 0.00 km UNKNOWN
U3350681 RS41 2023-04-25 13:35:30 48.133 12.9726 106 ° 30 km/h 578 m -3.1 m/s 402.30 MHz Eggelsberg (AT) 0.00 km FOUND
U3370061 RS41 2023-04-25 01:23:34 48.3567 12.9984 85 ° 28 km/h 616 m -4.3 m/s 402.30 MHz Braunau am Inn (AT) 0.00 km LOST
U2230350 RS41 2023-04-24 13:30:46 48.6712 12.8538 106 ° 50 km/h 1486 m -4.4 m/s 402.30 MHz Deggendorf (DE) 0.00 km FOUND
U3714484 RS41 2023-04-24 01:22:59 48.5653 12.5717 95 ° 33 km/h 1091 m -2.6 m/s 402.30 MHz Landshut (DE) 0.00 km FOUND
U2330374 RS41 2023-04-23 13:28:48 48.6742 12.6103 14 ° 7 km/h 988 m -4.7 m/s 402.30 MHz Straubing (DE) 0.00 km FOUND
U2230343 RS41 2023-04-23 01:23:07 48.3665 12.344 132 ° 24 km/h 765 m -3.7 m/s 402.30 MHz Waldkraiburg (DE) 0.00 km UNKNOWN
U3360601 RS41 2023-04-22 13:51:40 47.9143 12.4345 253 ° 19 km/h 732 m -2.1 m/s 402.300 MHz Traunreut (DE) 0.00 km FOUND
U2221029 RS41 2023-04-22 01:30:23 47.9357 12.2775 301 ° 17 km/h 718 m -1.9 m/s 402.30 MHz Rosenheim (DE) 0.00 km UNKNOWN
U2221067 RS41 2023-04-21 12:55:26 48.3962 11.7716 276 ° 22 km/h 1287 m -9.6 m/s 402.30 MHz Freising (DE) 0.00 km FOUND
U2120289 RS41 2023-04-21 00:47:58 48.6162 11.7132 93 ° 4 km/h 700 m -2.2 m/s 402.30 MHz Pfaffenhofen an der Ilm (DE) 0.00 km FOUND
U2221073 RS41 2023-04-20 12:51:13 48.6106 11.8447 311 ° 37 km/h 1968 m -9.9 m/s 402.30 MHz Landshut (DE) 0.00 km FOUND
U3350176 RS41 2023-04-20 01:26:34 48.3013 12.5541 298 ° 11 km/h 661 m -3.3 m/s 402.30 MHz Waldkraiburg (DE) 0.00 km FOUND
U2120305 RS41 2023-04-19 13:33:04 47.8714 12.2658 182 ° 26 km/h 803 m -3.4 m/s 402.30 MHz Rosenheim (DE) 0.00 km FOUND
U2230334 RS41 2023-04-19 02:20:43 47.9652 11.3112 230 ° 20 km/h 796 m -1.9 m/s 402.300 MHz Starnberg (DE) 0.00 km UNKNOWN
U3360608 RS41 2023-04-18 12:53:37 48.3748 11.2461 236 ° 17 km/h 1215 m -7.8 m/s 402.30 MHz Aichach (DE) 0.00 km FOUND
U3360610 RS41 2023-04-18 00:36:32 48.3223 11.2863 283 ° 33 km/h 983 m -5.0 m/s 402.300 MHz Dachau (DE) 0.00 km FOUND
U2071054 RS41 2023-04-17 12:58:02 48.1794 11.3658 267 ° 13 km/h 892 m -8.3 m/s 402.300 MHz Olching (DE) 0.00 km FOUND
U2330392 RS41 2023-04-17 01:25:55 47.7385 11.3085 70 ° 6 km/h 1174 m -4.4 m/s 402.30 MHz Weilheim in Oberbayern (DE) 0.00 km FOUND
U2120303 RS41 2023-04-16 13:41:40 47.4772 11.3467 160 ° 15 km/h 2426 m -3.0 m/s 402.30 MHz Garmisch-Partenkirchen (DE) 0.00 km UNKNOWN
U2230477 RS41 2023-04-16 01:56:35 47.2375 11.4901 202 ° 6 km/h 1330 m -2.2 m/s 402.30 MHz Sistrans (AT) 0.00 km UNKNOWN
U2221022 RS41 2023-04-15 13:03:33 47.8008 11.5989 129 ° 37 km/h 1227 m -4.2 m/s 402.30 MHz Geretsried (DE) 0.00 km FOUND
U2120283 RS41 2023-04-15 00:46:35 48.1081 11.5455 97 ° 24 km/h 672 m -7.2 m/s 402.30 MHz München (DE) 0.00 km FOUND
U2150259 RS41 2023-04-14 13:43:44 48.5107 11.5071 124 ° 20 km/h 942 m -3.0 m/s 402.30 MHz Pfaffenhofen an der Ilm (DE) 0.00 km FOUND
U2230329 RS41 2023-04-14 00:55:00 48.6009 11.6473 177 ° 20 km/h 1120 m -5.4 m/s 402.30 MHz Pfaffenhofen an der Ilm (DE) 0.00 km LOST
U2110011 RS41 2023-04-13 13:32:46 49.0481 12.5362 106 ° 22 km/h 843 m -3.6 m/s 402.30 MHz Straubing (DE) 0.00 km FOUND
U2150262 RS41 2023-04-13 00:33:39 48.767 13.0396 125 ° 44 km/h 1903 m -4.4 m/s 402.30 MHz Deggendorf (DE) 0.00 km UNKNOWN
U4044308 RS41 2023-04-12 14:23:59 47.9475 15.0114 36 ° 9 km/h 794 m -2.4 m/s 402.30 MHz Gaming (AT) 0.00 km UNKNOWN
U4044310 RS41 2023-04-12 01:22:54 47.2304 13.749 97 ° 39 km/h 2454 m -1.7 m/s 402.300 MHz Mariapfarr (AT) 0.00 km UNKNOWN
U4044280 RS41 2023-04-11 13:16:04 47.5992 13.8091 112 ° 63 km/h 2220 m -2.9 m/s 402.30 MHz Bad Aussee (AT) 0.00 km UNKNOWN
U2120290 RS41 2023-04-11 01:30:30 47.4223 13.1039 118 ° 26 km/h 2583 m -7.7 m/s 402.30 MHz Werfen (AT) 0.00 km UNKNOWN
U4044328 RS41 2023-04-10 13:43:58 46.9137 12.0379 355 ° 9 km/h 3169 m -3.9 m/s 402.30 MHz Brunico (IT) 0.00 km UNKNOWN
U2221021 RS41 2023-04-10 01:30:19 47.173 11.4364 333 ° 15 km/h 1116 m -2.5 m/s 402.30 MHz Fulpmes (AT) 0.00 km UNKNOWN
U2110009 RS41 2023-04-09 13:25:00 47.629 11.7294 274 ° 2 km/h 1441 m -4.6 m/s 402.30 MHz Achenkirch (AT) 0.00 km UNKNOWN
U2230352 RS41 2023-04-09 02:07:05 47.5216 11.3541 233 ° 15 km/h 1872 m -2.3 m/s 402.30 MHz Garmisch-Partenkirchen (DE) 0.00 km UNKNOWN
U2230111 RS41 2023-04-08 13:16:06 47.8638 11.772 117 ° 22 km/h 881 m -4.0 m/s 402.30 MHz Geretsried (DE) 0.00 km UNKNOWN
U2110012 RS41 2023-04-08 01:23:46 48.071 11.677 92 ° 26 km/h 645 m -3.8 m/s 402.300 MHz Unterhaching (DE) 0.00 km FOUND
U4044329 RS41 2023-04-07 13:42:38 48.2369 11.8968 181 ° 11 km/h 620 m -2.5 m/s 402.30 MHz Erding (DE) 0.00 km FOUND
U3360526 RS41 2023-04-07 01:21:40 47.9517 12.1659 20 ° 19 km/h 544 m -3.3 m/s 402.30 MHz Rosenheim (DE) 0.00 km UNKNOWN
U4044312 RS41 2023-04-06 14:06:52 47.5893 12.5228 36 ° 17 km/h 794 m -1.7 m/s 402.30 MHz Kirchdorf in Tirol (AT) 0.00 km FOUND
U4044446 RS41 2023-04-06 00:45:38 48.049 11.9556 337 ° 7 km/h 757 m -7.9 m/s 402.300 MHz Vaterstetten (DE) 0.00 km FOUND
U4044322 RS41 2023-04-05 13:17:04 48.101 11.949 249 ° 7 km/h 698 m -6.0 m/s 402.30 MHz Vaterstetten (DE) 0.00 km FOUND
U4044453 RS41 2023-04-05 00:50:55 48.0608 11.7575 263 ° 13 km/h 774 m -6.4 m/s 402.30 MHz Vaterstetten (DE) 0.00 km FOUND
U4044459 RS41 2023-04-04 14:13:28 47.8751 11.1914 230 ° 13 km/h 1066 m -4.1 m/s 402.30 MHz Weilheim in Oberbayern (DE) 0.00 km FOUND
U3360638 RS41 2023-04-04 01:55:11 47.7657 11.2219 254 ° 33 km/h 841 m -2.4 m/s 402.300 MHz Weilheim in Oberbayern (DE) 0.00 km UNKNOWN
U4044321 RS41 2023-04-03 13:30:28 47.8105 11.5454 213 ° 22 km/h 809 m -3.5 m/s 402.30 MHz Geretsried (DE) 0.00 km UNKNOWN
U4044326 RS41 2023-04-03 00:47:48 47.8327 11.664 156 ° 31 km/h 2684 m -8.7 m/s 402.30 MHz Geretsried (DE) 0.00 km UNKNOWN
U4044309 RS41 2023-04-02 14:10:40 47.8194 11.9679 152 ° 35 km/h 704 m -3.7 m/s 402.300 MHz Rosenheim (DE) 0.00 km FOUND
U4044445 RS41 2023-04-02 01:27:16 48.0645 12.3045 73 ° 20 km/h 642 m -4.2 m/s 402.30 MHz Waldkraiburg (DE) 0.00 km UNKNOWN
U4044289 RS41 2023-04-01 12:49:51 48.1507 12.4629 88 ° 69 km/h 757 m -14.1 m/s 402.300 MHz Waldkraiburg (DE) 0.00 km FOUND
U3360525 RS41 2023-04-01 01:06:56 48.145 12.7964 73 ° 57 km/h 850 m -5.7 m/s 402.300 MHz Hochburg-Ach (AT) 0.00 km FOUND
U4044447 RS41 2023-03-31 14:15:39 48.6322 14.9682 91 ° 44 km/h 774 m -2.9 m/s 402.30 MHz Grossgerungs (AT) 0.00 km NEED ATTENTION
U4044458 RS41 2023-03-31 00:57:09 47.9241 13.2853 75 ° 33 km/h 886 m -11.0 m/s 402.300 MHz Neumarkt am Wallersee (AT) 0.00 km UNKNOWN
U2330383 RS41 2023-03-30 12:51:51 48.2755 13.2064 117 ° 31 km/h 403 m -11.1 m/s 402.30 MHz Altheim (AT) 0.00 km FOUND
U3360515 RS41 2023-03-30 01:21:37 47.4415 13.4247 186 ° 2 km/h 1446 m -2.4 m/s 402.300 MHz Eben im Pongau (AT) 0.00 km UNKNOWN
U2071053 RS41 2023-03-29 17:23:53 46.8864 13.538 137 ° 26 km/h 2578 m -3.9 m/s 402.300 MHz Gmünd (AT) 0.00 km UNKNOWN
U2150264 RS41 2023-03-29 13:23:53 47.0909 13.4112 100 ° 46 km/h 2880 m -4.7 m/s 402.30 MHz Sankt Michael im Lungau (AT) 0.00 km UNKNOWN
U2120301 RS41 2023-03-29 02:38:50 47.2819 13.3988 119 ° 22 km/h 2334 m -4.0 m/s 404.70 MHz Flachau (AT) 0.00 km UNKNOWN
U3370066 RS41 2023-03-29 00:21:13 47.4512 13.0259 44 ° 13 km/h 2505 m -10.4 m/s 402.30 MHz Werfen (AT) 0.00 km UNKNOWN
U2330394 RS41 2023-03-28 12:58:50 47.087 12.8002 133 ° 13 km/h 2820 m 6.9 m/s 402.30 MHz Bruck an der Großglocknerstraße (AT) 0.00 km UNKNOWN
U2330596 RS41 2023-03-28 01:43:16 46.8944 13.3154 133 ° 46 km/h 1877 m -3.2 m/s 402.30 MHz Obervellach (AT) 0.00 km UNKNOWN
U2330595 RS41 2023-03-27 12:55:18 47.943 12.7919 125 ° 9 km/h 550 m -10.3 m/s 402.30 MHz Sankt Georgen bei Salzburg (AT) 0.00 km UNKNOWN
U2230353 RS41 2023-03-27 01:28:22 48.2803 13.135 70 ° 26 km/h 390 m -4.5 m/s 402.30 MHz Sankt Peter (AT) 0.00 km LOST
U2230496 RS41 2023-03-26 13:19:36 48.3777 14.2136 127 ° 6 km/h 669 m -4.0 m/s 402.300 MHz Gramastetten (AT) 0.00 km FOUND
U2221072 RS41 2023-03-26 01:37:39 47.5919 14.4735 113 ° 15 km/h 1497 m -2.6 m/s 402.30 MHz Admont (AT) 0.00 km UNKNOWN
U4044467 RS41 2023-03-25 13:55:22 48.0445 14.2856 97 ° 31 km/h 482 m -3.6 m/s 402.300 MHz Sierning (AT) 0.00 km NEED ATTENTION
U3370009 RS41 2023-03-25 01:09:24 48.6018 13.3267 99 ° 54 km/h 1221 m -8.8 m/s 402.30 MHz Passau (DE) 0.00 km UNKNOWN
U3370095 RS41 2023-03-24 14:16:17 48.951 14.4902 74 ° 57 km/h 1037 m -1.8 m/s 402.30 MHz České Budějovice (CZ) 0.00 km UNKNOWN
U2150254 RS41 2023-03-24 01:41:16 48.4636 13.7309 327 ° 13 km/h 653 m -2.3 m/s 402.30 MHz Natternbach (AT) 0.00 km UNKNOWN
U2221066 RS41 2023-03-23 13:28:22 48.2248 13.1771 80 ° 15 km/h 451 m -3.4 m/s 402.30 MHz Mauerkirchen (AT) 0.00 km FOUND
U2120294 RS41 2023-03-23 01:27:03 48.134 12.7853 6 ° 17 km/h 525 m -4.5 m/s 402.300 MHz Hochburg-Ach (AT) 0.00 km LOST
U2221063 RS41 2023-03-22 12:44:50 48.0162 12.0569 89 ° 20 km/h 1045 m -17.9 m/s 402.30 MHz Rosenheim (DE) 0.00 km FOUND
U4044463 RS41 2023-03-22 02:18:34 48.0049 12.982 77 ° 28 km/h 625 m -2.0 m/s 402.30 MHz Bürmoos (AT) 0.00 km FOUND
U4044464 RS41 2023-03-21 12:53:07 47.9036 12.2756 72 ° 11 km/h 1279 m -12.3 m/s 402.30 MHz Rosenheim (DE) 0.00 km UNKNOWN
U3350276 RS41 2023-03-21 01:06:43 47.5574 12.2482 203 ° 9 km/h 1909 m -1.6 m/s 402.300 MHz Ellmau (AT) 0.00 km UNKNOWN
U3370094 RS41 2023-03-20 14:05:28 47.3474 11.9764 44 ° 9 km/h 1718 m -2.6 m/s 402.30 MHz Alpbach (AT) 0.00 km UNKNOWN
U2330514 RS41 2023-03-20 00:39:41 48.221 12.0594 87 ° 30 km/h 767 m -3.1 m/s 402.30 MHz Erding (DE) 0.00 km FOUND
U3370093 RS41 2023-03-19 13:05:03 48.7161 12.5001 89 ° 17 km/h 1618 m -4.9 m/s 402.30 MHz Straubing (DE) 0.00 km FOUND
U4044468 RS41 2023-03-19 01:11:37 48.7432 12.5042 307 ° 20 km/h 625 m -4.4 m/s 402.300 MHz Straubing (DE) 0.00 km FOUND
U3370011 RS41 2023-03-18 13:43:25 49.0437 12.5895 336 ° 13 km/h 960 m -2.5 m/s 402.30 MHz Straubing (DE) 0.00 km NEED ATTENTION
U3370091 RS41 2023-03-18 01:06:28 48.5834 12.3677 68 ° 17 km/h 744 m -4.8 m/s 402.30 MHz Landshut (DE) 0.00 km UNKNOWN
U3370092 RS41 2023-03-17 13:53:38 48.3061 12.7497 290 ° 9 km/h 740 m -2.9 m/s 402.30 MHz Braunau am Inn (AT) 0.00 km FOUND
U3370096 RS41 2023-03-17 01:24:43 47.7132 12.6182 37 ° 15 km/h 1448 m -3.6 m/s 402.30 MHz Kössen (AT) 0.00 km UNKNOWN
U4044465 RS41 2023-03-16 13:19:59 47.3408 12.6426 112 ° 20 km/h 2927 m -3.6 m/s 402.300 MHz Niedernsill (AT) 0.00 km UNKNOWN
U4044457 RS41 2023-03-16 00:52:13 47.4426 12.5675 125 ° 41 km/h 2625 m -9.4 m/s 402.30 MHz Fieberbrunn (AT) 0.00 km UNKNOWN
U4044448 RS41 2023-03-15 13:13:22 47.2719 12.7829 106 ° 28 km/h 3197 m -3.1 m/s 402.30 MHz Kaprun (AT) 0.00 km FOUND
U2330387 RS41 2023-03-15 02:06:37 48.5858 13.58 109 ° 50 km/h 758 m -2.4 m/s 402.300 MHz Esternberg (AT) 0.00 km UNKNOWN
U2150263 RS41 2023-03-14 13:12:50 48.6579 13.0482 35 ° 30 km/h 662 m -6.6 m/s 402.30 MHz Deggendorf (DE) 0.00 km FOUND
U2120292 RS41 2023-03-14 01:44:48 48.8088 13.876 102 ° 50 km/h 1153 m -2.8 m/s 402.300 MHz Ulrichsberg (AT) 0.00 km UNKNOWN
U2230711 RS41 2023-03-13 13:13:17 48.2642 13.2889 255 ° 7 km/h 477 m -4.5 m/s 402.30 MHz Altheim (AT) 0.00 km FOUND
U2120216 RS41 2023-03-13 00:29:25 47.4265 12.8181 104 ° 46 km/h 2292 m -7.0 m/s 402.300 MHz Saalfelden am Steinernen Meer (AT) 0.00 km UNKNOWN
U2230535 RS41 2023-03-12 12:58:02 47.73 12.6644 95 ° 28 km/h 1447 m -11.0 m/s 402.300 MHz Grossgmain (AT) 0.00 km NEED ATTENTION
U2330389 RS41 2023-03-12 01:48:50 47.1223 13.2661 124 ° 15 km/h 2271 m -3.1 m/s 404.70 MHz Badgastein (AT) 0.00 km UNKNOWN
U2330384 RS41 2023-03-11 13:51:56 47.2907 13.3686 85 ° 24 km/h 1893 m -5.2 m/s 404.700 MHz Flachau (AT) 0.00 km NEED ATTENTION
U4044325 RS41 2023-03-11 01:01:12 47.3072 13.6876 83 ° 28 km/h 2423 m -4.9 m/s 402.300 MHz Schladming (AT) 0.00 km UNKNOWN
U2230325 RS41 2023-03-10 13:34:58 48.2072 13.2643 24 ° 19 km/h 497 m -5.9 m/s 402.30 MHz Altheim (AT) 0.00 km FOUND
U4044462 RS41 2023-03-10 01:35:26 48.1359 13.1133 17 ° 22 km/h 557 m -2.4 m/s 402.30 MHz Schalchen (AT) 0.00 km LOST
U2220276 RS41 2023-03-09 13:31:11 47.8077 13.558 112 ° 52 km/h 1306 m -1.8 m/s 402.30 MHz Sankt Wolfgang im Salzkammergut (AT) 0.00 km UNKNOWN
U2071051 RS41 2023-03-09 00:50:36 48.0237 13.6007 44 ° 20 km/h 603 m -8.4 m/s 402.30 MHz Timelkam (AT) 0.00 km UNKNOWN
U2230552 RS41 2023-03-08 13:03:35 47.961 13.8584 276 ° 13 km/h 615 m -5.6 m/s 402.30 MHz Gschwandt (AT) 0.00 km UNKNOWN
U2071052 RS41 2023-03-08 01:20:56 47.8602 13.6552 67 ° 44 km/h 1046 m -4.0 m/s 402.30 MHz Altmünster (AT) 0.00 km UNKNOWN
U3360624 RS41 2023-03-07 13:12:25 48.1355 13.2123 129 ° 17 km/h 544 m -4.5 m/s 402.300 MHz Schalchen (AT) 0.00 km FOUND
U4044466 RS41 2023-03-07 01:51:12 47.6908 13.5648 165 ° 6 km/h 1515 m -1.8 m/s 402.30 MHz Bad Ischl (AT) 0.00 km UNKNOWN
U2330511 RS41 2023-03-06 13:45:32 47.8227 13.2808 94 ° 11 km/h 1111 m -2.6 m/s 402.30 MHz Thalgau (AT) 0.00 km FOUND
U2330512 RS41 2023-03-06 00:59:09 47.9889 12.4775 101 ° 19 km/h 1447 m -11.4 m/s 402.30 MHz Traunreut (DE) 0.00 km NEED ATTENTION
U2230725 RS41 2023-03-05 01:11:48 47.7352 11.9697 97 ° 22 km/h 1522 m -8.5 m/s 402.30 MHz Rosenheim (DE) 0.00 km UNKNOWN
U2230710 RS41 2023-03-04 13:53:54 47.6744 11.6853 101 ° 15 km/h 1316 m -2.8 m/s 402.30 MHz Achenkirch (AT) 0.00 km UNKNOWN
U2330391 RS41 2023-03-04 02:12:20 47.5746 10.4169 219 ° 6 km/h 1156 m -1.6 m/s 402.30 MHz Sonthofen (DE) 0.00 km UNKNOWN
U2110152 RS41 2023-03-03 13:38:30 47.7443 10.6287 244 ° 17 km/h 1433 m -3.2 m/s 402.30 MHz Kaufbeuren (DE) 0.00 km UNKNOWN
U2230351 RS41 2023-03-03 02:08:58 47.8164 10.1982 32 ° 9 km/h 834 m -2.4 m/s 402.30 MHz Kempten (DE) 0.00 km FOUND
U2230476 RS41 2023-03-02 14:13:22 48.1182 9.89168 260 ° 9 km/h 1057 m -2.6 m/s 402.30 MHz Biberach an der Riß (DE) 0.00 km FOUND
U2110010 RS41 2023-03-02 02:01:29 48.1811 9.8368 284 ° 56 km/h 1334 m -2.4 m/s 402.30 MHz Biberach an der Riß (DE) 0.00 km FOUND
U2230708 RS41 2023-03-01 13:21:08 48.2978 10.6422 243 ° 24 km/h 855 m -2.5 m/s 402.30 MHz Neusäß (DE) 0.00 km FOUND
U2230709 RS41 2023-03-01 01:33:41 47.9726 10.9074 266 ° 43 km/h 1304 m -3.5 m/s 402.30 MHz Landsberg am Lech (DE) 0.00 km UNKNOWN
U2220599 RS41 2023-02-28 14:14:57 48.0896 11.6541 309 ° 9 km/h 647 m -1.8 m/s 402.30 MHz Unterhaching (DE) 0.00 km FOUND
U2230721 RS41 2023-02-28 01:47:06 48.3355 12.2227 280 ° 56 km/h 1025 m -2.0 m/s 402.30 MHz Waldkraiburg (DE) 0.00 km UNKNOWN
U2230722 RS41 2023-02-27 13:15:21 48.127 11.9738 254 ° 30 km/h 909 m -3.6 m/s 402.30 MHz Vaterstetten (DE) 0.00 km UNKNOWN
U2230726 RS41 2023-02-27 00:48:14 48.2038 11.9721 251 ° 46 km/h 937 m -11.9 m/s 402.30 MHz Erding (DE) 0.00 km FOUND
U2220595 RS41 2023-02-26 12:43:30 48.1344 12.1151 233 ° 22 km/h 786 m -8.9 m/s 402.300 MHz Waldkraiburg (DE) 0.00 km FOUND
U2220597 RS41 2023-02-26 01:55:13 47.8264 13.5953 119 ° 24 km/h 1534 m -1.6 m/s 402.30 MHz Bad Ischl (AT) 0.00 km UNKNOWN
U2230707 RS41 2023-02-25 13:26:06 47.6901 14.1236 111 ° 19 km/h 1374 m -3.8 m/s 402.30 MHz Windischgarsten (AT) 0.00 km UNKNOWN
U2230723 RS41 2023-02-25 00:42:16 47.9955 13.3607 105 ° 37 km/h 879 m -5.3 m/s 402.30 MHz Pöndorf (AT) 0.00 km UNKNOWN
U1470400 RS41 2023-02-24 13:27:26 47.9048 13.2407 81 ° 7 km/h 903 m -3.5 m/s 402.300 MHz Neumarkt am Wallersee (AT) 0.00 km UNKNOWN
U2230714 RS41 2023-02-24 01:47:53 47.7437 12.9595 92 ° 11 km/h 1221 m -3.2 m/s 402.300 MHz Grossgmain (AT) 0.00 km UNKNOWN
U2230114 RS41 2023-02-23 13:03:46 48.2559 12.2174 130 ° 13 km/h 713 m -3.0 m/s 402.300 MHz Waldkraiburg (DE) 0.00 km UNKNOWN
U2230113 RS41 2023-02-23 01:09:57 48.035 12.0647 92 ° 26 km/h 565 m -5.1 m/s 402.300 MHz Rosenheim (DE) 0.00 km UNKNOWN
U1450307 RS41 2023-02-22 13:29:05 47.9791 12.3844 264 ° 7 km/h 854 m -2.7 m/s 402.30 MHz Traunreut (DE) 0.00 km UNKNOWN
U2230712 RS41 2023-02-22 02:12:59 47.3186 13.0768 60 ° 17 km/h 1102 m -2.1 m/s 402.300 MHz Goldegg (AT) 0.00 km FOUND
U2230338 RS41 2023-02-21 13:42:08 47.4597 13.2254 335 ° 4 km/h 1130 m -2.9 m/s 402.300 MHz Werfen (AT) 0.00 km FOUND
U2221024 RS41 2023-02-21 01:53:15 47.3674 13.7544 89 ° 39 km/h 2202 m -1.6 m/s 402.300 MHz Schladming (AT) 0.00 km UNKNOWN
U2230339 RS41 2023-02-20 13:20:25 46.9893 12.3997 173 ° 50 km/h 5539 m -3.6 m/s 402.300 MHz Virgen (AT) 0.00 km UNKNOWN
U2230341 RS41 2023-02-20 00:33:44 47.0079 12.4741 129 ° 26 km/h 2805 m -4.9 m/s 402.30 MHz Virgen (AT) 0.00 km UNKNOWN
U2230346 RS41 2023-02-19 14:04:00 46.7684 15.2309 7 ° 19 km/h 465 m -2.2 m/s 402.300 MHz Deutschlandsberg (AT) 0.00 km FOUND
U2221026 RS41 2023-02-19 01:27:39 47.3297 14.8803 101 ° 26 km/h 1540 m -3.5 m/s 402.30 MHz Sankt Michael in Obersteiermark (AT) 0.00 km UNKNOWN
U2230340 RS41 2023-02-18 13:56:53 47.065 15.1897 271 ° 4 km/h 564 m -3.2 m/s 402.30 MHz Stallhofen (AT) 0.00 km FOUND
U2071056 RS41 2023-02-18 00:34:57 47.5415 13.3374 121 ° 41 km/h 2169 m -7.8 m/s 402.30 MHz Abtenau (AT) 0.00 km UNKNOWN
U1450562 RS41 2023-02-17 13:23:31 47.1591 13.6597 128 ° 72 km/h 2273 m -6.1 m/s 402.300 MHz Mariapfarr (AT) 0.00 km UNKNOWN
U2230344 RS41 2023-02-17 01:25:18 47.0632 13.1498 200 ° 7 km/h 2123 m -3.1 m/s 402.30 MHz Badgastein (AT) 0.00 km UNKNOWN
U2110051 RS41 2023-02-16 13:29:45 47.7356 14.1015 108 ° 28 km/h 2044 m -13.0 m/s 402.300 MHz Micheldorf in Oberösterreich (AT) 0.00 km UNKNOWN
U2221025 RS41 2023-02-16 02:03:48 47.4799 13.387 40 ° 26 km/h 1146 m -2.5 m/s 402.30 MHz Abtenau (AT) 0.00 km UNKNOWN
U2230327 RS41 2023-02-15 13:32:09 47.6169 13.4897 112 ° 2 km/h 1331 m -3.2 m/s 402.30 MHz Bad Goisern (AT) 0.00 km UNKNOWN
U2220469 RS41 2023-02-15 01:32:30 47.5807 12.5718 176 ° 7 km/h 1551 m -1.9 m/s 402.30 MHz Kirchdorf in Tirol (AT) 0.00 km UNKNOWN
U2230333 RS41 2023-02-14 13:46:25 47.1726 12.6306 286 ° 11 km/h 3189 m -2.3 m/s 402.30 MHz Uttendorf (AT) 0.00 km UNKNOWN
U2230342 RS41 2023-02-14 00:57:40 47.3492 12.287 255 ° 11 km/h 2376 m -5.0 m/s 402.30 MHz Westendorf (AT) 0.00 km UNKNOWN
U2120212 RS41 2023-02-13 12:58:52 47.3934 12.4551 196 ° 4 km/h 1645 m -3.9 m/s 402.30 MHz Kitzbühel (AT) 0.00 km UNKNOWN
U2120286 RS41 2023-02-13 01:40:10 47.0849 12.025 203 ° 22 km/h 3079 m -2.3 m/s 402.30 MHz Mayrhofen (AT) 0.00 km UNKNOWN
U2230112 RS41 2023-02-12 13:43:28 46.8118 11.8418 228 ° 24 km/h 3063 m -4.1 m/s 402.30 MHz Brunico (IT) 0.00 km FOUND
U2330388 RS41 2023-02-12 01:24:10 46.7046 11.7944 212 ° 54 km/h 3609 m -3.5 m/s 402.300 MHz Bressanone (IT) 0.00 km UNKNOWN
U2120213 RS41 2023-02-11 13:16:06 47.0252 13.2034 109 ° 7 km/h 2533 m -6.5 m/s 402.30 MHz Obervellach (AT) 0.00 km UNKNOWN
U2230349 RS41 2023-02-11 00:40:31 47.404 12.7845 90 ° 17 km/h 1781 m -9.0 m/s 402.30 MHz Leogang (AT) 0.00 km UNKNOWN
U2120291 RS41 2023-02-10 13:49:46 47.0171 13.3953 135 ° 19 km/h 2925 m -2.6 m/s 402.30 MHz Gmünd (AT) 0.00 km UNKNOWN
U2230345 RS41 2023-02-10 01:11:41 47.5508 12.9676 172 ° 15 km/h 2077 m -2.4 m/s 402.30 MHz Hallein (AT) 0.00 km UNKNOWN
U2230347 RS41 2023-02-09 14:12:55 47.7984 12.5673 155 ° 11 km/h 990 m -2.4 m/s 402.30 MHz Traunreut (DE) 0.00 km UNKNOWN
U2230110 RS41 2023-02-09 01:50:54 47.7654 10.794 50 ° 20 km/h 959 m -2.5 m/s 402.30 MHz Kaufbeuren (DE) 0.00 km UNKNOWN
U2120215 RS41 2023-02-08 13:02:07 47.6357 11.2282 291 ° 30 km/h 1881 m -11.7 m/s 402.30 MHz Garmisch-Partenkirchen (DE) 0.00 km UNKNOWN
U2230354 RS41 2023-02-08 00:54:44 47.5491 10.631 305 ° 20 km/h 1583 m -9.3 m/s 402.30 MHz Reutte (AT) 0.00 km UNKNOWN
U2120293 RS41 2023-02-07 13:39:21 47.096 10.4821 197 ° 26 km/h 3171 m -2.7 m/s 402.30 MHz Landeck (AT) 0.00 km UNKNOWN
U2230109 RS41 2023-02-07 00:58:41 47.6108 10.9647 294 ° 28 km/h 2469 m -2.4 m/s 402.30 MHz Garmisch-Partenkirchen (DE) 0.00 km UNKNOWN
U2230335 RS41 2023-02-06 13:55:33 46.0025 11.025 290 ° 4 km/h 2009 m -2.0 m/s 402.30 MHz Trento (IT) 0.00 km FOUND
U2221023 RS41 2023-02-06 00:58:09 47.0231 11.8239 222 ° 41 km/h 3764 m -5.6 m/s 402.30 MHz Mayrhofen (AT) 0.00 km UNKNOWN
U2120288 RS41 2023-02-05 13:04:46 47.0243 13.0354 156 ° 7 km/h 2865 m -3.3 m/s 402.30 MHz Badgastein (AT) 0.00 km UNKNOWN
U2120211 RS41 2023-02-05 01:12:29 46.3441 12.6373 131 ° 11 km/h 2085 m -5.0 m/s 402.30 MHz Maniago (IT) 0.00 km UNKNOWN
U2220448 RS41 2023-02-04 13:51:33 46.0529 13.3038 4 ° 4 km/h 227 m -2.7 m/s 402.30 MHz Udine (IT) 0.00 km FOUND
U2230475 RS41 2023-02-04 00:52:05 46.3883 13.1026 354 ° 9 km/h 1246 m -4.2 m/s 402.30 MHz Tolmezzo (IT) 0.00 km UNKNOWN
U2220596 RS41 2023-02-03 12:47:23 46.6697 13.3388 129 ° 35 km/h 2157 m -8.5 m/s 402.30 MHz Hermagor (AT) 0.00 km UNKNOWN
U2220967 RS41 2023-02-03 01:02:02 46.4079 12.8123 74 ° 7 km/h 1844 m -3.4 m/s 402.30 MHz Tolmezzo (IT) 0.00 km FOUND
U2120287 RS41 2023-02-02 13:40:58 46.4704 15.0337 91 ° 6 km/h 1109 m -2.4 m/s 402.30 MHz Slovenj Gradec (SI) 0.00 km UNKNOWN
U2221020 RS41 2023-02-02 00:33:48 47.1568 13.9635 119 ° 65 km/h 2642 m -4.2 m/s 402.30 MHz Tamsweg (AT) 0.00 km UNKNOWN
U1440672 RS41 2023-02-01 14:18:04 47.6124 16.7393 100 ° 46 km/h 209 m -1.8 m/s 402.30 MHz Deutschkreutz (AT) 0.00 km FOUND
U1450508 RS41 2023-02-01 01:43:46 47.4859 15.728 133 ° 41 km/h 1005 m -5.2 m/s 402.30 MHz Langenwang (AT) 0.00 km UNKNOWN
U2221065 RS41 2023-01-31 13:46:49 46.9889 14.7745 135 ° 43 km/h 2056 m -3.3 m/s 402.30 MHz Bad Sankt Leonhard im Lavanttal (AT) 0.00 km UNKNOWN
U2230348 RS41 2023-01-31 02:04:51 46.0873 14.0486 148 ° 33 km/h 1226 m -2.4 m/s 402.30 MHz Žiri (SI) 0.00 km FOUND
U2220958 RS41 2023-01-30 13:52:30 47.2078 15.3281 114 ° 17 km/h 926 m -1.7 m/s 402.30 MHz Deutschfeistritz (AT) 0.00 km FOUND
U2230498 RS41 2023-01-30 01:49:18 47.326 12.6707 129 ° 39 km/h 2669 m -3.3 m/s 402.30 MHz Niedernsill (AT) 0.00 km UNKNOWN
U2230332 RS41 2023-01-29 13:00:14 47.3292 11.1572 210 ° 4 km/h 1552 m -5.6 m/s 402.30 MHz Seefeld in Tirol (AT) 0.00 km UNKNOWN
U1510126 RS41 2023-01-29 01:06:24 47.6006 12.1493 13 ° 11 km/h 1157 m -5.1 m/s 402.30 MHz Kufstein (AT) 0.00 km NEED ATTENTION
U2220601 RS41 2023-01-28 13:07:13 47.6775 11.775 249 ° 7 km/h 1441 m -3.7 m/s 402.30 MHz Achenkirch (AT) 0.00 km UNKNOWN
U2230724 RS41 2023-01-28 01:43:53 47.4803 11.2099 219 ° 7 km/h 1636 m -2.1 m/s 402.30 MHz Garmisch-Partenkirchen (DE) 0.00 km UNKNOWN
U2230713 RS41 2023-01-27 13:25:24 47.7802 11.7046 207 ° 7 km/h 1123 m -2.9 m/s 402.30 MHz Geretsried (DE) 0.00 km UNKNOWN
U1450499 RS41 2023-01-27 01:18:49 47.6163 11.8368 49 ° 4 km/h 1612 m -2.4 m/s 402.30 MHz Achenkirch (AT) 0.00 km UNKNOWN
U2220971 RS41 2023-01-26 12:46:19 47.9532 12.1666 214 ° 41 km/h 5966 m -11.9 m/s 402.30 MHz Rosenheim (DE) 0.00 km UNKNOWN
U1460226 RS41 2023-01-26 01:38:33 47.8849 12.1562 184 ° 4 km/h 722 m -1.7 m/s 402.30 MHz Rosenheim (DE) 0.00 km UNKNOWN
U1460381 RS41 2023-01-25 13:53:04 48.1549 11.3171 251 ° 6 km/h 913 m -1.7 m/s 402.30 MHz Germering (DE) 0.00 km FOUND
U1460362 RS41 2023-01-25 01:46:39 48.4398 11.882 262 ° 22 km/h 924 m -3.4 m/s 402.300 MHz Freising (DE) 0.00 km FOUND
U1460225 RS41 2023-01-24 14:18:58 48.3626 11.3532 237 ° 17 km/h 617 m -1.7 m/s 402.30 MHz Dachau (DE) 0.00 km UNKNOWN
U1470412 RS41 2023-01-24 01:47:18 48.4358 11.4683 251 ° 20 km/h 582 m -2.4 m/s 402.30 MHz Pfaffenhofen an der Ilm (DE) 0.00 km UNKNOWN
U2220268 RS41 2023-01-23 14:02:06 48.7671 11.6191 227 ° 37 km/h 748 m -2.1 m/s 402.30 MHz Ingolstadt (DE) 0.00 km LOST
U2220471 RS41 2023-01-23 01:49:30 49.0061 12.7902 224 ° 22 km/h 994 m -3.0 m/s 402.30 MHz Straubing (DE) 0.00 km UNKNOWN
U2230255 RS41 2023-01-22 13:29:39 48.6138 12.4771 160 ° 15 km/h 796 m -2.8 m/s 402.30 MHz Landshut (DE) 0.00 km FOUND
U2220968 RS41 2023-01-22 01:23:25 48.4121 12.5294 227 ° 7 km/h 943 m -5.2 m/s 402.30 MHz Waldkraiburg (DE) 0.00 km FOUND
U2330515 RS41 2023-01-21 13:34:56 48.3768 12.3419 198 ° 28 km/h 882 m -2.6 m/s 402.30 MHz Waldkraiburg (DE) 0.00 km FOUND
U2230047 RS41 2023-01-21 01:36:41 48.5824 13.1967 164 ° 22 km/h 591 m -3.4 m/s 402.30 MHz Passau (DE) 0.00 km UNKNOWN
U2120591 RS41 2023-01-20 13:23:57 48.811 13.6357 124 ° 11 km/h 1053 m -3.8 m/s 402.30 MHz Ulrichsberg (AT) 0.00 km UNKNOWN
U2220273 RS41 2023-01-20 01:02:12 48.8909 13.6913 136 ° 20 km/h 1358 m -9.0 m/s 402.30 MHz Vimperk (CZ) 0.00 km UNKNOWN
U2220267 RS41 2023-01-19 13:29:43 49.3649 14.2477 102 ° 31 km/h 1344 m -4.4 m/s 402.30 MHz Písek (CZ) 0.00 km FOUND
U2220265 RS41 2023-01-19 02:18:05 50.0345 14.9455 121 ° 19 km/h 658 m -2.1 m/s 402.30 MHz Český Brod (CZ) 0.00 km FOUND
U2220266 RS41 2023-01-18 13:46:40 50.0272 14.6991 358 ° 26 km/h 393 m -3.3 m/s 402.30 MHz Říčany (CZ) 0.00 km FOUND
U2220275 RS41 2023-01-18 01:19:44 49.6842 14.2565 26 ° 26 km/h 1508 m -3.6 m/s 402.30 MHz Sedlčany (CZ) 0.00 km UNKNOWN
U2221074 RS41 2023-01-17 13:23:56 49.2481 14.7587 329 ° 15 km/h 578 m -3.3 m/s 402.30 MHz Soběslav (CZ) 0.00 km UNKNOWN
U2230043 RS41 2023-01-17 00:45:06 48.7573 13.4694 87 ° 59 km/h 1259 m -7.3 m/s 402.30 MHz Passau (DE) 0.00 km UNKNOWN
U2220472 RS41 2023-01-16 13:25:39 48.918 13.7105 335 ° 22 km/h 1421 m -3.8 m/s 402.30 MHz Vimperk (CZ) 0.00 km UNKNOWN
U2150909 RS41 2023-01-16 00:49:59 48.9591 13.7942 64 ° 11 km/h 1321 m -2.4 m/s 402.30 MHz Vimperk (CZ) 0.00 km UNKNOWN
U2220473 RS41 2023-01-15 14:21:17 48.9503 16.1257 360 ° 15 km/h 392 m -2.3 m/s 402.300 MHz Znojmo (CZ) 0.00 km UNKNOWN
U2220274 RS41 2023-01-15 01:35:17 47.6184 13.9749 83 ° 24 km/h 2251 m -2.2 m/s 402.30 MHz Stainach (AT) 0.00 km UNKNOWN
U2220271 RS41 2023-01-14 13:44:09 46.9913 14.3942 29 ° 24 km/h 1701 m -2.9 m/s 402.30 MHz Friesach (AT) 0.00 km UNKNOWN
U1460363 RS41 2023-01-14 00:59:32 47.7076 14.0649 122 ° 30 km/h 1964 m -5.1 m/s 402.30 MHz Stainach (AT) 0.00 km UNKNOWN
U2220259 RS41 2023-01-13 13:45:54 48.4276 15.0002 60 ° 44 km/h 992 m -2.1 m/s 402.30 MHz Königswiesen (AT) 0.00 km UNKNOWN
U2220262 RS41 2023-01-13 00:41:58 48.115 13.4849 41 ° 31 km/h 708 m -6.6 m/s 402.30 MHz Waldzell (AT) 0.00 km FOUND
U2220272 RS41 2023-01-12 13:42:23 47.3853 14.5838 103 ° 26 km/h 2105 m -2.4 m/s 402.30 MHz Trieben (AT) 0.00 km UNKNOWN
U2220261 RS41 2023-01-12 00:57:13 48.2295 13.5755 91 ° 28 km/h 584 m -3.6 m/s 402.30 MHz Taiskirchen im Innkreis (AT) 0.00 km UNKNOWN
U2220474 RS41 2023-01-11 13:47:38 47.9261 15.2391 92 ° 9 km/h 864 m -2.3 m/s 402.30 MHz Scheibbs (AT) 0.00 km UNKNOWN
U2220269 RS41 2023-01-11 02:06:20 46.5595 14.1809 104 ° 19 km/h 913 m -2.7 m/s 402.30 MHz Keutschach am See (AT) 0.00 km NEED ATTENTION
U2220260 RS41 2023-01-10 14:07:10 46.6723 14.6013 144 ° 22 km/h 754 m -4.1 m/s 402.30 MHz Völkermarkt (AT) 0.00 km NEED ATTENTION
U2220270 RS41 2023-01-10 01:25:29 48.3732 13.9073 101 ° 28 km/h 652 m -3.5 m/s 402.30 MHz Waizenkirchen (AT) 0.00 km UNKNOWN
U1460184 RS41 2023-01-09 14:11:43 49.1996 15.7875 102 ° 37 km/h 670 m -1.6 m/s 402.30 MHz Třebíč (CZ) 0.00 km UNKNOWN
U2230503 RS41 2023-01-09 00:43:37 48.9595 13.3399 356 ° 39 km/h 1440 m -3.9 m/s 402.30 MHz Deggendorf (DE) 0.00 km UNKNOWN
U2330438 RS41 2023-01-08 14:06:25 48.9647 15.7395 259 ° 4 km/h 569 m -2.2 m/s 402.30 MHz Moravské Budějovice (CZ) 0.00 km UNKNOWN
U1460170 RS41 2023-01-08 01:52:22 48.3251 15.1037 104 ° 7 km/h 721 m -3.1 m/s 402.30 MHz Pöggstall (AT) 0.00 km UNKNOWN
U1470401 RS41 2023-01-07 13:42:49 48.0803 14.5965 272 ° 31 km/h 456 m -3.2 m/s 402.30 MHz Weistrach (AT) 0.00 km UNKNOWN
U2220984 RS41 2023-01-07 01:08:01 47.8692 14.4475 330 ° 2 km/h 959 m -4.6 m/s 402.300 MHz Grossraming (AT) 0.00 km UNKNOWN
U1460366 RS41 2023-01-06 13:20:04 47.7693 14.7523 39 ° 6 km/h 935 m -4.0 m/s 402.30 MHz Weyer Markt (AT) 0.00 km UNKNOWN
U1460203 RS41 2023-01-06 03:27:00 46.9221 14.9023 144 ° 43 km/h 2045 m -3.3 m/s 404.70 MHz Bad Sankt Leonhard im Lavanttal (AT) 0.00 km UNKNOWN
U1470431 RS41 2023-01-06 00:30:16 47.3795 12.7218 114 ° 44 km/h 2726 m -2.8 m/s 402.30 MHz Leogang (AT) 0.00 km FOUND
U1470862 RS41 2023-01-05 14:16:30 46.6672 15.7338 340 ° 11 km/h 407 m -1.9 m/s 402.30 MHz Mureck (AT) 0.00 km FOUND
U1510122 RS41 2023-01-05 01:05:49 47.3408 13.9737 119 ° 59 km/h 2858 m -2.9 m/s 402.30 MHz Gröbming (AT) 0.00 km UNKNOWN
U1450463 RS41 2023-01-04 13:55:04 47.1541 14.5814 111 ° 33 km/h 1923 m -2.8 m/s 402.30 MHz Judenburg (AT) 0.00 km UNKNOWN
U1460007 RS41 2023-01-04 02:03:36 47.4441 14.8749 102 ° 19 km/h 1784 m -2.1 m/s 402.30 MHz Trofaiach (AT) 0.00 km UNKNOWN
U1470477 RS41 2023-01-03 13:26:04 48.4681 15.3445 1 ° 4 km/h 778 m -3.6 m/s 402.30 MHz Gföhl (AT) 0.00 km FOUND
U1460694 RS41 2023-01-03 01:40:27 49.1328 15.3466 108 ° 50 km/h 739 m -3.5 m/s 402.30 MHz Dačice (CZ) 0.00 km UNKNOWN
U2220983 RS41 2023-01-02 12:26:52 48.9775 13.2675 62 ° 31 km/h 1797 m -11.2 m/s 402.30 MHz Deggendorf (DE) 0.00 km UNKNOWN
U1450519 RS41 2023-01-02 02:12:10 48.7319 15.9005 231 ° 22 km/h 340 m -2.0 m/s 402.30 MHz Retz (AT) 0.00 km FOUND
U1470480 RS41 2023-01-01 13:31:50 48.5981 15.4459 5 ° 7 km/h 593 m -3.6 m/s 402.30 MHz Gföhl (AT) 0.00 km UNKNOWN
U1460331 RS41 2023-01-01 01:08:42 48.5301 14.9098 32 ° 24 km/h 960 m -5.0 m/s 402.30 MHz Grossgerungs (AT) 0.00 km UNKNOWN
U1450310 RS41 2022-12-31 14:13:07 48.0032 16.1322 47 ° 13 km/h 787 m -2.4 m/s 402.30 MHz Pottenstein (AT) 0.00 km FOUND
U2230558 RS41 2022-12-31 01:06:35 47.8178 14.6931 35 ° 9 km/h 1188 m -4.6 m/s 402.30 MHz Weyer Markt (AT) 0.00 km UNKNOWN
U2220465 RS41 2022-12-30 12:53:12 47.8867 13.8986 314 ° 15 km/h 1046 m -7.9 m/s 402.30 MHz Scharnstein (AT) 0.00 km NEED ATTENTION
U1460372 RS41 2022-12-30 01:20:25 48.5789 15.3349 79 ° 30 km/h 713 m -3.8 m/s 402.30 MHz Zwettl (AT) 0.00 km FOUND
U1470478 RS41 2022-12-29 13:11:17 48.6091 14.9732 94 ° 31 km/h 857 m -5.6 m/s 402.30 MHz Grossgerungs (AT) 0.00 km UNKNOWN
U1470413 RS41 2022-12-29 01:10:14 48.3337 14.5527 239 ° 6 km/h 408 m -3.1 m/s 402.30 MHz Pregarten (AT) 0.00 km FOUND
U2220981 RS41 2022-12-28 13:03:47 47.7489 14.8529 86 ° 9 km/h 1396 m -7.9 m/s 402.30 MHz Landl (AT) 0.00 km UNKNOWN
U2330436 RS41 2022-12-28 02:00:00 47.5813 15.1979 122 ° 4 km/h 1620 m -2.7 m/s 402.30 MHz Thörl (AT) 0.00 km UNKNOWN
U1470486 RS41 2022-12-27 13:58:38 47.5856 15.8753 104 ° 44 km/h 1436 m -3.6 m/s 402.30 MHz Kirchberg am Wechsel (AT) 0.00 km UNKNOWN
U1450516 RS41 2022-12-27 00:58:47 48.3415 14.3606 15 ° 2 km/h 426 m -1.7 m/s 402.30 MHz Altenberg bei Linz (AT) 0.00 km FOUND
U1470402 RS41 2022-12-26 13:06:52 48.7155 15.1933 76 ° 35 km/h 693 m -5.8 m/s 402.30 MHz Vitis (AT) 0.00 km UNKNOWN
U1450652 RS41 2022-12-26 01:18:44 48.4693 15.0152 88 ° 48 km/h 1003 m -3.2 m/s 402.30 MHz Grossgerungs (AT) 0.00 km UNKNOWN
U1460228 RS41 2022-12-25 14:16:04 48.106 15.556 257 ° 19 km/h 470 m -2.8 m/s 402.30 MHz Wilhelmsburg (AT) 0.00 km UNKNOWN
U2230364 RS41 2022-12-25 01:12:18 47.7797 14.711 70 ° 6 km/h 1062 m -5.9 m/s 402.30 MHz Weyer Markt (AT) 0.00 km UNKNOWN
U1460198 RS41 2022-12-24 13:58:04 47.4643 15.6016 113 ° 39 km/h 1582 m -1.6 m/s 402.30 MHz Krieglach (AT) 0.00 km UNKNOWN
U1450327 RS41 2022-12-24 01:17:58 47.5785 14.6616 324 ° 9 km/h 1031 m -5.8 m/s 402.30 MHz Landl (AT) 0.00 km UNKNOWN
U1460361 RS41 2022-12-23 13:49:26 47.5913 15.0253 107 ° 37 km/h 1778 m -4.2 m/s 402.30 MHz Eisenerz (AT) 0.00 km UNKNOWN
U2230502 RS41 2022-12-23 01:20:25 47.7888 13.903 291 ° 9 km/h 1404 m -2.9 m/s 402.30 MHz Ebensee (AT) 0.00 km UNKNOWN
U1450305 RS41 2022-12-22 13:42:13 48.2794 14.4745 21 ° 11 km/h 436 m -3.5 m/s 402.30 MHz Sankt Georgen an der Gusen (AT) 0.00 km UNKNOWN
U2220970 RS41 2022-12-22 02:21:25 48.456 14.7021 56 ° 30 km/h 907 m -1.7 m/s 402.30 MHz Unterweissenbach (AT) 0.00 km UNKNOWN
U1460365 RS41 2022-12-21 13:03:48 48.5939 13.8634 55 ° 4 km/h 784 m -7.4 m/s 402.30 MHz Sarleinsbach (AT) 0.00 km FOUND
U1450513 RS41 2022-12-21 01:20:49 48.4415 13.7415 290 ° 11 km/h 632 m -2.7 m/s 402.30 MHz Natternbach (AT) 0.00 km UNKNOWN
U1450564 RS41 2022-12-20 14:28:26 48.1966 15.2046 247 ° 15 km/h 291 m -1.7 m/s 402.30 MHz Pöchlarn (AT) 0.00 km LOST
U1450329 RS41 2022-12-20 00:27:47 48.2254 13.1479 263 ° 9 km/h 460 m -5.5 m/s 402.30 MHz Mauerkirchen (AT) 0.00 km FOUND
U1460216 RS41 2022-12-19 13:43:34 47.9695 14.8475 306 ° 7 km/h 650 m -3.7 m/s 402.30 MHz Ybbsitz (AT) 0.00 km UNKNOWN
U1450184 RS41 2022-12-19 01:48:19 47.5967 14.6906 327 ° 7 km/h 904 m -3.5 m/s 402.30 MHz Landl (AT) 0.00 km UNKNOWN
U2220969 RS41 2022-12-18 14:04:46 47.4124 14.7068 77 ° 13 km/h 1729 m -2.3 m/s 402.30 MHz Trieben (AT) 0.00 km UNKNOWN
U1450532 RS41 2022-12-18 02:20:05 48.3372 15.2048 270 ° 7 km/h 837 m -1.6 m/s 402.30 MHz Pöggstall (AT) 0.00 km NEED ATTENTION
U1440634 RS41 2022-12-17 14:27:17 48.6902 15.8065 122 ° 24 km/h 406 m -4.2 m/s 402.30 MHz Eggenburg (AT) 0.00 km UNKNOWN
U1510116 RS41 2022-12-17 01:06:46 49.0166 13.811 198 ° 13 km/h 1398 m -4.0 m/s 402.30 MHz Vimperk (CZ) 0.00 km UNKNOWN
U1460382 RS41 2022-12-16 13:13:39 49.1679 13.8264 117 ° 13 km/h 1009 m -6.3 m/s 402.30 MHz Strakonice (CZ) 0.00 km FOUND
U1470906 RS41 2022-12-16 00:50:39 49.0127 13.0761 313 ° 13 km/h 1292 m -5.6 m/s 402.30 MHz Deggendorf (DE) 0.00 km UNKNOWN
U1440667 RS41 2022-12-15 13:33:38 48.8493 15.0299 294 ° 13 km/h 634 m -4.6 m/s 402.30 MHz Heidenreichstein (AT) 0.00 km UNKNOWN
U1470185 RS41 2022-12-15 07:14:27 48.4485 14.2343 207 ° 4 km/h 770 m -5.8 m/s 402.30 MHz Oberneukirchen (AT) 0.00 km FOUND
U2220994 RS41 2022-12-15 01:34:43 48.531 14.6856 78 ° 11 km/h 943 m -3.0 m/s 402.30 MHz Sankt Oswald bei Freistadt (AT) 0.00 km UNKNOWN
U1460624 RS41 2022-12-14 19:49:39 48.2801 14.8945 96 ° 13 km/h 682 m -3.9 m/s 402.30 MHz Waldhausen im Strudengau (AT) 0.00 km UNKNOWN
U1460183 RS41 2022-12-14 13:40:09 48.5059 15.1061 295 ° 15 km/h 882 m -2.1 m/s 402.30 MHz Zwettl (AT) 0.00 km UNKNOWN
U1440633 RS41 2022-12-14 08:09:51 48.0531 15.5123 112 ° 6 km/h 561 m -2.0 m/s 402.30 MHz Kirchberg an der Pielach (AT) 0.00 km UNKNOWN
U2330435 RS41 2022-12-14 01:38:48 47.9323 14.8073 270 ° 2 km/h 805 m -3.5 m/s 402.30 MHz Waidhofen an der Ybbs (AT) 0.00 km UNKNOWN
U1450476 RS41 2022-12-13 14:14:38 47.4107 15.5393 31 ° 7 km/h 1353 m -5.0 m/s 402.30 MHz Kindberg (AT) 0.00 km FOUND
U1460175 RS41 2022-12-13 01:47:37 47.5349 14.6091 82 ° 13 km/h 1958 m -2.1 m/s 402.30 MHz Trieben (AT) 0.00 km UNKNOWN
U1460339 RS41 2022-12-12 13:56:32 47.7358 14.2723 122 ° 33 km/h 1390 m -4.4 m/s 402.30 MHz Windischgarsten (AT) 0.00 km UNKNOWN
U1470403 RS41 2022-12-12 02:14:51 48.0442 14.4976 84 ° 31 km/h 484 m -5.0 m/s 402.30 MHz Behamberg (AT) 0.00 km UNKNOWN
U1460223 RS41 2022-12-11 13:00:59 48.3577 13.0368 77 ° 9 km/h 650 m -7.4 m/s 402.30 MHz Braunau am Inn (AT) 0.00 km FOUND
U1460478 RS41 2022-12-11 01:14:42 49.0066 12.955 138 ° 24 km/h 1202 m -3.9 m/s 402.30 MHz Deggendorf (DE) 0.00 km UNKNOWN
U1460661 RS41 2022-12-10 13:06:19 48.7011 13.5589 207 ° 15 km/h 1052 m -11.0 m/s 402.30 MHz Esternberg (AT) 0.00 km FOUND
U2220955 RS41 2022-12-10 00:58:52 48.3574 13.7252 153 ° 11 km/h 646 m -8.0 m/s 402.30 MHz Peuerbach (AT) 0.00 km UNKNOWN
U2230501 RS41 2022-12-09 13:54:52 48.7157 14.6864 270 ° 15 km/h 935 m -2.6 m/s 402.30 MHz Kaplice (CZ) 0.00 km UNKNOWN
U1460177 RS41 2022-12-09 02:08:07 48.2327 15.5282 258 ° 17 km/h 418 m -2.3 m/s 402.30 MHz Obergrafendorf (AT) 0.00 km FOUND
U2230547 RS41 2022-12-08 14:26:08 48.1099 15.2017 28 ° 9 km/h 393 m -1.6 m/s 402.30 MHz Oberndorf an der Melk (AT) 0.00 km UNKNOWN
U1470861 RS41 2022-12-08 01:25:23 47.9739 13.8353 330 ° 4 km/h 604 m -3.9 m/s 402.30 MHz Laakirchen (AT) 0.00 km UNKNOWN
U1450563 RS41 2022-12-07 14:25:14 47.3968 14.2355 88 ° 33 km/h 2168 m -2.5 m/s 402.30 MHz Irdning (AT) 0.00 km UNKNOWN
U1470398 RS41 2022-12-07 01:37:24 47.5525 13.602 108 ° 30 km/h 2232 m -2.0 m/s 402.30 MHz Bad Goisern (AT) 0.00 km UNKNOWN
U1450517 RS41 2022-12-06 13:36:20 47.4143 13.5867 111 ° 15 km/h 2248 m -4.0 m/s 402.30 MHz Schladming (AT) 0.00 km UNKNOWN
U1450419 RS41 2022-12-06 01:54:51 47.8173 13.1485 83 ° 24 km/h 829 m -3.7 m/s 402.30 MHz Koppl (AT) 0.00 km UNKNOWN
U2220982 RS41 2022-12-05 13:34:53 48.412 13.052 81 ° 15 km/h 650 m -3.4 m/s 402.30 MHz Braunau am Inn (AT) 0.00 km UNKNOWN
U1460185 RS41 2022-12-05 02:18:35 48.3238 13.4715 22 ° 6 km/h 498 m -1.7 m/s 402.30 MHz Aurolzmünster (AT) 0.00 km UNKNOWN
U1460171 RS41 2022-12-04 14:27:46 48.7077 12.3064 285 ° 30 km/h 600 m -2.4 m/s 402.30 MHz Landshut (DE) 0.00 km UNKNOWN
U2220463 RS41 2022-12-04 02:02:38 48.6839 12.8134 295 ° 43 km/h 771 m -2.9 m/s 402.30 MHz Deggendorf (DE) 0.00 km FOUND
U2221018 RS41 2022-12-03 14:31:49 48.7316 13.4528 279 ° 19 km/h 875 m -2.5 m/s 402.30 MHz Passau (DE) 0.00 km UNKNOWN
U2230553 RS41 2022-12-03 01:41:33 48.3398 12.4025 261 ° 11 km/h 801 m -3.7 m/s 402.30 MHz Waldkraiburg (DE) 0.00 km UNKNOWN
U1470556 RS41 2022-12-02 14:29:24 48.5242 11.9818 295 ° 15 km/h 576 m -2.7 m/s 402.30 MHz Landshut (DE) 0.00 km FOUND
U1450534 RS41 2022-12-02 01:56:11 48.4776 12.0792 276 ° 2 km/h 600 m -3.1 m/s 402.30 MHz Landshut (DE) 0.00 km FOUND
U1460187 RS41 2022-12-01 13:22:51 48.2866 11.7074 282 ° 11 km/h 637 m -3.3 m/s 402.30 MHz Unterschleißheim (DE) 0.00 km FOUND
U1460176 RS41 2022-12-01 02:26:50 48.3183 11.4908 211 ° 20 km/h 593 m -2.2 m/s 402.30 MHz Unterschleißheim (DE) 0.00 km UNKNOWN
U1450552 RS41 2022-11-30 14:22:17 48.698 11.7708 239 ° 13 km/h 502 m -2.0 m/s 402.30 MHz Ingolstadt (DE) 0.00 km UNKNOWN
U1450632 RS41 2022-11-30 02:03:08 48.833 11.3347 258 ° 6 km/h 470 m -2.3 m/s 402.30 MHz Ingolstadt (DE) 0.00 km FOUND
U1470554 RS41 2022-11-29 13:01:37 48.6298 11.6667 281 ° 9 km/h 502 m -5.9 m/s 402.30 MHz Pfaffenhofen an der Ilm (DE) 0.00 km FOUND
U2220957 RS41 2022-11-29 01:23:13 48.8361 11.9909 308 ° 9 km/h 469 m -2.1 m/s 402.30 MHz Regensburg (DE) 0.00 km FOUND
U1460202 RS41 2022-11-28 13:55:23 48.5694 13.2389 302 ° 9 km/h 558 m -3.0 m/s 402.30 MHz Passau (DE) 0.00 km UNKNOWN
U2220466 RS41 2022-11-27 00:54:32 47.0891 12.0914 166 ° 28 km/h 3554 m -3.2 m/s 402.30 MHz Mayrhofen (AT) 0.00 km UNKNOWN
U2230563 RS41 2022-11-26 13:15:35 47.2351 12.1893 171 ° 13 km/h 2722 m -5.7 m/s 402.30 MHz Neukirchen am Großvenediger (AT) 0.00 km UNKNOWN
U1470408 RS41 2022-11-26 01:38:03 47.9368 13.014 86 ° 17 km/h 831 m -3.3 m/s 402.30 MHz Nußdorf am Haunsberg (AT) 0.00 km UNKNOWN
U1470171 RS41 2022-11-25 13:28:06 48.0885 13.2718 339 ° 4 km/h 727 m -3.7 m/s 402.30 MHz Munderfing (AT) 0.00 km UNKNOWN
U1470432 RS41 2022-11-25 01:44:26 47.5715 13.5571 107 ° 31 km/h 2113 m -3.0 m/s 402.30 MHz Bad Goisern (AT) 0.00 km UNKNOWN
U1470410 RS41 2022-11-24 12:52:14 48.0722 12.8062 74 ° 31 km/h 627 m -8.8 m/s 402.30 MHz Ostermiething (AT) 0.00 km UNKNOWN
U1460348 RS41 2022-11-24 00:57:06 48.041 13.0434 67 ° 37 km/h 693 m -6.9 m/s 402.30 MHz Eggelsberg (AT) 0.00 km FOUND
U1470397 RS41 2022-11-23 13:55:36 48.2006 12.6707 265 ° 9 km/h 525 m -2.0 m/s 402.30 MHz Hochburg-Ach (AT) 0.00 km FOUND
U1460194 RS41 2022-11-23 01:48:24 48.4964 12.2785 99 ° 15 km/h 599 m -2.6 m/s 402.30 MHz Landshut (DE) 0.00 km UNKNOWN
U1510114 RS41 2022-11-22 14:10:08 49.0455 12.4433 157 ° 4 km/h 690 m -1.9 m/s 402.30 MHz Straubing (DE) 0.00 km UNKNOWN
U3824203 RS41 2022-11-22 02:25:28 48.4554 12.848 357 ° 22 km/h 674 m -6.6 m/s 404.70 MHz Braunau am Inn (AT) 0.00 km FOUND
U3714624 RS41 2022-11-22 00:19:01 48.578 12.368 328 ° 33 km/h 819 m -2.2 m/s 402.30 MHz Landshut (DE) 0.00 km UNKNOWN
U3714618 RS41 2022-11-21 13:07:20 47.7302 13.3719 62 ° 20 km/h 1617 m -9.7 m/s 402.30 MHz Sankt Gilgen (AT) 0.00 km UNKNOWN
U3714588 RS41 2022-11-21 01:10:20 48.3143 13.0898 175 ° 30 km/h 500 m -7.6 m/s 402.30 MHz Sankt Peter (AT) 0.00 km UNKNOWN
U3714622 RS41 2022-11-20 12:53:02 48.1288 12.761 64 ° 17 km/h 545 m -4.5 m/s 402.30 MHz Hochburg-Ach (AT) 0.00 km UNKNOWN
U4044294 RS41 2022-11-20 01:44:36 48.5024 13.7894 67 ° 15 km/h 738 m -2.7 m/s 402.30 MHz Sarleinsbach (AT) 0.00 km UNKNOWN
U3824199 RS41 2022-11-19 14:19:27 48.6609 15.1208 278 ° 9 km/h 742 m -2.4 m/s 402.30 MHz Zwettl (AT) 0.00 km UNKNOWN
U3714623 RS41 2022-11-19 01:42:56 48.3366 14.6579 164 ° 6 km/h 592 m -2.5 m/s 402.30 MHz Tragwein (AT) 0.00 km UNKNOWN
U3824197 RS41 2022-11-18 12:57:32 48.2846 13.3377 104 ° 44 km/h 806 m -4.5 m/s 402.30 MHz Altheim (AT) 0.00 km FOUND
U3714492 RS41 2022-11-18 00:48:00 48.4468 13.3976 49 ° 33 km/h 2451 m -5.9 m/s 402.30 MHz Schärding (AT) 0.00 km UNKNOWN
U3714617 RS41 2022-11-17 13:07:23 48.2477 14.6478 316 ° 15 km/h 305 m -8.6 m/s 402.30 MHz Perg (AT) 0.00 km FOUND
U3714503 RS41 2022-11-17 01:50:35 47.6681 14.6783 353 ° 7 km/h 886 m -2.9 m/s 402.30 MHz Landl (AT) 0.00 km FOUND
U1450302 RS41 2022-11-16 14:33:02 48.6358 14.5509 69 ° 20 km/h 980 m -1.8 m/s 402.30 MHz Rainbach im Mühlkreis (AT) 0.00 km UNKNOWN
U3714616 RS41 2022-11-16 01:49:52 48.1621 13.3062 317 ° 13 km/h 553 m -1.9 m/s 402.30 MHz Mettmach (AT) 0.00 km UNKNOWN
U1470422 RS41 2022-11-15 14:06:57 48.0663 12.6595 151 ° 4 km/h 628 m -2.2 m/s 402.30 MHz Traunreut (DE) 0.00 km FOUND
U3824213 RS41 2022-11-15 02:27:01 48.4906 12.1967 315 ° 30 km/h 626 m -1.6 m/s 402.30 MHz Landshut (DE) 0.00 km UNKNOWN
U3824208 RS41 2022-11-14 01:13:36 48.4812 10.5545 80 ° 22 km/h 926 m -4.9 m/s 402.30 MHz Dillingen (DE) 0.00 km UNKNOWN
U3824211 RS41 2022-11-13 13:25:54 48.424 9.95218 320 ° 6 km/h 703 m -5.2 m/s 402.300 MHz Ulm (DE) 0.00 km FOUND
U3824216 RS41 2022-11-13 02:06:49 48.4375 10.0202 258 ° 15 km/h 660 m -4.3 m/s 404.70 MHz Ulm (DE) 0.00 km FOUND
U3824202 RS41 2022-11-13 00:23:09 48.4024 10.3444 281 ° 31 km/h 772 m -7.0 m/s 402.30 MHz Dillingen (DE) 0.00 km FOUND
U3824204 RS41 2022-11-12 13:22:23 48.4968 10.7987 284 ° 9 km/h 609 m -4.9 m/s 402.30 MHz Neusäß (DE) 0.00 km FOUND
U3824215 RS41 2022-11-12 00:59:43 48.3796 10.9599 308 ° 9 km/h 645 m -10.0 m/s 402.30 MHz Augsburg (DE) 0.00 km UNKNOWN
U3824196 RS41 2022-11-11 13:59:01 47.8403 10.4711 30 ° 4 km/h 945 m -2.5 m/s 402.30 MHz Kaufbeuren (DE) 0.00 km UNKNOWN
U3714491 RS41 2022-11-11 02:01:34 47.3339 11.0103 310 ° 4 km/h 1586 m -2.2 m/s 402.30 MHz Mieming (AT) 0.00 km UNKNOWN
U3824212 RS41 2022-11-10 13:42:18 47.2673 11.6351 176 ° 6 km/h 1758 m -2.5 m/s 402.30 MHz Wattens (AT) 0.00 km UNKNOWN
U3824200 RS41 2022-11-10 00:48:11 48.4585 12.9282 121 ° 39 km/h 945 m -4.1 m/s 402.30 MHz Braunau am Inn (AT) 0.00 km FOUND
U4044292 RS41 2022-11-09 13:09:47 48.4403 12.6245 151 ° 19 km/h 21603 m -27.2 m/s 402.30 MHz Waldkraiburg (DE) 0.00 km FOUND
U3824205 RS41 2022-11-09 01:35:41 48.5416 13.1114 328 ° 9 km/h 574 m -2.9 m/s 402.30 MHz Passau (DE) 0.00 km FOUND
U3824201 RS41 2022-11-08 13:15:32 48.3552 12.8006 44 ° 6 km/h 799 m -2.8 m/s 402.30 MHz Braunau am Inn (AT) 0.00 km NEED ATTENTION
U3824194 RS41 2022-11-08 01:11:57 48.1781 12.1946 65 ° 39 km/h 18898 m 5.5 m/s 402.300 MHz Waldkraiburg (DE) 0.00 km UNKNOWN
U3824210 RS41 2022-11-07 13:25:32 48.0537 13.3202 90 ° 20 km/h 826 m -4.8 m/s 402.30 MHz Pöndorf (AT) 0.00 km UNKNOWN
U3824209 RS41 2022-11-07 01:00:48 48.448 13.0921 99 ° 63 km/h 1037 m -6.0 m/s 402.30 MHz Braunau am Inn (AT) 0.00 km UNKNOWN
U1450529 RS41 2022-11-06 02:02:10 47.1606 12.5044 241 ° 15 km/h 3512 m -2.3 m/s 402.30 MHz Mittersill (AT) 0.00 km UNKNOWN
U1460196 RS41 2022-11-05 01:49:16 48.2546 12.8548 97 ° 13 km/h 478 m -2.9 m/s 402.30 MHz Braunau am Inn (AT) 0.00 km UNKNOWN
U2220457 RS41 2022-11-04 15:07:44 48.5253 13.064 125 ° 37 km/h 715 m -2.1 m/s 404.70 MHz Passau (DE) 0.00 km UNKNOWN
U1460174 RS41 2022-11-04 12:27:53 48.8741 11.9207 96 ° 13 km/h 582 m -4.4 m/s 402.300 MHz Regensburg (DE) 0.00 km UNKNOWN
U1450533 RS41 2022-11-04 00:54:25 48.6843 12.9746 47 ° 50 km/h 1492 m -6.8 m/s 402.300 MHz Deggendorf (DE) 0.00 km UNKNOWN
U1470407 RS41 2022-11-03 13:51:43 48.1511 13.88 247 ° 2 km/h 477 m -3.2 m/s 402.30 MHz Pichl bei Wels (AT) 0.00 km FOUND
U1460179 RS41 2022-11-03 01:03:31 48.1231 13.2578 283 ° 24 km/h 1063 m -12.4 m/s 402.30 MHz Schalchen (AT) 0.00 km FOUND
U1460371 RS41 2022-11-02 14:08:16 48.6179 14.8382 65 ° 7 km/h 897 m -2.8 m/s 402.30 MHz Grossgerungs (AT) 0.00 km UNKNOWN
U1470424 RS41 2022-11-02 01:27:26 48.4611 13.933 111 ° 9 km/h 635 m -5.5 m/s 402.300 MHz Altenfelden (AT) 0.00 km FOUND
U1450560 RS41 2022-11-01 13:19:45 48.7967 13.6252 124 ° 26 km/h 1241 m -12.6 m/s 402.30 MHz Ulrichsberg (AT) 0.00 km UNKNOWN
U1470183 RS41 2022-11-01 02:11:49 48.2892 13.7936 302 ° 11 km/h 510 m -2.0 m/s 402.30 MHz Kallham (AT) 0.00 km UNKNOWN
U1510118 RS41 2022-10-31 13:10:18 48.5167 12.9913 299 ° 30 km/h 738 m -6.8 m/s 402.30 MHz Braunau am Inn (AT) 0.00 km FOUND
U1450330 RS41 2022-10-31 00:46:44 48.3619 12.2639 176 ° 2 km/h 704 m -7.8 m/s 402.30 MHz Waldkraiburg (DE) 0.00 km UNKNOWN
U1450634 RS41 2022-10-30 13:02:00 48.2687 12.9373 19 ° 20 km/h 2411 m -15.8 m/s 402.30 MHz Braunau am Inn (AT) 0.00 km FOUND
U1460335 RS41 2022-10-30 01:03:32 48.0266 12.8839 332 ° 31 km/h 669 m -11.3 m/s 402.300 MHz Ostermiething (AT) 0.00 km UNKNOWN
U1450506 RS41 2022-10-29 14:14:10 47.6834 13.6307 99 ° 7 km/h 1807 m -2.0 m/s 402.30 MHz Bad Ischl (AT) 0.00 km UNKNOWN
U1460195 RS41 2022-10-29 02:09:45 47.5571 13.5029 104 ° 17 km/h 2169 m -2.4 m/s 402.30 MHz Abtenau (AT) 0.00 km UNKNOWN
U1460211 RS41 2022-10-28 13:38:54 47.7709 13.5598 183 ° 6 km/h 1397 m -4.2 m/s 402.30 MHz Strobl (AT) 0.00 km UNKNOWN
U1460692 RS41 2022-10-28 02:09:50 47.8124 13.7765 5 ° 11 km/h 1274 m -2.6 m/s 402.30 MHz Ebensee (AT) 0.00 km UNKNOWN
U1450527 RS41 2022-10-27 14:00:22 48.1143 12.668 276 ° 13 km/h 627 m -2.6 m/s 402.30 MHz Ostermiething (AT) 0.00 km UNKNOWN
U1450511 RS41 2022-10-26 02:28:54 47.9705 15.1555 141 ° 6 km/h 632 m -2.2 m/s 402.30 MHz Scheibbs (AT) 0.00 km UNKNOWN
U1450471 RS41 2022-10-25 14:17:49 47.8838 15.8392 95 ° 15 km/h 903 m -2.9 m/s 402.30 MHz Pernitz (AT) 0.00 km UNKNOWN
U1460169 RS41 2022-10-25 02:18:52 48.7196 16.3605 54 ° 19 km/h 252 m -4.0 m/s 402.30 MHz Laa an der Thaya (AT) 0.00 km FOUND
U1470558 RS41 2022-10-24 14:32:11 48.7715 15.0667 110 ° 22 km/h 721 m -5.6 m/s 404.70 MHz Schrems (AT) 0.00 km UNKNOWN
U1460340 RS41 2022-10-24 14:19:05 48.9525 14.9048 143 ° 22 km/h 540 m -3.5 m/s 402.30 MHz Litschau (AT) 0.00 km UNKNOWN
U1470426 RS41 2022-10-24 01:55:01 48.8256 15.2355 104 ° 2 km/h 606 m -2.0 m/s 402.30 MHz Waidhofen an der Thaya (AT) 0.00 km LOST
U2210210 RS41 2022-10-23 13:09:34 48.4537 14.1 297 ° 4 km/h 690 m -10.2 m/s 402.30 MHz Herzogsdorf (AT) 0.00 km FOUND
U1450631 RS41 2022-10-23 01:36:37 48.1038 14.4662 245 ° 6 km/h 400 m -2.7 m/s 402.30 MHz Ernsthofen (AT) 0.00 km UNKNOWN
U1460192 RS41 2022-10-22 14:21:48 48.8491 15.5458 65 ° 20 km/h 569 m -2.7 m/s 402.30 MHz Raabs an der Thaya (AT) 0.00 km LOST
U1470184 RS41 2022-10-22 01:04:12 48.7537 13.9624 91 ° 17 km/h 1151 m -10.7 m/s 402.300 MHz Ulrichsberg (AT) 0.00 km UNKNOWN
U1470399 RS41 2022-10-21 14:39:56 48.838 15.1418 301 ° 17 km/h 678 m -2.8 m/s 402.30 MHz Heidenreichstein (AT) 0.00 km UNKNOWN
U1470557 RS41 2022-10-21 01:43:04 48.6499 13.6254 137 ° 17 km/h 966 m -1.6 m/s 402.30 MHz Esternberg (AT) 0.00 km UNKNOWN
U1460333 RS41 2022-10-20 13:58:53 48.001 13.5327 248 ° 26 km/h 704 m -2.6 m/s 402.30 MHz Gampern (AT) 0.00 km UNKNOWN
U1450509 RS41 2022-10-20 02:10:15 47.576 13.7677 71 ° 13 km/h 2143 m -2.3 m/s 402.30 MHz Bad Aussee (AT) 0.00 km UNKNOWN
U1460360 RS41 2022-10-19 13:15:04 47.7272 13.2662 66 ° 11 km/h 1682 m -11.1 m/s 402.30 MHz Faistenau (AT) 0.00 km UNKNOWN
U1460343 RS41 2022-10-19 02:17:04 47.3218 14.2327 138 ° 56 km/h 2436 m -3.3 m/s 402.30 MHz Oberwölz Stadt (AT) 0.00 km UNKNOWN
U1460345 RS41 2022-10-18 11:40:41 48.3659 12.2966 101 ° 74 km/h 16637 m 3.3 m/s 402.30 MHz Waldkraiburg (DE) 0.00 km UNKNOWN
U1450520 RS41 2022-10-18 02:35:19 48.387 12.8431 117 ° 7 km/h 637 m -6.6 m/s 404.70 MHz Braunau am Inn (AT) 0.00 km FOUND
U1450521 RS41 2022-10-18 00:08:38 48.4667 12.149 102 ° 7 km/h 850 m -9.4 m/s 402.300 MHz Landshut (DE) 0.00 km UNKNOWN
U1450526 RS41 2022-10-17 13:46:11 48.6015 12.7888 26 ° 7 km/h 760 m -3.0 m/s 404.70 MHz Deggendorf (DE) 0.00 km FOUND
U1450186 RS41 2022-10-16 14:03:57 48.6693 13.5685 23 ° 11 km/h 851 m -2.7 m/s 402.30 MHz Esternberg (AT) 0.00 km UNKNOWN
U1470485 RS41 2022-10-16 01:40:32 48.4443 13.4948 338 ° 7 km/h 499 m -3.6 m/s 402.30 MHz Schärding (AT) 0.00 km UNKNOWN
U1450522 RS41 2022-10-15 14:24:43 47.9004 14.1102 114 ° 13 km/h 520 m -4.9 m/s 402.30 MHz Micheldorf in Oberösterreich (AT) 0.00 km FOUND
U2230554 RS41 2022-10-15 01:17:09 47.5175 13.2307 53 ° 26 km/h 2353 m -4.3 m/s 402.30 MHz Werfen (AT) 0.00 km UNKNOWN
U2230556 RS41 2022-10-14 13:09:31 47.4093 12.4589 82 ° 13 km/h 2092 m -8.3 m/s 402.30 MHz Kitzbühel (AT) 0.00 km FOUND
U1460173 RS41 2022-10-14 01:48:59 47.7283 12.5448 78 ° 22 km/h 1657 m -4.0 m/s 402.30 MHz Kössen (AT) 0.00 km UNKNOWN
U1460485 RS41 2022-10-13 01:44:58 47.8306 12.4893 51 ° 13 km/h 1086 m -6.5 m/s 404.70 MHz Traunreut (DE) 0.00 km UNKNOWN
U1450525 RS41 2022-10-12 01:44:59 48.2553 13.0429 250 ° 9 km/h 399 m -3.2 m/s 402.30 MHz Braunau am Inn (AT) 0.00 km FOUND
U2220464 RS41 2022-10-11 13:58:43 48.2811 13.1805 219 ° 7 km/h 390 m -2.5 m/s 402.30 MHz Altheim (AT) 0.00 km FOUND
U2220687 RS41 2022-10-11 02:17:50 48.141 13.1503 6 ° 22 km/h 513 m -2.0 m/s 402.30 MHz Schalchen (AT) 0.00 km FOUND
U2220979 RS41 2022-10-10 01:39:13 48.4985 12.3572 16 ° 13 km/h 869 m -4.0 m/s 402.30 MHz Landshut (DE) 0.00 km FOUND
U1510125 RS41 2022-10-09 13:11:18 48.3969 12.3631 280 ° 39 km/h 815 m -13.2 m/s 402.30 MHz Waldkraiburg (DE) 0.00 km FOUND
U1460346 RS41 2022-10-09 01:07:03 48.2769 12.8666 208 ° 15 km/h 689 m -9.0 m/s 402.30 MHz Braunau am Inn (AT) 0.00 km FOUND
U1450653 RS41 2022-10-08 14:09:32 48.7907 13.7306 49 ° 17 km/h 965 m -3.6 m/s 402.300 MHz Ulrichsberg (AT) 0.00 km UNKNOWN
U1470173 RS41 2022-10-08 01:37:21 48.6078 13.1176 99 ° 7 km/h 613 m -2.8 m/s 402.30 MHz Passau (DE) 0.00 km UNKNOWN
U2230117 RS41 2022-10-07 13:33:26 48.6425 13.0356 299 ° 6 km/h 617 m -3.3 m/s 402.30 MHz Deggendorf (DE) 0.00 km FOUND
U2230116 RS41 2022-10-07 01:51:47 48.7552 13.1839 286 ° 6 km/h 1048 m -2.6 m/s 402.30 MHz Deggendorf (DE) 0.00 km UNKNOWN
U2230119 RS41 2022-10-06 13:05:00 48.8942 12.7905 116 ° 9 km/h 1162 m -7.3 m/s 402.30 MHz Deggendorf (DE) 0.00 km UNKNOWN
U2220263 RS41 2022-10-06 01:17:36 48.8338 12.3075 94 ° 43 km/h 660 m -11.4 m/s 402.30 MHz Straubing (DE) 0.00 km UNKNOWN
U2220682 RS41 2022-10-05 13:36:08 48.3101 11.8641 51 ° 13 km/h 867 m -4.2 m/s 402.30 MHz Erding (DE) 0.00 km FOUND
U2220980 RS41 2022-10-05 00:51:23 47.7693 11.6176 90 ° 26 km/h 1664 m -9.9 m/s 402.30 MHz Geretsried (DE) 0.00 km UNKNOWN
U2220995 RS41 2022-10-04 13:43:52 47.425 12.2599 139 ° 6 km/h 1532 m -4.0 m/s 402.30 MHz Brixen im Thale (AT) 0.00 km UNKNOWN
U2221017 RS41 2022-10-04 00:57:21 47.4436 12.1151 74 ° 22 km/h 1782 m -13.2 m/s 402.30 MHz Hopfgarten im Brixental (AT) 0.00 km UNKNOWN
U2220992 RS41 2022-10-03 13:12:54 47.1641 12.7517 152 ° 54 km/h 3570 m -3.4 m/s 402.30 MHz Piesendorf (AT) 0.00 km UNKNOWN
U2220459 RS41 2022-10-03 01:19:31 47.4788 13.4139 129 ° 6 km/h 1505 m -6.4 m/s 402.30 MHz Abtenau (AT) 0.00 km UNKNOWN
U2230495 RS41 2022-10-02 12:56:53 47.4856 14.6966 172 ° 26 km/h 1842 m -2.0 m/s 402.30 MHz Eisenerz (AT) 0.00 km UNKNOWN
U2221070 RS41 2022-10-02 01:06:53 47.5171 13.9533 123 ° 54 km/h 1994 m -7.8 m/s 402.30 MHz Gröbming (AT) 0.00 km UNKNOWN
U2221071 RS41 2022-10-01 14:15:17 48.0292 14.8886 80 ° 19 km/h 606 m -2.6 m/s 402.30 MHz Neuhofen an der Ybbs (AT) 0.00 km UNKNOWN
U2230500 RS41 2022-09-30 13:08:29 48.9667 12.7969 327 ° 7 km/h 1192 m -8.0 m/s 402.30 MHz Deggendorf (DE) 0.00 km UNKNOWN
U2230381 RS41 2022-09-30 02:20:20 49.3231 13.0988 244 ° 17 km/h 728 m -2.1 m/s 402.30 MHz Kdyně (CZ) 0.00 km UNKNOWN
U2220972 RS41 2022-09-29 13:55:04 49.1335 13.0447 299 ° 11 km/h 1242 m -2.7 m/s 402.30 MHz Kdyně (CZ) 0.00 km UNKNOWN
U2220956 RS41 2022-09-29 01:09:33 48.7917 13.0779 84 ° 20 km/h 2181 m -5.0 m/s 402.30 MHz Deggendorf (DE) 0.00 km UNKNOWN
U2230394 RS41 2022-09-28 13:07:20 48.7046 13.8243 87 ° 37 km/h 1205 m -3.7 m/s 402.30 MHz Ulrichsberg (AT) 0.00 km UNKNOWN
U1450685 RS41 2022-09-28 01:22:29 48.3006 13.9174 85 ° 31 km/h 484 m -6.8 m/s 402.30 MHz Prambachkirchen (AT) 0.00 km FOUND
U2220264 RS41 2022-09-27 14:15:02 48.5198 14.4661 96 ° 31 km/h 766 m -1.7 m/s 402.30 MHz Freistadt (AT) 0.00 km UNKNOWN
U2330516 RS41 2022-09-27 01:38:40 48.6448 13.1446 83 ° 37 km/h 1622 m -3.0 m/s 402.30 MHz Passau (DE) 0.00 km UNKNOWN
U2220255 RS41 2022-09-26 13:38:02 48.3042 12.5545 77 ° 9 km/h 597 m -4.2 m/s 402.30 MHz Waldkraiburg (DE) 0.00 km FOUND
U2220467 RS41 2022-09-26 01:25:02 48.3397 12.5552 98 ° 30 km/h 696 m -4.8 m/s 402.30 MHz Waldkraiburg (DE) 0.00 km FOUND
U2221027 RS41 2022-09-25 13:45:30 48.7247 12.9228 112 ° 17 km/h 747 m -2.3 m/s 402.30 MHz Deggendorf (DE) 0.00 km FOUND
U2220460 RS41 2022-09-25 01:16:52 48.6261 12.6867 16 ° 2 km/h 1441 m -5.5 m/s 402.30 MHz Straubing (DE) 0.00 km FOUND
U2220523 RS41 2022-09-24 13:27:53 48.6817 12.8026 97 ° 7 km/h 750 m -8.2 m/s 402.30 MHz Deggendorf (DE) 0.00 km FOUND
U2221019 RS41 2022-09-23 13:35:52 48.0242 12.4999 76 ° 6 km/h 701 m -3.1 m/s 402.30 MHz Traunreut (DE) 0.00 km UNKNOWN
U2110076 RS41 2022-09-23 01:26:15 47.3972 11.7208 80 ° 4 km/h 1993 m -5.1 m/s 402.30 MHz Eben am Achensee (AT) 0.00 km UNKNOWN
U2220258 RS41 2022-09-22 14:03:50 46.9818 11.9559 149 ° 13 km/h 3035 m -1.9 m/s 402.30 MHz Brunico (IT) 0.00 km UNKNOWN
U2220993 RS41 2022-09-22 01:03:43 47.3905 11.7979 36 ° 13 km/h 1314 m -7.0 m/s 402.30 MHz Jenbach (AT) 0.00 km UNKNOWN
U2220524 RS41 2022-09-21 13:02:06 47.5216 12.1134 313 ° 7 km/h 1914 m -11.2 m/s 402.30 MHz Schwoich (AT) 0.00 km FOUND
U2220458 RS41 2022-09-21 01:09:00 47.3358 12.4481 123 ° 20 km/h 2838 m -6.0 m/s 402.30 MHz Mittersill (AT) 0.00 km UNKNOWN
U2220253 RS41 2022-09-20 13:47:40 47.3034 13.1968 104 ° 28 km/h 1888 m -4.1 m/s 402.30 MHz Schwarzach im Pongau (AT) 0.00 km UNKNOWN
U2230555 RS41 2022-09-20 01:04:38 47.4264 12.9201 107 ° 37 km/h 1583 m -8.2 m/s 402.30 MHz Saalfelden am Steinernen Meer (AT) 0.00 km UNKNOWN
U2220462 RS41 2022-09-19 13:36:49 47.4697 13.3579 88 ° 17 km/h 1772 m -4.5 m/s 402.30 MHz Abtenau (AT) 0.00 km UNKNOWN
U2230549 RS41 2022-09-19 01:23:53 47.8036 14.0319 112 ° 35 km/h 1529 m -4.5 m/s 402.30 MHz Micheldorf in Oberösterreich (AT) 0.00 km UNKNOWN
U2230557 RS41 2022-09-18 13:22:15 47.5877 13.4944 87 ° 24 km/h 1415 m -3.5 m/s 402.30 MHz Bad Goisern (AT) 0.00 km UNKNOWN
U2230548 RS41 2022-09-18 01:48:15 47.4979 13.7325 120 ° 69 km/h 2370 m -3.8 m/s 402.30 MHz Schladming (AT) 0.00 km UNKNOWN
U1450466 RS41 2022-09-17 13:26:15 48.2681 13.034 25 ° 13 km/h 386 m -1.8 m/s 402.30 MHz Braunau am Inn (AT) 0.00 km FOUND
U1510134 RS41 2022-09-17 00:51:41 48.6644 13.6482 105 ° 35 km/h 1279 m -10.0 m/s 402.30 MHz Esternberg (AT) 0.00 km UNKNOWN
U1460486 RS41 2022-09-16 13:29:31 48.4947 14.1462 116 ° 17 km/h 870 m -3.8 m/s 402.30 MHz Oberneukirchen (AT) 0.00 km NEED ATTENTION
U1510117 RS41 2022-09-16 01:31:18 48.2501 13.7459 100 ° 28 km/h 537 m -5.1 m/s 402.30 MHz Kallham (AT) 0.00 km FOUND
U1450689 RS41 2022-09-15 12:50:57 48.3254 12.9699 125 ° 33 km/h 593 m -11.2 m/s 402.30 MHz Braunau am Inn (AT) 0.00 km UNKNOWN
U1450477 RS41 2022-09-15 02:19:28 48.5543 14.534 89 ° 33 km/h 863 m -2.8 m/s 402.30 MHz Rainbach im Mühlkreis (AT) 0.00 km UNKNOWN
U1470174 RS41 2022-09-14 13:41:11 48.4223 13.9325 116 ° 11 km/h 581 m -2.8 m/s 402.30 MHz Altenfelden (AT) 0.00 km FOUND
U1450507 RS41 2022-09-14 00:49:19 47.9796 13.3522 267 ° 13 km/h 967 m -2.1 m/s 402.30 MHz Pöndorf (AT) 0.00 km LOST
U1450688 RS41 2022-09-13 14:20:29 47.245 13.775 127 ° 33 km/h 2494 m -6.3 m/s 402.30 MHz Mariapfarr (AT) 0.00 km UNKNOWN
U1450313 RS41 2022-09-13 01:13:12 47.7394 12.4903 19 ° 6 km/h 1184 m -6.9 m/s 402.30 MHz Kössen (AT) 0.00 km UNKNOWN
U2220257 RS41 2022-09-12 13:42:26 47.5036 12.7285 83 ° 30 km/h 2206 m -3.9 m/s 402.30 MHz Leogang (AT) 0.00 km UNKNOWN
U2220600 RS41 2022-09-12 00:59:12 47.6045 12.3526 104 ° 15 km/h 2241 m -11.8 m/s 402.30 MHz Kössen (AT) 0.00 km UNKNOWN
U2221069 RS41 2022-09-11 13:22:58 47.307 12.701 140 ° 48 km/h 3275 m -3.3 m/s 402.30 MHz Piesendorf (AT) 0.00 km UNKNOWN
U2330513 RS41 2022-09-11 01:04:52 47.9596 12.6458 75 ° 33 km/h 769 m -10.3 m/s 402.30 MHz Traunreut (DE) 0.00 km UNKNOWN
U2220468 RS41 2022-09-10 12:52:58 48.2151 12.755 96 ° 22 km/h 522 m -8.2 m/s 402.30 MHz Hochburg-Ach (AT) 0.00 km FOUND
U2220461 RS41 2022-09-10 01:10:11 48.4762 12.9596 87 ° 46 km/h 807 m -6.9 m/s 402.30 MHz Braunau am Inn (AT) 0.00 km UNKNOWN
U1450510 RS41 2022-09-09 13:05:51 48.7454 12.8637 22 ° 17 km/h 876 m -12.3 m/s 402.30 MHz Deggendorf (DE) 0.00 km UNKNOWN
U2230118 RS41 2022-09-09 01:04:15 48.6165 13.2457 54 ° 15 km/h 781 m -3.8 m/s 402.30 MHz Passau (DE) 0.00 km UNKNOWN
U2230550 RS41 2022-09-08 13:14:38 48.8653 12.9432 59 ° 7 km/h 508 m -3.1 m/s 402.30 MHz Deggendorf (DE) 0.00 km UNKNOWN
U1460482 RS41 2022-09-08 01:29:27 48.5959 12.7044 345 ° 13 km/h 1048 m -6.6 m/s 402.30 MHz Straubing (DE) 0.00 km FOUND
U1450418 RS41 2022-09-07 13:07:42 48.4732 12.8801 71 ° 7 km/h 754 m -7.3 m/s 402.30 MHz Braunau am Inn (AT) 0.00 km FOUND
U1450505 RS41 2022-09-07 01:41:40 48.1885 13.0564 197 ° 9 km/h 495 m -4.0 m/s 402.30 MHz Neukirchen an der Enknach (AT) 0.00 km UNKNOWN
U1460380 RS41 2022-09-06 13:38:39 48.2113 13.409 181 ° 7 km/h 574 m -1.6 m/s 402.30 MHz Mehrnbach (AT) 0.00 km FOUND
U1450514 RS41 2022-09-06 02:15:43 47.9573 13.4417 208 ° 4 km/h 736 m -2.5 m/s 402.30 MHz Frankenmarkt (AT) 0.00 km UNKNOWN
U1450523 RS41 2022-09-05 13:37:30 48.1373 12.767 220 ° 4 km/h 520 m -2.1 m/s 402.30 MHz Hochburg-Ach (AT) 0.00 km UNKNOWN
U1450528 RS41 2022-09-05 02:12:21 48.0998 12.8311 326 ° 22 km/h 573 m -1.9 m/s 402.30 MHz Hochburg-Ach (AT) 0.00 km UNKNOWN
U1450467 RS41 2022-09-04 13:15:25 47.8803 12.2118 269 ° 7 km/h 653 m -3.6 m/s 402.30 MHz Rosenheim (DE) 0.00 km FOUND
U1450478 RS41 2022-09-04 02:18:24 48.1859 13.1601 150 ° 4 km/h 487 m -2.5 m/s 402.30 MHz Mauerkirchen (AT) 0.00 km FOUND
U1470186 RS41 2022-09-03 14:12:03 48.6002 13.2282 254 ° 11 km/h 617 m -2.9 m/s 402.30 MHz Passau (DE) 0.00 km UNKNOWN
U1460325 RS41 2022-09-03 01:04:21 48.315 12.4495 298 ° 20 km/h 803 m -6.0 m/s 402.30 MHz Waldkraiburg (DE) 0.00 km UNKNOWN
U1450515 RS41 2022-09-02 13:16:36 48.3059 12.2678 261 ° 19 km/h 856 m -6.5 m/s 402.30 MHz Waldkraiburg (DE) 0.00 km FOUND
U1450713 RS41 2022-09-02 02:01:22 48.1993 12.2023 281 ° 37 km/h 760 m -2.4 m/s 402.30 MHz Waldkraiburg (DE) 0.00 km NEED ATTENTION
U1460178 RS41 2022-09-01 13:01:20 48.2627 12.1794 270 ° 19 km/h 737 m -5.9 m/s 402.30 MHz Waldkraiburg (DE) 0.00 km FOUND
U1460189 RS41 2022-09-01 01:53:59 48.0283 12.7788 214 ° 13 km/h 486 m -2.5 m/s 402.30 MHz Ostermiething (AT) 0.00 km FOUND
U2230306 RS41 2022-08-31 13:40:42 48.2689 12.4532 275 ° 28 km/h 748 m -5.1 m/s 402.30 MHz Waldkraiburg (DE) 0.00 km UNKNOWN
U1460369 RS41 2022-08-31 01:33:47 48.3498 12.2614 269 ° 31 km/h 700 m -5.5 m/s 402.30 MHz Waldkraiburg (DE) 0.00 km UNKNOWN
U2230366 RS41 2022-08-30 14:23:21 48.2705 12.5801 285 ° 2 km/h 688 m -4.4 m/s 402.30 MHz Waldkraiburg (DE) 0.00 km UNKNOWN
U2110104 RS41 2022-08-30 02:18:55 48.2544 12.4776 311 ° 13 km/h 544 m -2.2 m/s 402.30 MHz Waldkraiburg (DE) 0.00 km UNKNOWN
U1450336 RS41 2022-08-29 13:16:48 48.2573 11.8167 198 ° 13 km/h 636 m -10.7 m/s 402.30 MHz Erding (DE) 0.00 km FOUND
U2230368 RS41 2022-08-29 02:32:18 48.2714 12.1673 191 ° 11 km/h 675 m -1.7 m/s 402.30 MHz Waldkraiburg (DE) 0.00 km UNKNOWN
U1460191 RS41 2022-08-28 13:25:15 48.3573 11.8692 119 ° 9 km/h 644 m -3.2 m/s 402.30 MHz Erding (DE) 0.00 km FOUND
U1470376 RS41 2022-08-28 01:33:28 48.4803 11.6687 117 ° 9 km/h 626 m -11.6 m/s 404.70 MHz Freising (DE) 0.00 km UNKNOWN
U2330425 RS41 2022-08-27 14:48:30 48.7136 11.841 166 ° 17 km/h 563 m -1.6 m/s 404.70 MHz Landshut (DE) 0.00 km UNKNOWN
U2330422 RS41 2022-08-27 02:45:34 48.4479 11.5614 156 ° 19 km/h 571 m -3.6 m/s 402.30 MHz Pfaffenhofen an der Ilm (DE) 0.00 km FOUND
U1460180 RS41 2022-08-26 14:11:38 48.3755 11.3415 237 ° 11 km/h 597 m -4.3 m/s 402.30 MHz Dachau (DE) 0.00 km FOUND
U2110090 RS41 2022-08-26 01:15:10 48.2961 11.1272 331 ° 13 km/h 738 m -6.2 m/s 402.30 MHz Fürstenfeldbruck (DE) 0.00 km FOUND
U2110008 RS41 2022-08-25 14:27:22 48.4601 10.8215 284 ° 9 km/h 582 m -2.2 m/s 402.30 MHz Neusäß (DE) 0.00 km FOUND
U2230369 RS41 2022-08-25 02:30:49 48.2055 11.0241 275 ° 24 km/h 700 m -2.4 m/s 402.30 MHz Königsbrunn (DE) 0.00 km UNKNOWN
U1450686 RS41 2022-08-24 14:47:59 47.8887 11.0658 210 ° 26 km/h 814 m -2.5 m/s 402.30 MHz Weilheim in Oberbayern (DE) 0.00 km NEED ATTENTION
U1460334 RS41 2022-08-24 01:40:31 47.7898 11.1503 25 ° 13 km/h 755 m -5.3 m/s 402.30 MHz Weilheim in Oberbayern (DE) 0.00 km UNKNOWN
U1460384 RS41 2022-08-23 13:17:47 47.9686 11.3839 250 ° 9 km/h 794 m -10.4 m/s 402.30 MHz Starnberg (DE) 0.00 km FOUND
U1450485 RS41 2022-08-23 02:01:04 48.224 11.2729 308 ° 13 km/h 685 m -6.0 m/s 402.30 MHz Olching (DE) 0.00 km LOST
U1460341 RS41 2022-08-22 13:22:31 48.1457 11.3433 209 ° 24 km/h 775 m -13.2 m/s 402.30 MHz Germering (DE) 0.00 km FOUND
U1460227 RS41 2022-08-22 01:56:37 48.0108 11.4217 108 ° 9 km/h 756 m -4.3 m/s 402.30 MHz Starnberg (DE) 0.00 km FOUND
U1450651 RS41 2022-08-21 14:28:22 47.9872 11.7292 145 ° 11 km/h 719 m -1.9 m/s 402.30 MHz Unterhaching (DE) 0.00 km FOUND
U2230393 RS41 2022-08-21 01:43:36 48.1447 11.7872 80 ° 39 km/h 666 m -5.2 m/s 402.30 MHz Vaterstetten (DE) 0.00 km FOUND
U2330424 RS41 2022-08-20 14:46:20 48.1366 11.8339 70 ° 11 km/h 628 m -2.5 m/s 402.30 MHz Vaterstetten (DE) 0.00 km FOUND
U2330421 RS41 2022-08-20 01:13:12 48.2106 11.7176 115 ° 17 km/h 652 m -6.4 m/s 402.30 MHz Vaterstetten (DE) 0.00 km UNKNOWN
U2230362 RS41 2022-08-19 13:36:27 48.576 11.1256 106 ° 28 km/h 469 m -3.3 m/s 402.30 MHz Aichach (DE) 0.00 km LOST
U2230363 RS41 2022-08-19 01:31:44 48.8482 11.5191 51 ° 9 km/h 452 m -10.7 m/s 402.30 MHz Ingolstadt (DE) 0.00 km FOUND
U2330559 RS41 2022-08-18 13:40:34 48.8123 11.897 296 ° 4 km/h 426 m -3.4 m/s 402.30 MHz Regensburg (DE) 0.00 km FOUND
U2220996 RS41 2022-08-18 01:18:15 48.9605 12.0063 110 ° 17 km/h 551 m -3.9 m/s 402.30 MHz Regensburg (DE) 0.00 km FOUND
U1460328 RS41 2022-08-17 13:54:43 48.9441 12.3285 72 ° 7 km/h 552 m -4.5 m/s 402.30 MHz Regensburg (DE) 0.00 km FOUND
U2230395 RS41 2022-08-17 01:34:49 48.5735 11.9516 328 ° 22 km/h 583 m -5.0 m/s 402.30 MHz Landshut (DE) 0.00 km FOUND
U2110089 RS41 2022-08-16 13:15:30 48.2615 12.3385 20 ° 2 km/h 680 m -1.8 m/s 402.30 MHz Waldkraiburg (DE) 0.00 km UNKNOWN
U1460364 RS41 2022-08-16 01:41:52 48.5545 11.8617 47 ° 24 km/h 723 m -3.5 m/s 402.30 MHz Freising (DE) 0.00 km FOUND
U1450545 RS41 2022-08-15 13:29:10 48.7034 11.6504 85 ° 17 km/h 450 m -5.2 m/s 402.30 MHz Ingolstadt (DE) 0.00 km FOUND
U1460640 RS41 2022-08-15 01:15:01 48.3895 11.6148 59 ° 15 km/h 607 m -14.1 m/s 402.30 MHz Freising (DE) 0.00 km UNKNOWN
U1510115 RS41 2022-08-14 12:59:42 48.1916 11.6689 238 ° 22 km/h 604 m -4.3 m/s 402.30 MHz München (DE) 0.00 km FOUND
U1450524 RS41 2022-08-14 01:40:39 48.0718 11.2736 278 ° 17 km/h 843 m -3.9 m/s 402.30 MHz Starnberg (DE) 0.00 km FOUND
U1450690 RS41 2022-08-13 13:50:09 48.0658 10.7258 266 ° 24 km/h 852 m -3.4 m/s 402.30 MHz Landsberg am Lech (DE) 0.00 km FOUND
U1460193 RS41 2022-08-13 02:10:08 47.9414 10.4811 264 ° 50 km/h 1072 m -2.3 m/s 402.30 MHz Kaufbeuren (DE) 0.00 km UNKNOWN
U1450712 RS41 2022-08-12 13:20:29 47.5419 11.0293 273 ° 11 km/h 2377 m -6.2 m/s 402.30 MHz Garmisch-Partenkirchen (DE) 0.00 km UNKNOWN
U1450530 RS41 2022-08-12 01:36:44 47.1595 10.713 93 ° 13 km/h 2814 m -3.9 m/s 402.30 MHz Arzl im Pitztal (AT) 0.00 km UNKNOWN
U1510112 RS41 2022-08-11 13:19:37 47.8156 10.4478 238 ° 15 km/h 1099 m -7.3 m/s 402.30 MHz Kempten (DE) 0.00 km FOUND
U1450468 RS41 2022-08-11 01:35:53 47.8007 10.5158 253 ° 28 km/h 922 m -3.6 m/s 402.30 MHz Kaufbeuren (DE) 0.00 km FOUND
U1460197 RS41 2022-08-10 14:14:02 48.0005 10.78 256 ° 24 km/h 885 m -2.9 m/s 402.30 MHz Landsberg am Lech (DE) 0.00 km UNKNOWN
U1460188 RS41 2022-08-10 01:44:57 48.0577 11.6049 213 ° 15 km/h 621 m -3.1 m/s 402.30 MHz Unterhaching (DE) 0.00 km UNKNOWN
U1450650 RS41 2022-08-09 14:24:43 47.954 11.3456 258 ° 26 km/h 758 m -1.9 m/s 402.30 MHz Starnberg (DE) 0.00 km UNKNOWN
U1510124 RS41 2022-08-09 02:30:35 47.8963 11.5167 297 ° 26 km/h 820 m -3.4 m/s 404.70 MHz Geretsried (DE) 0.00 km UNKNOWN
U1510110 RS41 2022-08-09 01:34:36 47.921 11.4443 263 ° 11 km/h 663 m -3.7 m/s 402.30 MHz Geretsried (DE) 0.00 km UNKNOWN
U1510123 RS41 2022-08-08 14:24:59 47.9811 11.4411 243 ° 19 km/h 1622 m -1.6 m/s 402.30 MHz Unterhaching (DE) 0.00 km NEED ATTENTION
U1450654 RS41 2022-08-08 01:39:17 48.2643 11.715 278 ° 24 km/h 643 m -3.2 m/s 402.30 MHz Unterschleißheim (DE) 0.00 km UNKNOWN
U1460483 RS41 2022-08-07 13:44:44 48.5566 11.8426 263 ° 19 km/h 632 m -4.9 m/s 402.30 MHz Freising (DE) 0.00 km UNKNOWN
U1460327 RS41 2022-08-07 02:20:50 48.4934 12.3183 267 ° 28 km/h 637 m -1.8 m/s 402.30 MHz Landshut (DE) 0.00 km UNKNOWN
U1460186 RS41 2022-08-06 13:10:42 48.6324 12.1479 177 ° 15 km/h 710 m -9.2 m/s 402.30 MHz Landshut (DE) 0.00 km UNKNOWN
U1460212 RS41 2022-08-06 03:02:57 48.8083 12.603 159 ° 20 km/h 608 m -3.7 m/s 404.70 MHz Straubing (DE) 0.00 km FOUND
U1450484 RS41 2022-08-06 01:48:20 48.6303 12.7242 109 ° 24 km/h 722 m -4.1 m/s 402.30 MHz Deggendorf (DE) 0.00 km FOUND
U1450475 RS41 2022-08-05 13:07:56 48.7331 12.108 65 ° 11 km/h 635 m -7.3 m/s 402.30 MHz Landshut (DE) 0.00 km UNKNOWN
U1460190 RS41 2022-08-05 02:30:01 48.7909 12.3406 334 ° 26 km/h 554 m -1.8 m/s 402.30 MHz Straubing (DE) 0.00 km UNKNOWN
U1510121 RS41 2022-08-04 13:07:14 48.4466 11.8021 71 ° 4 km/h 753 m -11.2 m/s 402.30 MHz Freising (DE) 0.00 km UNKNOWN
U1460200 RS41 2022-08-04 01:48:27 48.337 11.7199 342 ° 17 km/h 645 m -2.9 m/s 402.30 MHz Freising (DE) 0.00 km UNKNOWN
U1460480 RS41 2022-08-03 14:03:28 48.1422 11.5467 243 ° 15 km/h 629 m -3.3 m/s 402.30 MHz München (DE) 0.00 km UNKNOWN
U1450649 RS41 2022-08-03 01:08:56 47.8249 11.3092 359 ° 4 km/h 735 m -8.9 m/s 402.30 MHz Weilheim in Oberbayern (DE) 0.00 km UNKNOWN
U1460330 RS41 2022-08-02 13:00:31 47.7358 11.3059 56 ° 4 km/h 1355 m -5.7 m/s 402.30 MHz Weilheim in Oberbayern (DE) 0.00 km UNKNOWN
U1460214 RS41 2022-08-02 01:30:43 48.1986 11.8597 79 ° 35 km/h 811 m -4.8 m/s 402.30 MHz Vaterstetten (DE) 0.00 km UNKNOWN
U1450483 RS41 2022-08-01 12:50:15 48.1492 12.2314 79 ° 35 km/h 678 m -8.4 m/s 402.30 MHz Waldkraiburg (DE) 0.00 km FOUND
U1450481 RS41 2022-08-01 01:07:50 47.9918 12.2136 47 ° 22 km/h 567 m -12.7 m/s 402.30 MHz Rosenheim (DE) 0.00 km UNKNOWN
T1930023 RS41 2022-07-31 13:04:32 47.762 12.1313 75 ° 19 km/h 1036 m -6.1 m/s 402.300 MHz Rosenheim (DE) 0.00 km NEED ATTENTION
T3350394 RS41 2022-07-31 01:10:20 47.5997 12.2336 105 ° 20 km/h 1696 m -4.7 m/s 402.300 MHz Ebbs (AT) 0.00 km UNKNOWN
U1460201 RS41 2022-07-30 14:20:29 47.7432 12.7697 178 ° 15 km/h 1104 m -3.4 m/s 402.300 MHz Grossgmain (AT) 0.00 km UNKNOWN
T3310827 RS41 2022-07-30 02:19:39 48.7177 12.4188 105 ° 31 km/h 1056 m -1.8 m/s 402.30 MHz Straubing (DE) 0.00 km UNKNOWN
U1470190 RS41 2022-07-29 12:55:21 48.5297 12.2553 17 ° 9 km/h 1010 m -5.3 m/s 402.30 MHz Landshut (DE) 0.00 km UNKNOWN
T3440105 RS41 2022-07-29 00:56:06 48.5495 11.8984 120 ° 24 km/h 931 m -16.3 m/s 402.300 MHz Landshut (DE) 0.00 km FOUND
U1460172 RS41 2022-07-28 13:34:11 48.6249 12.6809 271 ° 20 km/h 913 m -4.5 m/s 402.300 MHz Straubing (DE) 0.00 km FOUND
U1450687 RS41 2022-07-28 01:34:12 48.1427 12.6822 251 ° 20 km/h 586 m -2.7 m/s 402.300 MHz Hochburg-Ach (AT) 0.00 km UNKNOWN
U1450480 RS41 2022-07-27 14:14:53 48.3858 12.848 170 ° 6 km/h 671 m -3.3 m/s 402.30 MHz Braunau am Inn (AT) 0.00 km UNKNOWN
U2220145 RS41 2022-07-27 01:01:58 48.4231 12.3278 185 ° 17 km/h 964 m -6.4 m/s 402.300 MHz Landshut (DE) 0.00 km UNKNOWN
U1460294 RS41 2022-07-26 13:35:47 48.3772 12.7987 56 ° 22 km/h 668 m -3.0 m/s 402.300 MHz Braunau am Inn (AT) 0.00 km FOUND
U1470421 RS41 2022-07-26 02:07:44 48.6703 12.6587 56 ° 44 km/h 697 m -2.8 m/s 404.70 MHz Straubing (DE) 0.00 km FOUND
T3350449 RS41 2022-07-25 23:05:56 48.2275 11.6792 31 ° 43 km/h 776 m -13.3 m/s 402.30 MHz Unterschleißheim (DE) 0.00 km FOUND
T3350450 RS41 2022-07-25 13:40:24 48.6142 12.7053 56 ° 20 km/h 771 m -7.2 m/s 402.300 MHz Straubing (DE) 0.00 km FOUND
T3350384 RS41 2022-07-25 00:55:03 48.0903 11.7815 308 ° 22 km/h 720 m -16.9 m/s 402.30 MHz Vaterstetten (DE) 0.00 km FOUND
T3350395 RS41 2022-07-24 13:29:57 47.763 12.0317 170 ° 9 km/h 691 m -3.6 m/s 402.30 MHz Rosenheim (DE) 0.00 km NEED ATTENTION
U1450714 RS41 2022-07-24 01:38:04 48.1063 12.2547 51 ° 7 km/h 652 m -3.6 m/s 402.30 MHz Waldkraiburg (DE) 0.00 km UNKNOWN
U1460329 RS41 2022-07-23 13:49:26 48.4951 12.6931 69 ° 20 km/h 709 m -1.9 m/s 402.300 MHz Braunau am Inn (AT) 0.00 km FOUND
U1510119 RS41 2022-07-23 01:26:50 48.6458 11.9356 41 ° 39 km/h 700 m -6.3 m/s 402.300 MHz Landshut (DE) 0.00 km UNKNOWN
U2110078 RS41 2022-07-22 13:05:35 48.355 11.9257 304 ° 7 km/h 954 m -6.2 m/s 402.300 MHz Erding (DE) 0.00 km FOUND
U1450328 RS41 2022-07-22 01:43:36 48.0819 12.105 51 ° 11 km/h 654 m -4.1 m/s 402.300 MHz Vaterstetten (DE) 0.00 km UNKNOWN
U1460383 RS41 2022-07-21 13:20:39 48.519 12.0404 123 ° 13 km/h 954 m -3.9 m/s 402.30 MHz Landshut (DE) 0.00 km FOUND
U1460215 RS41 2022-07-21 01:07:17 48.4656 11.4867 28 ° 17 km/h 593 m -8.1 m/s 402.30 MHz Pfaffenhofen an der Ilm (DE) 0.00 km FOUND
U2110080 RS41 2022-07-20 13:27:48 48.3811 11.4678 70 ° 15 km/h 589 m -5.9 m/s 402.30 MHz Unterschleißheim (DE) 0.00 km NEED ATTENTION
U2230367 RS41 2022-07-20 02:03:26 48.1839 11.3686 310 ° 24 km/h 708 m -2.8 m/s 402.30 MHz Olching (DE) 0.00 km FOUND
U1470172 RS41 2022-07-19 20:21:11 48.0766 11.3668 276 ° 44 km/h 810 m -1.7 m/s 402.30 MHz Germering (DE) 0.00 km FOUND
U1470864 RS41 2022-07-19 13:03:09 48.0994 11.3117 269 ° 26 km/h 845 m -7.1 m/s 402.30 MHz Germering (DE) 0.00 km FOUND
U2230391 RS41 2022-07-19 07:31:49 47.8304 11.1982 271 ° 15 km/h 739 m -4.0 m/s 402.30 MHz Weilheim in Oberbayern (DE) 0.00 km UNKNOWN
U1470181 RS41 2022-07-19 01:51:01 47.5564 11.2205 350 ° 7 km/h 1804 m -3.7 m/s 402.30 MHz Garmisch-Partenkirchen (DE) 0.00 km UNKNOWN
U1460693 RS41 2022-07-18 19:28:21 47.4956 11.3114 266 ° 2 km/h 1647 m -4.5 m/s 402.30 MHz Garmisch-Partenkirchen (DE) 0.00 km UNKNOWN
U1470855 RS41 2022-07-18 13:34:44 47.4325 11.3529 194 ° 2 km/h 2322 m -4.2 m/s 402.30 MHz Seefeld in Tirol (AT) 0.00 km UNKNOWN
U2110075 RS41 2022-07-18 01:24:52 47.7606 11.9364 291 ° 6 km/h 1022 m -4.5 m/s 402.30 MHz Rosenheim (DE) 0.00 km UNKNOWN
U2221015 RS41 2022-07-17 13:23:08 47.7169 12.1496 196 ° 13 km/h 1264 m -4.0 m/s 402.30 MHz Niederndorf (AT) 0.00 km UNKNOWN
U2110082 RS41 2022-07-17 01:21:28 47.7227 12.1485 120 ° 4 km/h 875 m -5.7 m/s 402.30 MHz Niederndorf (AT) 0.00 km UNKNOWN
U2230361 RS41 2022-07-16 13:23:02 47.8163 12.7641 116 ° 22 km/h 1040 m -4.3 m/s 402.30 MHz Grossgmain (AT) 0.00 km UNKNOWN
U2110073 RS41 2022-07-16 02:16:23 47.6561 13.2971 89 ° 19 km/h 1704 m -3.0 m/s 402.30 MHz Golling an der Salzach (AT) 0.00 km UNKNOWN
U2110081 RS41 2022-07-15 13:17:48 47.9779 12.9314 92 ° 4 km/h 519 m -3.2 m/s 402.30 MHz Bürmoos (AT) 0.00 km UNKNOWN
U2110087 RS41 2022-07-15 01:50:15 47.9271 13.0231 185 ° 13 km/h 754 m -3.8 m/s 402.30 MHz Obertrum am See (AT) 0.00 km UNKNOWN
U2120302 RS41 2022-07-14 13:39:51 48.2554 12.7895 127 ° 15 km/h 512 m -2.6 m/s 402.30 MHz Hochburg-Ach (AT) 0.00 km UNKNOWN
U2110086 RS41 2022-07-14 01:23:55 48.1189 12.1839 34 ° 13 km/h 597 m -7.3 m/s 402.30 MHz Waldkraiburg (DE) 0.00 km FOUND
U2110085 RS41 2022-07-13 13:42:04 47.6821 11.9766 149 ° 7 km/h 1121 m -6.7 m/s 402.30 MHz Kufstein (AT) 0.00 km UNKNOWN
U2120304 RS41 2022-07-13 01:16:36 47.2429 11.0999 188 ° 44 km/h 4607 m -5.4 m/s 402.30 MHz Rietz (AT) 0.00 km FOUND
U2110083 RS41 2022-07-12 13:05:15 47.3334 11.4614 154 ° 4 km/h 2491 m -8.7 m/s 402.30 MHz Thaur (AT) 0.00 km UNKNOWN
U2230365 RS41 2022-07-12 01:54:06 47.1129 11.8205 126 ° 35 km/h 3403 m -2.5 m/s 402.30 MHz Mayrhofen (AT) 0.00 km UNKNOWN
U2110079 RS41 2022-07-11 13:25:56 47.574 12.4098 102 ° 20 km/h 892 m -1.6 m/s 402.30 MHz Kirchdorf in Tirol (AT) 0.00 km UNKNOWN
U2110088 RS41 2022-07-11 01:43:44 47.4019 11.9476 51 ° 6 km/h 1356 m -4.6 m/s 402.30 MHz Alpbach (AT) 0.00 km UNKNOWN
T3350264 RS41 2022-07-10 14:13:18 47.0956 12.2049 134 ° 33 km/h 3440 m -5.1 m/s 402.30 MHz Neukirchen am Großvenediger (AT) 0.00 km UNKNOWN
U1460326 RS41 2022-07-10 01:41:20 47.0171 11.953 151 ° 57 km/h 3736 m -2.8 m/s 402.30 MHz Mayrhofen (AT) 0.00 km UNKNOWN
U1510113 RS41 2022-07-09 13:14:47 47.8028 11.7309 119 ° 15 km/h 963 m -5.8 m/s 402.30 MHz Geretsried (DE) 0.00 km UNKNOWN
T3431763 RS41 2022-07-09 02:00:22 47.1387 12.0449 167 ° 46 km/h 3537 m -2.8 m/s 402.30 MHz Mayrhofen (AT) 0.00 km UNKNOWN
U1450486 RS41 2022-07-08 13:39:18 47.0838 11.5371 192 ° 15 km/h 2452 m -2.6 m/s 402.30 MHz Steinach am Brenner (AT) 0.00 km UNKNOWN
U1470903 RS41 2022-07-08 01:36:44 46.7642 11.198 177 ° 74 km/h 4241 m -6.0 m/s 402.30 MHz Merano (IT) 0.00 km UNKNOWN
U1460336 RS41 2022-07-07 13:45:50 47.8187 12.3065 78 ° 6 km/h 746 m -2.9 m/s 402.30 MHz Rosenheim (DE) 0.00 km UNKNOWN
T3350259 RS41 2022-07-07 01:28:00 47.977 12.147 87 ° 9 km/h 521 m -4.8 m/s 402.30 MHz Rosenheim (DE) 0.00 km UNKNOWN
U1450325 RS41 2022-07-06 13:25:26 47.9136 12.7686 169 ° 30 km/h 591 m -4.9 m/s 402.30 MHz Sankt Georgen bei Salzburg (AT) 0.00 km LOST
T3350351 RS41 2022-07-06 01:19:06 48.37 12.6861 143 ° 24 km/h 603 m -6.0 m/s 402.30 MHz Waldkraiburg (DE) 0.00 km FOUND
T3350393 RS41 2022-07-05 13:31:44 48.3833 12.6096 103 ° 28 km/h 806 m -9.0 m/s 402.30 MHz Waldkraiburg (DE) 0.00 km FOUND
T3440093 RS41 2022-07-05 02:16:04 48.7795 12.2227 73 ° 26 km/h 581 m -2.2 m/s 402.30 MHz Landshut (DE) 0.00 km UNKNOWN
U1460213 RS41 2022-07-04 13:41:32 48.6944 12.6081 70 ° 24 km/h 832 m -4.0 m/s 402.30 MHz Straubing (DE) 0.00 km FOUND
T3820218 RS41 2022-07-04 01:17:00 48.5035 12.4011 69 ° 19 km/h 1014 m -5.9 m/s 402.30 MHz Landshut (DE) 0.00 km UNKNOWN
T3440103 RS41 2022-07-03 13:34:30 48.5428 12.2833 57 ° 15 km/h 654 m -2.2 m/s 402.30 MHz Landshut (DE) 0.00 km UNKNOWN
T3440088 RS41 2022-07-03 07:19:19 48.3865 12.0896 86 ° 20 km/h 810 m -3.8 m/s 402.30 MHz Erding (DE) 0.00 km UNKNOWN
U1450326 RS41 2022-07-03 01:20:00 48.7301 11.7893 302 ° 17 km/h 536 m -6.8 m/s 402.30 MHz Ingolstadt (DE) 0.00 km UNKNOWN
U1460332 RS41 2022-07-02 19:40:59 48.7922 12.1873 326 ° 15 km/h 533 m -2.4 m/s 402.30 MHz Regensburg (DE) 0.00 km NEED ATTENTION
T3350247 RS41 2022-07-02 13:28:24 48.3988 11.9291 274 ° 26 km/h 707 m -8.0 m/s 402.30 MHz Erding (DE) 0.00 km UNKNOWN
T3440097 RS41 2022-07-02 02:15:42 48.3348 12.9695 359 ° 13 km/h 575 m -1.9 m/s 402.30 MHz Braunau am Inn (AT) 0.00 km FOUND
T1920746 RS41 2022-07-01 13:16:47 49.1014 11.6069 101 ° 24 km/h 752 m -5.6 m/s 402.30 MHz Neumarkt in der Oberpfalz (DE) 0.00 km NEED ATTENTION
T3440087 RS41 2022-07-01 01:57:43 49.122 11.4668 139 ° 31 km/h 864 m -2.5 m/s 402.30 MHz Neumarkt in der Oberpfalz (DE) 0.00 km UNKNOWN
T3350379 RS41 2022-06-30 12:46:06 48.7885 11.7931 309 ° 17 km/h 425 m -5.9 m/s 402.30 MHz Ingolstadt (DE) 0.00 km FOUND
T3350448 RS41 2022-06-30 01:38:10 48.5135 11.4756 56 ° 11 km/h 575 m -3.6 m/s 402.30 MHz Pfaffenhofen an der Ilm (DE) 0.00 km NEED ATTENTION
U1470427 RS41 2022-06-29 12:46:43 48.5359 11.2275 112 ° 7 km/h 615 m -16.3 m/s 402.30 MHz Aichach (DE) 0.00 km FOUND
T3350224 RS41 2022-06-29 01:41:48 48.7243 10.9736 300 ° 15 km/h 595 m -4.1 m/s 402.30 MHz Neuburg an der Donau (DE) 0.00 km UNKNOWN
T3431764 RS41 2022-06-28 13:27:29 48.8459 11.7097 235 ° 9 km/h 494 m -4.9 m/s 402.30 MHz Ingolstadt (DE) 0.00 km FOUND
T3431769 RS41 2022-06-28 01:18:11 48.7983 11.8783 58 ° 9 km/h 480 m -13.8 m/s 402.30 MHz Regensburg (DE) 0.00 km FOUND
T3350260 RS41 2022-06-27 13:47:07 48.8728 12.1918 166 ° 20 km/h 519 m -2.6 m/s 402.30 MHz Regensburg (DE) 0.00 km UNKNOWN
T3350352 RS41 2022-06-27 01:02:08 48.6639 11.853 288 ° 26 km/h 592 m -10.9 m/s 402.30 MHz Landshut (DE) 0.00 km UNKNOWN
T3350262 RS41 2022-06-26 12:55:36 48.702 12.2244 301 ° 20 km/h 672 m -5.9 m/s 402.30 MHz Landshut (DE) 0.00 km UNKNOWN
T3350249 RS41 2022-06-26 01:26:26 48.6663 11.7695 322 ° 19 km/h 561 m -4.6 m/s 402.30 MHz Pfaffenhofen an der Ilm (DE) 0.00 km UNKNOWN
T3350353 RS41 2022-06-25 13:27:53 48.4514 11.7488 288 ° 7 km/h 624 m -4.7 m/s 402.30 MHz Freising (DE) 0.00 km FOUND
T3350261 RS41 2022-06-25 01:45:59 48.5257 11.5017 52 ° 19 km/h 561 m -9.9 m/s 402.30 MHz Pfaffenhofen an der Ilm (DE) 0.00 km FOUND
T3350232 RS41 2022-06-24 13:12:59 48.8282 11.9588 212 ° 9 km/h 513 m -6.8 m/s 402.30 MHz Regensburg (DE) 0.00 km FOUND
T3440085 RS41 2022-06-24 01:51:13 48.5468 11.7971 99 ° 17 km/h 661 m -4.4 m/s 402.30 MHz Freising (DE) 0.00 km NEED ATTENTION
T3440090 RS41 2022-06-23 13:27:49 48.1721 12.072 266 ° 17 km/h 777 m -6.2 m/s 402.30 MHz Erding (DE) 0.00 km FOUND
T3350347 RS41 2022-06-23 00:50:13 48.1802 11.7541 132 ° 13 km/h 703 m -18.3 m/s 402.30 MHz Vaterstetten (DE) 0.00 km FOUND
T3350348 RS41 2022-06-22 14:27:52 48.4483 13.0683 268 ° 4 km/h 596 m -1.6 m/s 402.30 MHz Braunau am Inn (AT) 0.00 km UNKNOWN
T3350248 RS41 2022-06-22 01:46:42 48.1311 12.6612 35 ° 22 km/h 623 m -1.8 m/s 402.30 MHz Ostermiething (AT) 0.00 km UNKNOWN
T3350234 RS41 2022-06-21 13:30:13 48.0795 12.7602 179 ° 4 km/h 529 m -4.3 m/s 402.30 MHz Ostermiething (AT) 0.00 km NEED ATTENTION
T3350345 RS41 2022-06-21 01:15:17 48.087 12.8696 156 ° 13 km/h 568 m -4.4 m/s 402.30 MHz Hochburg-Ach (AT) 0.00 km UNKNOWN
T3440009 RS41 2022-06-20 13:57:07 48.73 13.3115 94 ° 20 km/h 835 m -1.7 m/s 402.30 MHz Passau (DE) 0.00 km UNKNOWN
T3440095 RS41 2022-06-20 01:27:00 48.4997 11.95 29 ° 30 km/h 774 m -4.7 m/s 402.30 MHz Landshut (DE) 0.00 km UNKNOWN
T3440096 RS41 2022-06-19 13:37:10 48.4777 11.9881 22 ° 22 km/h 932 m -4.1 m/s 402.30 MHz Landshut (DE) 0.00 km FOUND
T3350263 RS41 2022-06-19 01:54:03 48.421 11.7825 286 ° 41 km/h 600 m -3.5 m/s 402.30 MHz Freising (DE) 0.00 km FOUND
T3440098 RS41 2022-06-18 13:25:56 48.0419 11.4946 41 ° 9 km/h 685 m -4.9 m/s 402.30 MHz Unterhaching (DE) 0.00 km NEED ATTENTION
T3350440 RS41 2022-06-18 01:07:52 47.6475 11.3084 84 ° 15 km/h 1548 m -5.8 m/s 402.30 MHz Garmisch-Partenkirchen (DE) 0.00 km UNKNOWN
T3440109 RS41 2022-06-17 12:02:11 47.3566 11.6414 296 ° 13 km/h 1720 m -7.6 m/s 402.30 MHz Terfens (AT) 0.00 km UNKNOWN
T1930059 RS41 2022-06-17 01:49:10 47.251 12.3491 104 ° 44 km/h 2878 m -2.4 m/s 402.30 MHz Bramberg am Wildkogel (AT) 0.00 km UNKNOWN
T3350349 RS41 2022-06-16 13:52:22 47.3817 12.5429 102 ° 57 km/h 2783 m -2.9 m/s 402.30 MHz Fieberbrunn (AT) 0.00 km UNKNOWN
T1930058 RS41 2022-06-16 01:28:48 47.8298 12.0476 341 ° 6 km/h 768 m -3.3 m/s 402.30 MHz Rosenheim (DE) 0.00 km UNKNOWN
T3350354 RS41 2022-06-15 12:40:31 47.852 11.869 113 ° 26 km/h 1101 m -13.6 m/s 402.30 MHz Rosenheim (DE) 0.00 km NEED ATTENTION
T3440094 RS41 2022-06-15 01:06:49 48.0127 11.8835 295 ° 31 km/h 844 m -9.8 m/s 402.30 MHz Vaterstetten (DE) 0.00 km FOUND
T3440089 RS41 2022-06-14 13:06:28 47.9633 11.8651 255 ° 9 km/h 803 m -7.7 m/s 402.30 MHz Vaterstetten (DE) 0.00 km FOUND
T3440086 RS41 2022-06-14 01:16:14 47.8306 12.065 291 ° 9 km/h 1076 m -5.4 m/s 402.30 MHz Rosenheim (DE) 0.00 km UNKNOWN
T1930024 RS41 2022-06-13 13:28:29 47.9999 12.7633 107 ° 17 km/h 539 m -2.0 m/s 402.30 MHz Ostermiething (AT) 0.00 km FOUND
T3440083 RS41 2022-06-13 02:11:28 48.3081 12.9364 154 ° 30 km/h 565 m -1.9 m/s 402.30 MHz Braunau am Inn (AT) 0.00 km UNKNOWN
T3350391 RS41 2022-06-12 13:30:11 48.0428 12.1202 351 ° 9 km/h 784 m -5.3 m/s 402.30 MHz Rosenheim (DE) 0.00 km LOST
T1930025 RS41 2022-06-12 01:35:17 47.8329 11.6784 78 ° 11 km/h 926 m -3.4 m/s 402.30 MHz Geretsried (DE) 0.00 km UNKNOWN
T1930062 RS41 2022-06-11 13:30:47 47.9312 11.6737 128 ° 7 km/h 734 m -3.9 m/s 402.30 MHz Unterhaching (DE) 0.00 km FOUND
T1920296 RS41 2022-06-11 02:07:37 47.6419 11.431 212 ° 11 km/h 1775 m -2.2 m/s 402.30 MHz Geretsried (DE) 0.00 km UNKNOWN
T1920299 RS41 2022-06-10 13:22:56 47.522 11.2339 292 ° 17 km/h 2335 m -4.1 m/s 402.30 MHz Garmisch-Partenkirchen (DE) 0.00 km UNKNOWN
T1930039 RS41 2022-06-10 01:12:47 47.9226 11.36 87 ° 17 km/h 761 m -4.8 m/s 402.30 MHz Starnberg (DE) 0.00 km FOUND
T1930056 RS41 2022-06-09 12:50:23 48.2824 11.5327 120 ° 28 km/h 788 m -5.7 m/s 402.30 MHz Unterschleißheim (DE) 0.00 km FOUND
T1920297 RS41 2022-06-09 01:16:44 48.5229 11.773 77 ° 31 km/h 696 m -5.8 m/s 402.30 MHz Freising (DE) 0.00 km UNKNOWN
T3440092 RS41 2022-06-08 13:01:45 48.3021 11.7896 290 ° 15 km/h 831 m -3.6 m/s 402.30 MHz Erding (DE) 0.00 km FOUND
T3350441 RS41 2022-06-08 00:55:37 48.3069 11.672 96 ° 28 km/h 736 m -10.4 m/s 402.30 MHz Unterschleißheim (DE) 0.00 km FOUND
T3350447 RS41 2022-06-07 12:55:45 48.5667 11.8894 96 ° 15 km/h 819 m -4.8 m/s 402.30 MHz Landshut (DE) 0.00 km UNKNOWN
T3440084 RS41 2022-06-07 02:13:39 48.7349 12.5307 123 ° 35 km/h 618 m -2.4 m/s 402.30 MHz Straubing (DE) 0.00 km UNKNOWN
T1930066 RS41 2022-06-06 13:21:35 48.5915 12.3737 64 ° 13 km/h 1040 m -5.1 m/s 402.30 MHz Landshut (DE) 0.00 km UNKNOWN
U1470555 RS41 2022-06-06 01:05:09 48.3423 12.0262 105 ° 54 km/h 1082 m -4.8 m/s 402.30 MHz Erding (DE) 0.00 km FOUND
U1470483 RS41 2022-06-05 13:06:08 48.5355 12.0248 269 ° 13 km/h 724 m -4.3 m/s 402.30 MHz Landshut (DE) 0.00 km UNKNOWN
U1470429 RS41 2022-06-05 01:17:38 48.2729 12.2598 287 ° 26 km/h 849 m -4.7 m/s 402.30 MHz Waldkraiburg (DE) 0.00 km UNKNOWN
U1470428 RS41 2022-06-04 13:21:19 48.2674 12.8798 158 ° 6 km/h 557 m -5.3 m/s 402.30 MHz Braunau am Inn (AT) 0.00 km NEED ATTENTION
U1470405 RS41 2022-06-04 02:07:32 48.1499 13.0169 209 ° 7 km/h 504 m -2.2 m/s 402.30 MHz Neukirchen an der Enknach (AT) 0.00 km FOUND
U1470484 RS41 2022-06-03 13:24:11 48.3426 12.916 257 ° 17 km/h 625 m -4.1 m/s 402.30 MHz Braunau am Inn (AT) 0.00 km FOUND
U1470482 RS41 2022-06-03 00:47:54 48.2717 12.4295 294 ° 24 km/h 798 m -17.6 m/s 402.30 MHz Waldkraiburg (DE) 0.00 km UNKNOWN
U1470479 RS41 2022-06-02 14:20:29 48.2079 14.1713 256 ° 4 km/h 335 m -1.9 m/s 402.30 MHz Hörsching (AT) 0.00 km FOUND
U1470476 RS41 2022-06-02 01:14:31 48.3647 13.2682 15 ° 7 km/h 490 m -5.7 m/s 402.30 MHz Altheim (AT) 0.00 km FOUND
U1470430 RS41 2022-06-01 18:35:04 48.4241 13.6501 174 ° 17 km/h 562 m -1.6 m/s 402.30 MHz Sankt Florian am Inn (AT) 0.00 km UNKNOWN
U1460052 RS41 2022-06-01 13:55:19 48.4727 13.7137 294 ° 13 km/h 712 m -3.0 m/s 402.30 MHz Natternbach (AT) 0.00 km UNKNOWN
U1460051 RS41 2022-06-01 02:00:12 48.2853 14.1019 345 ° 4 km/h 335 m -2.3 m/s 402.30 MHz Alkoven (AT) 0.00 km FOUND
U1450550 RS41 2022-05-31 19:55:35 48.5138 13.7099 116 ° 11 km/h 683 m -2.3 m/s 402.30 MHz Münzkirchen (AT) 0.00 km UNKNOWN
U1450551 RS41 2022-05-31 12:48:38 48.4776 13.1861 333 ° 15 km/h 763 m -1.7 m/s 402.30 MHz Schärding (AT) 0.00 km FOUND
U1470553 RS41 2022-05-31 01:46:38 48.5735 13.0183 352 ° 9 km/h 727 m -3.7 m/s 402.30 MHz Deggendorf (DE) 0.00 km FOUND
U1450549 RS41 2022-05-30 13:16:13 48.8005 12.9982 67 ° 7 km/h 1366 m -7.1 m/s 402.30 MHz Deggendorf (DE) 0.00 km UNKNOWN
U1450548 RS41 2022-05-30 01:43:05 48.4767 13.1061 170 ° 11 km/h 595 m -5.1 m/s 402.30 MHz Schärding (AT) 0.00 km FOUND
U1450547 RS41 2022-05-29 12:58:37 48.6156 12.3393 300 ° 4 km/h 1354 m -6.4 m/s 402.30 MHz Landshut (DE) 0.00 km UNKNOWN
U1450446 RS41 2022-05-29 01:20:30 48.3455 12.5555 261 ° 2 km/h 963 m -12.9 m/s 402.30 MHz Waldkraiburg (DE) 0.00 km FOUND
U1450425 RS41 2022-05-28 13:44:46 48.0824 13.3218 147 ° 20 km/h 796 m -3.5 m/s 402.30 MHz Lohnsburg (AT) 0.00 km FOUND
U1450424 RS41 2022-05-28 02:37:55 47.9072 13.9246 78 ° 35 km/h 864 m -4.4 m/s 402.30 MHz Scharnstein (AT) 0.00 km UNKNOWN
U1450423 RS41 2022-05-27 13:17:32 48.0282 12.5681 117 ° 20 km/h 716 m -8.5 m/s 402.30 MHz Traunreut (DE) 0.00 km UNKNOWN
U1450422 RS41 2022-05-27 01:15:34 48.1875 12.2809 89 ° 15 km/h 691 m -5.0 m/s 402.30 MHz Waldkraiburg (DE) 0.00 km FOUND
U1450413 RS41 2022-05-26 13:46:06 48.234 12.3759 108 ° 28 km/h 694 m -3.8 m/s 402.30 MHz Waldkraiburg (DE) 0.00 km FOUND
U1450412 RS41 2022-05-26 01:59:58 48.0308 12.3556 61 ° 26 km/h 803 m -2.6 m/s 402.30 MHz Traunreut (DE) 0.00 km UNKNOWN
U1450411 RS41 2022-05-25 13:21:34 48.5081 12.5347 95 ° 15 km/h 1112 m -13.0 m/s 402.30 MHz Landshut (DE) 0.00 km FOUND
U1450409 RS41 2022-05-25 01:10:07 48.8646 12.4205 127 ° 15 km/h 734 m -4.6 m/s 402.30 MHz Straubing (DE) 0.00 km UNKNOWN
U1450426 RS41 2022-05-24 14:24:29 49.2464 13.2779 110 ° 15 km/h 909 m -2.6 m/s 402.30 MHz Klatovy (CZ) 0.00 km FOUND
U1450421 RS41 2022-05-24 01:22:23 48.4745 12.5527 73 ° 37 km/h 1090 m -7.8 m/s 402.30 MHz Landshut (DE) 0.00 km FOUND
T1920614 RS41 2022-05-23 13:11:46 48.3194 12.1505 281 ° 19 km/h 857 m -8.9 m/s 402.30 MHz Erding (DE) 0.00 km FOUND
T3350266 RS41 2022-05-23 02:27:05 47.4385 13.0653 102 ° 54 km/h 2988 m -2.6 m/s 402.30 MHz Werfen (AT) 0.00 km UNKNOWN
T3350386 RS41 2022-05-22 13:43:39 47.5143 13.0153 100 ° 39 km/h 2057 m -4.2 m/s 402.30 MHz Werfen (AT) 0.00 km UNKNOWN
T3350350 RS41 2022-05-22 02:25:54 47.4537 13.3342 100 ° 48 km/h 2532 m -2.2 m/s 402.30 MHz Eben im Pongau (AT) 0.00 km UNKNOWN
T3440104 RS41 2022-05-21 13:49:09 47.7647 13.0105 143 ° 26 km/h 533 m -2.9 m/s 402.30 MHz Viehausen (AT) 0.00 km FOUND
T3440077 RS41 2022-05-21 02:26:32 48.2036 13.8041 109 ° 22 km/h 496 m -2.1 m/s 402.30 MHz Gallspach (AT) 0.00 km UNKNOWN
T3350236 RS41 2022-05-20 13:54:32 48.123 12.4023 87 ° 13 km/h 642 m -2.3 m/s 402.30 MHz Waldkraiburg (DE) 0.00 km UNKNOWN
T3310824 RS41 2022-05-20 02:29:33 48.0566 12.4444 42 ° 28 km/h 675 m -2.4 m/s 402.30 MHz Traunreut (DE) 0.00 km UNKNOWN
T3440082 RS41 2022-05-19 14:11:51 48.0969 11.9132 147 ° 17 km/h 695 m -3.2 m/s 402.30 MHz Vaterstetten (DE) 0.00 km UNKNOWN
T3350383 RS41 2022-05-19 01:40:50 47.7555 11.5268 100 ° 6 km/h 1140 m -5.9 m/s 402.30 MHz Geretsried (DE) 0.00 km FOUND
T3350445 RS41 2022-05-18 13:36:06 47.5093 11.7012 143 ° 2 km/h 2340 m -5.7 m/s 402.30 MHz Achenkirch (AT) 0.00 km UNKNOWN
T1930033 RS41 2022-05-18 01:35:46 47.5347 11.9884 72 ° 4 km/h 2135 m -5.9 m/s 402.30 MHz Kirchbichl (AT) 0.00 km UNKNOWN
T3350387 RS41 2022-05-17 13:36:09 47.4027 12.0815 205 ° 6 km/h 1940 m -6.9 m/s 402.30 MHz Hopfgarten im Brixental (AT) 0.00 km UNKNOWN
T3350214 RS41 2022-05-17 02:49:47 47.9448 12.5477 95 ° 43 km/h 767 m -2.2 m/s 402.30 MHz Traunreut (DE) 0.00 km UNKNOWN
T3350390 RS41 2022-05-16 14:10:02 48.2934 12.2944 81 ° 13 km/h 758 m -3.9 m/s 402.30 MHz Waldkraiburg (DE) 0.00 km UNKNOWN
T3350212 RS41 2022-05-16 01:32:10 48.058 11.9782 324 ° 9 km/h 797 m -8.3 m/s 402.30 MHz Vaterstetten (DE) 0.00 km FOUND
T3440409 RS41 2022-05-15 14:07:55 47.932 12.3572 209 ° 7 km/h 692 m -3.5 m/s 402.30 MHz Traunreut (DE) 0.00 km UNKNOWN
T3440062 RS41 2022-05-15 01:29:01 47.9582 12.0723 269 ° 6 km/h 1108 m -11.4 m/s 402.30 MHz Rosenheim (DE) 0.00 km UNKNOWN
T3350389 RS41 2022-05-14 13:09:23 48.1569 12.0617 117 ° 9 km/h 801 m -9.7 m/s 402.30 MHz Erding (DE) 0.00 km UNKNOWN
T3440074 RS41 2022-05-14 01:23:02 48.1987 12.2327 193 ° 15 km/h 747 m -10.4 m/s 402.30 MHz Waldkraiburg (DE) 0.00 km FOUND
T3310778 RS41 2022-05-13 16:47:30 47.8754 14.941 49 ° 24 km/h 1040 m -8.3 m/s 402.30 MHz Ybbsitz (AT) 0.00 km UNKNOWN
T3310779 RS41 2022-05-13 15:20:22 47.9601 13.5343 73 ° 19 km/h 690 m -2.1 m/s 404.70 MHz Gampern (AT) 0.00 km UNKNOWN
T3350444 RS41 2022-05-13 02:06:53 48.3784 13.6493 116 ° 13 km/h 545 m -2.4 m/s 402.30 MHz Raab (AT) 0.00 km UNKNOWN
T3350443 RS41 2022-05-12 14:02:16 48.366 13.4998 110 ° 26 km/h 490 m -4.4 m/s 402.30 MHz Andorf (AT) 0.00 km UNKNOWN
T3350268 RS41 2022-05-12 01:15:22 48.4689 12.7212 87 ° 54 km/h 716 m -6.0 m/s 402.30 MHz Braunau am Inn (AT) 0.00 km FOUND
T3310825 RS41 2022-05-11 14:40:39 48.181 12.4786 138 ° 13 km/h 610 m -2.4 m/s 402.30 MHz Waldkraiburg (DE) 0.00 km UNKNOWN
T3440412 RS41 2022-05-11 02:24:21 47.7263 11.8229 54 ° 24 km/h 1278 m -2.5 m/s 402.30 MHz Achenkirch (AT) 0.00 km UNKNOWN
T3440420 RS41 2022-05-10 13:14:16 47.7331 11.3174 146 ° 13 km/h 1904 m -8.2 m/s 402.30 MHz Weilheim in Oberbayern (DE) 0.00 km FOUND
T3440076 RS41 2022-05-10 01:25:32 47.83 11.2086 49 ° 11 km/h 740 m -3.9 m/s 402.30 MHz Weilheim in Oberbayern (DE) 0.00 km UNKNOWN
T3440437 RS41 2022-05-09 14:46:02 47.9395 11.202 241 ° 13 km/h 928 m -2.0 m/s 402.30 MHz Weilheim in Oberbayern (DE) 0.00 km UNKNOWN
T3350216 RS41 2022-05-09 02:42:58 48.0018 11.2946 278 ° 33 km/h 831 m -2.2 m/s 402.30 MHz Starnberg (DE) 0.00 km FOUND
T3440391 RS41 2022-05-08 13:13:44 48.2406 11.3728 252 ° 22 km/h 690 m -9.2 m/s 402.30 MHz Olching (DE) 0.00 km FOUND
T3350223 RS41 2022-05-08 01:43:19 48.2211 11.306 246 ° 11 km/h 642 m -3.9 m/s 402.30 MHz Olching (DE) 0.00 km NEED ATTENTION
T3350267 RS41 2022-05-07 13:48:27 48.3448 11.6261 250 ° 19 km/h 706 m -3.7 m/s 402.30 MHz Unterschleißheim (DE) 0.00 km NEED ATTENTION
T3350269 RS41 2022-05-07 02:16:13 48.2198 11.7324 212 ° 9 km/h 651 m -2.3 m/s 402.30 MHz Vaterstetten (DE) 0.00 km UNKNOWN
T3440117 RS41 2022-05-06 13:53:17 48.3902 11.7407 192 ° 11 km/h 632 m -7.3 m/s 402.30 MHz Freising (DE) 0.00 km FOUND
T3850400 RS41 2022-05-06 01:14:08 48.3733 11.8604 39 ° 7 km/h 730 m -10.7 m/s 402.30 MHz Erding (DE) 0.00 km FOUND
T3350240 RS41 2022-05-05 13:57:30 48.5542 12.3621 211 ° 11 km/h 699 m -3.9 m/s 402.30 MHz Landshut (DE) 0.00 km FOUND
T3350380 RS41 2022-05-05 01:57:11 48.3489 12.0768 77 ° 17 km/h 904 m -9.6 m/s 402.30 MHz Erding (DE) 0.00 km FOUND
T3440411 RS41 2022-05-04 13:41:03 48.5205 11.9599 13 ° 13 km/h 628 m -10.5 m/s 402.30 MHz Landshut (DE) 0.00 km UNKNOWN
T3440075 RS41 2022-05-04 02:22:22 48.397 11.8027 61 ° 15 km/h 606 m -2.4 m/s 402.30 MHz Freising (DE) 0.00 km FOUND
T3850766 RS41 2022-05-03 14:41:08 48.4054 11.5955 154 ° 11 km/h 554 m -2.9 m/s 402.30 MHz Freising (DE) 0.00 km FOUND
T3350258 RS41 2022-05-03 02:24:23 48.3026 11.4819 160 ° 6 km/h 588 m -3.7 m/s 402.30 MHz Dachau (DE) 0.00 km UNKNOWN
T3440425 RS41 2022-05-02 15:13:59 48.3404 11.1217 210 ° 6 km/h 620 m -2.0 m/s 402.30 MHz Aichach (DE) 0.00 km UNKNOWN
T3440041 RS41 2022-05-02 02:39:14 48.2257 11.2479 305 ° 4 km/h 680 m -4.7 m/s 402.30 MHz Fürstenfeldbruck (DE) 0.00 km FOUND
T3820198 RS41 2022-05-01 13:41:41 48.2572 11.5174 210 ° 11 km/h 624 m -7.4 m/s 402.30 MHz Unterschleißheim (DE) 0.00 km NEED ATTENTION
T3350235 RS41 2022-05-01 02:50:16 48.302 11.7264 69 ° 6 km/h 906 m -3.0 m/s 402.30 MHz Freising (DE) 0.00 km FOUND
T3350437 RS41 2022-04-30 14:19:12 48.6279 12.0575 132 ° 30 km/h 577 m -4.1 m/s 402.30 MHz Landshut (DE) 0.00 km UNKNOWN
T3431762 RS41 2022-04-30 01:39:59 48.2991 12.0246 287 ° 26 km/h 699 m -10.4 m/s 402.30 MHz Erding (DE) 0.00 km FOUND
T3350238 RS41 2022-04-29 13:30:18 47.9572 11.8472 275 ° 19 km/h 849 m -11.7 m/s 402.30 MHz Vaterstetten (DE) 0.00 km FOUND
T3440078 RS41 2022-04-29 02:00:33 47.5096 11.803 30 ° 2 km/h 1971 m -3.3 m/s 402.30 MHz Achenkirch (AT) 0.00 km UNKNOWN
T3431775 RS41 2022-04-28 12:39:35 47.8366 11.4994 244 ° 7 km/h 715 m -8.1 m/s 402.30 MHz Geretsried (DE) 0.00 km FOUND
T3350369 RS41 2022-04-28 02:17:17 47.7176 11.7701 276 ° 20 km/h 1290 m -1.6 m/s 402.30 MHz Achenkirch (AT) 0.00 km UNKNOWN
T3440107 RS41 2022-04-27 20:19:36 47.8605 12.4636 282 ° 13 km/h 897 m -2.7 m/s 402.30 MHz Traunreut (DE) 0.00 km UNKNOWN
T3350370 RS41 2022-04-27 14:16:30 47.9718 11.9131 232 ° 11 km/h 777 m -5.0 m/s 402.30 MHz Vaterstetten (DE) 0.00 km NEED ATTENTION
T3350239 RS41 2022-04-27 01:17:17 48.2649 12.0024 139 ° 24 km/h 800 m -3.4 m/s 402.30 MHz Erding (DE) 0.00 km UNKNOWN
T3431723 RS41 2022-04-26 13:19:34 48.5709 12.2605 109 ° 41 km/h 769 m -3.2 m/s 402.30 MHz Landshut (DE) 0.00 km UNKNOWN
T3431239 RS41 2022-04-26 01:20:24 48.436 12.1633 331 ° 17 km/h 642 m -3.4 m/s 402.30 MHz Landshut (DE) 0.00 km UNKNOWN
T3440022 RS41 2022-04-25 12:52:26 48.2953 11.9998 144 ° 15 km/h 796 m -5.1 m/s 402.30 MHz Erding (DE) 0.00 km FOUND
T3820196 RS41 2022-04-25 00:34:45 48.1864 12.1732 78 ° 39 km/h 729 m -6.0 m/s 402.30 MHz Waldkraiburg (DE) 0.00 km FOUND
T3350213 RS41 2022-04-24 13:41:59 48.5929 11.897 65 ° 30 km/h 572 m -2.0 m/s 402.30 MHz Landshut (DE) 0.00 km FOUND
T3350256 RS41 2022-04-24 01:17:49 48.848 11.9464 254 ° 28 km/h 467 m -2.4 m/s 402.30 MHz Regensburg (DE) 0.00 km FOUND
T3850441 RS41 2022-04-23 13:27:24 48.7386 11.5273 109 ° 11 km/h 403 m -1.9 m/s 402.30 MHz Ingolstadt (DE) 0.00 km FOUND
T1930030 RS41 2022-04-23 01:16:05 48.5369 11.6195 252 ° 20 km/h 571 m -2.3 m/s 402.30 MHz Pfaffenhofen an der Ilm (DE) 0.00 km FOUND
T1930005 RS41 2022-04-22 13:00:13 48.4833 11.6478 254 ° 17 km/h 570 m -4.9 m/s 404.70 MHz Pfaffenhofen an der Ilm (DE) 0.00 km NEED ATTENTION
T3310826 RS41 2022-04-22 03:31:21 48.5499 11.0695 225 ° 17 km/h 518 m -5.2 m/s 402.30 MHz Aichach (DE) 0.00 km FOUND
T3310780 RS41 2022-04-21 13:33:29 48.4524 11.0264 198 ° 11 km/h 598 m -6.4 m/s 402.30 MHz Aichach (DE) 0.00 km FOUND
T3310823 RS41 2022-04-21 01:32:19 48.1217 11.2726 259 ° 22 km/h 782 m -7.8 m/s 402.30 MHz Fürstenfeldbruck (DE) 0.00 km FOUND
T3440079 RS41 2022-04-20 13:58:39 47.9148 11.549 214 ° 20 km/h 882 m -2.7 m/s 402.30 MHz Geretsried (DE) 0.00 km FOUND
T3440138 RS41 2022-04-20 01:55:36 47.5017 11.4582 82 ° 26 km/h 2076 m -2.6 m/s 402.30 MHz Achenkirch (AT) 0.00 km UNKNOWN
T3440040 RS41 2022-04-19 14:00:44 47.0844 11.8127 148 ° 19 km/h 3210 m -0.4 m/s 402.30 MHz Mayrhofen (AT) 0.00 km UNKNOWN
T3440059 RS41 2022-04-18 13:02:54 47.567 10.802 277 ° 13 km/h 1687 m -3.8 m/s 402.30 MHz Reutte (AT) 0.00 km UNKNOWN
T3850433 RS41 2022-04-18 00:52:36 47.7244 10.6673 89 ° 4 km/h 797 m -4.0 m/s 402.30 MHz Kaufbeuren (DE) 0.00 km UNKNOWN
T3850398 RS41 2022-04-17 13:21:46 47.3178 10.4542 165 ° 7 km/h 2594 m -4.1 m/s 402.30 MHz Zams (AT) 0.00 km UNKNOWN
T3431816 RS41 2022-04-17 00:48:00 47.5373 10.5604 280 ° 15 km/h 1882 m -6.6 m/s 402.30 MHz Reutte (AT) 0.00 km UNKNOWN
T3440106 RS41 2022-04-16 13:05:06 47.434 10.8383 167 ° 11 km/h 2238 m -6.4 m/s 402.30 MHz Ehrwald (AT) 0.00 km FOUND
T3850444 RS41 2022-04-16 01:00:24 47.2847 11.9144 166 ° 22 km/h 2128 m -4.8 m/s 402.30 MHz Fügen (AT) 0.00 km UNKNOWN
T3850447 RS41 2022-04-15 12:57:58 47.7049 11.8308 132 ° 13 km/h 1259 m -4.6 m/s 402.30 MHz Achenkirch (AT) 0.00 km UNKNOWN
T3850403 RS41 2022-04-15 01:10:58 47.8694 11.7059 135 ° 15 km/h 855 m -6.9 m/s 402.30 MHz Geretsried (DE) 0.00 km FOUND
T3350237 RS41 2022-04-14 13:18:17 48.2276 11.7428 114 ° 15 km/h 612 m -5.7 m/s 402.30 MHz Vaterstetten (DE) 0.00 km FOUND
T3431815 RS41 2022-04-14 00:54:34 48.1221 11.4737 90 ° 7 km/h 657 m -7.7 m/s 402.30 MHz Germering (DE) 0.00 km FOUND
T3440108 RS41 2022-04-13 13:48:05 48.2974 11.6098 214 ° 15 km/h 600 m -2.3 m/s 402.30 MHz Unterschleißheim (DE) 0.00 km FOUND
T3440066 RS41 2022-04-13 01:29:24 48.1028 12.0719 301 ° 6 km/h 657 m -2.8 m/s 402.30 MHz Vaterstetten (DE) 0.00 km UNKNOWN
T3440061 RS41 2022-04-12 14:17:06 47.9901 12.7121 264 ° 13 km/h 593 m -1.7 m/s 402.30 MHz Traunreut (DE) 0.00 km FOUND
T3431234 RS41 2022-04-12 01:46:58 47.5531 13.1052 93 ° 17 km/h 2119 m -2.8 m/s 402.30 MHz Golling an der Salzach (AT) 0.00 km UNKNOWN
T3431761 RS41 2022-04-11 13:19:04 47.4566 13.1977 276 ° 6 km/h 1397 m -5.5 m/s 402.30 MHz Werfen (AT) 0.00 km FOUND
T3431724 RS41 2022-04-11 01:29:05 47.0135 13.522 50 ° 17 km/h 2571 m -1.8 m/s 402.30 MHz Gmünd (AT) 0.00 km UNKNOWN
T3440070 RS41 2022-04-10 12:58:02 47.4918 13.0684 116 ° 41 km/h 2628 m -4.3 m/s 402.30 MHz Werfen (AT) 0.00 km UNKNOWN
T3850396 RS41 2022-04-10 01:23:22 47.8367 13.0677 63 ° 2 km/h 520 m -3.6 m/s 402.30 MHz Hallwang (AT) 0.00 km UNKNOWN
T1920298 RS41 2022-04-09 13:14:16 48.4522 13.6322 118 ° 43 km/h 634 m -4.8 m/s 402.30 MHz Sankt Florian am Inn (AT) 0.00 km UNKNOWN
T3850436 RS41 2022-04-09 02:04:44 48.4678 15.1186 13 ° 19 km/h 906 m -2.1 m/s 402.30 MHz Zwettl (AT) 0.00 km LOST
T3850439 RS41 2022-04-08 13:29:29 48.1729 14.6015 255 ° 6 km/h 338 m -5.1 m/s 402.30 MHz Sankt Pantaleon (AT) 0.00 km FOUND
T3850434 RS41 2022-04-08 00:46:25 47.8207 14.4047 110 ° 52 km/h 1286 m -9.1 m/s 402.30 MHz Windischgarsten (AT) 0.00 km UNKNOWN
T3850435 RS41 2022-04-07 14:04:24 47.6178 14.4687 11 ° 11 km/h 1554 m -2.3 m/s 402.30 MHz Admont (AT) 0.00 km UNKNOWN
T3440007 RS41 2022-04-07 01:01:26 48.0359 12.9825 52 ° 15 km/h 539 m -6.7 m/s 402.30 MHz Eggelsberg (AT) 0.00 km UNKNOWN
T3440016 RS41 2022-04-06 14:07:20 48.0466 13.3693 173 ° 7 km/h 816 m -2.4 m/s 402.30 MHz Pöndorf (AT) 0.00 km UNKNOWN
T3350577 RS41 2022-04-06 00:52:37 47.674 12.7164 84 ° 24 km/h 1683 m -10.1 m/s 402.30 MHz Grossgmain (AT) 0.00 km UNKNOWN
T3440553 RS41 2022-04-05 12:55:53 47.7116 13.6377 103 ° 41 km/h 1589 m -2.9 m/s 402.30 MHz Bad Ischl (AT) 0.00 km UNKNOWN
T3350228 RS41 2022-04-05 01:03:34 47.4232 13.0227 101 ° 43 km/h 2541 m -2.1 m/s 402.30 MHz Goldegg (AT) 0.00 km UNKNOWN
T3350907 RS41 2022-04-04 13:09:46 47.2895 12.5341 74 ° 26 km/h 2664 m -4.8 m/s 402.30 MHz Uttendorf (AT) 0.00 km UNKNOWN
T3440535 RS41 2022-04-04 01:17:14 47.6677 13.0057 102 ° 20 km/h 1789 m -3.7 m/s 402.30 MHz Hallein (AT) 0.00 km UNKNOWN
T3440119 RS41 2022-04-03 13:55:44 47.8928 13.0867 136 ° 13 km/h 645 m -1.6 m/s 402.30 MHz Elixhausen (AT) 0.00 km FOUND
T3440118 RS41 2022-04-03 02:22:03 47.6358 12.5994 158 ° 19 km/h 1719 m -1.8 m/s 402.30 MHz Kirchdorf in Tirol (AT) 0.00 km UNKNOWN
T3440115 RS41 2022-04-02 12:51:31 47.985 12.5321 189 ° 19 km/h 755 m -9.4 m/s 402.30 MHz Traunreut (DE) 0.00 km FOUND
T3440133 RS41 2022-04-02 01:41:43 48.2155 12.6323 261 ° 28 km/h 557 m -1.6 m/s 402.30 MHz Waldkraiburg (DE) 0.00 km FOUND
T3850445 RS41 2022-04-01 12:58:55 48.4502 12.9945 279 ° 11 km/h 643 m -4.8 m/s 402.30 MHz Braunau am Inn (AT) 0.00 km FOUND
T3431813 RS41 2022-04-01 01:52:48 48.505 13.7655 245 ° 15 km/h 701 m -2.9 m/s 402.30 MHz Sarleinsbach (AT) 0.00 km UNKNOWN
T3440531 RS41 2022-03-31 13:40:26 48.6491 13.7211 269 ° 26 km/h 972 m -1.8 m/s 402.30 MHz Ulrichsberg (AT) 0.00 km UNKNOWN
T3440039 RS41 2022-03-31 00:38:58 48.1987 13.4781 105 ° 4 km/h 637 m -6.9 m/s 402.30 MHz Ried im Innkreis (AT) 0.00 km NEED ATTENTION
T3440529 RS41 2022-03-30 13:48:36 47.9297 14.3358 287 ° 2 km/h 861 m -2.2 m/s 402.30 MHz Ternberg (AT) 0.00 km UNKNOWN
T3440530 RS41 2022-03-30 00:15:08 48.1672 13.1444 357 ° 7 km/h 505 m -5.4 m/s 402.30 MHz Mauerkirchen (AT) 0.00 km FOUND
T3311670 RS41 2022-03-29 17:14:46 47.7467 13.418 143 ° 17 km/h 1407 m -6.5 m/s 402.30 MHz Sankt Wolfgang im Salzkammergut (AT) 0.00 km UNKNOWN
T3440537 RS41 2022-03-29 13:13:02 47.8659 13.3942 112 ° 20 km/h 1095 m -5.3 m/s 402.30 MHz Tiefgraben (AT) 0.00 km UNKNOWN
T3431756 RS41 2022-03-29 00:47:52 47.6379 12.9089 77 ° 15 km/h 1518 m -6.2 m/s 402.30 MHz Grossgmain (AT) 0.00 km UNKNOWN
T3850406 RS41 2022-03-28 13:21:00 47.9322 12.8958 138 ° 15 km/h 508 m -3.3 m/s 402.30 MHz Oberndorf bei Salzburg (AT) 0.00 km FOUND
T3850443 RS41 2022-03-28 01:52:27 47.7559 12.2613 109 ° 6 km/h 1432 m -2.3 m/s 402.30 MHz Niederndorf (AT) 0.00 km UNKNOWN
T3920424 RS41 2022-03-27 12:37:07 47.9351 11.9359 262 ° 13 km/h 698 m -4.6 m/s 402.30 MHz Rosenheim (DE) 0.00 km UNKNOWN
T3850401 RS41 2022-03-27 00:58:03 47.8242 11.9156 284 ° 17 km/h 1252 m -6.2 m/s 402.30 MHz Rosenheim (DE) 0.00 km UNKNOWN
T3850393 RS41 2022-03-26 12:46:55 48.0192 11.9166 257 ° 13 km/h 721 m -6.9 m/s 402.30 MHz Vaterstetten (DE) 0.00 km FOUND
T3821054 RS41 2022-03-26 01:03:20 48.0035 12.297 273 ° 11 km/h 627 m -4.2 m/s 402.30 MHz Rosenheim (DE) 0.00 km UNKNOWN
T3850407 RS41 2022-03-25 13:20:55 48.0056 12.3816 179 ° 13 km/h 859 m -4.5 m/s 402.30 MHz Traunreut (DE) 0.00 km UNKNOWN
T3310777 RS41 2022-03-25 01:19:02 48.0906 12.1777 227 ° 4 km/h 576 m -2.6 m/s 402.30 MHz Waldkraiburg (DE) 0.00 km UNKNOWN
T3850771 RS41 2022-03-24 13:12:31 48.1939 12.0481 231 ° 6 km/h 800 m -3.8 m/s 402.30 MHz Erding (DE) 0.00 km UNKNOWN
T3440005 RS41 2022-03-24 01:13:15 48.2328 11.7853 39 ° 6 km/h 627 m -4.2 m/s 402.30 MHz Erding (DE) 0.00 km FOUND
T3850440 RS41 2022-03-23 13:20:05 48.3524 11.4156 170 ° 6 km/h 608 m -2.7 m/s 402.30 MHz Dachau (DE) 0.00 km FOUND
T3850395 RS41 2022-03-23 01:54:15 48.437 11.0982 225 ° 4 km/h 529 m -2.5 m/s 402.30 MHz Aichach (DE) 0.00 km FOUND
T3821053 RS41 2022-03-22 12:48:47 48.2636 11.1089 264 ° 4 km/h 804 m -6.7 m/s 402.30 MHz Fürstenfeldbruck (DE) 0.00 km FOUND
T3850582 RS41 2022-03-22 01:05:28 48.2852 10.9915 316 ° 17 km/h 813 m -5.6 m/s 402.30 MHz Königsbrunn (DE) 0.00 km LOST
T3850438 RS41 2022-03-21 13:06:56 48.2071 11.0075 204 ° 17 km/h 693 m -5.1 m/s 402.30 MHz Königsbrunn (DE) 0.00 km LOST
T3850404 RS41 2022-03-21 01:51:00 48.2866 10.8534 281 ° 19 km/h 615 m -1.8 m/s 402.30 MHz Königsbrunn (DE) 0.00 km FOUND
T3311678 RS41 2022-03-20 12:49:42 48.1587 11.1691 270 ° 20 km/h 868 m -9.6 m/s 402.30 MHz Fürstenfeldbruck (DE) 0.00 km NEED ATTENTION
T3431750 RS41 2022-03-20 02:13:57 48.4486 11.4545 294 ° 26 km/h 578 m -4.1 m/s 404.70 MHz Pfaffenhofen an der Ilm (DE) 0.00 km UNKNOWN
T3311664 RS41 2022-03-20 00:51:57 48.5501 11.4702 272 ° 11 km/h 587 m -3.7 m/s 402.30 MHz Pfaffenhofen an der Ilm (DE) 0.00 km FOUND
T3440540 RS41 2022-03-19 12:28:00 47.9387 11.6536 230 ° 24 km/h 808 m -10.3 m/s 402.30 MHz Unterhaching (DE) 0.00 km FOUND
T3440415 RS41 2022-03-19 01:00:09 47.9173 11.3981 239 ° 20 km/h 794 m -6.2 m/s 402.30 MHz Geretsried (DE) 0.00 km FOUND
T3850606 RS41 2022-03-18 12:47:02 47.9558 11.5944 246 ° 15 km/h 758 m -5.4 m/s 402.30 MHz Unterhaching (DE) 0.00 km FOUND
R1820598 RS41 2022-03-18 10:36:11 47.6418 11.3399 171 ° 9 km/h 1298 m -2.4 m/s 403.970 MHz Garmisch-Partenkirchen (DE) 0.00 km UNKNOWN
T3850446 RS41 2022-03-18 02:10:14 47.8391 11.8209 78 ° 9 km/h 919 m -2.0 m/s 404.70 MHz Rosenheim (DE) 0.00 km UNKNOWN
R1820596 RS41 2022-03-17 16:08:00 47.9107 11.8208 122 ° 4 km/h 884 m -2.1 m/s 403.97 MHz Vaterstetten (DE) 0.00 km FOUND
T3810886 RS41 2022-03-17 13:45:49 48.0391 11.9747 162 ° 9 km/h 687 m -5.1 m/s 404.70 MHz Vaterstetten (DE) 0.00 km FOUND
T3850394 RS41 2022-03-17 00:49:06 47.8418 12.0161 301 ° 15 km/h 753 m -3.5 m/s 402.30 MHz Rosenheim (DE) 0.00 km FOUND
T3311679 RS41 2022-03-16 12:46:13 47.7112 12.144 120 ° 9 km/h 784 m -6.2 m/s 402.30 MHz Niederndorf (AT) 0.00 km UNKNOWN
T3350270 RS41 2022-03-16 00:02:58 47.6587 12.786 58 ° 39 km/h 1452 m -12.3 m/s 402.30 MHz Grossgmain (AT) 0.00 km UNKNOWN
T3311630 RS41 2022-03-15 13:23:12 47.8543 13.3008 35 ° 11 km/h 847 m -2.8 m/s 402.30 MHz Thalgau (AT) 0.00 km UNKNOWN
T3440116 RS41 2022-03-15 01:42:54 47.916 13.3279 305 ° 24 km/h 926 m -1.7 m/s 402.30 MHz Mondsee (AT) 0.00 km UNKNOWN
T3440080 RS41 2022-03-14 13:18:52 48.2822 13.1745 76 ° 11 km/h 390 m -3.5 m/s 402.30 MHz Altheim (AT) 0.00 km FOUND
T3440011 RS41 2022-03-14 01:03:00 48.2546 11.9658 32 ° 20 km/h 709 m -5.3 m/s 402.30 MHz Erding (DE) 0.00 km UNKNOWN
T3440069 RS41 2022-03-13 13:15:10 48.503 11.6599 274 ° 6 km/h 1311 m -2.6 m/s 402.30 MHz Pfaffenhofen an der Ilm (DE) 0.00 km FOUND
T3850624 RS41 2022-03-13 01:41:00 48.0155 11.8056 358 ° 20 km/h 755 m -2.1 m/s 402.30 MHz Vaterstetten (DE) 0.00 km FOUND
T3821056 RS41 2022-03-12 13:12:08 47.9172 12.0524 239 ° 24 km/h 617 m -4.5 m/s 402.30 MHz Rosenheim (DE) 0.00 km LOST
T3820740 RS41 2022-03-12 01:33:25 47.9334 12.27 164 ° 7 km/h 621 m -2.8 m/s 402.30 MHz Rosenheim (DE) 0.00 km UNKNOWN
T3440003 RS41 2022-03-11 12:38:05 48.1367 12.2683 247 ° 28 km/h 612 m -7.0 m/s 402.30 MHz Waldkraiburg (DE) 0.00 km UNKNOWN
T3440008 RS41 2022-03-11 01:04:53 48.1794 12.5524 261 ° 35 km/h 531 m -4.6 m/s 402.30 MHz Waldkraiburg (DE) 0.00 km FOUND
T3440060 RS41 2022-03-10 13:41:03 48.2357 12.5814 248 ° 24 km/h 571 m -3.3 m/s 402.300 MHz Waldkraiburg (DE) 0.00 km UNKNOWN
T3850437 RS41 2022-03-10 00:50:30 48.1429 12.2048 324 ° 2 km/h 583 m -6.3 m/s 402.300 MHz Waldkraiburg (DE) 0.00 km FOUND
T3440063 RS41 2022-03-09 12:49:00 48.071 11.9357 289 ° 4 km/h 721 m -12.0 m/s 402.30 MHz Vaterstetten (DE) 0.00 km FOUND
T3431817 RS41 2022-03-09 01:46:03 47.7692 11.472 4 ° 7 km/h 771 m -1.9 m/s 402.30 MHz Geretsried (DE) 0.00 km FOUND
T3431767 RS41 2022-03-08 13:53:57 47.6868 11.278 236 ° 9 km/h 1123 m -1.8 m/s 402.30 MHz Weilheim in Oberbayern (DE) 0.00 km NEED ATTENTION
T3431759 RS41 2022-03-08 01:52:50 47.359 11.0512 285 ° 13 km/h 1757 m -1.8 m/s 402.30 MHz Telfs (AT) 0.00 km UNKNOWN
T3440073 RS41 2022-03-07 12:41:26 47.8485 11.247 252 ° 22 km/h 744 m -8.1 m/s 402.30 MHz Weilheim in Oberbayern (DE) 0.00 km NEED ATTENTION
T3440134 RS41 2022-03-07 01:03:37 47.6859 11.2093 358 ° 4 km/h 1256 m -3.6 m/s 402.30 MHz Weilheim in Oberbayern (DE) 0.00 km UNKNOWN
T3350265 RS41 2022-03-06 13:56:09 47.2548 10.8929 205 ° 9 km/h 1418 m -4.1 m/s 402.30 MHz Haiming (AT) 0.00 km UNKNOWN
T3350225 RS41 2022-03-06 01:24:52 47.5793 11.0482 32 ° 13 km/h 1786 m -2.8 m/s 402.30 MHz Garmisch-Partenkirchen (DE) 0.00 km UNKNOWN
T3350215 RS41 2022-03-05 13:15:33 47.3512 11.2605 212 ° 9 km/h 1707 m -4.8 m/s 402.30 MHz Seefeld in Tirol (AT) 0.00 km UNKNOWN
T3350257 RS41 2022-03-05 01:43:00 47.0496 11.1363 204 ° 17 km/h 3258 m -2.6 m/s 402.30 MHz Sölden (AT) 0.00 km UNKNOWN
T3431766 RS41 2022-03-04 13:18:31 47.2432 10.9186 211 ° 13 km/h 1848 m -3.3 m/s 402.30 MHz Silz (AT) 0.00 km NEED ATTENTION
T3440071 RS41 2022-03-04 00:37:11 47.7108 11.5033 94 ° 2 km/h 1346 m -14.2 m/s 402.30 MHz Geretsried (DE) 0.00 km UNKNOWN
T3440135 RS41 2022-03-03 13:36:04 47.3885 12.1849 117 ° 20 km/h 1921 m -2.9 m/s 402.30 MHz Westendorf (AT) 0.00 km UNKNOWN
T3440136 RS41 2022-03-03 00:42:07 47.8957 11.545 44 ° 9 km/h 858 m -8.1 m/s 402.30 MHz Geretsried (DE) 0.00 km FOUND
T3431768 RS41 2022-03-02 13:09:59 47.542 11.9684 265 ° 9 km/h 1352 m -4.6 m/s 402.30 MHz Breitenbach am Inn (AT) 0.00 km UNKNOWN
T3440001 RS41 2022-03-02 00:41:27 47.6468 11.5061 58 ° 6 km/h 1705 m -8.1 m/s 402.30 MHz Achenkirch (AT) 0.00 km UNKNOWN
T3431329 RS41 2022-03-01 13:39:48 47.0253 11.2221 167 ° 35 km/h 3217 m -2.3 m/s 402.30 MHz Neustift im Stubaital (AT) 0.00 km UNKNOWN
T3350385 RS41 2022-03-01 00:37:04 47.5305 11.0507 225 ° 6 km/h 2324 m -9.9 m/s 402.30 MHz Garmisch-Partenkirchen (DE) 0.00 km UNKNOWN
T3440068 RS41 2022-02-28 14:12:48 47.376 11.0603 71 ° 30 km/h 1793 m -4.4 m/s 404.70 MHz Leutasch (AT) 0.00 km UNKNOWN
T3440081 RS41 2022-02-28 11:52:09 47.5145 11.0284 136 ° 17 km/h 2006 m -4.7 m/s 402.30 MHz Garmisch-Partenkirchen (DE) 0.00 km UNKNOWN
T3440417 RS41 2022-02-28 00:48:55 47.8993 10.8766 280 ° 30 km/h 1157 m -9.1 m/s 402.30 MHz Landsberg am Lech (DE) 0.00 km FOUND
T3350233 RS41 2022-02-27 12:35:02 47.9841 10.5659 267 ° 39 km/h 1004 m -11.9 m/s 402.30 MHz Kaufbeuren (DE) 0.00 km FOUND
T3350381 RS41 2022-02-27 00:50:15 47.7433 10.882 274 ° 39 km/h 1021 m -9.2 m/s 402.30 MHz Weilheim in Oberbayern (DE) 0.00 km FOUND
T3440137 RS41 2022-02-26 12:37:30 47.5981 11.3489 139 ° 15 km/h 1494 m -10.5 m/s 402.30 MHz Garmisch-Partenkirchen (DE) 0.00 km UNKNOWN
T3431774 RS41 2022-02-26 01:51:51 47.5898 12.535 141 ° 37 km/h 1419 m -5.9 m/s 402.30 MHz Kirchdorf in Tirol (AT) 0.00 km UNKNOWN
T3350226 RS41 2022-02-25 13:00:43 48.3606 13.5372 129 ° 50 km/h 539 m -5.3 m/s 402.30 MHz Andorf (AT) 0.00 km FOUND
T3431757 RS41 2022-02-25 00:55:34 48.4567 13.517 143 ° 41 km/h 550 m -5.8 m/s 402.30 MHz Münzkirchen (AT) 0.00 km UNKNOWN
T3431747 RS41 2022-02-24 12:44:29 48.573 13.0504 69 ° 37 km/h 1631 m -13.5 m/s 402.30 MHz Passau (DE) 0.00 km UNKNOWN
T3431770 RS41 2022-02-24 02:09:35 48.0709 13.7298 217 ° 2 km/h 537 m -2.2 m/s 402.30 MHz Schwanenstadt (AT) 0.00 km UNKNOWN
T3350442 RS41 2022-02-23 12:46:27 47.6262 12.7522 26 ° 19 km/h 1535 m -7.1 m/s 402.30 MHz Grossgmain (AT) 0.00 km UNKNOWN
T3350388 RS41 2022-02-23 01:40:28 46.9126 13.6093 138 ° 39 km/h 2797 m -6.0 m/s 402.30 MHz Gmünd (AT) 0.00 km UNKNOWN
T3431755 RS41 2022-02-22 12:36:48 47.3737 12.378 118 ° 35 km/h 2216 m -7.0 m/s 402.30 MHz Kitzbühel (AT) 0.00 km UNKNOWN
T3431760 RS41 2022-02-22 01:11:30 47.0332 12.7916 143 ° 89 km/h 4110 m -0.8 m/s 402.30 MHz Matrei in Osttirol (AT) 0.00 km UNKNOWN
T3431753 RS41 2022-02-21 13:15:49 48.4262 14.1332 83 ° 69 km/h 680 m -7.6 m/s 402.30 MHz Herzogsdorf (AT) 0.00 km FOUND
T3431765 RS41 2022-02-21 01:15:24 48.2479 14.0398 50 ° 30 km/h 515 m -4.2 m/s 402.30 MHz Scharten (AT) 0.00 km FOUND
T3440418 RS41 2022-02-20 13:33:55 47.3922 13.8233 114 ° 52 km/h 2677 m -4.8 m/s 402.30 MHz Gröbming (AT) 0.00 km UNKNOWN
T3440433 RS41 2022-02-20 01:08:05 48.3066 14.1065 334 ° 2 km/h 363 m -2.8 m/s 402.30 MHz Alkoven (AT) 0.00 km FOUND
T3431754 RS41 2022-02-19 13:49:58 48.7898 15.9753 117 ° 31 km/h 324 m -16.6 m/s 402.30 MHz Retz (AT) 0.00 km FOUND
T3440426 RS41 2022-02-19 01:27:34 48.844 15.3261 81 ° 67 km/h 608 m -3.2 m/s 402.30 MHz Waidhofen an der Thaya (AT) 0.00 km FOUND
T3310799 RS41 2022-02-18 13:50:58 47.5039 15.0123 349 ° 17 km/h 1646 m -2.7 m/s 402.30 MHz Trofaiach (AT) 0.00 km UNKNOWN
T3310828 RS41 2022-02-18 01:04:56 47.2919 13.8188 145 ° 50 km/h 2889 m -5.2 m/s 402.30 MHz Schladming (AT) 0.00 km UNKNOWN
T1910384 RS41 2022-02-17 13:31:29 46.9666 14.4965 108 ° 109 km/h 2388 m -4.6 m/s 402.30 MHz Friesach (AT) 0.00 km UNKNOWN
T1920295 RS41 2022-02-17 00:43:50 47.3128 13.0754 120 ° 85 km/h 3732 m -5.2 m/s 402.30 MHz Goldegg (AT) 0.00 km NEED ATTENTION
T1920366 RS41 2022-02-16 12:49:18 47.2202 12.8138 117 ° 54 km/h 3665 m -7.9 m/s 402.30 MHz Bruck an der Großglocknerstraße (AT) 0.00 km FOUND
T1930064 RS41 2022-02-16 01:49:18 47.125 13.2514 79 ° 20 km/h 3518 m -3.1 m/s 402.30 MHz Badgastein (AT) 0.00 km UNKNOWN
T1910386 RS41 2022-02-15 15:45:44 48.7686 16.4877 65 ° 13 km/h 255 m -2.5 m/s 402.30 MHz Laa an der Thaya (AT) 0.00 km FOUND
T1930057 RS41 2022-02-15 01:26:55 48.6705 14.3072 56 ° 20 km/h 856 m -7.8 m/s 402.30 MHz Vorderweissenbach (AT) 0.00 km UNKNOWN
T1930061 RS41 2022-02-14 14:18:18 48.4677 13.7918 267 ° 17 km/h 632 m -2.3 m/s 402.30 MHz Natternbach (AT) 0.00 km FOUND
T1930026 RS41 2022-02-14 00:49:23 48.0591 12.5123 22 ° 22 km/h 705 m -4.4 m/s 402.30 MHz Traunreut (DE) 0.00 km UNKNOWN
T1930029 RS41 2022-02-13 12:38:48 48.2034 12.7897 268 ° 7 km/h 499 m -6.2 m/s 402.30 MHz Hochburg-Ach (AT) 0.00 km FOUND
T3440416 RS41 2022-02-13 01:40:54 48.1851 13.6636 196 ° 6 km/h 546 m -2.8 m/s 402.30 MHz Haag am Hausruck (AT) 0.00 km UNKNOWN
T3440410 RS41 2022-02-12 12:39:12 48.1535 13.0505 254 ° 24 km/h 540 m -10.4 m/s 402.30 MHz Neukirchen an der Enknach (AT) 0.00 km UNKNOWN
T3440421 RS41 2022-02-12 01:04:02 47.9476 13.6454 53 ° 20 km/h 616 m -5.8 m/s 402.30 MHz Lenzing (AT) 0.00 km UNKNOWN
T1930035 RS41 2022-02-11 12:36:32 48.4486 14.0883 103 ° 50 km/h 651 m -9.2 m/s 402.30 MHz Herzogsdorf (AT) 0.00 km FOUND
T1930063 RS41 2022-02-11 01:16:42 48.8472 15.5146 78 ° 35 km/h 627 m -3.3 m/s 402.30 MHz Raabs an der Thaya (AT) 0.00 km FOUND
T1920300 RS41 2022-02-10 13:47:33 48.9071 15.2998 65 ° 17 km/h 533 m -1.9 m/s 402.30 MHz Waidhofen an der Thaya (AT) 0.00 km FOUND
T1930031 RS41 2022-02-10 01:15:20 48.2413 13.9271 275 ° 4 km/h 492 m -1.6 m/s 402.30 MHz Bad Schallerbach (AT) 0.00 km UNKNOWN
T3440419 RS41 2022-02-09 13:34:10 47.6796 13.8392 97 ° 35 km/h 1995 m -3.5 m/s 402.30 MHz Bad Aussee (AT) 0.00 km UNKNOWN
T3440413 RS41 2022-02-09 00:28:05 47.6202 12.51 73 ° 30 km/h 1811 m -9.8 m/s 402.30 MHz Kirchdorf in Tirol (AT) 0.00 km UNKNOWN
T3440424 RS41 2022-02-08 12:36:56 47.3949 12.3456 162 ° 13 km/h 1813 m -1.8 m/s 402.30 MHz Kirchberg in Tirol (AT) 0.00 km UNKNOWN
T3440423 RS41 2022-02-08 01:56:23 46 12.5419 52 ° 31 km/h 199 m -2.4 m/s 402.30 MHz Fontanafredda (IT) 0.00 km UNKNOWN
T1930034 RS41 2022-02-07 12:39:35 46.7955 12.6466 137 ° 48 km/h 2162 m -5.3 m/s 402.30 MHz Lienz (AT) 0.00 km FOUND
T1930032 RS41 2022-02-07 01:13:02 47.6591 14.6678 358 ° 4 km/h 927 m -3.3 m/s 402.30 MHz Landl (AT) 0.00 km UNKNOWN
T1930027 RS41 2022-02-06 12:43:33 48.0879 13.6151 104 ° 17 km/h 682 m -4.1 m/s 402.30 MHz Neukirchen an der Vöckla (AT) 0.00 km UNKNOWN
T1930065 RS41 2022-02-06 01:40:58 47.5624 13.9681 103 ° 61 km/h 2384 m -1.7 m/s 402.30 MHz Stainach (AT) 0.00 km LOST
T1930036 RS41 2022-02-05 12:48:51 47.7451 13.3284 112 ° 17 km/h 1678 m -11.2 m/s 402.30 MHz Sankt Gilgen (AT) 0.00 km UNKNOWN
T1920311 RS41 2022-02-05 01:03:11 47.871 14.1789 95 ° 61 km/h 918 m -4.4 m/s 402.30 MHz Micheldorf in Oberösterreich (AT) 0.00 km UNKNOWN
T1920573 RS41 2022-02-04 12:42:24 47.8748 13.284 85 ° 26 km/h 1059 m -11.2 m/s 402.30 MHz Thalgau (AT) 0.00 km UNKNOWN
T1930028 RS41 2022-02-04 01:04:24 47.2792 13.8682 121 ° 83 km/h 3792 m -5.4 m/s 402.30 MHz Mariapfarr (AT) 0.00 km UNKNOWN
T1930060 RS41 2022-02-03 13:26:07 46.8423 14.3893 283 ° 7 km/h 816 m -3.5 m/s 402.30 MHz Frauenstein (AT) 0.00 km FOUND
T1930037 RS41 2022-02-03 00:13:06 46.8431 12.6882 162 ° 106 km/h 4180 m -7.7 m/s 402.30 MHz Lienz (AT) 0.00 km UNKNOWN
T1920326 RS41 2022-02-02 13:39:53 45.4876 14.4645 160 ° 26 km/h 1463 m -2.7 m/s 402.30 MHz Klana (HR) 0.00 km UNKNOWN
T3440532 RS41 2022-02-02 00:47:38 45.9286 13.2409 255 ° 17 km/h 130 m -2.8 m/s 402.30 MHz Campoformido (IT) 0.00 km FOUND
T1910780 RS41 2022-02-01 14:03:10 45.3951 14.1841 194 ° 28 km/h 1157 m -3.1 m/s 402.30 MHz Lanišće (HR) 0.00 km UNKNOWN
T1920801 RS41 2022-02-01 00:30:18 46.9082 13.2162 170 ° 80 km/h 4322 m -10.0 m/s 402.30 MHz Obervellach (AT) 0.00 km UNKNOWN
T1920370 RS41 2022-01-31 13:10:51 47.7159 15.4075 117 ° 41 km/h 1661 m -6.6 m/s 402.30 MHz Mariazell (AT) 0.00 km UNKNOWN
T1920576 RS41 2022-01-31 01:38:53 47.1214 14.9687 158 ° 33 km/h 1361 m -2.5 m/s 402.30 MHz Maria Lankowitz (AT) 0.00 km NEED ATTENTION
T1930021 RS41 2022-01-30 12:38:02 47.119 13.4463 136 ° 122 km/h 3545 m -13.5 m/s 402.30 MHz Sankt Michael im Lungau (AT) 0.00 km UNKNOWN
T1920372 RS41 2022-01-30 00:41:50 47.1724 13.5724 140 ° 137 km/h 4291 m -7.3 m/s 402.30 MHz Sankt Michael im Lungau (AT) 0.00 km UNKNOWN
T1920371 RS41 2022-01-29 12:36:54 47.1935 12.3864 153 ° 85 km/h 3808 m -5.0 m/s 402.30 MHz Bramberg am Wildkogel (AT) 0.00 km UNKNOWN
T1920582 RS41 2022-01-29 01:10:16 46.7023 12.2992 143 ° 35 km/h 3135 m -5.1 m/s 402.30 MHz Brunico (IT) 0.00 km UNKNOWN
T1910761 RS41 2022-01-28 13:36:42 46.4034 12.8197 138 ° 37 km/h 1391 m -1.8 m/s 402.30 MHz Tolmezzo (IT) 0.00 km FOUND
T3440122 RS41 2022-01-28 00:58:07 47.8106 14.0829 99 ° 67 km/h 1520 m -7.3 m/s 402.30 MHz Micheldorf in Oberösterreich (AT) 0.00 km UNKNOWN
T1910755 RS41 2022-01-27 13:40:37 47.4508 13.225 106 ° 59 km/h 2661 m -1.6 m/s 402.30 MHz Bischofshofen (AT) 0.00 km UNKNOWN
T1850826 RS41 2022-01-27 01:32:14 46.9425 11.9365 174 ° 78 km/h 4304 m -3.4 m/s 402.30 MHz Brunico (IT) 0.00 km FOUND
T3431749 RS41 2022-01-26 12:44:42 47.6028 12.6858 107 ° 37 km/h 1874 m -12.6 m/s 402.30 MHz Fieberbrunn (AT) 0.00 km UNKNOWN
T1920579 RS41 2022-01-26 01:35:48 47.1102 13.3269 151 ° 76 km/h 3907 m -3.1 m/s 402.30 MHz Badgastein (AT) 0.00 km UNKNOWN
T1920613 RS41 2022-01-25 13:08:02 47.3132 12.2613 115 ° 19 km/h 2249 m -4.6 m/s 402.30 MHz Neukirchen am Großvenediger (AT) 0.00 km UNKNOWN
T1930020 RS41 2022-01-25 00:44:00 47.4976 11.4125 181 ° 9 km/h 2443 m -3.6 m/s 402.30 MHz Achenkirch (AT) 0.00 km UNKNOWN
T1920347 RS41 2022-01-24 12:41:40 47.4799 11.5537 233 ° 26 km/h 2527 m -7.9 m/s 402.30 MHz Achenkirch (AT) 0.00 km UNKNOWN
T1920577 RS41 2022-01-24 00:44:04 47.5349 11.6452 144 ° 2 km/h 1859 m -6.6 m/s 402.30 MHz Achenkirch (AT) 0.00 km UNKNOWN
T1930040 RS41 2022-01-23 13:42:19 47.0816 11.2129 147 ° 15 km/h 2819 m -2.8 m/s 402.30 MHz Neustift im Stubaital (AT) 0.00 km UNKNOWN
T1920580 RS41 2022-01-23 00:41:45 47.2191 12.1785 156 ° 30 km/h 2763 m -6.8 m/s 402.30 MHz Neukirchen am Großvenediger (AT) 0.00 km UNKNOWN
T1920654 RS41 2022-01-22 12:32:16 47.0632 12.3463 178 ° 122 km/h 4454 m -10.8 m/s 402.30 MHz Virgen (AT) 0.00 km UNKNOWN
T3440557 RS41 2022-01-22 01:07:50 46.4505 13.0214 58 ° 15 km/h 1425 m -4.6 m/s 402.30 MHz Tolmezzo (IT) 0.00 km FOUND
T3311671 RS41 2022-01-21 13:04:28 46.3508 12.7706 340 ° 11 km/h 1509 m -4.8 m/s 402.30 MHz Tolmezzo (IT) 0.00 km FOUND
T3440586 RS41 2022-01-21 01:21:19 46.3284 13.9782 182 ° 15 km/h 2165 m -3.3 m/s 402.30 MHz Bohinjska Bistrica (SI) 0.00 km UNKNOWN
T1920605 RS41 2022-01-20 13:06:55 46.9314 14.2033 118 ° 46 km/h 2103 m -6.1 m/s 402.30 MHz Friesach (AT) 0.00 km UNKNOWN
T3440555 RS41 2022-01-20 01:07:15 48.2339 13.987 75 ° 15 km/h 470 m -2.8 m/s 402.30 MHz Buchkirchen (AT) 0.00 km FOUND
T1910760 RS41 2022-01-19 12:39:57 47.9787 13.3815 86 ° 44 km/h 951 m -6.0 m/s 402.30 MHz Pöndorf (AT) 0.00 km UNKNOWN
T3311677 RS41 2022-01-19 00:54:12 47.4354 13.1265 254 ° 15 km/h 2717 m -4.4 m/s 402.30 MHz Werfen (AT) 0.00 km UNKNOWN
T3440539 RS41 2022-01-18 12:13:04 47.5243 12.6059 162 ° 104 km/h 11966 m -15.3 m/s 402.30 MHz Fieberbrunn (AT) 0.00 km UNKNOWN
T1920581 RS41 2022-01-18 00:35:02 47.1694 13.0459 172 ° 100 km/h 4209 m -7.5 m/s 402.30 MHz Bad Hofgastein (AT) 0.00 km UNKNOWN
T3431751 RS41 2022-01-17 12:38:28 47.0596 12.9682 167 ° 100 km/h 4616 m -9.1 m/s 402.30 MHz Badgastein (AT) 0.00 km UNKNOWN
T1920571 RS41 2022-01-17 01:38:35 47.0892 13.9716 124 ° 67 km/h 2240 m -1.7 m/s 402.30 MHz Tamsweg (AT) 0.00 km UNKNOWN
T1920578 RS41 2022-01-16 12:38:43 48.1562 13.7083 116 ° 20 km/h 608 m -5.6 m/s 402.30 MHz Gaspoltshofen (AT) 0.00 km UNKNOWN
T3311666 RS41 2022-01-16 01:27:24 47.5251 13.9387 84 ° 11 km/h 2099 m -3.1 m/s 402.30 MHz Gröbming (AT) 0.00 km FOUND
T3440538 RS41 2022-01-15 13:08:39 47.1432 13.3757 110 ° 13 km/h 2806 m -3.7 m/s 402.30 MHz Grossarl (AT) 0.00 km UNKNOWN
T3431752 RS41 2022-01-15 01:26:45 46.7398 13.0643 141 ° 19 km/h 2740 m -3.2 m/s 402.30 MHz Kirchbach (AT) 0.00 km UNKNOWN
T3311673 RS41 2022-01-14 13:13:16 47.0589 12.5003 169 ° 24 km/h 4004 m -3.0 m/s 402.30 MHz Virgen (AT) 0.00 km UNKNOWN
T3440542 RS41 2022-01-14 01:20:44 47.0165 11.7529 222 ° 28 km/h 3384 m -3.8 m/s 402.30 MHz Mayrhofen (AT) 0.00 km UNKNOWN
T3440544 RS41 2022-01-13 12:48:31 47.2664 10.6873 257 ° 35 km/h 2446 m -5.5 m/s 402.30 MHz Imst (AT) 0.00 km UNKNOWN
T3440545 RS41 2022-01-13 01:30:52 46.7584 9.93466 209 ° 48 km/h 3557 m -2.1 m/s 402.30 MHz Davos (CH) 0.00 km UNKNOWN
T3311672 RS41 2022-01-12 12:54:20 47.5148 11.4145 228 ° 6 km/h 1798 m -6.3 m/s 402.30 MHz Achenkirch (AT) 0.00 km UNKNOWN
T3440546 RS41 2022-01-12 01:28:43 47.3052 11.1165 5 ° 6 km/h 661 m -3.2 m/s 402.30 MHz Telfs (AT) 0.00 km FOUND
T3311663 RS41 2022-01-11 12:40:16 47.6564 11.3739 228 ° 11 km/h 1258 m -11.7 m/s 402.30 MHz Geretsried (DE) 0.00 km UNKNOWN
T3440534 RS41 2022-01-11 01:03:00 47.6027 11.5945 250 ° 7 km/h 1554 m -4.0 m/s 402.30 MHz Achenkirch (AT) 0.00 km UNKNOWN
T3440536 RS41 2022-01-10 13:10:01 47.7137 11.6046 168 ° 7 km/h 1298 m -3.4 m/s 402.30 MHz Geretsried (DE) 0.00 km UNKNOWN
T1930038 RS41 2022-01-10 00:44:31 48.1242 12.7372 99 ° 7 km/h 555 m -11.6 m/s 402.30 MHz Hochburg-Ach (AT) 0.00 km UNKNOWN
T3311674 RS41 2022-01-09 12:48:35 48.3647 13.186 86 ° 48 km/h 560 m -5.9 m/s 402.30 MHz Altheim (AT) 0.00 km FOUND
T1910571 RS41 2022-01-09 01:50:26 48.3372 14.0397 242 ° 2 km/h 347 m -2.5 m/s 402.30 MHz Feldkirchen an der Donau (AT) 0.00 km UNKNOWN
T1920575 RS41 2022-01-08 13:06:00 47.6133 13.4685 127 ° 30 km/h 1917 m -5.0 m/s 402.30 MHz Bad Goisern (AT) 0.00 km UNKNOWN
T3311669 RS41 2022-01-08 00:42:41 48.7543 13.1228 102 ° 37 km/h 1408 m -8.3 m/s 402.30 MHz Deggendorf (DE) 0.00 km UNKNOWN
T1920572 RS41 2022-01-07 12:37:26 48.4997 12.8608 66 ° 24 km/h 964 m -7.1 m/s 402.30 MHz Braunau am Inn (AT) 0.00 km FOUND
T1930055 RS41 2022-01-07 01:47:52 47.4746 12.5476 339 ° 9 km/h 925 m -3.1 m/s 402.30 MHz Fieberbrunn (AT) 0.00 km NEED ATTENTION
T1920335 RS41 2022-01-06 12:30:57 47.6182 12.3238 123 ° 35 km/h 1711 m -4.2 m/s 402.30 MHz Kössen (AT) 0.00 km UNKNOWN
T1920334 RS41 2022-01-06 01:06:20 48.2468 14.0638 77 ° 24 km/h 511 m -4.1 m/s 402.30 MHz Scharten (AT) 0.00 km UNKNOWN
T1930042 RS41 2022-01-05 13:19:30 48.9676 15.4754 124 ° 48 km/h 572 m -2.3 m/s 402.30 MHz Dačice (CZ) 0.00 km UNKNOWN
T1920330 RS41 2022-01-05 01:11:17 48.8769 15.4831 117 ° 17 km/h 564 m -2.9 m/s 402.30 MHz Raabs an der Thaya (AT) 0.00 km FOUND
T1920803 RS41 2022-01-04 14:08:00 48.1855 16.678 322 ° 13 km/h 204 m -1.6 m/s 402.30 MHz Leopoldsdorf im Marchfelde (AT) 0.00 km FOUND
T1920325 RS41 2022-01-04 00:49:45 47.706 14.4072 71 ° 6 km/h 1307 m -7.1 m/s 402.30 MHz Windischgarsten (AT) 0.00 km UNKNOWN
T1920331 RS41 2022-01-03 13:14:50 47.5701 15.0579 72 ° 13 km/h 1566 m -3.7 m/s 402.30 MHz Eisenerz (AT) 0.00 km UNKNOWN
T1930041 RS41 2022-01-03 01:24:42 48.0065 15.7358 109 ° 41 km/h 884 m -4.5 m/s 402.30 MHz Hainfeld (AT) 0.00 km UNKNOWN
T1920327 RS41 2022-01-02 13:26:41 48.2733 14.5372 117 ° 9 km/h 369 m -3.6 m/s 402.30 MHz Ried in der Riedmark (AT) 0.00 km FOUND
T1920574 RS41 2022-01-02 00:44:29 48.0085 13.1295 2 ° 7 km/h 729 m -6.6 m/s 402.30 MHz Mattsee (AT) 0.00 km FOUND
T1850827 RS41 2022-01-01 12:58:03 47.6493 13.0578 248 ° 7 km/h 983 m -4.8 m/s 402.30 MHz Hallein (AT) 0.00 km FOUND
T1920302 RS41 2022-01-01 00:42:12 47.3678 13.0901 145 ° 109 km/h 3866 m -12.2 m/s 402.30 MHz Goldegg (AT) 0.00 km UNKNOWN
T1910775 RS41 2021-12-31 12:41:32 47.9303 13.2776 71 ° 24 km/h 898 m -8.3 m/s 402.30 MHz Neumarkt am Wallersee (AT) 0.00 km FOUND
T1920336 RS41 2021-12-31 01:09:04 47.2697 13.3098 143 ° 81 km/h 3473 m -1.8 m/s 402.30 MHz Wagrain (AT) 0.00 km UNKNOWN
T1920601 RS41 2021-12-30 13:36:55 46.6748 13.4143 60 ° 6 km/h 1595 m -2.7 m/s 402.30 MHz Hermagor (AT) 0.00 km UNKNOWN
T1920799 RS41 2021-12-30 00:58:22 46.5601 13.0569 336 ° 4 km/h 1852 m -6.1 m/s 402.30 MHz Kirchbach (AT) 0.00 km UNKNOWN
T1920306 RS41 2021-12-29 12:40:18 47.0028 13.4117 124 ° 56 km/h 2630 m -7.6 m/s 402.30 MHz Gmünd (AT) 0.00 km UNKNOWN
T1910762 RS41 2021-12-29 01:16:59 47.1915 14.0556 107 ° 46 km/h 2954 m -5.5 m/s 402.30 MHz Murau (AT) 0.00 km UNKNOWN
T1910777 RS41 2021-12-28 12:59:31 47.6742 13.9362 66 ° 30 km/h 2174 m -4.7 m/s 402.30 MHz Bad Aussee (AT) 0.00 km UNKNOWN
T1910750 RS41 2021-12-28 01:05:06 48.1804 13.3009 316 ° 4 km/h 553 m -3.3 m/s 402.30 MHz Mettmach (AT) 0.00 km UNKNOWN
T1850472 RS41 2021-12-27 12:46:05 47.7107 13.8256 337 ° 20 km/h 2055 m -10.1 m/s 402.30 MHz Bad Aussee (AT) 0.00 km UNKNOWN
T1841255 RS41 2021-12-27 01:24:54 47.7768 14.1343 75 ° 7 km/h 1282 m -3.6 m/s 402.30 MHz Micheldorf in Oberösterreich (AT) 0.00 km UNKNOWN
T1920301 RS41 2021-12-26 12:50:58 48.0026 13.7404 303 ° 9 km/h 754 m -6.2 m/s 402.30 MHz Attnang-Puchheim (AT) 0.00 km UNKNOWN
T1841258 RS41 2021-12-26 01:28:52 47.9758 14.1752 249 ° 15 km/h 583 m -3.7 m/s 402.30 MHz Nussbach (AT) 0.00 km UNKNOWN
T1910753 RS41 2021-12-25 13:16:38 48.2098 15.3088 243 ° 22 km/h 393 m -3.9 m/s 402.30 MHz Melk (AT) 0.00 km FOUND
T1920329 RS41 2021-12-25 01:22:25 48.1788 15.6112 78 ° 20 km/h 335 m -3.1 m/s 402.30 MHz Sankt Pölten (AT) 0.00 km FOUND
T1920333 RS41 2021-12-24 14:08:54 48.0239 17.1411 102 ° 46 km/h 214 m -2.1 m/s 402.30 MHz Rajka (HU) 0.00 km FOUND
T1850822 RS41 2021-12-24 01:46:07 47.2245 15.9354 73 ° 13 km/h 488 m -4.2 m/s 402.30 MHz Kaindorf (AT) 0.00 km LOST
T1920369 RS41 2021-12-23 13:58:44 46.5451 14.5766 213 ° 2 km/h 507 m -2.0 m/s 402.30 MHz Bad Eisenkappel (AT) 0.00 km FOUND
T1920368 RS41 2021-12-23 00:34:16 47.3645 13.3769 105 ° 28 km/h 2475 m -3.7 m/s 402.30 MHz Flachau (AT) 0.00 km UNKNOWN
T1910302 RS41 2021-12-22 13:02:34 47.1512 13.439 145 ° 39 km/h 3401 m -3.1 m/s 402.30 MHz Sankt Michael im Lungau (AT) 0.00 km UNKNOWN
T1930019 RS41 2021-12-22 00:41:46 47.285 12.6906 128 ° 33 km/h 3054 m -4.3 m/s 402.30 MHz Piesendorf (AT) 0.00 km UNKNOWN
T1910757 RS41 2021-12-21 12:39:06 47.6771 13.3966 112 ° 24 km/h 2227 m -12.3 m/s 402.30 MHz Sankt Wolfgang im Salzkammergut (AT) 0.00 km UNKNOWN
T1920606 RS41 2021-12-21 00:49:21 47.3318 13.2834 135 ° 15 km/h 2229 m -3.0 m/s 402.30 MHz Wagrain (AT) 0.00 km UNKNOWN
T1850819 RS41 2021-12-20 12:48:06 47.2441 13.4852 145 ° 70 km/h 3580 m -3.7 m/s 402.30 MHz Flachau (AT) 0.00 km UNKNOWN
T1250131 RS41 2021-12-20 00:53:20 47.2998 13.5265 150 ° 107 km/h 3992 m -3.6 m/s 402.30 MHz Radstadt (AT) 0.00 km UNKNOWN
T1920303 RS41 2021-12-19 12:54:31 47.4367 12.1326 97 ° 22 km/h 1769 m -1.8 m/s 402.30 MHz Hopfgarten im Brixental (AT) 0.00 km FOUND
T1340535 RS41 2021-12-19 00:46:04 47.8007 12.1341 114 ° 15 km/h 1095 m -4.2 m/s 402.30 MHz Rosenheim (DE) 0.00 km UNKNOWN
T1250268 RS41 2021-12-18 13:22:43 47.56 11.5446 319 ° 4 km/h 1890 m -2.5 m/s 402.30 MHz Achenkirch (AT) 0.00 km UNKNOWN
T1910569 RS41 2021-12-18 00:38:15 47.6436 11.3088 177 ° 4 km/h 1033 m -11.8 m/s 402.30 MHz Garmisch-Partenkirchen (DE) 0.00 km UNKNOWN
T1850821 RS41 2021-12-17 13:13:31 47.2702 11.2821 43 ° 6 km/h 1130 m -4.2 m/s 402.30 MHz Kematen in Tirol (AT) 0.00 km UNKNOWN
T1920800 RS41 2021-12-17 00:46:37 47.5502 11.1822 317 ° 4 km/h 1920 m -2.6 m/s 402.30 MHz Garmisch-Partenkirchen (DE) 0.00 km UNKNOWN
T1250458 RS41 2021-12-16 13:22:38 47.1802 11.5038 341 ° 2 km/h 2235 m -4.1 m/s 402.30 MHz Sistrans (AT) 0.00 km UNKNOWN
T1231135 RS41 2021-12-16 00:56:01 47.4925 12.0479 59 ° 7 km/h 1701 m -5.0 m/s 402.30 MHz Wörgl (AT) 0.00 km FOUND
T1920755 RS41 2021-12-15 13:14:14 47.4197 11.5368 327 ° 2 km/h 2113 m -3.4 m/s 402.30 MHz Terfens (AT) 0.00 km UNKNOWN
T1920602 RS41 2021-12-15 01:01:34 47.5807 11.1679 79 ° 19 km/h 1791 m -5.4 m/s 404.70 MHz Garmisch-Partenkirchen (DE) 0.00 km UNKNOWN
T1340537 RS41 2021-12-15 00:07:38 47.4414 11.0606 108 ° 30 km/h 2210 m -3.3 m/s 402.30 MHz Garmisch-Partenkirchen (DE) 0.00 km UNKNOWN
T1920367 RS41 2021-12-14 13:01:01 47.3859 12.6673 119 ° 30 km/h 2049 m -4.7 m/s 402.30 MHz Leogang (AT) 0.00 km UNKNOWN
T1920365 RS41 2021-12-14 00:40:15 47.5907 12.5596 102 ° 6 km/h 1022 m -10.8 m/s 402.30 MHz Kirchdorf in Tirol (AT) 0.00 km UNKNOWN
T1250133 RS41 2021-12-13 12:41:33 47.8767 12.6894 73 ° 19 km/h 867 m -13.6 m/s 402.30 MHz Traunreut (DE) 0.00 km FOUND
T1920749 RS41 2021-12-13 00:50:07 47.3858 11.898 131 ° 2 km/h 1268 m -2.3 m/s 402.30 MHz Alpbach (AT) 0.00 km UNKNOWN
T1920739 RS41 2021-12-12 13:14:29 47.3167 12.4309 135 ° 37 km/h 2898 m -4.2 m/s 402.30 MHz Mittersill (AT) 0.00 km UNKNOWN
T1910568 RS41 2021-12-12 01:26:56 47.0421 12.0576 200 ° 57 km/h 3388 m -2.1 m/s 402.30 MHz Mayrhofen (AT) 0.00 km UNKNOWN
T1240103 RS41 2021-12-11 13:07:34 48.1253 12.6036 115 ° 33 km/h 625 m -4.5 m/s 402.30 MHz Waldkraiburg (DE) 0.00 km LOST
T1920750 RS41 2021-12-11 01:17:30 48.3032 12.7989 83 ° 35 km/h 580 m -3.3 m/s 402.30 MHz Braunau am Inn (AT) 0.00 km FOUND
T1920748 RS41 2021-12-10 13:23:57 48.2982 13.0334 300 ° 15 km/h 609 m -4.1 m/s 402.30 MHz Braunau am Inn (AT) 0.00 km UNKNOWN
T1841260 RS41 2021-12-10 01:00:49 48.3049 12.5521 86 ° 30 km/h 661 m -5.3 m/s 402.30 MHz Waldkraiburg (DE) 0.00 km UNKNOWN
T1250138 RS41 2021-12-09 13:06:13 48.6634 12.3258 118 ° 37 km/h 689 m -3.5 m/s 402.30 MHz Landshut (DE) 0.00 km FOUND
T1920362 RS41 2021-12-09 00:39:22 48.9697 12.1538 278 ° 2 km/h 643 m -10.5 m/s 402.30 MHz Regensburg (DE) 0.00 km FOUND
T1340464 RS41 2021-12-08 13:03:29 49.0956 12.7918 259 ° 11 km/h 996 m -4.1 m/s 402.30 MHz Straubing (DE) 0.00 km FOUND
T1920603 RS41 2021-12-08 01:13:06 48.1103 13.1441 282 ° 20 km/h 588 m -3.4 m/s 402.30 MHz Mattighofen (AT) 0.00 km UNKNOWN
T1340468 RS41 2021-12-07 12:21:52 47.7241 12.4766 87 ° 28 km/h 1371 m -7.3 m/s 402.30 MHz Kössen (AT) 0.00 km UNKNOWN
T1920604 RS41 2021-12-07 01:18:14 47.5997 13.0791 223 ° 11 km/h 1636 m -2.6 m/s 402.30 MHz Kuchl (AT) 0.00 km UNKNOWN
T1250578 RS41 2021-12-06 00:51:37 48.1126 12.4451 108 ° 9 km/h 630 m -4.9 m/s 402.30 MHz Waldkraiburg (DE) 0.00 km UNKNOWN
T1250018 RS41 2021-12-05 13:52:53 48.6735 13.3418 146 ° 7 km/h 904 m -1.8 m/s 402.30 MHz Passau (DE) 0.00 km UNKNOWN
T1340465 RS41 2021-12-05 01:43:27 48.6969 14.273 90 ° 30 km/h 873 m -4.3 m/s 402.30 MHz Český Krumlov (CZ) 0.00 km UNKNOWN
T1920752 RS41 2021-12-04 13:15:53 47.8733 14.7001 17 ° 19 km/h 977 m -1.8 m/s 402.30 MHz Weyer Markt (AT) 0.00 km UNKNOWN
T1920363 RS41 2021-12-04 00:39:36 47.5795 13.4335 66 ° 15 km/h 1924 m -3.8 m/s 402.30 MHz Abtenau (AT) 0.00 km UNKNOWN
T1250636 RS41 2021-12-03 13:06:33 47.6479 13.7188 117 ° 41 km/h 2013 m -4.6 m/s 402.30 MHz Bad Aussee (AT) 0.00 km UNKNOWN
T1920754 RS41 2021-12-03 01:08:45 48.2018 13.9605 110 ° 13 km/h 405 m -2.1 m/s 402.30 MHz Krenglbach (AT) 0.00 km FOUND
T1850820 RS41 2021-12-02 13:16:27 48.9014 14.8282 71 ° 15 km/h 564 m -2.4 m/s 402.300 MHz Třeboň (CZ) 0.00 km LOST
T1231119 RS41 2021-12-02 01:38:11 48.9409 15.579 62 ° 33 km/h 582 m -1.9 m/s 402.30 MHz Raabs an der Thaya (AT) 0.00 km UNKNOWN
T1250679 RS41 2021-12-01 12:43:15 48.4318 14.0584 47 ° 17 km/h 724 m -8.9 m/s 402.30 MHz Sankt Martin im Mühlkreis (AT) 0.00 km FOUND
T1920364 RS41 2021-12-01 01:14:39 47.224 14.0815 136 ° 104 km/h 2566 m -2.8 m/s 402.30 MHz Murau (AT) 0.00 km UNKNOWN
T1920744 RS41 2021-11-30 13:02:20 47.1335 13.9274 133 ° 120 km/h 3367 m -5.0 m/s 402.30 MHz Tamsweg (AT) 0.00 km UNKNOWN
T1920741 RS41 2021-11-30 00:59:30 47.3502 13.0816 145 ° 61 km/h 3809 m -3.7 m/s 402.30 MHz Goldegg (AT) 0.00 km UNKNOWN
T1920616 RS41 2021-11-29 12:31:11 48.0985 12.4439 94 ° 30 km/h 734 m -3.7 m/s 402.30 MHz Waldkraiburg (DE) 0.00 km UNKNOWN
T1340536 RS41 2021-11-29 00:15:51 48.4035 12.2039 145 ° 15 km/h 916 m -3.2 m/s 402.30 MHz Landshut (DE) 0.00 km UNKNOWN
T1920742 RS41 2021-11-28 13:49:17 49.1751 14.2851 149 ° 19 km/h 894 m -2.2 m/s 402.30 MHz Vodňany (CZ) 0.00 km FOUND
T1850818 RS41 2021-11-28 00:33:40 49.0889 13.0253 56 ° 15 km/h 1364 m -6.7 m/s 402.30 MHz Deggendorf (DE) 0.00 km UNKNOWN
T1250129 RS41 2021-11-27 13:29:49 49.4846 14.8551 34 ° 28 km/h 1093 m -2.6 m/s 402.30 MHz Tábor (CZ) 0.00 km UNKNOWN
T1920743 RS41 2021-11-27 00:47:36 48.8312 13.8741 41 ° 19 km/h 1160 m -4.2 m/s 402.30 MHz Ulrichsberg (AT) 0.00 km UNKNOWN
T1920610 RS41 2021-11-26 13:06:27 48.9827 13.3803 174 ° 7 km/h 1479 m -2.9 m/s 402.30 MHz Sušice (CZ) 0.00 km UNKNOWN
T1250135 RS41 2021-11-26 00:51:48 48.7837 13.2787 158 ° 4 km/h 803 m -6.3 m/s 402.30 MHz Deggendorf (DE) 0.00 km UNKNOWN
T1920373 RS41 2021-11-25 12:42:17 48.5351 13.1496 71 ° 19 km/h 1088 m -14.1 m/s 402.30 MHz Passau (DE) 0.00 km UNKNOWN
T1920328 RS41 2021-11-25 00:47:56 48.5225 12.3473 55 ° 13 km/h 1123 m -3.7 m/s 402.30 MHz Landshut (DE) 0.00 km FOUND
T1920753 RS41 2021-11-24 13:43:30 48.3782 12.1901 280 ° 17 km/h 774 m -3.1 m/s 402.30 MHz Landshut (DE) 0.00 km FOUND
T1920751 RS41 2021-11-24 01:59:19 47.9982 11.8372 281 ° 26 km/h 851 m -2.3 m/s 402.30 MHz Vaterstetten (DE) 0.00 km LOST
T1250267 RS41 2021-11-23 12:43:37 47.9679 11.7982 284 ° 7 km/h 717 m -5.4 m/s 402.30 MHz Vaterstetten (DE) 0.00 km UNKNOWN
T1920653 RS41 2021-11-23 01:23:38 47.8327 12.4026 257 ° 26 km/h 1041 m -3.6 m/s 402.30 MHz Kössen (AT) 0.00 km FOUND
T1920740 RS41 2021-11-22 13:16:56 48.1902 12.9509 186 ° 4 km/h 463 m -4.7 m/s 402.30 MHz Neukirchen an der Enknach (AT) 0.00 km FOUND
T1930003 RS41 2021-11-22 01:19:09 48.622 12.9446 254 ° 7 km/h 838 m -2.6 m/s 402.300 MHz Deggendorf (DE) 0.00 km FOUND
T1250136 RS41 2021-11-21 13:49:08 48.5314 13.7469 99 ° 9 km/h 716 m -2.8 m/s 402.30 MHz Sarleinsbach (AT) 0.00 km UNKNOWN
T1920745 RS41 2021-11-21 00:53:48 48.3376 12.8305 46 ° 7 km/h 750 m -5.5 m/s 402.30 MHz Braunau am Inn (AT) 0.00 km FOUND
T1120039 RS41 2021-11-20 12:39:27 48.0309 12.45 278 ° 2 km/h 848 m -10.8 m/s 402.30 MHz Traunreut (DE) 0.00 km FOUND
T1241040 RS41 2021-11-20 00:45:57 47.7321 12.2383 68 ° 20 km/h 1550 m -10.9 m/s 402.30 MHz Niederndorf (AT) 0.00 km UNKNOWN
T1120044 RS41 2021-11-19 12:47:38 47.5964 11.7991 161 ° 15 km/h 2433 m -11.8 m/s 402.30 MHz Achenkirch (AT) 0.00 km UNKNOWN
T1910603 RS41 2021-11-19 01:02:51 47.3406 11.7421 102 ° 9 km/h 1239 m -4.7 m/s 402.30 MHz Schwaz (AT) 0.00 km UNKNOWN
T1910304 RS41 2021-11-18 13:38:41 47.1024 11.4464 166 ° 33 km/h 2928 m -1.7 m/s 402.30 MHz Steinach am Brenner (AT) 0.00 km UNKNOWN
T1250457 RS41 2021-11-18 01:02:41 47.9089 12.2348 97 ° 24 km/h 949 m -4.6 m/s 402.30 MHz Rosenheim (DE) 0.00 km UNKNOWN
T1240668 RS41 2021-11-17 13:32:38 48.3149 12.2045 105 ° 17 km/h 713 m -5.8 m/s 402.30 MHz Waldkraiburg (DE) 0.00 km UNKNOWN
T1910213 RS41 2021-11-17 01:02:12 48.4739 12.0941 93 ° 24 km/h 1047 m -4.3 m/s 402.30 MHz Landshut (DE) 0.00 km FOUND
T1910279 RS41 2021-11-16 13:29:01 48.6323 12.2774 7 ° 24 km/h 1278 m -3.6 m/s 402.30 MHz Landshut (DE) 0.00 km UNKNOWN
T1250015 RS41 2021-11-16 00:56:09 48.5026 11.323 346 ° 7 km/h 917 m -4.1 m/s 402.30 MHz Pfaffenhofen an der Ilm (DE) 0.00 km FOUND
T1231140 RS41 2021-11-15 14:00:16 48.5895 11.8947 274 ° 20 km/h 753 m -1.9 m/s 402.30 MHz Landshut (DE) 0.00 km UNKNOWN
T1110746 RS41 2021-11-15 01:16:00 48.329 11.2317 255 ° 26 km/h 979 m -2.5 m/s 402.30 MHz Olching (DE) 0.00 km FOUND
T1120026 RS41 2021-11-14 12:45:10 48.3597 11.336 274 ° 43 km/h 1024 m -8.9 m/s 404.700 MHz Dachau (DE) 0.00 km FOUND
T1120025 RS41 2021-11-14 01:33:49 48.4796 11.961 254 ° 6 km/h 761 m -5.1 m/s 404.70 MHz Landshut (DE) 0.00 km FOUND
T1340634 RS41 2021-11-13 13:00:08 48.5322 12.063 143 ° 17 km/h 983 m -4.7 m/s 402.30 MHz Landshut (DE) 0.00 km UNKNOWN
T1250038 RS41 2021-11-13 01:14:23 48.415 12.0777 4 ° 7 km/h 748 m -5.0 m/s 402.30 MHz Landshut (DE) 0.00 km FOUND
T1231117 RS41 2021-11-12 14:02:11 48.5906 12.1478 249 ° 11 km/h 1108 m -2.8 m/s 402.30 MHz Landshut (DE) 0.00 km UNKNOWN
T1250127 RS41 2021-11-12 01:11:13 48.4572 11.7804 306 ° 4 km/h 776 m -7.3 m/s 404.700 MHz Freising (DE) 0.00 km NEED ATTENTION
T1250014 RS41 2021-11-12 00:20:23 48.5662 11.8861 100 ° 9 km/h 1644 m -3.5 m/s 402.300 MHz Landshut (DE) 0.00 km FOUND
T1250648 RS41 2021-11-11 13:35:42 48.5611 12.2486 129 ° 11 km/h 1349 m -2.7 m/s 402.30 MHz Landshut (DE) 0.00 km FOUND
T1231136 RS41 2021-11-11 00:58:19 48.6477 12.2364 11 ° 15 km/h 1434 m -5.1 m/s 402.30 MHz Landshut (DE) 0.00 km UNKNOWN
T1250380 RS41 2021-11-10 13:16:00 48.9318 12.232 317 ° 17 km/h 768 m -3.9 m/s 402.30 MHz Regensburg (DE) 0.00 km FOUND
T1910206 RS41 2021-11-10 00:58:50 48.6672 12.1344 84 ° 31 km/h 1428 m -4.2 m/s 402.30 MHz Landshut (DE) 0.00 km UNKNOWN
T1920320 RS41 2021-11-09 13:13:40 48.4399 11.1268 272 ° 22 km/h 853 m -3.1 m/s 402.30 MHz Aichach (DE) 0.00 km UNKNOWN
T1910201 RS41 2021-11-09 00:43:01 47.7803 11.3524 267 ° 22 km/h 860 m -3.9 m/s 402.30 MHz Geretsried (DE) 0.00 km UNKNOWN
T1250013 RS41 2021-11-08 12:45:01 47.8756 11.7655 248 ° 9 km/h 853 m -4.9 m/s 402.30 MHz Geretsried (DE) 0.00 km UNKNOWN
T1340574 RS41 2021-11-08 01:24:44 48.1911 13.8731 77 ° 19 km/h 482 m -3.0 m/s 402.30 MHz Pichl bei Wels (AT) 0.00 km UNKNOWN
T1250040 RS41 2021-11-07 13:29:08 48.131 13.2798 111 ° 19 km/h 650 m -4.3 m/s 402.30 MHz Mettmach (AT) 0.00 km UNKNOWN
T1910270 RS41 2021-11-07 01:45:02 47.8959 11.9031 81 ° 15 km/h 949 m -1.7 m/s 402.30 MHz Rosenheim (DE) 0.00 km FOUND
T1240107 RS41 2021-11-06 13:15:00 48.0349 11.2647 237 ° 15 km/h 844 m -3.4 m/s 402.30 MHz Starnberg (DE) 0.00 km FOUND
L4253317 RS92 2021-11-06 09:12:09 48.1741 11.7054 272 ° 15 km/h 2936 m 8.0 m/s 404.700 MHz Vaterstetten (DE) 0.00 km FOUND
T1910214 RS41 2021-11-06 01:21:00 48.1132 11.6461 180 ° 7 km/h 621 m -3.6 m/s 402.30 MHz Unterhaching (DE) 0.00 km FOUND
T1910779 RS41 2021-11-05 14:05:54 48.5134 12.5837 131 ° 13 km/h 824 m -1.8 m/s 402.30 MHz Landshut (DE) 0.00 km FOUND
T1910591 RS41 2021-11-05 02:03:14 49.2283 13.192 72 ° 26 km/h 857 m -2.0 m/s 402.30 MHz Klatovy (CZ) 0.00 km UNKNOWN
T1910752 RS41 2021-11-04 13:55:30 49.3566 13.1163 68 ° 50 km/h 767 m -2.0 m/s 402.30 MHz Kdyně (CZ) 0.00 km UNKNOWN
T1910747 RS41 2021-11-04 00:30:00 49.1308 12.5011 173 ° 6 km/h 1431 m -6.0 m/s 402.30 MHz Straubing (DE) 0.00 km NEED ATTENTION
T1910202 RS41 2021-11-03 12:54:05 48.877 13.1077 331 ° 30 km/h 1427 m -8.0 m/s 402.30 MHz Deggendorf (DE) 0.00 km UNKNOWN
T1910280 RS41 2021-11-03 02:05:55 48.7145 14.2822 33 ° 17 km/h 904 m -6.6 m/s 402.30 MHz Český Krumlov (CZ) 0.00 km UNKNOWN
T1910203 RS41 2021-11-02 12:32:29 48.4576 12.6733 67 ° 7 km/h 1004 m -15.3 m/s 402.30 MHz Waldkraiburg (DE) 0.00 km FOUND
T1910269 RS41 2021-11-02 02:57:02 49.3388 13.5772 54 ° 11 km/h 753 m -3.0 m/s 402.30 MHz Horažďovice (CZ) 0.00 km UNKNOWN
T1910205 RS41 2021-11-01 12:56:10 48.8534 12.877 105 ° 15 km/h 1948 m -4.9 m/s 402.30 MHz Deggendorf (DE) 0.00 km UNKNOWN
T1920319 RS41 2021-11-01 00:53:54 48.4256 12.9705 280 ° 15 km/h 593 m -6.7 m/s 402.30 MHz Braunau am Inn (AT) 0.00 km FOUND
T1910776 RS41 2021-10-31 13:39:33 48.6765 12.8719 288 ° 44 km/h 1507 m -2.1 m/s 402.30 MHz Deggendorf (DE) 0.00 km FOUND
T1910153 RS41 2021-10-31 01:12:00 48.641 13.2501 13 ° 15 km/h 938 m -3.6 m/s 402.30 MHz Passau (DE) 0.00 km UNKNOWN
T1841322 RS41 2021-10-30 13:14:59 49.0858 13.3692 9 ° 41 km/h 1304 m -5.0 m/s 402.30 MHz Sušice (CZ) 0.00 km UNKNOWN
T1910570 RS41 2021-10-30 00:59:05 49.1177 12.9195 39 ° 26 km/h 1280 m -5.0 m/s 402.30 MHz Deggendorf (DE) 0.00 km FOUND
T1910759 RS41 2021-10-29 12:58:00 49.0485 12.6568 14 ° 43 km/h 2452 m -5.3 m/s 402.30 MHz Straubing (DE) 0.00 km UNKNOWN
T1910100 RS41 2021-10-29 01:54:30 49.3499 12.5495 304 ° 7 km/h 923 m -2.2 m/s 402.30 MHz Domažlice (CZ) 0.00 km FOUND
T1910605 RS41 2021-10-28 12:48:00 48.8674 12.2656 34 ° 19 km/h 1750 m -6.4 m/s 402.30 MHz Regensburg (DE) 0.00 km FOUND
T1910216 RS41 2021-10-28 02:02:54 48.6392 11.9504 286 ° 39 km/h 860 m -2.1 m/s 402.30 MHz Landshut (DE) 0.00 km UNKNOWN
T1850828 RS41 2021-10-27 13:06:08 48.2564 12.043 274 ° 11 km/h 716 m -4.7 m/s 402.30 MHz Erding (DE) 0.00 km FOUND
T1850817 RS41 2021-10-27 01:00:32 47.9488 12.4654 43 ° 7 km/h 931 m -15.7 m/s 402.30 MHz Traunreut (DE) 0.00 km UNKNOWN
T1910281 RS41 2021-10-26 12:51:21 48.7031 13.3737 124 ° 31 km/h 939 m -4.0 m/s 402.30 MHz Passau (DE) 0.00 km FOUND
T1910778 RS41 2021-10-26 01:32:09 49.0171 13.9131 152 ° 15 km/h 1176 m -3.6 m/s 402.300 MHz Prachatice (CZ) 0.00 km UNKNOWN
T1851227 RS41 2021-10-25 12:39:47 48.8576 13.1723 29 ° 17 km/h 1971 m -11.4 m/s 402.30 MHz Deggendorf (DE) 0.00 km UNKNOWN
T1250647 RS41 2021-10-25 00:27:20 48.7058 11.6896 357 ° 13 km/h 547 m -5.3 m/s 402.30 MHz Ingolstadt (DE) 0.00 km FOUND
T1250041 RS41 2021-10-24 13:10:00 48.3227 12.3824 300 ° 20 km/h 1076 m -4.2 m/s 402.30 MHz Waldkraiburg (DE) 0.00 km UNKNOWN
T1250644 RS41 2021-10-24 01:16:00 47.8218 12.8031 342 ° 13 km/h 909 m -4.4 m/s 402.30 MHz Grossgmain (AT) 0.00 km UNKNOWN
T1910749 RS41 2021-10-23 13:21:50 47.793 13.3639 141 ° 15 km/h 1237 m -3.6 m/s 402.30 MHz Sankt Gilgen (AT) 0.00 km UNKNOWN
T1841257 RS41 2021-10-23 01:54:30 48.0608 14.9501 225 ° 13 km/h 451 m -1.6 m/s 402.30 MHz Euratsfeld (AT) 0.00 km UNKNOWN
T1340631 RS41 2021-10-22 13:14:10 48.3382 14.0331 59 ° 15 km/h 323 m -2.9 m/s 402.30 MHz Feldkirchen an der Donau (AT) 0.00 km FOUND
T1250269 RS41 2021-10-22 00:46:51 48.6426 14.222 92 ° 54 km/h 1144 m -11.8 m/s 402.30 MHz Vorderweissenbach (AT) 0.00 km UNKNOWN
T1910756 RS41 2021-10-21 12:42:16 49.0029 14.2691 87 ° 85 km/h 931 m -11.4 m/s 402.30 MHz Hluboká nad Vltavou (CZ) 0.00 km UNKNOWN
T1910754 RS41 2021-10-21 01:25:21 48.9225 14.451 89 ° 54 km/h 1067 m -3.8 m/s 402.30 MHz České Budějovice (CZ) 0.00 km UNKNOWN
T1910590 RS41 2021-10-20 12:56:50 48.5519 13.6418 109 ° 13 km/h 894 m -9.1 m/s 402.30 MHz Esternberg (AT) 0.00 km UNKNOWN
T1910726 RS41 2021-10-20 01:29:05 47.8303 13.5017 11 ° 20 km/h 1078 m -4.1 m/s 402.300 MHz Tiefgraben (AT) 0.00 km UNKNOWN
T1841325 RS41 2021-10-19 13:08:02 47.5562 13.04 69 ° 28 km/h 2285 m -3.5 m/s 402.30 MHz Golling an der Salzach (AT) 0.00 km UNKNOWN
T1841274 RS41 2021-10-19 01:03:32 47.4479 12.7477 122 ° 28 km/h 2698 m -4.7 m/s 402.30 MHz Leogang (AT) 0.00 km UNKNOWN
T1910099 RS41 2021-10-18 13:13:03 47.2018 12.1791 131 ° 6 km/h 2910 m -3.7 m/s 402.30 MHz Neukirchen am Großvenediger (AT) 0.00 km UNKNOWN
T1250379 RS41 2021-10-18 01:22:46 48.0331 13.3805 341 ° 4 km/h 784 m -6.0 m/s 402.30 MHz Pöndorf (AT) 0.00 km UNKNOWN
T1250270 RS41 2021-10-17 13:16:45 47.9487 12.5181 223 ° 7 km/h 836 m -4.2 m/s 402.30 MHz Traunreut (DE) 0.00 km NEED ATTENTION
T1231120 RS41 2021-10-17 01:42:58 47.8436 12.4098 23 ° 6 km/h 1045 m -2.2 m/s 402.30 MHz Traunreut (DE) 0.00 km UNKNOWN
T1910746 RS41 2021-10-16 12:44:00 48.1184 12.017 251 ° 7 km/h 854 m -13.2 m/s 402.300 MHz Vaterstetten (DE) 0.00 km NEED ATTENTION
T1910209 RS41 2021-10-16 00:46:36 48.1561 12.4021 179 ° 11 km/h 838 m -15.0 m/s 402.300 MHz Waldkraiburg (DE) 0.00 km FOUND
T1910607 RS41 2021-10-15 12:54:39 48.3359 12.8028 100 ° 17 km/h 722 m -7.1 m/s 402.30 MHz Braunau am Inn (AT) 0.00 km UNKNOWN
T1910621 RS41 2021-10-15 03:21:23 47.5691 13.2509 257 ° 7 km/h 1234 m -2.7 m/s 402.30 MHz Golling an der Salzach (AT) 0.00 km UNKNOWN
T1250039 RS41 2021-10-14 13:18:05 47.2338 11.5727 88 ° 6 km/h 1831 m -3.4 m/s 402.30 MHz Volders (AT) 0.00 km UNKNOWN
T1340633 RS41 2021-10-14 00:48:00 47.3862 11.6217 108 ° 15 km/h 2321 m -7.0 m/s 402.300 MHz Vomp (AT) 0.00 km UNKNOWN
T1841323 RS41 2021-10-13 12:37:29 47.5594 11.7158 112 ° 20 km/h 2434 m -9.9 m/s 402.30 MHz Achenkirch (AT) 0.00 km UNKNOWN
T1231118 RS41 2021-10-13 01:04:36 47.6345 12.4124 145 ° 19 km/h 1560 m -5.1 m/s 402.30 MHz Kössen (AT) 0.00 km UNKNOWN
T1910215 RS41 2021-10-12 12:52:23 47.7747 12.4748 74 ° 30 km/h 1287 m -12.8 m/s 402.30 MHz Kössen (AT) 0.00 km FOUND
T1910097 RS41 2021-10-12 00:50:11 47.5401 12.6248 292 ° 6 km/h 1946 m -9.6 m/s 402.30 MHz Fieberbrunn (AT) 0.00 km UNKNOWN
T1910278 RS41 2021-10-11 12:43:16 47.7874 12.2213 99 ° 15 km/h 1355 m -14.3 m/s 402.30 MHz Rosenheim (DE) 0.00 km FOUND
T1240108 RS41 2021-10-11 01:53:00 47.421 11.553 132 ° 6 km/h 2195 m -2.7 m/s 402.30 MHz Terfens (AT) 0.00 km UNKNOWN
T1910611 RS41 2021-10-10 13:25:06 47.1722 11.0923 215 ° 20 km/h 3338 m -1.9 m/s 402.300 MHz Rietz (AT) 0.00 km UNKNOWN
T1250016 RS41 2021-10-10 00:50:55 47.4126 11.0258 256 ° 30 km/h 2715 m -5.6 m/s 402.30 MHz Ehrwald (AT) 0.00 km UNKNOWN
T1250042 RS41 2021-10-09 13:13:11 47.4545 10.8573 265 ° 20 km/h 2341 m -4.4 m/s 402.30 MHz Ehrwald (AT) 0.00 km UNKNOWN
T1250544 RS41 2021-10-09 01:11:00 47.7137 11.2476 272 ° 30 km/h 1595 m -4.7 m/s 402.30 MHz Weilheim in Oberbayern (DE) 0.00 km UNKNOWN
T1910154 RS41 2021-10-08 13:22:43 47.8358 11.3872 257 ° 30 km/h 843 m -5.7 m/s 402.30 MHz Geretsried (DE) 0.00 km FOUND
T1120043 RS41 2021-10-08 00:48:00 47.9398 11.6993 89 ° 2 km/h 774 m -12.3 m/s 402.30 MHz Unterhaching (DE) 0.00 km FOUND
T1910204 RS41 2021-10-07 12:47:01 48.1022 11.5155 229 ° 13 km/h 662 m -11.3 m/s 402.300 MHz München (DE) 0.00 km FOUND
T1250446 RS41 2021-10-07 00:48:01 48.2868 12.3432 119 ° 17 km/h 653 m -9.6 m/s 402.30 MHz Waldkraiburg (DE) 0.00 km FOUND
T1340409 RS41 2021-10-06 12:59:58 48.662 12.5919 94 ° 22 km/h 2311 m -5.0 m/s 402.30 MHz Straubing (DE) 0.00 km FOUND
T1910277 RS41 2021-10-06 01:47:34 48.8872 13.2246 89 ° 39 km/h 1525 m -3.0 m/s 402.30 MHz Deggendorf (DE) 0.00 km UNKNOWN
T1910602 RS41 2021-10-05 13:07:00 49.1974 12.5902 49 ° 24 km/h 842 m -3.4 m/s 402.30 MHz Straubing (DE) 0.00 km FOUND
T1340496 RS41 2021-10-05 00:42:59 48.9988 12.3732 320 ° 35 km/h 1331 m -6.1 m/s 402.30 MHz Regensburg (DE) 0.00 km NEED ATTENTION
T1250449 RS41 2021-10-04 12:55:09 48.9946 12.8726 258 ° 7 km/h 1467 m -9.2 m/s 402.30 MHz Deggendorf (DE) 0.00 km FOUND
T1340540 RS41 2021-10-04 01:04:38 48.9579 12.6465 166 ° 11 km/h 1218 m -6.3 m/s 402.300 MHz Straubing (DE) 0.00 km UNKNOWN
T1250161 RS41 2021-10-03 13:16:56 48.7069 12.8065 329 ° 28 km/h 892 m -3.3 m/s 402.30 MHz Deggendorf (DE) 0.00 km FOUND
T1231037 RS41 2021-10-03 01:56:40 48.3139 13.0869 314 ° 9 km/h 542 m -2.1 m/s 402.30 MHz Sankt Peter (AT) 0.00 km UNKNOWN
T1340567 RS41 2021-10-02 12:43:57 48.2769 12.4188 311 ° 13 km/h 933 m -7.7 m/s 402.30 MHz Waldkraiburg (DE) 0.00 km UNKNOWN
T1910573 RS41 2021-10-02 01:36:24 48.751 12.875 59 ° 19 km/h 1207 m -2.7 m/s 402.300 MHz Deggendorf (DE) 0.00 km NEED ATTENTION
T1340555 RS41 2021-10-01 12:41:19 48.3017 12.3485 357 ° 6 km/h 980 m -11.8 m/s 402.300 MHz Waldkraiburg (DE) 0.00 km UNKNOWN
T1910305 RS41 2021-10-01 01:22:12 47.8953 12.7325 200 ° 4 km/h 760 m -4.0 m/s 402.30 MHz Traunreut (DE) 0.00 km FOUND
T1841321 RS41 2021-09-30 13:02:22 47.9558 12.9025 176 ° 7 km/h 579 m -5.6 m/s 402.30 MHz Lamprechtshausen (AT) 0.00 km FOUND
T1241039 RS41 2021-09-30 01:58:31 48.2952 13.0047 78 ° 6 km/h 473 m -9.8 m/s 404.70 MHz Braunau am Inn (AT) 0.00 km UNKNOWN
T1910101 RS41 2021-09-29 23:55:45 48.4395 12.6674 109 ° 46 km/h 1115 m -5.4 m/s 402.30 MHz Waldkraiburg (DE) 0.00 km FOUND
T1910592 RS41 2021-09-29 13:24:25 48.5861 13.0457 95 ° 31 km/h 1042 m -2.2 m/s 402.30 MHz Passau (DE) 0.00 km FOUND
T1910306 RS41 2021-09-29 01:51:37 48.8285 12.9026 325 ° 33 km/h 1020 m -2.0 m/s 402.30 MHz Deggendorf (DE) 0.00 km UNKNOWN
T1240669 RS41 2021-09-28 12:51:52 48.3501 12.6235 355 ° 4 km/h 1216 m -9.5 m/s 402.30 MHz Waldkraiburg (DE) 0.00 km FOUND
T1240670 RS41 2021-09-28 00:50:38 48.1293 12.6624 75 ° 26 km/h 617 m -11.9 m/s 402.30 MHz Ostermiething (AT) 0.00 km UNKNOWN
T1910445 RS41 2021-09-27 12:45:51 48.0829 12.4807 125 ° 6 km/h 763 m -11.6 m/s 402.300 MHz Waldkraiburg (DE) 0.00 km UNKNOWN
T1910565 RS41 2021-09-27 03:33:50 48.6082 12.6984 137 ° 41 km/h 1162 m -2.4 m/s 402.30 MHz Straubing (DE) 0.00 km FOUND
T1340498 RS41 2021-09-26 19:59:09 48.7097 12.4304 201 ° 4 km/h 1548 m -2.1 m/s 402.30 MHz Straubing (DE) 0.00 km NEED ATTENTION
T1910155 RS41 2021-09-26 13:05:02 48.6252 12.1733 267 ° 13 km/h 1188 m -3.9 m/s 402.30 MHz Landshut (DE) 0.00 km UNKNOWN
T1910609 RS41 2021-09-26 01:53:09 48.6773 12.7058 157 ° 11 km/h 1119 m -2.2 m/s 404.70 MHz Straubing (DE) 0.00 km FOUND
T1910622 RS41 2021-09-25 14:28:18 48.5842 12.8722 1 ° 9 km/h 879 m -1.6 m/s 404.70 MHz Deggendorf (DE) 0.00 km FOUND
T1841256 RS41 2021-09-25 00:35:30 48.0872 12.19 93 ° 20 km/h 796 m -12.1 m/s 402.30 MHz Waldkraiburg (DE) 0.00 km FOUND
T1910199 RS41 2021-09-24 12:37:47 47.9282 12.1802 83 ° 26 km/h 1387 m -12.5 m/s 402.30 MHz Rosenheim (DE) 0.00 km UNKNOWN
T1340463 RS41 2021-09-24 00:53:44 47.7024 12.6277 98 ° 67 km/h 1689 m -7.3 m/s 402.30 MHz Kössen (AT) 0.00 km UNKNOWN
T1910608 RS41 2021-09-23 13:16:35 47.5287 12.5421 114 ° 9 km/h 1632 m -3.6 m/s 402.30 MHz Fieberbrunn (AT) 0.00 km FOUND
T1910301 RS41 2021-09-23 01:55:41 47.2484 12.0428 181 ° 17 km/h 2705 m -2.2 m/s 402.30 MHz Mayrhofen (AT) 0.00 km UNKNOWN
T1910567 RS41 2021-09-22 13:40:10 47.1321 11.9216 169 ° 50 km/h 3455 m -1.4 m/s 402.30 MHz Mayrhofen (AT) 0.00 km UNKNOWN
T1910575 RS41 2021-09-22 00:39:39 47.5963 11.7126 108 ° 11 km/h 1829 m -9.2 m/s 402.30 MHz Achenkirch (AT) 0.00 km UNKNOWN
T1910303 RS41 2021-09-21 12:48:24 47.827 11.8622 113 ° 15 km/h 1458 m -5.1 m/s 402.30 MHz Rosenheim (DE) 0.00 km UNKNOWN
T1910212 RS41 2021-09-21 00:57:01 47.965 11.6366 315 ° 6 km/h 729 m -5.9 m/s 402.30 MHz Unterhaching (DE) 0.00 km UNKNOWN
T1241024 RS41 2021-09-20 14:56:59 48.1387 11.8316 147 ° 6 km/h 630 m -1.8 m/s 404.70 MHz Vaterstetten (DE) 0.00 km FOUND
T1340545 RS41 2021-09-20 12:07:01 48.22 11.5077 247 ° 9 km/h 703 m -5.7 m/s 402.30 MHz Dachau (DE) 0.00 km FOUND
T1250086 RS41 2021-09-20 00:44:15 48.1592 11.8759 144 ° 9 km/h 627 m -10.0 m/s 402.30 MHz Vaterstetten (DE) 0.00 km NEED ATTENTION
T1910098 RS41 2021-09-19 13:25:28 48.3033 12.0434 244 ° 20 km/h 668 m -3.7 m/s 402.30 MHz Erding (DE) 0.00 km FOUND
T1340529 RS41 2021-09-19 00:52:00 48.0362 12.1323 285 ° 20 km/h 879 m -6.6 m/s 402.30 MHz Rosenheim (DE) 0.00 km UNKNOWN
T1241055 RS41 2021-09-18 12:51:01 47.9264 12.3031 111 ° 4 km/h 1058 m -8.6 m/s 402.30 MHz Rosenheim (DE) 0.00 km UNKNOWN
T1230742 RS41 2021-09-18 01:04:45 47.8296 12.4975 92 ° 4 km/h 1046 m -2.6 m/s 402.300 MHz Traunreut (DE) 0.00 km UNKNOWN
T1910566 RS41 2021-09-17 13:26:13 47.8613 12.6357 121 ° 17 km/h 954 m -4.7 m/s 402.30 MHz Traunreut (DE) 0.00 km FOUND
T1910574 RS41 2021-09-17 01:24:51 48.2097 12.734 111 ° 19 km/h 507 m -3.7 m/s 402.30 MHz Hochburg-Ach (AT) 0.00 km FOUND
T1841259 RS41 2021-09-16 13:36:33 48.4348 13.175 61 ° 9 km/h 714 m -3.5 m/s 402.30 MHz Schärding (AT) 0.00 km FOUND
T1910619 RS41 2021-09-16 01:15:00 48.3045 12.8936 36 ° 20 km/h 593 m -5.1 m/s 402.30 MHz Braunau am Inn (AT) 0.00 km FOUND
T1910211 RS41 2021-09-15 13:39:20 48.5087 12.7522 87 ° 13 km/h 707 m -3.4 m/s 402.30 MHz Braunau am Inn (AT) 0.00 km FOUND
T1910576 RS41 2021-09-15 00:40:03 48.056 12.4149 306 ° 17 km/h 776 m -4.6 m/s 402.30 MHz Waldkraiburg (DE) 0.00 km UNKNOWN
T1910624 RS41 2021-09-14 12:55:37 48.1225 12.304 267 ° 9 km/h 875 m -11.1 m/s 402.30 MHz Waldkraiburg (DE) 0.00 km UNKNOWN
T1841326 RS41 2021-09-14 01:33:53 47.9354 12.6503 259 ° 7 km/h 818 m -4.0 m/s 402.30 MHz Traunreut (DE) 0.00 km UNKNOWN
T1910102 RS41 2021-09-13 12:50:17 48.1356 12.3545 249 ° 9 km/h 888 m -13.1 m/s 402.30 MHz Waldkraiburg (DE) 0.00 km UNKNOWN
T1910620 RS41 2021-09-13 01:05:13 48.0222 12.4131 284 ° 9 km/h 847 m -3.5 m/s 402.30 MHz Traunreut (DE) 0.00 km UNKNOWN
T1241051 RS41 2021-09-12 13:02:51 47.965 12.1525 228 ° 6 km/h 1138 m -4.8 m/s 402.30 MHz Rosenheim (DE) 0.00 km UNKNOWN
T1240718 RS41 2021-09-12 00:45:29 47.8349 11.9606 108 ° 7 km/h 1226 m -10.3 m/s 402.30 MHz Rosenheim (DE) 0.00 km UNKNOWN
T1250085 RS41 2021-09-11 12:59:30 48.2126 12.2696 2 ° 17 km/h 785 m -1.9 m/s 402.300 MHz Waldkraiburg (DE) 0.00 km FOUND
T1240086 RS41 2021-09-11 01:08:00 48.1665 12.1942 60 ° 11 km/h 584 m -7.4 m/s 402.30 MHz Waldkraiburg (DE) 0.00 km FOUND
T1240195 RS41 2021-09-10 12:52:59 48.4152 11.8705 251 ° 4 km/h 710 m -5.7 m/s 402.30 MHz Freising (DE) 0.00 km UNKNOWN
T1250092 RS41 2021-09-10 00:49:09 48.4296 11.8241 155 ° 19 km/h 934 m -8.1 m/s 402.30 MHz Freising (DE) 0.00 km FOUND
T1250504 RS41 2021-09-09 13:47:25 48.5677 11.5717 62 ° 20 km/h 1101 m -2.6 m/s 402.30 MHz Pfaffenhofen an der Ilm (DE) 0.00 km FOUND
S1510123 RS41 2021-09-09 01:12:01 48.2109 11.1323 93 ° 33 km/h 839 m -4.4 m/s 402.30 MHz Fürstenfeldbruck (DE) 0.00 km FOUND
T1241041 RS41 2021-09-08 13:22:03 48.2293 10.9742 260 ° 17 km/h 695 m -3.9 m/s 402.30 MHz Königsbrunn (DE) 0.00 km FOUND
T1910210 RS41 2021-09-08 00:34:09 47.934 11.0468 280 ° 24 km/h 875 m -16.0 m/s 402.300 MHz Weilheim in Oberbayern (DE) 0.00 km FOUND
T1910208 RS41 2021-09-07 13:10:12 47.7435 11.3797 241 ° 20 km/h 863 m -2.9 m/s 402.30 MHz Geretsried (DE) 0.00 km UNKNOWN
T1910604 RS41 2021-09-07 01:03:37 47.8747 11.7809 270 ° 9 km/h 867 m -4.3 m/s 402.300 MHz Geretsried (DE) 0.00 km FOUND
T1240017 RS41 2021-09-06 13:24:00 47.8427 11.746 242 ° 19 km/h 897 m -3.8 m/s 402.30 MHz Geretsried (DE) 0.00 km FOUND
T1241023 RS41 2021-09-06 00:57:27 47.978 11.9637 274 ° 17 km/h 1139 m -5.9 m/s 402.30 MHz Rosenheim (DE) 0.00 km UNKNOWN
T1910612 RS41 2021-09-05 13:38:24 47.914 12.5345 223 ° 13 km/h 888 m -3.5 m/s 402.30 MHz Traunreut (DE) 0.00 km UNKNOWN
S1610534 RS41 2021-09-05 01:02:30 48.098 12.1689 252 ° 2 km/h 572 m -6.0 m/s 402.30 MHz Waldkraiburg (DE) 0.00 km FOUND
T1910594 RS41 2021-09-04 13:02:47 48.2547 11.8861 291 ° 9 km/h 691 m -5.9 m/s 402.30 MHz Erding (DE) 0.00 km FOUND
T1910207 RS41 2021-09-04 01:18:13 48.1884 11.8642 284 ° 15 km/h 647 m -4.2 m/s 402.30 MHz Vaterstetten (DE) 0.00 km FOUND
T1910593 RS41 2021-09-03 13:01:23 48.2057 11.8056 262 ° 13 km/h 557 m -4.2 m/s 402.30 MHz Vaterstetten (DE) 0.00 km FOUND
T1910601 RS41 2021-09-03 01:29:50 48.1351 12.0223 264 ° 35 km/h 701 m -4.5 m/s 402.300 MHz Vaterstetten (DE) 0.00 km UNKNOWN
T1910610 RS41 2021-09-02 13:13:38 48.1388 11.8591 246 ° 19 km/h 663 m -4.9 m/s 402.300 MHz Vaterstetten (DE) 0.00 km FOUND
T1910589 RS41 2021-09-02 01:05:33 47.9457 11.8106 279 ° 24 km/h 844 m -5.2 m/s 402.30 MHz Vaterstetten (DE) 0.00 km LOST
T1910606 RS41 2021-09-01 13:28:00 47.9096 11.2733 283 ° 7 km/h 977 m -3.5 m/s 402.30 MHz Starnberg (DE) 0.00 km FOUND
T1120027 RS41 2021-09-01 01:59:09 47.7699 11.325 178 ° 13 km/h 1176 m -1.8 m/s 402.30 MHz Geretsried (DE) 0.00 km UNKNOWN
S1440823 RS41 2021-08-31 12:51:01 47.9993 11.6202 134 ° 15 km/h 713 m -8.2 m/s 402.30 MHz Unterhaching (DE) 0.00 km FOUND
T1910152 RS41 2021-08-31 01:37:13 47.8289 12.2678 83 ° 35 km/h 1028 m -2.7 m/s 402.30 MHz Rosenheim (DE) 0.00 km UNKNOWN
T1340636 RS41 2021-08-30 13:22:55 47.8632 11.94 155 ° 17 km/h 1179 m -3.4 m/s 402.30 MHz Rosenheim (DE) 0.00 km UNKNOWN
T1340440 RS41 2021-08-30 00:52:00 47.8733 11.762 76 ° 43 km/h 881 m -7.4 m/s 402.30 MHz Geretsried (DE) 0.00 km UNKNOWN
T1250119 RS41 2021-08-29 13:14:50 47.741 11.6122 59 ° 17 km/h 1262 m -3.4 m/s 402.30 MHz Geretsried (DE) 0.00 km UNKNOWN
T1240667 RS41 2021-08-29 00:47:10 47.851 11.6905 85 ° 33 km/h 910 m -5.8 m/s 402.300 MHz Geretsried (DE) 0.00 km UNKNOWN
T1340512 RS41 2021-08-28 13:10:00 48.0795 12.1011 80 ° 26 km/h 750 m -5.1 m/s 402.30 MHz Vaterstetten (DE) 0.00 km NEED ATTENTION
T1231190 RS41 2021-08-28 01:34:07 48.1256 12.5706 83 ° 22 km/h 568 m -3.3 m/s 402.30 MHz Waldkraiburg (DE) 0.00 km UNKNOWN
T1231189 RS41 2021-08-27 12:43:30 48.0093 12.1944 53 ° 22 km/h 622 m -9.0 m/s 402.30 MHz Rosenheim (DE) 0.00 km UNKNOWN
T1340486 RS41 2021-08-27 01:34:56 47.5777 13.1373 69 ° 31 km/h 1750 m -1.6 m/s 402.30 MHz Golling an der Salzach (AT) 0.00 km UNKNOWN
T1340481 RS41 2021-08-26 11:20:59 48.2223 11.9748 140 ° 17 km/h 606 m -3.4 m/s 402.30 MHz Erding (DE) 0.00 km NEED ATTENTION
T1240672 RS41 2021-08-26 04:41:00 47.451 11.6333 96 ° 20 km/h 2164 m -8.4 m/s 402.300 MHz Eben am Achensee (AT) 0.00 km UNKNOWN
T1250120 RS41 2021-08-25 15:02:10 47.63 10.5658 315 ° 6 km/h 953 m -3.3 m/s 402.30 MHz Reutte (AT) 0.00 km NEED ATTENTION
T1231121 RS41 2021-08-25 01:52:14 48.0325 11.0173 258 ° 33 km/h 926 m -5.7 m/s 402.30 MHz Landsberg am Lech (DE) 0.00 km NEED ATTENTION
T1250118 RS41 2021-08-24 13:23:58 48.1106 11.376 245 ° 13 km/h 785 m -3.6 m/s 402.30 MHz Germering (DE) 0.00 km FOUND
T1340493 RS41 2021-08-24 01:12:47 47.9082 12.0264 120 ° 22 km/h 1199 m -3.0 m/s 402.30 MHz Rosenheim (DE) 0.00 km UNKNOWN
T1340484 RS41 2021-08-23 13:07:55 48.1408 11.9863 104 ° 30 km/h 723 m -4.7 m/s 402.30 MHz Vaterstetten (DE) 0.00 km UNKNOWN
T1240671 RS41 2021-08-23 01:04:04 48.4428 12.9015 103 ° 41 km/h 853 m -5.1 m/s 402.30 MHz Braunau am Inn (AT) 0.00 km FOUND
T1250116 RS41 2021-08-22 19:36:26 48.4429 13.4329 69 ° 11 km/h 402 m -6.6 m/s 402.30 MHz Schärding (AT) 0.00 km NEED ATTENTION
T1340497 RS41 2021-08-22 12:38:25 48.3234 12.595 44 ° 19 km/h 1253 m -6.7 m/s 402.30 MHz Waldkraiburg (DE) 0.00 km FOUND
T1250117 RS41 2021-08-22 07:23:31 48.2995 12.7678 60 ° 20 km/h 594 m -4.3 m/s 402.30 MHz Braunau am Inn (AT) 0.00 km FOUND
T1250094 RS41 2021-08-22 00:43:54 48.346 12.2313 84 ° 17 km/h 967 m -12.3 m/s 402.30 MHz Waldkraiburg (DE) 0.00 km UNKNOWN
T1250115 RS41 2021-08-21 12:56:24 48.192 12.4891 234 ° 9 km/h 689 m -5.0 m/s 402.30 MHz Waldkraiburg (DE) 0.00 km FOUND
T1241043 RS41 2021-08-21 01:16:08 48.1086 12.3176 302 ° 11 km/h 735 m -4.5 m/s 402.30 MHz Waldkraiburg (DE) 0.00 km UNKNOWN
T1340485 RS41 2021-08-20 13:16:58 48.4003 12.469 208 ° 7 km/h 834 m -4.2 m/s 402.300 MHz Waldkraiburg (DE) 0.00 km UNKNOWN
T1340404 RS41 2021-08-20 02:06:48 48.4417 12.475 230 ° 2 km/h 920 m -7.5 m/s 404.70 MHz Waldkraiburg (DE) 0.00 km FOUND
T1120047 RS41 2021-08-20 00:09:22 48.3278 12.2779 246 ° 9 km/h 826 m -3.4 m/s 402.30 MHz Waldkraiburg (DE) 0.00 km UNKNOWN
T1120037 RS41 2021-08-19 13:22:45 48.2383 12.7242 105 ° 15 km/h 535 m -2.6 m/s 402.30 MHz Hochburg-Ach (AT) 0.00 km NEED ATTENTION
T1340635 RS41 2021-08-19 01:57:52 48.2204 12.5892 70 ° 22 km/h 596 m -1.9 m/s 402.30 MHz Waldkraiburg (DE) 0.00 km FOUND
T1241025 RS41 2021-08-18 13:06:26 47.6817 12.2675 166 ° 9 km/h 1015 m -4.0 m/s 402.30 MHz Niederndorf (AT) 0.00 km UNKNOWN
T1340568 RS41 2021-08-18 00:59:28 47.9521 12.5936 50 ° 9 km/h 820 m -9.0 m/s 402.30 MHz Traunreut (DE) 0.00 km UNKNOWN
T1241021 RS41 2021-08-17 13:30:00 48.0264 13.0481 65 ° 11 km/h 684 m -1.8 m/s 402.30 MHz Eggelsberg (AT) 0.00 km NEED ATTENTION
T1250448 RS41 2021-08-17 02:02:27 48.6775 13.7817 114 ° 41 km/h 1030 m -3.1 m/s 402.30 MHz Ulrichsberg (AT) 0.00 km UNKNOWN
T1250164 RS41 2021-08-16 13:06:08 48.6714 12.6626 90 ° 39 km/h 1578 m -5.8 m/s 402.30 MHz Straubing (DE) 0.00 km FOUND
T1241016 RS41 2021-08-16 00:56:40 48.3156 12.6958 96 ° 33 km/h 1037 m -5.7 m/s 402.30 MHz Hochburg-Ach (AT) 0.00 km FOUND
T1120029 RS41 2021-08-15 13:13:40 48.2799 12.6606 287 ° 4 km/h 772 m -2.8 m/s 402.300 MHz Waldkraiburg (DE) 0.00 km FOUND
T1250157 RS41 2021-08-15 01:09:25 48.1637 12.3514 40 ° 7 km/h 526 m -5.6 m/s 402.30 MHz Waldkraiburg (DE) 0.00 km UNKNOWN
T1340511 RS41 2021-08-14 12:56:13 48.1382 12.3208 194 ° 6 km/h 558 m -6.3 m/s 402.30 MHz Waldkraiburg (DE) 0.00 km FOUND
T1340439 RS41 2021-08-14 00:55:25 47.9895 12.1769 133 ° 13 km/h 699 m -8.8 m/s 402.30 MHz Rosenheim (DE) 0.00 km UNKNOWN
T1120030 RS41 2021-08-13 13:20:19 47.7961 12.5087 222 ° 13 km/h 1212 m -2.7 m/s 402.30 MHz Kössen (AT) 0.00 km FOUND
T1340483 RS41 2021-08-13 02:04:40 48.121 12.9595 351 ° 9 km/h 619 m -1.8 m/s 402.30 MHz Eggelsberg (AT) 0.00 km LOST
T1250807 RS41 2021-08-12 13:26:00 48.0902 12.5761 257 ° 4 km/h 664 m -4.0 m/s 402.30 MHz Traunreut (DE) 0.00 km FOUND
T1340443 RS41 2021-08-12 01:02:51 47.9729 12.5433 107 ° 11 km/h 742 m -4.0 m/s 402.30 MHz Traunreut (DE) 0.00 km FOUND
T1340516 RS41 2021-08-11 12:51:34 47.9708 12.3994 93 ° 13 km/h 937 m -10.3 m/s 402.30 MHz Traunreut (DE) 0.00 km UNKNOWN
T1340442 RS41 2021-08-11 00:48:59 48.1683 12.6464 93 ° 6 km/h 519 m -5.1 m/s 402.30 MHz Hochburg-Ach (AT) 0.00 km FOUND
T1250447 RS41 2021-08-10 13:03:43 48.3892 13.0042 64 ° 20 km/h 756 m -6.0 m/s 402.30 MHz Braunau am Inn (AT) 0.00 km UNKNOWN
T1340629 RS41 2021-08-10 00:55:54 48.3768 12.859 59 ° 19 km/h 707 m -3.5 m/s 402.30 MHz Braunau am Inn (AT) 0.00 km UNKNOWN
T1240106 RS41 2021-08-09 13:20:32 48.7075 13.1389 322 ° 9 km/h 1601 m -4.9 m/s 402.301 MHz Deggendorf (DE) 0.00 km UNKNOWN
T1340405 RS41 2021-08-09 00:55:28 48.5073 12.7363 63 ° 13 km/h 740 m -7.4 m/s 402.30 MHz Braunau am Inn (AT) 0.00 km FOUND
T1250166 RS41 2021-08-08 13:09:39 49.1291 12.9163 59 ° 22 km/h 1299 m -4.3 m/s 402.30 MHz Kdyně (CZ) 0.00 km FOUND
T1120041 RS41 2021-08-08 00:47:07 48.9691 12.5116 69 ° 43 km/h 978 m -5.1 m/s 402.30 MHz Straubing (DE) 0.00 km FOUND
T1340467 RS41 2021-08-07 19:24:03 49.0417 12.8599 92 ° 67 km/h 1443 m -4.8 m/s 402.30 MHz Deggendorf (DE) 0.00 km FOUND
T1340466 RS41 2021-08-07 13:21:24 48.9817 12.9811 357 ° 13 km/h 1905 m -4.2 m/s 402.30 MHz Deggendorf (DE) 0.00 km UNKNOWN
T1340571 RS41 2021-08-07 00:49:53 48.2414 12.7202 20 ° 4 km/h 579 m -10.3 m/s 402.30 MHz Hochburg-Ach (AT) 0.00 km FOUND
T1240105 RS41 2021-08-06 13:18:17 47.8486 13.2257 66 ° 13 km/h 1160 m -2.8 m/s 402.30 MHz Thalgau (AT) 0.00 km UNKNOWN
T1120046 RS41 2021-08-06 02:06:13 48.1195 12.9091 55 ° 24 km/h 539 m -2.0 m/s 402.30 MHz Hochburg-Ach (AT) 0.00 km LOST
T1250545 RS41 2021-08-05 13:01:23 48.2577 12.2314 74 ° 13 km/h 720 m -6.5 m/s 402.30 MHz Waldkraiburg (DE) 0.00 km FOUND
T1340627 RS41 2021-08-05 02:00:32 48.7433 12.1576 101 ° 9 km/h 752 m -2.4 m/s 402.30 MHz Landshut (DE) 0.00 km UNKNOWN
T1250168 RS41 2021-08-04 13:08:26 48.7037 12.7192 273 ° 11 km/h 545 m -4.1 m/s 402.30 MHz Straubing (DE) 0.00 km FOUND
T1340626 RS41 2021-08-04 01:31:14 48.6071 13.5292 114 ° 17 km/h 1147 m -2.5 m/s 402.301 MHz Esternberg (AT) 0.00 km UNKNOWN
T1250163 RS41 2021-08-03 13:22:16 48.5897 12.7997 56 ° 4 km/h 1192 m -3.4 m/s 402.300 MHz Deggendorf (DE) 0.00 km UNKNOWN
T1340556 RS41 2021-08-03 01:58:51 48.5402 12.6245 43 ° 19 km/h 829 m -2.6 m/s 402.30 MHz Landshut (DE) 0.00 km FOUND
T1120048 RS41 2021-08-02 13:01:04 48.5013 12.1605 106 ° 11 km/h 625 m -4.4 m/s 402.300 MHz Landshut (DE) 0.00 km FOUND
T1250165 RS41 2021-08-02 01:51:10 48.6161 12.6947 106 ° 44 km/h 778 m -2.1 m/s 402.30 MHz Straubing (DE) 0.00 km FOUND
T1240104 RS41 2021-08-01 12:51:44 48.9378 12.2652 148 ° 9 km/h 1130 m -5.2 m/s 402.30 MHz Regensburg (DE) 0.00 km FOUND
T1120947 RS41 2021-08-01 01:08:48 49.0717 12.3325 216 ° 19 km/h 1066 m -5.5 m/s 402.300 MHz Regensburg (DE) 0.00 km FOUND
T1340403 RS41 2021-07-31 13:11:43 48.9051 12.9102 53 ° 22 km/h 1108 m -4.7 m/s 402.30 MHz Deggendorf (DE) 0.00 km UNKNOWN
T1340441 RS41 2021-07-31 00:41:43 48.7987 13.0959 62 ° 24 km/h 1401 m -3.4 m/s 402.30 MHz Deggendorf (DE) 0.00 km UNKNOWN
T1250546 RS41 2021-07-30 13:22:43 48.4795 12.7799 65 ° 17 km/h 791 m -3.4 m/s 402.30 MHz Braunau am Inn (AT) 0.00 km FOUND
T1340628 RS41 2021-07-30 02:09:56 48.6429 13.2839 58 ° 15 km/h 860 m -2.4 m/s 402.30 MHz Passau (DE) 0.00 km UNKNOWN
S1610494 RS41 2021-07-29 12:58:48 48.5443 12.5996 77 ° 17 km/h 903 m -4.9 m/s 402.30 MHz Landshut (DE) 0.00 km UNKNOWN
T1241052 RS41 2021-07-29 02:01:37 48.4812 12.9268 74 ° 22 km/h 659 m -2.0 m/s 402.30 MHz Braunau am Inn (AT) 0.00 km UNKNOWN
T1231036 RS41 2021-07-28 12:43:16 48.6967 12.0491 92 ° 15 km/h 940 m -11.3 m/s 402.30 MHz Landshut (DE) 0.00 km UNKNOWN
T1340625 RS41 2021-07-28 01:33:44 48.8079 12.3059 33 ° 24 km/h 493 m -4.0 m/s 402.30 MHz Straubing (DE) 0.00 km UNKNOWN
T1340557 RS41 2021-07-27 18:52:31 48.5892 12.0746 341 ° 13 km/h 612 m -6.1 m/s 402.30 MHz Landshut (DE) 0.00 km UNKNOWN
T1250210 RS41 2021-07-27 13:24:18 48.6866 12.293 85 ° 6 km/h 538 m -3.2 m/s 402.30 MHz Landshut (DE) 0.00 km FOUND
T1250159 RS41 2021-07-27 07:03:03 48.7255 12.1324 117 ° 7 km/h 809 m -5.0 m/s 402.30 MHz Landshut (DE) 0.00 km UNKNOWN
T1241042 RS41 2021-07-27 00:54:03 48.7038 12.0835 70 ° 30 km/h 715 m -6.1 m/s 402.30 MHz Landshut (DE) 0.00 km UNKNOWN
T1250445 RS41 2021-07-26 20:07:45 49.0047 12.197 55 ° 19 km/h 804 m -1.9 m/s 402.30 MHz Regensburg (DE) 0.00 km UNKNOWN
T1250134 RS41 2021-07-26 13:13:40 48.9776 12.0295 350 ° 7 km/h 752 m -3.6 m/s 402.30 MHz Regensburg (DE) 0.00 km FOUND
T1250668 RS41 2021-07-26 07:25:01 48.8385 11.6618 352 ° 2 km/h 554 m -4.2 m/s 402.300 MHz Ingolstadt (DE) 0.00 km FOUND
T1241044 RS41 2021-07-26 01:08:46 48.6056 11.934 84 ° 13 km/h 705 m -4.3 m/s 402.30 MHz Landshut (DE) 0.00 km UNKNOWN
S1610716 RS41 2021-07-25 19:27:46 48.6048 11.8543 108 ° 9 km/h 624 m -4.1 m/s 402.30 MHz Landshut (DE) 0.00 km FOUND
T1240022 RS41 2021-07-25 13:20:47 48.7949 11.7511 99 ° 13 km/h 523 m -3.0 m/s 402.30 MHz Ingolstadt (DE) 0.00 km FOUND
T1250665 RS41 2021-07-25 01:30:24 48.6643 12.1172 282 ° 19 km/h 594 m -2.3 m/s 402.30 MHz Landshut (DE) 0.00 km UNKNOWN
T1340558 RS41 2021-07-24 13:19:52 48.5948 12.0594 200 ° 7 km/h 601 m -3.1 m/s 402.30 MHz Landshut (DE) 0.00 km NEED ATTENTION
T1340515 RS41 2021-07-24 02:05:35 47.9444 12.5672 287 ° 22 km/h 789 m -1.8 m/s 402.30 MHz Traunreut (DE) 0.00 km NEED ATTENTION
T1250093 RS41 2021-07-23 13:08:45 47.9828 12.0042 198 ° 6 km/h 1089 m -5.2 m/s 402.300 MHz Rosenheim (DE) 0.00 km UNKNOWN
T1250663 RS41 2021-07-23 01:08:16 48.1595 11.9584 328 ° 17 km/h 715 m -5.2 m/s 402.30 MHz Vaterstetten (DE) 0.00 km UNKNOWN
T1250688 RS41 2021-07-22 13:25:43 48.2671 11.9423 238 ° 6 km/h 576 m -3.9 m/s 402.30 MHz Erding (DE) 0.00 km FOUND
T1250671 RS41 2021-07-22 00:43:06 48.2177 11.6669 10 ° 7 km/h 582 m -13.7 m/s 402.30 MHz Unterschleißheim (DE) 0.00 km FOUND
T1340565 RS41 2021-07-21 13:16:17 48.2598 11.811 229 ° 11 km/h 583 m -5.6 m/s 402.301 MHz Erding (DE) 0.00 km FOUND
T1250655 RS41 2021-07-21 00:53:04 48.037 12.029 151 ° 2 km/h 950 m -10.0 m/s 402.30 MHz Vaterstetten (DE) 0.00 km FOUND
T1250209 RS41 2021-07-20 13:20:48 47.8611 12.2093 148 ° 9 km/h 1076 m -4.7 m/s 402.30 MHz Rosenheim (DE) 0.00 km UNKNOWN
T1340514 RS41 2021-07-20 00:54:00 48.1681 12.2275 180 ° 17 km/h 611 m -2.9 m/s 402.30 MHz Waldkraiburg (DE) 0.00 km FOUND
T1340495 RS41 2021-07-19 13:19:44 48.1127 11.9897 275 ° 11 km/h 663 m -2.4 m/s 402.30 MHz Vaterstetten (DE) 0.00 km NEED ATTENTION
T1250469 RS41 2021-07-19 01:12:01 47.9523 11.4491 55 ° 6 km/h 745 m -4.8 m/s 402.30 MHz Starnberg (DE) 0.00 km UNKNOWN
T1250662 RS41 2021-07-18 14:00:46 47.7274 11.0368 208 ° 24 km/h 1415 m -1.9 m/s 402.30 MHz Weilheim in Oberbayern (DE) 0.00 km UNKNOWN
T1250667 RS41 2021-07-18 01:09:22 47.8387 10.9116 202 ° 50 km/h 1218 m -5.0 m/s 402.30 MHz Weilheim in Oberbayern (DE) 0.00 km UNKNOWN
T1250088 RS41 2021-07-17 12:53:34 47.9936 10.946 148 ° 24 km/h 1131 m -3.7 m/s 402.30 MHz Landsberg am Lech (DE) 0.00 km UNKNOWN
T1230537 RS41 2021-07-17 01:02:52 48.1951 10.7983 158 ° 19 km/h 630 m -9.6 m/s 402.30 MHz Königsbrunn (DE) 0.00 km FOUND
T1240199 RS41 2021-07-16 12:59:18 48.4607 10.8655 233 ° 6 km/h 571 m -7.7 m/s 402.30 MHz Neusäß (DE) 0.00 km FOUND
T1250643 RS41 2021-07-16 01:02:33 48.3654 11.2757 167 ° 6 km/h 869 m -4.4 m/s 402.30 MHz Aichach (DE) 0.00 km FOUND
T1340494 RS41 2021-07-15 12:42:13 48.3958 11.503 47 ° 17 km/h 739 m -9.4 m/s 402.30 MHz Unterschleißheim (DE) 0.00 km FOUND
T1250132 RS41 2021-07-15 01:15:00 48.3513 11.4068 57 ° 44 km/h 910 m -3.7 m/s 402.300 MHz Dachau (DE) 0.00 km NEED ATTENTION
T1250635 RS41 2021-07-14 13:25:53 48.716 11.0035 93 ° 22 km/h 607 m -5.2 m/s 402.30 MHz Neuburg an der Donau (DE) 0.00 km FOUND
T1340566 RS41 2021-07-14 01:24:36 48.9491 10.7119 111 ° 11 km/h 1272 m -3.0 m/s 402.30 MHz Ansbach (DE) 0.00 km UNKNOWN
T1340569 RS41 2021-07-13 13:00:19 49.1819 11.37 113 ° 11 km/h 1764 m -4.0 m/s 402.30 MHz Neumarkt in der Oberpfalz (DE) 0.00 km FOUND
T1250672 RS41 2021-07-13 01:09:18 48.7971 11.6634 225 ° 22 km/h 514 m -5.0 m/s 402.30 MHz Ingolstadt (DE) 0.00 km FOUND
R1820560 RS41 2021-07-12 14:26:53 48.3685 11.9957 264 ° 26 km/h 627 m -4.1 m/s 403.95 MHz Erding (DE) 0.00 km FOUND
T1250657 RS41 2021-07-12 13:17:43 48.4426 12.0114 262 ° 20 km/h 654 m -6.6 m/s 402.30 MHz Landshut (DE) 0.00 km FOUND
D16005296 DFM 2021-07-12 13:09:00 48.6787 11.605 61 ° 24 km/h 1742 m -9.1 m/s 403.969 MHz Ingolstadt (DE) 0.00 km FOUND
T1250669 RS41 2021-07-12 01:11:00 48.0874 12.215 272 ° 4 km/h 609 m -9.6 m/s 402.30 MHz Waldkraiburg (DE) 0.00 km FOUND
T1240200 RS41 2021-07-11 13:11:50 48.3755 12.0682 341 ° 7 km/h 786 m -5.5 m/s 402.30 MHz Erding (DE) 0.00 km FOUND
T1340530 RS41 2021-07-11 00:46:53 48.546 11.5701 82 ° 24 km/h 611 m -9.5 m/s 402.30 MHz Pfaffenhofen an der Ilm (DE) 0.00 km FOUND
T1250680 RS41 2021-07-10 13:25:41 48.509 11.9838 252 ° 22 km/h 743 m -4.4 m/s 402.30 MHz Landshut (DE) 0.00 km UNKNOWN
T1340444 RS41 2021-07-10 02:07:33 48.3001 12.4755 10 ° 7 km/h 869 m -2.8 m/s 402.30 MHz Waldkraiburg (DE) 0.00 km FOUND
T1340570 RS41 2021-07-09 13:29:35 48.4202 12.1668 85 ° 28 km/h 682 m -3.9 m/s 402.30 MHz Landshut (DE) 0.00 km UNKNOWN
T1340630 RS41 2021-07-09 01:43:00 49.2767 10.9759 147 ° 31 km/h 600 m -2.7 m/s 402.30 MHz Schwabach (DE) 0.00 km UNKNOWN
T1241056 RS41 2021-07-08 12:41:30 49.3417 11.7228 9 ° 22 km/h 1237 m -7.6 m/s 402.300 MHz Amberg (DE) 0.00 km FOUND
R1820620 RS41 2021-07-08 11:20:00 49.419 11.6892 202 ° 20 km/h 702 m -2.5 m/s 403.970 MHz Sulzbach-Rosenberg (DE) 0.00 km FOUND
T1250690 RS41 2021-07-08 01:00:31 49.0539 11.6702 259 ° 20 km/h 746 m -11.3 m/s 402.30 MHz Neumarkt in der Oberpfalz (DE) 0.00 km FOUND
T1250095 RS41 2021-07-07 14:07:30 49.7066 12.5743 153 ° 13 km/h 1183 m -1.6 m/s 402.30 MHz Tachov (CZ) 0.00 km FOUND
T1250670 RS41 2021-07-07 01:53:30 49.2144 12.7033 193 ° 11 km/h 594 m -2.5 m/s 402.30 MHz Domažlice (CZ) 0.00 km UNKNOWN
T1240016 RS41 2021-07-06 19:03:13 48.9975 12.2864 157 ° 50 km/h 1168 m -9.0 m/s 402.30 MHz Regensburg (DE) 0.00 km UNKNOWN
T1250664 RS41 2021-07-06 13:47:50 48.9624 12.3065 292 ° 11 km/h 963 m -4.4 m/s 402.30 MHz Regensburg (DE) 0.00 km UNKNOWN
T1231042 RS41 2021-07-06 08:04:57 48.7452 12.6538 324 ° 24 km/h 659 m -2.5 m/s 402.30 MHz Straubing (DE) 0.00 km FOUND
T1240162 RS41 2021-07-06 01:20:12 48.3832 12.402 344 ° 11 km/h 795 m -4.1 m/s 402.30 MHz Waldkraiburg (DE) 0.00 km UNKNOWN
T1241053 RS41 2021-07-05 12:51:25 48.1394 12.513 69 ° 7 km/h 639 m -6.7 m/s 402.30 MHz Waldkraiburg (DE) 0.00 km UNKNOWN
T1240161 RS41 2021-07-05 01:47:37 48.4489 11.9376 73 ° 22 km/h 585 m -11.2 m/s 402.300 MHz Erding (DE) 0.00 km UNKNOWN
T1240203 RS41 2021-07-04 13:31:31 48.5478 12.1774 105 ° 2 km/h 465 m -5.6 m/s 402.30 MHz Landshut (DE) 0.00 km UNKNOWN
T1340533 RS41 2021-07-04 01:01:40 48.4558 12.1064 71 ° 28 km/h 708 m -3.6 m/s 402.30 MHz Landshut (DE) 0.00 km UNKNOWN
T1130299 RS41 2021-07-03 13:14:00 48.044 12.2068 200 ° 9 km/h 625 m -4.5 m/s 402.300 MHz Rosenheim (DE) 0.00 km UNKNOWN
T1250087 RS41 2021-07-03 01:31:45 47.826 12.0133 301 ° 13 km/h 1073 m -3.3 m/s 402.30 MHz Rosenheim (DE) 0.00 km UNKNOWN
T1240158 RS41 2021-07-02 12:46:54 48.1699 11.7205 98 ° 17 km/h 562 m -9.5 m/s 402.30 MHz Vaterstetten (DE) 0.00 km FOUND
T1231041 RS41 2021-07-02 01:36:24 48.1282 11.8727 77 ° 13 km/h 681 m -3.2 m/s 402.30 MHz Vaterstetten (DE) 0.00 km UNKNOWN
T1250090 RS41 2021-07-01 13:54:00 48.077 11.6467 83 ° 15 km/h 605 m -5.7 m/s 402.30 MHz Unterhaching (DE) 0.00 km FOUND
T1250089 RS41 2021-07-01 01:25:06 48.5234 12.2115 77 ° 39 km/h 795 m -3.8 m/s 402.30 MHz Landshut (DE) 0.00 km UNKNOWN
T1340550 RS41 2021-06-30 13:15:30 48.9068 11.8688 39 ° 30 km/h 700 m -3.9 m/s 402.30 MHz Regensburg (DE) 0.00 km FOUND
T1250502 RS41 2021-06-30 08:03:00 49.0438 12.4303 89 ° 33 km/h 1263 m -2.7 m/s 402.30 MHz Straubing (DE) 0.00 km FOUND
T1240159 RS41 2021-06-30 02:04:30 49.0128 11.9455 88 ° 35 km/h 660 m -1.9 m/s 402.30 MHz Regensburg (DE) 0.00 km FOUND
T1240202 RS41 2021-06-29 20:03:21 48.8847 12.1766 116 ° 43 km/h 1047 m -5.6 m/s 402.30 MHz Regensburg (DE) 0.00 km FOUND
T1231039 RS41 2021-06-29 20:01:23 48.6617 11.8714 56 ° 33 km/h 719 m -3.8 m/s 404.70 MHz Landshut (DE) 0.00 km FOUND
T1340531 RS41 2021-06-29 12:40:22 48.7366 11.7195 277 ° 19 km/h 538 m -14.3 m/s 402.30 MHz Ingolstadt (DE) 0.00 km FOUND
T1231040 RS41 2021-06-29 08:05:30 49.2591 11.5667 72 ° 13 km/h 1172 m -1.9 m/s 402.30 MHz Neumarkt in der Oberpfalz (DE) 0.00 km LOST
T1231033 RS41 2021-06-29 01:17:20 48.6082 11.6436 84 ° 13 km/h 536 m -3.9 m/s 402.30 MHz Pfaffenhofen an der Ilm (DE) 0.00 km UNKNOWN
T1231044 RS41 2021-06-28 19:55:49 48.8101 11.956 234 ° 35 km/h 668 m -2.0 m/s 402.300 MHz Regensburg (DE) 0.00 km UNKNOWN
T1240032 RS41 2021-06-28 12:50:03 48.5958 11.935 264 ° 17 km/h 793 m -7.5 m/s 402.30 MHz Landshut (DE) 0.00 km UNKNOWN
T1240201 RS41 2021-06-28 07:41:10 48.5283 12.3276 336 ° 9 km/h 656 m -2.9 m/s 402.30 MHz Landshut (DE) 0.00 km FOUND
T1231034 RS41 2021-06-28 02:09:12 48.46 12.1549 38 ° 9 km/h 664 m -1.8 m/s 402.30 MHz Landshut (DE) 0.00 km UNKNOWN
T1340547 RS41 2021-06-27 13:49:22 48.3303 12.3185 280 ° 17 km/h 791 m -3.7 m/s 402.30 MHz Waldkraiburg (DE) 0.00 km FOUND
T1240191 RS41 2021-06-27 06:50:34 48.2241 11.6675 318 ° 13 km/h 560 m -7.8 m/s 402.300 MHz Unterschleißheim (DE) 0.00 km UNKNOWN
T1340412 RS41 2021-06-27 00:49:22 48.225 11.7202 305 ° 13 km/h 566 m -11.5 m/s 402.30 MHz Unterschleißheim (DE) 0.00 km FOUND
T1231035 RS41 2021-06-26 13:00:52 48.4057 11.6932 246 ° 20 km/h 856 m -5.5 m/s 402.30 MHz Freising (DE) 0.00 km UNKNOWN
T1231031 RS41 2021-06-26 07:03:36 48.3655 11.6396 272 ° 9 km/h 743 m -5.5 m/s 402.30 MHz Freising (DE) 0.00 km FOUND
T1240189 RS41 2021-06-26 01:26:15 48.1747 11.6619 119 ° 9 km/h 562 m -3.6 m/s 402.30 MHz München (DE) 0.00 km FOUND
T1240033 RS41 2021-06-25 18:53:14 48.2724 11.5847 127 ° 7 km/h 577 m -5.6 m/s 402.30 MHz Unterschleißheim (DE) 0.00 km FOUND
T1240160 RS41 2021-06-25 13:25:30 48.4805 11.6213 87 ° 39 km/h 1050 m -4.1 m/s 402.30 MHz Pfaffenhofen an der Ilm (DE) 0.00 km FOUND
T1340532 RS41 2021-06-25 07:55:01 48.5099 11.7267 48 ° 20 km/h 664 m -3.9 m/s 402.30 MHz Freising (DE) 0.00 km UNKNOWN
T1340551 RS41 2021-06-25 02:05:59 48.651 11.4993 56 ° 30 km/h 531 m -3.3 m/s 402.30 MHz Pfaffenhofen an der Ilm (DE) 0.00 km FOUND
T1240024 RS41 2021-06-24 18:48:00 48.7223 11.8563 127 ° 20 km/h 977 m -5.9 m/s 402.30 MHz Landshut (DE) 0.00 km LOST
T1240035 RS41 2021-06-24 13:05:00 49.0232 12.057 339 ° 6 km/h 641 m -4.6 m/s 402.30 MHz Regensburg (DE) 0.00 km FOUND
T1240034 RS41 2021-06-23 13:15:01 49.0146 12.0544 214 ° 13 km/h 880 m -4.4 m/s 402.30 MHz Regensburg (DE) 0.00 km FOUND
T1340546 RS41 2021-06-23 01:08:27 48.7202 11.708 81 ° 9 km/h 759 m -7.9 m/s 402.30 MHz Ingolstadt (DE) 0.00 km NEED ATTENTION
T1231043 RS41 2021-06-22 19:43:00 48.9483 12.001 158 ° 13 km/h 592 m -1.6 m/s 402.30 MHz Regensburg (DE) 0.00 km FOUND
T1340544 RS41 2021-06-22 13:06:00 48.9559 11.763 235 ° 7 km/h 649 m -5.8 m/s 402.300 MHz Regensburg (DE) 0.00 km FOUND
T1231027 RS41 2021-06-22 01:51:26 48.9096 12.1035 179 ° 30 km/h 1185 m -2.2 m/s 402.30 MHz Regensburg (DE) 0.00 km UNKNOWN
T1240018 RS41 2021-06-21 20:05:30 49.0976 11.9135 161 ° 33 km/h 563 m -3.3 m/s 402.30 MHz Regensburg (DE) 0.00 km LOST
T1240015 RS41 2021-06-21 13:06:34 48.8226 12.1224 158 ° 7 km/h 1173 m -3.4 m/s 402.30 MHz Regensburg (DE) 0.00 km FOUND
R1820631 RS41 2021-06-21 11:21:45 48.7242 11.8841 77 ° 17 km/h 622 m -3.4 m/s 403.910 MHz Landshut (DE) 0.00 km LOST
S1440719 RS41 2021-06-21 07:29:05 48.8564 11.5794 49 ° 13 km/h 529 m -2.6 m/s 402.30 MHz Ingolstadt (DE) 0.00 km NEED ATTENTION
S1440817 RS41 2021-06-21 01:13:27 48.7638 11.653 91 ° 13 km/h 473 m -4.9 m/s 402.30 MHz Ingolstadt (DE) 0.00 km FOUND
S1510071 RS41 2021-06-20 19:22:12 48.844 11.4731 249 ° 17 km/h 507 m -4.6 m/s 402.30 MHz Ingolstadt (DE) 0.00 km FOUND
S1440811 RS41 2021-06-20 12:54:24 48.6348 11.5387 210 ° 2 km/h 541 m -7.6 m/s 402.30 MHz Pfaffenhofen an der Ilm (DE) 0.00 km FOUND
S1610564 RS41 2021-06-20 07:49:26 48.3033 12.1529 125 ° 30 km/h 646 m -2.5 m/s 402.30 MHz Erding (DE) 0.00 km FOUND
S1610777 RS41 2021-06-20 02:10:24 48.2755 12.2496 300 ° 28 km/h 695 m -1.9 m/s 402.30 MHz Waldkraiburg (DE) 0.00 km NEED ATTENTION
T1340420 RS41 2021-06-19 13:50:04 48.4444 11.8776 345 ° 4 km/h 589 m -1.6 m/s 402.30 MHz Freising (DE) 0.00 km FOUND
T1240187 RS41 2021-06-19 07:46:08 48.26 11.8348 79 ° 4 km/h 574 m -2.4 m/s 402.30 MHz Erding (DE) 0.00 km FOUND
S1610851 RS41 2021-06-19 01:48:38 48.2393 11.7014 86 ° 17 km/h 540 m -2.2 m/s 402.30 MHz Unterschleißheim (DE) 0.00 km FOUND
T1231175 RS41 2021-06-18 13:24:32 48.4995 11.099 249 ° 2 km/h 768 m -5.6 m/s 402.30 MHz Aichach (DE) 0.00 km FOUND
T1250503 RS41 2021-06-18 07:31:12 48.3945 10.7689 75 ° 7 km/h 913 m -3.8 m/s 402.300 MHz Neusäß (DE) 0.00 km FOUND
T1240025 RS41 2021-06-18 00:52:59 48.2615 11.0751 261 ° 15 km/h 894 m -3.7 m/s 402.301 MHz Königsbrunn (DE) 0.00 km FOUND
T1240021 RS41 2021-06-17 13:19:58 48.4153 10.9745 159 ° 11 km/h 1021 m -4.0 m/s 402.30 MHz Augsburg (DE) 0.00 km FOUND
S1620314 RS41 2021-06-17 01:06:33 48.3124 10.8865 306 ° 20 km/h 696 m -4.7 m/s 402.30 MHz Königsbrunn (DE) 0.00 km FOUND
S1440814 RS41 2021-06-16 13:21:39 48.088 10.8534 249 ° 7 km/h 883 m -4.4 m/s 402.30 MHz Landsberg am Lech (DE) 0.00 km FOUND
T1231030 RS41 2021-06-16 07:15:44 47.8346 10.9004 274 ° 6 km/h 898 m -3.8 m/s 402.30 MHz Weilheim in Oberbayern (DE) 0.00 km UNKNOWN
T1231029 RS41 2021-06-16 01:20:21 47.6929 11.182 159 ° 7 km/h 1840 m -3.3 m/s 402.30 MHz Weilheim in Oberbayern (DE) 0.00 km UNKNOWN
S1620678 RS41 2021-06-15 13:09:00 47.9288 11.5909 108 ° 4 km/h 1067 m -6.9 m/s 402.30 MHz Geretsried (DE) 0.00 km UNKNOWN
S1610519 RS41 2021-06-15 07:07:36 47.8846 11.4002 13 ° 4 km/h 942 m -8.4 m/s 402.30 MHz Geretsried (DE) 0.00 km UNKNOWN
S1630164 RS41 2021-06-15 00:52:00 47.864 11.4692 4 ° 7 km/h 913 m -7.9 m/s 402.30 MHz Geretsried (DE) 0.00 km FOUND
S1630051 RS41 2021-06-14 12:45:44 47.7774 11.5159 248 ° 7 km/h 934 m -9.6 m/s 402.30 MHz Geretsried (DE) 0.00 km NEED ATTENTION
S1610563 RS41 2021-06-14 07:58:32 47.1893 11.4454 119 ° 6 km/h 1368 m -2.6 m/s 402.30 MHz Sistrans (AT) 0.00 km UNKNOWN
S1440827 RS41 2021-06-14 01:06:40 47.5809 11.4945 87 ° 13 km/h 1827 m -5.7 m/s 402.30 MHz Achenkirch (AT) 0.00 km UNKNOWN
T1340552 RS41 2021-06-13 12:43:25 47.5045 11.5539 99 ° 19 km/h 1936 m -9.6 m/s 402.30 MHz Achenkirch (AT) 0.00 km UNKNOWN
T1340548 RS41 2021-06-13 07:38:00 46.9767 11.8387 158 ° 74 km/h 3970 m -5.7 m/s 402.30 MHz Brunico (IT) 0.00 km UNKNOWN
T1240190 RS41 2021-06-13 02:22:08 47.2253 12.1393 126 ° 52 km/h 2929 m -4.2 m/s 404.70 MHz Neukirchen am Großvenediger (AT) 0.00 km UNKNOWN
T1340543 RS41 2021-06-13 00:05:32 47.4483 12.274 102 ° 31 km/h 1629 m -5.2 m/s 402.30 MHz Brixen im Thale (AT) 0.00 km UNKNOWN
T1240019 RS41 2021-06-12 13:00:00 47.7249 11.6861 120 ° 26 km/h 1309 m -7.7 m/s 402.30 MHz Geretsried (DE) 0.00 km UNKNOWN
S1740225 RS41 2021-06-12 07:14:00 47.5899 11.5331 108 ° 7 km/h 1481 m -4.5 m/s 402.30 MHz Achenkirch (AT) 0.00 km UNKNOWN
S1610511 RS41 2021-06-12 01:27:36 47.5607 11.1574 47 ° 15 km/h 1053 m -2.9 m/s 402.30 MHz Garmisch-Partenkirchen (DE) 0.00 km UNKNOWN
S1810063 RS41 2021-06-11 12:42:42 47.7297 10.9734 47 ° 7 km/h 1123 m -6.4 m/s 402.30 MHz Weilheim in Oberbayern (DE) 0.00 km UNKNOWN
T1231038 RS41 2021-06-11 06:54:18 47.7731 11.2314 73 ° 7 km/h 794 m -5.4 m/s 402.30 MHz Weilheim in Oberbayern (DE) 0.00 km UNKNOWN
T1240193 RS41 2021-06-11 00:49:23 47.9239 11.3822 43 ° 17 km/h 788 m -12.7 m/s 402.30 MHz Starnberg (DE) 0.00 km FOUND
T1231028 RS41 2021-06-10 13:51:55 47.5014 11.2689 186 ° 20 km/h 1583 m -3.3 m/s 402.30 MHz Garmisch-Partenkirchen (DE) 0.00 km UNKNOWN
T1240196 RS41 2021-06-10 07:38:47 47.4717 11.2181 153 ° 9 km/h 1934 m -2.5 m/s 402.30 MHz Garmisch-Partenkirchen (DE) 0.00 km UNKNOWN
T1240014 RS41 2021-06-10 01:04:46 47.7931 11.3323 357 ° 7 km/h 726 m -6.4 m/s 402.30 MHz Geretsried (DE) 0.00 km FOUND
T1340549 RS41 2021-06-09 19:32:00 47.8473 11.6612 341 ° 17 km/h 1058 m -2.4 m/s 402.30 MHz Geretsried (DE) 0.00 km UNKNOWN
T1240020 RS41 2021-06-09 14:04:12 47.9917 11.5902 141 ° 28 km/h 692 m -2.8 m/s 402.30 MHz Unterhaching (DE) 0.00 km FOUND
T1240023 RS41 2021-06-09 07:48:00 47.9976 11.4163 198 ° 4 km/h 800 m -3.8 m/s 402.30 MHz Starnberg (DE) 0.00 km FOUND
S1510397 RS41 2021-06-09 00:39:00 48.0917 11.5247 89 ° 11 km/h 650 m -9.6 m/s 402.30 MHz München (DE) 0.00 km UNKNOWN
S1440826 RS41 2021-06-08 19:24:00 48.0974 11.41 193 ° 15 km/h 699 m -4.8 m/s 402.30 MHz Germering (DE) 0.00 km FOUND
S1440815 RS41 2021-06-08 13:51:44 48.2233 11.4137 261 ° 19 km/h 796 m -12.0 m/s 402.300 MHz Dachau (DE) 0.00 km UNKNOWN
S1440669 RS41 2021-06-08 08:21:06 48.2115 11.0391 213 ° 6 km/h 956 m -1.6 m/s 402.30 MHz Königsbrunn (DE) 0.00 km UNKNOWN
T1240192 RS41 2021-06-08 07:07:34 48.2799 11.3848 280 ° 4 km/h 756 m -6.9 m/s 404.70 MHz Dachau (DE) 0.00 km UNKNOWN
S1520433 RS41 2021-06-08 01:42:53 48.2501 11.2079 269 ° 13 km/h 1034 m -2.7 m/s 402.30 MHz Fürstenfeldbruck (DE) 0.00 km NEED ATTENTION
S1610497 RS41 2021-06-07 13:34:58 48.3756 11.0508 336 ° 13 km/h 678 m -3.7 m/s 402.30 MHz Aichach (DE) 0.00 km FOUND
T1240013 RS41 2021-06-07 06:49:01 48.2618 11.1368 319 ° 13 km/h 850 m -12.4 m/s 402.30 MHz Fürstenfeldbruck (DE) 0.00 km UNKNOWN
S1440821 RS41 2021-06-07 00:45:00 48.2058 11.0975 357 ° 2 km/h 1059 m -6.7 m/s 402.30 MHz Fürstenfeldbruck (DE) 0.00 km FOUND
T1240026 RS41 2021-06-06 20:09:39 48.1117 10.9381 39 ° 4 km/h 809 m -2.1 m/s 402.30 MHz Landsberg am Lech (DE) 0.00 km FOUND
S1640332 RS41 2021-06-06 14:12:41 48.1241 10.9473 80 ° 19 km/h 812 m -1.8 m/s 402.30 MHz Landsberg am Lech (DE) 0.00 km FOUND
T1231160 RS41 2021-06-06 07:50:00 48.0515 11.0582 74 ° 33 km/h 1047 m -3.9 m/s 402.30 MHz Landsberg am Lech (DE) 0.00 km FOUND
S1740324 RS41 2021-06-06 00:49:47 48.2621 11.6141 75 ° 22 km/h 578 m -10.2 m/s 402.30 MHz Unterschleißheim (DE) 0.00 km FOUND
S1810075 RS41 2021-06-05 13:25:58 48.3775 11.7599 133 ° 19 km/h 754 m -2.0 m/s 402.30 MHz Freising (DE) 0.00 km UNKNOWN
S1810077 RS41 2021-06-05 07:10:39 48.2289 11.7074 85 ° 20 km/h 559 m -4.5 m/s 402.30 MHz Unterschleißheim (DE) 0.00 km FOUND
S1440717 RS41 2021-06-05 02:01:21 48.3042 11.7128 60 ° 11 km/h 596 m -1.9 m/s 402.30 MHz Unterschleißheim (DE) 0.00 km FOUND
S1440666 RS41 2021-06-04 13:38:16 48.3445 11.7946 235 ° 15 km/h 610 m -3.6 m/s 402.30 MHz Freising (DE) 0.00 km FOUND
S1630136 RS41 2021-06-04 07:07:23 48.2163 11.7057 1 ° 7 km/h 557 m -4.2 m/s 402.30 MHz Unterschleißheim (DE) 0.00 km UNKNOWN
S1630178 RS41 2021-06-04 02:04:10 48.1866 12.0239 322 ° 19 km/h 753 m -1.9 m/s 402.30 MHz Erding (DE) 0.00 km FOUND
S1510571 RS41 2021-06-03 14:07:28 47.8172 11.9798 257 ° 9 km/h 1043 m -3.1 m/s 402.30 MHz Rosenheim (DE) 0.00 km UNKNOWN
S1510137 RS41 2021-06-03 07:40:47 47.5636 12.0216 135 ° 7 km/h 1765 m -2.5 m/s 402.30 MHz Kirchbichl (AT) 0.00 km UNKNOWN
S1610512 RS41 2021-06-03 00:47:00 47.9014 11.8156 82 ° 2 km/h 912 m -6.1 m/s 402.30 MHz Vaterstetten (DE) 0.00 km UNKNOWN
S1740313 RS41 2021-06-02 13:02:00 48.0337 11.9434 192 ° 17 km/h 829 m -5.2 m/s 402.30 MHz Vaterstetten (DE) 0.00 km FOUND
S1530254 RS41 2021-06-02 07:15:13 47.9802 11.906 107 ° 7 km/h 754 m -6.2 m/s 402.30 MHz Vaterstetten (DE) 0.00 km UNKNOWN
S1350380 RS41 2021-06-02 01:39:10 47.8667 11.9686 304 ° 19 km/h 1022 m -2.4 m/s 402.30 MHz Rosenheim (DE) 0.00 km UNKNOWN
S1240992 RS41 2021-06-01 14:25:48 47.6893 11.8121 66 ° 4 km/h 1611 m -2.4 m/s 402.30 MHz Achenkirch (AT) 0.00 km UNKNOWN
S1240993 RS41 2021-06-01 06:28:16 47.9613 11.4827 278 ° 20 km/h 794 m -16.0 m/s 402.30 MHz Starnberg (DE) 0.00 km UNKNOWN
S1520434 RS41 2021-06-01 00:57:53 47.8428 11.536 291 ° 15 km/h 778 m -5.1 m/s 402.30 MHz Geretsried (DE) 0.00 km NEED ATTENTION
S1610532 RS41 2021-05-31 13:06:40 47.8658 11.386 213 ° 22 km/h 1033 m -5.4 m/s 402.30 MHz Geretsried (DE) 0.00 km FOUND
S1520438 RS41 2021-05-31 07:27:28 47.6398 11.2708 164 ° 15 km/h 1163 m -1.8 m/s 402.30 MHz Garmisch-Partenkirchen (DE) 0.00 km UNKNOWN
S1420732 RS41 2021-05-31 00:37:52 47.8603 11.4086 299 ° 13 km/h 794 m -15.7 m/s 402.30 MHz Geretsried (DE) 0.00 km FOUND
S1440802 RS41 2021-05-30 13:05:57 47.5869 11.4713 147 ° 9 km/h 2638 m -4.9 m/s 402.301 MHz Achenkirch (AT) 0.00 km UNKNOWN
S1440660 RS41 2021-05-30 07:42:47 47.3417 11.2541 292 ° 9 km/h 2037 m -2.9 m/s 402.30 MHz Seefeld in Tirol (AT) 0.00 km UNKNOWN
S1610531 RS41 2021-05-30 01:03:03 47.6529 11.2653 237 ° 11 km/h 1501 m -4.1 m/s 402.30 MHz Garmisch-Partenkirchen (DE) 0.00 km UNKNOWN
S1620050 RS41 2021-05-29 12:38:30 47.9849 12.3014 149 ° 9 km/h 746 m -8.4 m/s 402.30 MHz Rosenheim (DE) 0.00 km FOUND
S1630009 RS41 2021-05-29 06:51:00 47.9128 12.5585 227 ° 4 km/h 814 m -5.8 m/s 402.300 MHz Traunreut (DE) 0.00 km UNKNOWN
S1510135 RS41 2021-05-29 01:45:53 47.7349 13.3944 126 ° 17 km/h 1583 m -2.2 m/s 402.30 MHz Sankt Wolfgang im Salzkammergut (AT) 0.00 km UNKNOWN
S1510134 RS41 2021-05-28 12:33:02 47.9293 12.3175 187 ° 13 km/h 890 m -8.8 m/s 402.30 MHz Rosenheim (DE) 0.00 km UNKNOWN
S1620214 RS41 2021-05-28 06:56:54 47.6547 12.3848 68 ° 2 km/h 848 m -6.0 m/s 402.30 MHz Kössen (AT) 0.00 km FOUND
S1420750 RS41 2021-05-28 00:43:59 47.7965 12.1199 73 ° 15 km/h 1250 m -10.6 m/s 402.30 MHz Rosenheim (DE) 0.00 km UNKNOWN
S1610522 RS41 2021-05-27 12:46:02 48.303 12.3865 67 ° 22 km/h 883 m -9.7 m/s 402.30 MHz Waldkraiburg (DE) 0.00 km FOUND
S1630035 RS41 2021-05-27 07:10:55 48.4448 13.0228 53 ° 15 km/h 635 m -3.2 m/s 402.30 MHz Braunau am Inn (AT) 0.00 km FOUND
S1440819 RS41 2021-05-27 01:04:53 48.4179 12.864 111 ° 24 km/h 767 m -5.4 m/s 402.30 MHz Braunau am Inn (AT) 0.00 km FOUND
S1521189 RS41 2021-05-26 13:07:59 48.4936 13.1839 126 ° 20 km/h 927 m -4.5 m/s 402.30 MHz Schärding (AT) 0.00 km FOUND
S1620213 RS41 2021-05-26 06:43:51 48.3613 12.8434 37 ° 17 km/h 636 m -11.3 m/s 402.300 MHz Braunau am Inn (AT) 0.00 km FOUND
S1630050 RS41 2021-05-26 00:49:59 48.4021 12.8963 85 ° 44 km/h 790 m -10.0 m/s 402.30 MHz Braunau am Inn (AT) 0.00 km FOUND
S1440718 RS41 2021-05-25 13:27:15 48.6961 12.5767 80 ° 50 km/h 1332 m -12.8 m/s 404.700 MHz Straubing (DE) 0.00 km FOUND
S1610529 RS41 2021-05-25 13:14:12 48.9244 13.0125 86 ° 63 km/h 1668 m -4.2 m/s 402.30 MHz Deggendorf (DE) 0.00 km UNKNOWN
S1510126 RS41 2021-05-25 07:23:57 49.2993 13.3517 88 ° 24 km/h 807 m -2.2 m/s 402.30 MHz Klatovy (CZ) 0.00 km UNKNOWN
S1510133 RS41 2021-05-25 00:46:21 48.968 12.5643 89 ° 31 km/h 2349 m -9.8 m/s 402.30 MHz Straubing (DE) 0.00 km FOUND
S1630012 RS41 2021-05-24 12:41:30 49.0392 12.392 354 ° 33 km/h 1506 m -6.8 m/s 402.30 MHz Regensburg (DE) 0.00 km UNKNOWN
S1640336 RS41 2021-05-24 06:51:33 48.7586 12.7083 340 ° 11 km/h 1755 m -6.0 m/s 402.30 MHz Straubing (DE) 0.00 km UNKNOWN
S1630034 RS41 2021-05-24 01:50:45 48.7857 13.4766 336 ° 19 km/h 1245 m -2.0 m/s 402.30 MHz Passau (DE) 0.00 km UNKNOWN
S1440825 RS41 2021-05-23 12:52:31 48.4673 13.1346 73 ° 24 km/h 861 m -4.7 m/s 402.30 MHz Schärding (AT) 0.00 km FOUND
S1630025 RS41 2021-05-23 06:29:53 48.8131 13.6036 114 ° 17 km/h 1341 m -3.2 m/s 402.30 MHz Ulrichsberg (AT) 0.00 km UNKNOWN
S1440799 RS41 2021-05-23 01:41:12 48.7692 14.2585 86 ° 28 km/h 905 m -2.6 m/s 402.30 MHz Český Krumlov (CZ) 0.00 km UNKNOWN
S1510121 RS41 2021-05-22 13:17:44 48.6074 14.032 72 ° 46 km/h 946 m -4.3 m/s 402.30 MHz Haslach an der Mühl (AT) 0.00 km UNKNOWN
S1520435 RS41 2021-05-22 07:18:30 48.7247 13.4908 88 ° 48 km/h 1074 m -3.7 m/s 402.30 MHz Passau (DE) 0.00 km UNKNOWN
S1520437 RS41 2021-05-22 01:09:31 48.5638 13.0349 79 ° 44 km/h 947 m -9.4 m/s 402.300 MHz Passau (DE) 0.00 km FOUND
S1440801 RS41 2021-05-21 13:24:00 48.4758 13.5277 119 ° 30 km/h 571 m -2.8 m/s 402.30 MHz Münzkirchen (AT) 0.00 km UNKNOWN
S1440828 RS41 2021-05-21 06:43:50 48.0495 12.6648 17 ° 7 km/h 650 m -12.4 m/s 402.30 MHz Traunreut (DE) 0.00 km FOUND
S1520436 RS41 2021-05-21 00:47:30 47.8217 12.7279 11 ° 19 km/h 952 m -7.0 m/s 402.30 MHz Grossgmain (AT) 0.00 km UNKNOWN
S1440749 RS41 2021-05-20 12:41:00 47.7499 11.8895 64 ° 26 km/h 1327 m -13.3 m/s 402.30 MHz Rosenheim (DE) 0.00 km UNKNOWN
S1440843 RS41 2021-05-20 06:36:01 48.0376 11.7315 79 ° 15 km/h 679 m -13.1 m/s 402.30 MHz Vaterstetten (DE) 0.00 km UNKNOWN
S1510368 RS41 2021-05-20 00:39:00 48.0886 11.7544 73 ° 20 km/h 641 m -10.0 m/s 402.30 MHz Vaterstetten (DE) 0.00 km FOUND
S1440803 RS41 2021-05-19 13:15:31 48.1844 12.0087 68 ° 33 km/h 723 m -5.4 m/s 402.30 MHz Erding (DE) 0.00 km FOUND
S1630179 RS41 2021-05-19 06:59:45 48.2556 11.9233 127 ° 22 km/h 633 m -5.5 m/s 402.30 MHz Erding (DE) 0.00 km FOUND
S1510124 RS41 2021-05-19 00:44:10 48.3613 12.11 122 ° 31 km/h 888 m -11.3 m/s 402.30 MHz Erding (DE) 0.00 km UNKNOWN
S1440842 RS41 2021-05-18 12:47:57 48.3796 12.4126 103 ° 30 km/h 973 m -10.2 m/s 402.30 MHz Waldkraiburg (DE) 0.00 km FOUND
S1610846 RS41 2021-05-18 06:37:27 48.2457 12.2686 93 ° 44 km/h 782 m -12.7 m/s 402.30 MHz Waldkraiburg (DE) 0.00 km UNKNOWN
S1630049 RS41 2021-05-18 00:50:49 48.1936 12.5402 87 ° 33 km/h 520 m -5.8 m/s 402.30 MHz Waldkraiburg (DE) 0.00 km FOUND
S1640329 RS41 2021-05-17 12:46:57 48.3449 12.4135 98 ° 54 km/h 760 m -8.1 m/s 402.30 MHz Waldkraiburg (DE) 0.00 km FOUND
S1440800 RS41 2021-05-17 07:28:44 48.5198 12.7468 83 ° 52 km/h 767 m -3.2 m/s 402.300 MHz Braunau am Inn (AT) 0.00 km FOUND
S1510390 RS41 2021-05-17 01:09:18 48.5516 12.7776 82 ° 50 km/h 860 m -4.4 m/s 402.30 MHz Deggendorf (DE) 0.00 km FOUND
S1630180 RS41 2021-05-16 13:09:35 48.2904 13.1865 27 ° 9 km/h 421 m -5.3 m/s 402.30 MHz Altheim (AT) 0.00 km FOUND
S1620245 RS41 2021-05-16 07:12:49 48.1358 13.0244 4 ° 15 km/h 530 m -4.3 m/s 402.30 MHz Neukirchen an der Enknach (AT) 0.00 km FOUND
S1440844 RS41 2021-05-16 00:50:23 48.2609 12.5638 59 ° 19 km/h 500 m -5.6 m/s 402.30 MHz Waldkraiburg (DE) 0.00 km LOST
S1440665 RS41 2021-05-15 13:25:04 48.2819 12.6671 315 ° 6 km/h 578 m -4.1 m/s 402.300 MHz Waldkraiburg (DE) 0.00 km FOUND
S1620212 RS41 2021-05-15 07:57:31 48.3804 12.3072 90 ° 17 km/h 910 m -2.3 m/s 402.30 MHz Waldkraiburg (DE) 0.00 km FOUND
S1620215 RS41 2021-05-15 01:08:50 48.4983 11.8029 109 ° 35 km/h 1182 m -3.6 m/s 402.30 MHz Freising (DE) 0.00 km FOUND
S1620216 RS41 2021-05-14 12:47:17 48.525 11.5583 106 ° 13 km/h 1038 m -7.8 m/s 402.30 MHz Pfaffenhofen an der Ilm (DE) 0.00 km FOUND
S1510389 RS41 2021-05-14 07:35:00 48.5489 11.5925 88 ° 7 km/h 1061 m -3.8 m/s 402.30 MHz Pfaffenhofen an der Ilm (DE) 0.00 km LOST
S1510136 RS41 2021-05-14 01:56:00 48.6396 11.4454 95 ° 31 km/h 704 m -2.2 m/s 402.300 MHz Pfaffenhofen an der Ilm (DE) 0.00 km FOUND
S1440824 RS41 2021-05-13 13:01:29 48.485 11.1507 68 ° 9 km/h 959 m -3.4 m/s 402.30 MHz Aichach (DE) 0.00 km FOUND
S1440846 RS41 2021-05-13 06:46:41 48.3967 11.1705 108 ° 24 km/h 981 m -1.8 m/s 402.30 MHz Aichach (DE) 0.00 km FOUND
S1620211 RS41 2021-05-13 01:39:58 48.577 10.9118 151 ° 30 km/h 1568 m -2.3 m/s 402.30 MHz Aichach (DE) 0.00 km FOUND
S1610514 RS41 2021-05-12 13:52:20 48.7431 10.9947 140 ° 31 km/h 1296 m -2.2 m/s 402.30 MHz Neuburg an der Donau (DE) 0.00 km FOUND
S1610516 RS41 2021-05-12 07:27:03 48.6408 10.9916 130 ° 39 km/h 948 m -3.7 m/s 402.30 MHz Neuburg an der Donau (DE) 0.00 km FOUND
S1620331 RS41 2021-05-12 01:22:17 48.9724 11.1836 115 ° 44 km/h 945 m -3.4 m/s 402.30 MHz Neuburg an der Donau (DE) 0.00 km FOUND
S1610517 RS41 2021-05-11 14:07:00 49.4921 11.5566 76 ° 15 km/h 633 m -4.0 m/s 402.30 MHz Sulzbach-Rosenberg (DE) 0.00 km LOST
S1610496 RS41 2021-05-11 06:34:30 48.8884 11.8249 274 ° 4 km/h 710 m -8.0 m/s 402.30 MHz Regensburg (DE) 0.00 km FOUND
S1620677 RS41 2021-05-11 01:02:30 48.9925 11.6321 171 ° 13 km/h 735 m -4.5 m/s 402.30 MHz Ingolstadt (DE) 0.00 km FOUND
S1620676 RS41 2021-05-10 13:04:30 48.8161 12.094 267 ° 11 km/h 726 m -3.7 m/s 402.300 MHz Regensburg (DE) 0.00 km FOUND
S1620334 RS41 2021-05-10 07:47:25 48.8714 12.4291 354 ° 11 km/h 690 m -2.1 m/s 402.30 MHz Straubing (DE) 0.00 km UNKNOWN
S1620332 RS41 2021-05-10 00:57:30 48.6867 11.9384 52 ° 30 km/h 836 m -5.9 m/s 402.30 MHz Landshut (DE) 0.00 km FOUND
S1630033 RS41 2021-05-09 13:00:35 48.5688 12.2228 282 ° 20 km/h 462 m -7.6 m/s 402.30 MHz Landshut (DE) 0.00 km UNKNOWN
S1440715 RS41 2021-05-09 06:48:33 48.2715 12.2921 1 ° 24 km/h 794 m -8.9 m/s 402.30 MHz Waldkraiburg (DE) 0.00 km FOUND
S1610498 RS41 2021-05-09 00:51:23 48.0879 12.6122 7 ° 15 km/h 633 m -6.0 m/s 402.30 MHz Traunreut (DE) 0.00 km FOUND
S1620675 RS41 2021-05-08 13:04:05 47.5736 13.1745 184 ° 7 km/h 907 m -4.3 m/s 402.30 MHz Golling an der Salzach (AT) 0.00 km UNKNOWN
S1630032 RS41 2021-05-08 06:38:49 47.5042 13.0042 88 ° 31 km/h 2184 m -8.2 m/s 402.30 MHz Werfen (AT) 0.00 km UNKNOWN
S1630031 RS41 2021-05-08 00:44:20 47.9133 13.1792 183 ° 6 km/h 818 m -11.1 m/s 402.300 MHz Henndorf am Wallersee (AT) 0.00 km UNKNOWN
S1620674 RS41 2021-05-07 12:50:47 48.4393 13.6275 68 ° 33 km/h 602 m -4.8 m/s 402.30 MHz Sankt Florian am Inn (AT) 0.00 km UNKNOWN
S1620246 RS41 2021-05-07 07:57:08 48.6278 15.0795 100 ° 33 km/h 668 m -2.8 m/s 402.30 MHz Zwettl (AT) 0.00 km LOST
S1630052 RS41 2021-05-07 00:52:05 48.4512 13.7742 86 ° 46 km/h 751 m -7.3 m/s 402.30 MHz Natternbach (AT) 0.00 km UNKNOWN
S1620061 RS41 2021-05-06 13:59:53 48.4987 15.0281 40 ° 19 km/h 896 m -3.8 m/s 402.30 MHz Grossgerungs (AT) 0.00 km FOUND
S1620242 RS41 2021-05-06 06:25:27 48.2764 14.003 59 ° 6 km/h 353 m -4.2 m/s 402.30 MHz Fraham (AT) 0.00 km FOUND
S1620244 RS41 2021-05-06 01:40:56 48.3738 14.4735 85 ° 6 km/h 474 m -2.5 m/s 402.30 MHz Hagenberg im Mühlkreis (AT) 0.00 km FOUND
S1620333 RS41 2021-05-05 13:14:18 48.946 14.2693 75 ° 48 km/h 882 m -5.6 m/s 402.30 MHz České Budějovice (CZ) 0.00 km LOST
S1630084 RS41 2021-05-05 07:30:23 48.8928 14.1539 98 ° 24 km/h 978 m -3.7 m/s 402.30 MHz Český Krumlov (CZ) 0.00 km FOUND
S1620336 RS41 2021-05-05 01:16:54 48.6637 13.8264 87 ° 30 km/h 882 m -4.2 m/s 402.300 MHz Ulrichsberg (AT) 0.00 km UNKNOWN
S1620243 RS41 2021-05-04 14:20:23 48.7726 14.496 55 ° 37 km/h 750 m -4.7 m/s 402.30 MHz Kaplice (CZ) 0.00 km UNKNOWN
S1630113 RS41 2021-05-04 07:25:09 48.3582 13.5466 76 ° 13 km/h 532 m -4.8 m/s 402.30 MHz Andorf (AT) 0.00 km UNKNOWN
S1810078 RS41 2021-05-04 01:44:42 48.1373 13.8248 3 ° 11 km/h 504 m -2.5 m/s 402.300 MHz Lambach (AT) 0.00 km LOST
S1620241 RS41 2021-05-03 13:40:23 48.2241 13.8362 151 ° 20 km/h 475 m -3.0 m/s 402.30 MHz Grieskirchen (AT) 0.00 km UNKNOWN
S1650862 RS41 2021-05-03 06:48:54 48.3627 12.9984 95 ° 15 km/h 656 m -11.7 m/s 402.30 MHz Braunau am Inn (AT) 0.00 km FOUND
S1440833 RS41 2021-05-03 01:44:09 48.5954 13.755 117 ° 24 km/h 826 m -2.6 m/s 402.30 MHz Sarleinsbach (AT) 0.00 km UNKNOWN
S1620200 RS41 2021-05-02 13:54:12 49.0916 13.9033 122 ° 56 km/h 1166 m -2.2 m/s 402.30 MHz Vimperk (CZ) 0.00 km FOUND
S1630011 RS41 2021-05-02 06:56:12 48.6814 12.9429 126 ° 43 km/h 851 m -11.3 m/s 402.30 MHz Deggendorf (DE) 0.00 km FOUND
S1630007 RS41 2021-05-02 00:35:08 48.9105 12.5067 17 ° 17 km/h 2387 m -3.6 m/s 402.30 MHz Straubing (DE) 0.00 km UNKNOWN
S1650836 RS41 2021-05-01 13:41:02 49.181 13.7664 274 ° 19 km/h 1146 m -2.9 m/s 402.30 MHz Strakonice (CZ) 0.00 km FOUND
S1630008 RS41 2021-05-01 07:30:36 48.8666 13.8634 101 ° 7 km/h 1200 m -3.4 m/s 402.30 MHz Prachatice (CZ) 0.00 km LOST
S1420776 RS41 2021-05-01 01:28:57 48.8059 13.6979 91 ° 13 km/h 1387 m -4.5 m/s 402.30 MHz Ulrichsberg (AT) 0.00 km UNKNOWN
S1620335 RS41 2021-04-30 14:04:41 48.9592 14.3349 340 ° 19 km/h 877 m -1.8 m/s 402.30 MHz České Budějovice (CZ) 0.00 km UNKNOWN
S1740228 RS41 2021-04-30 07:03:50 48.6009 13.4998 71 ° 9 km/h 927 m -3.8 m/s 402.30 MHz Passau (DE) 0.00 km LOST
S1640335 RS41 2021-04-30 02:07:13 48.8786 14.2228 63 ° 30 km/h 933 m -3.0 m/s 402.30 MHz Český Krumlov (CZ) 0.00 km UNKNOWN
S1440816 RS41 2021-04-29 14:15:55 48.9172 13.6449 73 ° 22 km/h 1536 m -3.7 m/s 402.30 MHz Vimperk (CZ) 0.00 km UNKNOWN
S1610520 RS41 2021-04-29 12:09:12 48.7079 12.7551 70 ° 22 km/h 883 m -3.8 m/s 402.30 MHz Deggendorf (DE) 0.00 km FOUND
S1440813 RS41 2021-04-29 07:18:44 48.7147 13.515 71 ° 20 km/h 1038 m -3.7 m/s 402.30 MHz Passau (DE) 0.00 km UNKNOWN
S1440834 RS41 2021-04-29 02:05:04 48.982 13.666 39 ° 43 km/h 1262 m -2.5 m/s 402.30 MHz Vimperk (CZ) 0.00 km UNKNOWN
S1440829 RS41 2021-04-28 13:29:04 48.4436 12.6978 229 ° 2 km/h 739 m -7.8 m/s 404.70 MHz Braunau am Inn (AT) 0.00 km FOUND
S1610495 RS41 2021-04-28 11:41:56 48.3536 12.0529 286 ° 7 km/h 790 m -6.7 m/s 402.30 MHz Erding (DE) 0.00 km FOUND
S1610774 RS41 2021-04-28 06:27:37 48.4202 12.6912 317 ° 13 km/h 1101 m -16.3 m/s 402.30 MHz Braunau am Inn (AT) 0.00 km FOUND
S1650865 RS41 2021-04-28 01:50:50 48.3497 13.7308 272 ° 13 km/h 542 m -1.7 m/s 402.300 MHz Peuerbach (AT) 0.00 km LOST
S1440812 RS41 2021-04-27 13:21:59 48.2546 13.5947 269 ° 33 km/h 534 m -2.9 m/s 402.30 MHz Taiskirchen im Innkreis (AT) 0.00 km UNKNOWN
S1350344 RS41 2021-04-27 07:25:08 48.1205 13.4846 287 ° 39 km/h 690 m -2.7 m/s 402.30 MHz Waldzell (AT) 0.00 km FOUND
S1350384 RS41 2021-04-27 01:33:31 48.0202 13.7287 265 ° 35 km/h 686 m -2.4 m/s 402.30 MHz Attnang-Puchheim (AT) 0.00 km UNKNOWN
S1810076 RS41 2021-04-26 13:30:26 48.0946 13.8734 214 ° 11 km/h 471 m -2.3 m/s 402.30 MHz Lambach (AT) 0.00 km FOUND
S1350343 RS41 2021-04-26 07:56:55 47.867 14.7704 250 ° 17 km/h 1141 m -2.2 m/s 402.300 MHz Weyer Markt (AT) 0.00 km UNKNOWN
S1350345 RS41 2021-04-26 01:17:38 47.7207 14.0869 128 ° 6 km/h 2050 m -2.7 m/s 402.30 MHz Micheldorf in Oberösterreich (AT) 0.00 km UNKNOWN
S1650850 RS41 2021-04-25 13:08:17 47.7502 13.4846 69 ° 20 km/h 1835 m -3.0 m/s 402.30 MHz Sankt Wolfgang im Salzkammergut (AT) 0.00 km UNKNOWN
S1440832 RS41 2021-04-25 07:04:35 47.7357 13.4795 128 ° 15 km/h 1322 m -5.5 m/s 402.300 MHz Strobl (AT) 0.00 km UNKNOWN
S1610767 RS41 2021-04-25 00:52:45 47.9563 13.1488 98 ° 6 km/h 1050 m -4.8 m/s 402.30 MHz Köstendorf (AT) 0.00 km FOUND
S1650860 RS41 2021-04-24 13:58:12 47.7719 13.5328 151 ° 22 km/h 1366 m -3.5 m/s 402.30 MHz Strobl (AT) 0.00 km UNKNOWN
S1610847 RS41 2021-04-24 06:25:59 47.8405 12.4278 114 ° 4 km/h 1014 m -10.0 m/s 402.30 MHz Traunreut (DE) 0.00 km UNKNOWN
S1610770 RS41 2021-04-24 01:27:23 47.736 12.8313 52 ° 17 km/h 1421 m -3.3 m/s 402.30 MHz Grossgmain (AT) 0.00 km UNKNOWN
S1610848 RS41 2021-04-23 12:58:01 47.7339 12.4099 265 ° 4 km/h 1381 m -4.0 m/s 402.30 MHz Kössen (AT) 0.00 km UNKNOWN
S1740315 RS41 2021-04-23 07:03:22 47.6497 12.3405 96 ° 17 km/h 1498 m -4.7 m/s 402.30 MHz Kössen (AT) 0.00 km UNKNOWN
S1740318 RS41 2021-04-23 01:25:21 47.5211 12.5244 106 ° 11 km/h 1803 m -2.6 m/s 402.30 MHz Fieberbrunn (AT) 0.00 km UNKNOWN
S1420728 RS41 2021-04-22 13:51:00 47.716 12.9655 111 ° 22 km/h 1609 m -2.4 m/s 402.30 MHz Grossgmain (AT) 0.00 km UNKNOWN
S1610850 RS41 2021-04-22 07:37:51 47.842 12.7708 106 ° 22 km/h 774 m -3.6 m/s 402.30 MHz Grossgmain (AT) 0.00 km UNKNOWN
S1440831 RS41 2021-04-22 01:03:53 48.0719 12.4974 105 ° 20 km/h 742 m -4.5 m/s 402.30 MHz Traunreut (DE) 0.00 km UNKNOWN
S1610852 RS41 2021-04-21 12:43:31 48.1484 12.0054 190 ° 9 km/h 717 m -4.2 m/s 402.30 MHz Vaterstetten (DE) 0.00 km NEED ATTENTION
S1440661 RS41 2021-04-21 09:19:00 48.1001 12.1913 316 ° 7 km/h 564 m -2.9 m/s 402.30 MHz Waldkraiburg (DE) 0.00 km FOUND
S1440818 RS41 2021-04-21 00:54:06 48.0795 11.8453 2 ° 7 km/h 648 m -4.6 m/s 402.300 MHz Vaterstetten (DE) 0.00 km FOUND
S1610775 RS41 2021-04-20 13:01:30 48.0751 11.7591 332 ° 9 km/h 642 m -7.5 m/s 402.30 MHz Vaterstetten (DE) 0.00 km FOUND
S1420775 RS41 2021-04-20 07:11:49 47.9251 11.3469 125 ° 17 km/h 994 m -3.4 m/s 402.30 MHz Starnberg (DE) 0.00 km FOUND
S1440662 RS41 2021-04-20 00:57:35 48.0159 11.764 71 ° 20 km/h 717 m -12.1 m/s 402.30 MHz Vaterstetten (DE) 0.00 km FOUND
S1610842 RS41 2021-04-19 14:44:32 48.031 11.4403 11 ° 13 km/h 715 m -2.5 m/s 402.30 MHz Starnberg (DE) 0.00 km UNKNOWN
S1610765 RS41 2021-04-17 14:00:35 48.4186 11.9326 164 ° 11 km/h 732 m -3.2 m/s 402.30 MHz Erding (DE) 0.00 km FOUND
S1610769 RS41 2021-04-17 06:45:49 48.2517 11.605 225 ° 6 km/h 560 m -4.6 m/s 404.70 MHz Unterschleißheim (DE) 0.00 km FOUND
S1610768 RS41 2021-04-17 01:13:47 48.3161 11.4456 241 ° 17 km/h 774 m -3.0 m/s 402.30 MHz Dachau (DE) 0.00 km FOUND
S1610773 RS41 2021-04-16 13:13:12 48.3666 11.8577 177 ° 6 km/h 744 m -6.1 m/s 402.30 MHz Erding (DE) 0.00 km FOUND
S1610766 RS41 2021-04-16 07:14:20 48.2302 11.5071 248 ° 6 km/h 627 m -4.5 m/s 402.30 MHz Dachau (DE) 0.00 km FOUND
S1440822 RS41 2021-04-16 01:18:26 48.2261 11.7646 209 ° 13 km/h 553 m -3.4 m/s 402.30 MHz Vaterstetten (DE) 0.00 km FOUND
S1440820 RS41 2021-04-15 13:49:11 48.2364 11.9496 191 ° 4 km/h 653 m -2.0 m/s 402.30 MHz Erding (DE) 0.00 km FOUND
S1510184 RS41 2021-04-15 06:56:00 48.1899 11.9841 226 ° 11 km/h 780 m -5.4 m/s 402.30 MHz Erding (DE) 0.00 km FOUND
S1520444 RS41 2021-04-15 01:16:00 48.2434 12.2601 173 ° 9 km/h 684 m -3.0 m/s 402.30 MHz Waldkraiburg (DE) 0.00 km UNKNOWN
S1440667 RS41 2021-04-14 13:01:05 48.1718 12.6481 225 ° 7 km/h 531 m -6.5 m/s 402.30 MHz Hochburg-Ach (AT) 0.00 km FOUND
S1610776 RS41 2021-04-14 07:09:44 48.0173 12.5817 161 ° 6 km/h 705 m -4.5 m/s 402.30 MHz Traunreut (DE) 0.00 km FOUND
S1650868 RS41 2021-04-14 01:53:25 48.1946 12.5802 125 ° 28 km/h 568 m -2.1 m/s 402.30 MHz Waldkraiburg (DE) 0.00 km FOUND
S1650863 RS41 2021-04-13 13:06:52 48.6058 12.4892 215 ° 11 km/h 671 m -4.1 m/s 402.30 MHz Landshut (DE) 0.00 km FOUND
S1440659 RS41 2021-04-13 06:37:50 48.5063 12.4295 160 ° 13 km/h 1280 m -9.9 m/s 402.30 MHz Landshut (DE) 0.00 km FOUND
S1650847 RS41 2021-04-13 01:01:19 48.6179 12.8772 151 ° 20 km/h 1493 m -8.4 m/s 402.30 MHz Deggendorf (DE) 0.00 km FOUND
S1440658 RS41 2021-04-12 12:32:41 48.8332 12.4916 147 ° 33 km/h 891 m -8.5 m/s 402.30 MHz Straubing (DE) 0.00 km FOUND
S1440714 RS41 2021-04-12 07:05:55 48.8102 13.1266 129 ° 9 km/h 1598 m -4.3 m/s 402.30 MHz Deggendorf (DE) 0.00 km UNKNOWN
S1520373 RS41 2021-04-12 01:06:13 48.8261 12.9055 162 ° 11 km/h 1307 m -4.2 m/s 402.30 MHz Deggendorf (DE) 0.00 km UNKNOWN
S1420749 RS41 2021-04-11 13:32:30 48.8619 13.1022 33 ° 9 km/h 1788 m -2.7 m/s 402.30 MHz Deggendorf (DE) 0.00 km UNKNOWN
S1350348 RS41 2021-04-11 07:37:00 48.8691 13.3563 63 ° 13 km/h 1435 m -2.2 m/s 402.30 MHz Deggendorf (DE) 0.00 km UNKNOWN
S1440672 RS41 2021-04-11 00:49:40 48.6592 13.1846 355 ° 15 km/h 1568 m -6.6 m/s 402.30 MHz Passau (DE) 0.00 km UNKNOWN
S1510113 RS41 2021-04-10 12:44:57 48.5852 13.0976 46 ° 15 km/h 2194 m -5.5 m/s 402.300 MHz Passau (DE) 0.00 km FOUND
S1650869 RS41 2021-04-10 06:39:20 48.3903 12.9892 54 ° 28 km/h 664 m -6.0 m/s 402.30 MHz Braunau am Inn (AT) 0.00 km UNKNOWN
S1650835 RS41 2021-04-10 00:35:59 48.2575 13.1219 51 ° 9 km/h 425 m -10.6 m/s 402.30 MHz Sankt Peter (AT) 0.00 km FOUND
S1440854 RS41 2021-04-09 12:42:58 48.3675 13.3818 285 ° 11 km/h 506 m -12.4 m/s 402.30 MHz Schärding (AT) 0.00 km LOST
S1740317 RS41 2021-04-09 07:24:43 47.778 13.6966 105 ° 19 km/h 1419 m -2.9 m/s 402.30 MHz Ebensee (AT) 0.00 km UNKNOWN
S1650851 RS41 2021-04-09 01:31:21 47.6423 13.652 280 ° 28 km/h 970 m -1.9 m/s 402.30 MHz Bad Goisern (AT) 0.00 km LOST
S1440711 RS41 2021-04-08 12:36:15 47.7338 12.854 91 ° 24 km/h 1600 m -8.7 m/s 402.30 MHz Grossgmain (AT) 0.00 km FOUND
S1650867 RS41 2021-04-08 06:55:33 47.3226 13.4256 113 ° 41 km/h 2928 m -3.4 m/s 402.30 MHz Flachau (AT) 0.00 km UNKNOWN
S1440894 RS41 2021-04-08 01:04:13 47.461 13.6446 326 ° 26 km/h 2423 m -1.9 m/s 402.30 MHz Schladming (AT) 0.00 km UNKNOWN
S1440712 RS41 2021-04-07 13:46:33 47.8389 14.1295 137 ° 17 km/h 1129 m -2.6 m/s 402.30 MHz Micheldorf in Oberösterreich (AT) 0.00 km UNKNOWN
S1420730 RS41 2021-04-07 07:12:17 47.9719 13.6652 112 ° 15 km/h 619 m -3.2 m/s 402.30 MHz Vöcklabruck (AT) 0.00 km UNKNOWN
S1520439 RS41 2021-04-07 02:02:23 48.131 14.5295 101 ° 26 km/h 405 m -1.9 m/s 402.30 MHz Haag (AT) 0.00 km NEED ATTENTION
S1650837 RS41 2021-04-06 12:42:55 48.1414 13.3104 105 ° 28 km/h 630 m -9.7 m/s 402.30 MHz Mettmach (AT) 0.00 km UNKNOWN
S1440656 RS41 2021-04-06 06:40:06 48.0704 13.3159 76 ° 26 km/h 801 m -10.5 m/s 402.30 MHz Pöndorf (AT) 0.00 km FOUND
S1650870 RS41 2021-04-06 01:45:41 48.3662 14.9495 121 ° 30 km/h 974 m -3.6 m/s 402.30 MHz Königswiesen (AT) 0.00 km UNKNOWN
S1350346 RS41 2021-04-05 12:47:18 48.1397 13.3684 89 ° 41 km/h 679 m -5.8 m/s 402.30 MHz Lohnsburg (AT) 0.00 km FOUND
S1350382 RS41 2021-04-05 07:39:00 47.6882 13.0099 91 ° 46 km/h 1684 m -5.4 m/s 402.30 MHz Hallein (AT) 0.00 km UNKNOWN
S1510185 RS41 2021-04-05 01:32:04 47.8459 12.4887 78 ° 30 km/h 977 m -1.7 m/s 402.30 MHz Traunreut (DE) 0.00 km NEED ATTENTION
S1650859 RS41 2021-04-04 13:33:53 47.7045 12.0097 222 ° 11 km/h 1747 m -2.2 m/s 402.30 MHz Niederndorf (AT) 0.00 km UNKNOWN
S1510182 RS41 2021-04-04 07:12:09 47.5156 11.4415 343 ° 7 km/h 1668 m -3.2 m/s 402.30 MHz Achenkirch (AT) 0.00 km UNKNOWN
S1510186 RS41 2021-04-04 01:34:52 47.1312 11.2294 198 ° 24 km/h 2848 m -2.8 m/s 402.30 MHz Neustift im Stubaital (AT) 0.00 km UNKNOWN
S1440710 RS41 2021-04-03 13:06:34 47.6597 11.9545 135 ° 9 km/h 1613 m -4.5 m/s 402.30 MHz Kirchbichl (AT) 0.00 km UNKNOWN
S1350383 RS41 2021-04-03 06:35:16 47.6303 12.1983 162 ° 15 km/h 563 m -7.7 m/s 402.30 MHz Ebbs (AT) 0.00 km FOUND
S1520443 RS41 2021-04-03 01:42:06 47.4826 13.0404 118 ° 39 km/h 2485 m -5.4 m/s 402.30 MHz Werfen (AT) 0.00 km UNKNOWN
S1240994 RS41 2021-04-02 13:00:23 47.8998 12.3432 146 ° 15 km/h 1056 m -8.1 m/s 402.30 MHz Rosenheim (DE) 0.00 km FOUND
S1350347 RS41 2021-04-02 07:17:16 47.6346 12.3636 95 ° 22 km/h 1569 m -4.3 m/s 402.30 MHz Kössen (AT) 0.00 km FOUND
S1240991 RS41 2021-04-02 01:14:25 47.6548 12.0627 104 ° 15 km/h 1516 m -3.7 m/s 402.30 MHz Kufstein (AT) 0.00 km UNKNOWN
S1350381 RS41 2021-04-01 12:41:01 48.0884 11.9495 118 ° 15 km/h 755 m -11.4 m/s 402.30 MHz Vaterstetten (DE) 0.00 km FOUND
S1240996 RS41 2021-04-01 07:04:50 47.9904 11.9975 117 ° 28 km/h 1131 m -2.7 m/s 402.30 MHz Rosenheim (DE) 0.00 km FOUND
S1440069 RS41 2021-04-01 01:27:27 48.1668 11.9468 70 ° 19 km/h 638 m -3.3 m/s 402.30 MHz Vaterstetten (DE) 0.00 km FOUND
S1520526 RS41 2021-03-31 12:38:42 48.236 11.5869 104 ° 11 km/h 576 m -5.9 m/s 402.30 MHz Unterschleißheim (DE) 0.00 km FOUND
S1520367 RS41 2021-03-31 06:46:42 48.1517 11.4871 43 ° 13 km/h 597 m -7.2 m/s 402.30 MHz München (DE) 0.00 km LOST
S1520376 RS41 2021-03-31 00:48:39 48.1303 11.4317 352 ° 2 km/h 621 m -4.7 m/s 402.30 MHz Germering (DE) 0.00 km FOUND
S1520510 RS41 2021-03-30 12:53:53 48.0182 11.4842 267 ° 13 km/h 714 m -7.8 m/s 402.30 MHz Starnberg (DE) 0.00 km FOUND
S1350281 RS41 2021-03-30 07:14:46 47.8033 11.4742 291 ° 19 km/h 923 m -2.6 m/s 402.30 MHz Geretsried (DE) 0.00 km FOUND
S1510203 RS41 2021-03-30 00:36:20 47.8588 11.64 323 ° 7 km/h 885 m -11.6 m/s 402.30 MHz Geretsried (DE) 0.00 km FOUND
S1520465 RS41 2021-03-29 13:30:27 47.5688 11.9268 105 ° 22 km/h 1538 m -5.0 m/s 402.30 MHz Breitenbach am Inn (AT) 0.00 km UNKNOWN
S1510248 RS41 2021-03-29 07:08:28 47.384 12.0084 101 ° 11 km/h 1910 m -3.3 m/s 402.30 MHz Alpbach (AT) 0.00 km UNKNOWN
S1440932 RS41 2021-03-29 00:43:58 47.5539 12.2674 105 ° 48 km/h 2295 m -10.8 m/s 402.30 MHz Ellmau (AT) 0.00 km UNKNOWN
S1520463 RS41 2021-03-28 12:42:36 47.8221 12.575 145 ° 7 km/h 1063 m -12.1 m/s 402.30 MHz Traunreut (DE) 0.00 km FOUND
S1520459 RS41 2021-03-28 08:05:36 47.5618 13.473 107 ° 15 km/h 1729 m -2.0 m/s 402.30 MHz Abtenau (AT) 0.00 km UNKNOWN
S1521191 RS41 2021-03-28 01:53:52 47.4323 13.3786 100 ° 22 km/h 2471 m -1.9 m/s 402.30 MHz Eben im Pongau (AT) 0.00 km UNKNOWN
S1530255 RS41 2021-03-27 13:17:34 48.4446 13.5212 101 ° 22 km/h 485 m -5.1 m/s 402.30 MHz Taufkirchen an der Pram (AT) 0.00 km UNKNOWN
S1241027 RS41 2021-03-27 07:05:55 48.4707 13.1046 116 ° 30 km/h 641 m -4.5 m/s 402.30 MHz Sankt Peter (AT) 0.00 km FOUND
S1521194 RS41 2021-03-27 02:14:23 48.5095 13.4551 25 ° 28 km/h 744 m -1.6 m/s 402.30 MHz Schardenberg (AT) 0.00 km UNKNOWN
S1440107 RS41 2021-03-26 13:11:39 48.258 12.4986 275 ° 9 km/h 709 m -5.3 m/s 402.30 MHz Waldkraiburg (DE) 0.00 km FOUND
S1350278 RS41 2021-03-26 06:46:00 48.011 12.2238 41 ° 9 km/h 720 m -6.2 m/s 402.30 MHz Rosenheim (DE) 0.00 km FOUND
S1440892 RS41 2021-03-26 01:04:30 48.1511 12.3929 63 ° 28 km/h 612 m -5.8 m/s 402.30 MHz Waldkraiburg (DE) 0.00 km FOUND
S1740301 RS41 2021-03-25 12:49:00 48.2045 12.2796 115 ° 11 km/h 689 m -7.4 m/s 402.30 MHz Waldkraiburg (DE) 0.00 km FOUND
S1350290 RS41 2021-03-25 07:57:19 47.7141 12.4474 41 ° 13 km/h 1453 m -3.1 m/s 402.30 MHz Kössen (AT) 0.00 km UNKNOWN
S1510227 RS41 2021-03-25 01:43:58 47.6276 12.1553 35 ° 13 km/h 1290 m -2.3 m/s 402.30 MHz Ebbs (AT) 0.00 km UNKNOWN
S1521193 RS41 2021-03-24 13:06:00 47.8698 11.9005 54 ° 6 km/h 1069 m -6.6 m/s 402.30 MHz Rosenheim (DE) 0.00 km UNKNOWN
S1520347 RS41 2021-03-24 07:10:19 47.8107 11.7721 63 ° 9 km/h 942 m -4.0 m/s 404.70 MHz Geretsried (DE) 0.00 km UNKNOWN
S1440763 RS41 2021-03-24 01:23:07 47.9228 11.7985 21 ° 7 km/h 750 m -2.7 m/s 404.70 MHz Vaterstetten (DE) 0.00 km FOUND
S1440106 RS41 2021-03-23 13:52:40 47.7315 11.6703 89 ° 7 km/h 1223 m -1.8 m/s 404.70 MHz Geretsried (DE) 0.00 km UNKNOWN
S1350877 RS41 2021-03-23 06:51:10 47.6625 11.7378 129 ° 2 km/h 1403 m -6.7 m/s 402.30 MHz Achenkirch (AT) 0.00 km UNKNOWN
S1650989 RS41 2021-03-23 01:46:02 47.3653 11.7682 178 ° 9 km/h 968 m -2.5 m/s 402.30 MHz Jenbach (AT) 0.00 km UNKNOWN
S1241039 RS41 2021-03-22 13:08:46 46.9977 11.0064 203 ° 104 km/h 4050 m -3.2 m/s 402.30 MHz Sölden (AT) 0.00 km UNKNOWN
S1520523 RS41 2021-03-22 06:52:33 47.2664 11.3623 156 ° 4 km/h 660 m -1.6 m/s 402.30 MHz Innsbruck (AT) 0.00 km FOUND
S1440888 RS41 2021-03-22 00:46:14 47.4824 11.5314 124 ° 9 km/h 2140 m -7.4 m/s 402.30 MHz Achenkirch (AT) 0.00 km UNKNOWN
S1241040 RS41 2021-03-21 13:25:25 47.4905 11.9602 236 ° 7 km/h 671 m -2.2 m/s 402.30 MHz Breitenbach am Inn (AT) 0.00 km FOUND
S1440891 RS41 2021-03-21 07:20:59 47.3429 11.3398 2 ° 2 km/h 1512 m -3.5 m/s 402.30 MHz Innsbruck (AT) 0.00 km UNKNOWN
S1440893 RS41 2021-03-21 01:08:10 47.4374 11.2935 100 ° 9 km/h 2072 m -8.8 m/s 402.30 MHz Leutasch (AT) 0.00 km UNKNOWN
S1440933 RS41 2021-03-20 13:08:58 47.0779 10.5298 215 ° 61 km/h 3454 m -5.7 m/s 402.30 MHz Landeck (AT) 0.00 km UNKNOWN
S2261000 RS41 2021-03-20 06:32:29 47.3941 10.9034 201 ° 19 km/h 2391 m -12.1 m/s 402.30 MHz Ehrwald (AT) 0.00 km UNKNOWN
S1440936 RS41 2021-03-20 00:48:34 47.2599 10.7378 168 ° 9 km/h 2464 m -3.1 m/s 402.30 MHz Tarrenz (AT) 0.00 km UNKNOWN
S1520467 RS41 2021-03-19 13:49:05 47.4772 11.5296 152 ° 15 km/h 2010 m -2.4 m/s 402.30 MHz Achenkirch (AT) 0.00 km UNKNOWN
S2260978 RS41 2021-03-19 07:47:56 47.3951 11.6943 98 ° 9 km/h 1921 m -2.0 m/s 402.30 MHz Schwaz (AT) 0.00 km UNKNOWN
S1740323 RS41 2021-03-19 00:50:31 47.7725 11.8746 85 ° 20 km/h 1142 m -10.8 m/s 402.30 MHz Rosenheim (DE) 0.00 km UNKNOWN
S1510220 RS41 2021-03-18 13:34:12 47.4079 11.5153 115 ° 15 km/h 2258 m -2.0 m/s 402.30 MHz Thaur (AT) 0.00 km UNKNOWN
S1441241 RS41 2021-03-18 07:45:38 47.1613 11.4408 215 ° 9 km/h 2266 m -2.7 m/s 402.30 MHz Fulpmes (AT) 0.00 km UNKNOWN
S1520464 RS41 2021-03-18 00:37:59 47.6895 11.7781 226 ° 7 km/h 1470 m -12.0 m/s 402.30 MHz Achenkirch (AT) 0.00 km UNKNOWN
S1440886 RS41 2021-03-17 12:50:25 47.493 12.0051 106 ° 30 km/h 1956 m -4.1 m/s 402.30 MHz Breitenbach am Inn (AT) 0.00 km FOUND
S1440935 RS41 2021-03-17 06:49:35 47.3762 12.1248 134 ° 9 km/h 2219 m -9.3 m/s 402.30 MHz Westendorf (AT) 0.00 km UNKNOWN
S1440883 RS41 2021-03-17 01:02:24 47.1769 12.2216 141 ° 59 km/h 3887 m -5.3 m/s 402.30 MHz Neukirchen am Großvenediger (AT) 0.00 km UNKNOWN
S1440934 RS41 2021-03-16 12:49:01 47.3927 12.0217 139 ° 41 km/h 1931 m -3.4 m/s 402.30 MHz Alpbach (AT) 0.00 km UNKNOWN
S1520466 RS41 2021-03-16 07:00:04 47.2213 12.0692 158 ° 41 km/h 2890 m -4.2 m/s 402.30 MHz Neukirchen am Großvenediger (AT) 0.00 km UNKNOWN
S1520369 RS41 2021-03-16 01:02:04 47.5225 12.4452 148 ° 65 km/h 2092 m -4.5 m/s 402.30 MHz Sankt Johann in Tirol (AT) 0.00 km FOUND
S1510204 RS41 2021-03-15 12:35:37 47.7091 12.3978 86 ° 26 km/h 1472 m -7.3 m/s 402.30 MHz Kössen (AT) 0.00 km FOUND
S1530268 RS41 2021-03-15 07:06:03 47.6216 12.6786 106 ° 48 km/h 2028 m -4.0 m/s 402.30 MHz Kirchdorf in Tirol (AT) 0.00 km UNKNOWN
S1520531 RS41 2021-03-15 01:41:45 47.4187 12.8591 139 ° 37 km/h 2870 m -1.6 m/s 402.30 MHz Saalfelden am Steinernen Meer (AT) 0.00 km UNKNOWN
S1520472 RS41 2021-03-14 13:03:31 48.3209 13.0337 97 ° 37 km/h 614 m -4.0 m/s 402.30 MHz Braunau am Inn (AT) 0.00 km UNKNOWN
S1440108 RS41 2021-03-14 06:39:43 48.4323 13.4877 92 ° 35 km/h 507 m -3.9 m/s 402.30 MHz Taufkirchen an der Pram (AT) 0.00 km UNKNOWN
S1650975 RS41 2021-03-14 01:15:19 48.5303 14.2174 59 ° 20 km/h 919 m -3.6 m/s 402.30 MHz Vorderweissenbach (AT) 0.00 km FOUND
S1510183 RS41 2021-03-13 12:58:32 48.2974 14.0444 170 ° 15 km/h 409 m -3.2 m/s 402.30 MHz Fraham (AT) 0.00 km NEED ATTENTION
S1521226 RS41 2021-03-13 07:59:08 47.8709 15.1403 14 ° 20 km/h 1190 m -1.9 m/s 402.30 MHz Gaming (AT) 0.00 km UNKNOWN
S1510219 RS41 2021-03-13 00:48:58 47.9536 13.5761 71 ° 37 km/h 834 m -6.6 m/s 402.30 MHz Lenzing (AT) 0.00 km UNKNOWN
S1650953 RS41 2021-03-12 12:46:00 48.2831 14.0927 90 ° 24 km/h 435 m -12.7 m/s 402.30 MHz Alkoven (AT) 0.00 km FOUND
S1650985 RS41 2021-03-12 08:03:28 47.8181 16.0726 67 ° 41 km/h 517 m -1.9 m/s 402.30 MHz Bad Fischau (AT) 0.00 km FOUND
S1520374 RS41 2021-03-12 01:18:47 48.2815 15.2854 82 ° 26 km/h 555 m -4.5 m/s 402.30 MHz Pöggstall (AT) 0.00 km NEED ATTENTION
S1650964 RS41 2021-03-11 12:41:51 47.9542 14.0978 335 ° 9 km/h 650 m -12.2 m/s 402.30 MHz Schlierbach (AT) 0.00 km LOST
S1650986 RS41 2021-03-11 06:25:33 47.4723 12.9645 103 ° 46 km/h 2806 m -6.2 m/s 402.30 MHz Saalfelden am Steinernen Meer (AT) 0.00 km UNKNOWN
S1520460 RS41 2021-03-11 00:26:25 47.3232 12.5564 113 ° 44 km/h 2994 m -6.4 m/s 402.30 MHz Uttendorf (AT) 0.00 km UNKNOWN
S2260917 RS41 2021-03-10 18:07:30 46.8982 12.527 170 ° 85 km/h 4474 m -3.9 m/s 402.30 MHz Matrei in Osttirol (AT) 0.00 km UNKNOWN
S1520442 RS41 2021-03-10 13:38:49 46.5389 12.7168 194 ° 13 km/h 2405 m -1.6 m/s 402.30 MHz Tolmezzo (IT) 0.00 km UNKNOWN
S1520368 RS41 2021-03-10 07:01:08 47.3842 13.1268 123 ° 35 km/h 2937 m -13.4 m/s 402.30 MHz Sankt Veit im Pongau (AT) 0.00 km UNKNOWN
S1520468 RS41 2021-03-10 00:39:40 47.6637 12.4569 109 ° 37 km/h 1959 m -4.1 m/s 402.30 MHz Kössen (AT) 0.00 km UNKNOWN
S1520470 RS41 2021-03-09 13:13:26 48.0002 13.3115 204 ° 6 km/h 801 m -4.7 m/s 402.30 MHz Pöndorf (AT) 0.00 km FOUND
S1241037 RS41 2021-03-09 06:32:01 47.9367 12.8172 314 ° 13 km/h 715 m -10.9 m/s 402.30 MHz Sankt Georgen bei Salzburg (AT) 0.00 km FOUND
S1520370 RS41 2021-03-09 01:05:45 47.8652 13.1562 305 ° 22 km/h 731 m -4.3 m/s 402.30 MHz Henndorf am Wallersee (AT) 0.00 km FOUND
S1510247 RS41 2021-03-08 12:31:45 47.8453 12.8249 142 ° 11 km/h 684 m -10.7 m/s 402.30 MHz Oberndorf bei Salzburg (AT) 0.00 km FOUND
S1520474 RS41 2021-03-08 07:31:44 47.4512 13.3882 116 ° 39 km/h 2503 m -1.6 m/s 402.30 MHz Eben im Pongau (AT) 0.00 km UNKNOWN
S1520473 RS41 2021-03-08 01:28:17 47.6314 13.4665 99 ° 4 km/h 1803 m -5.1 m/s 402.30 MHz Strobl (AT) 0.00 km UNKNOWN
S1510258 RS41 2021-03-07 13:15:11 48.0508 13.1721 108 ° 19 km/h 751 m -4.3 m/s 402.30 MHz Munderfing (AT) 0.00 km NEED ATTENTION
S1510252 RS41 2021-03-07 06:31:48 47.9389 12.7272 33 ° 6 km/h 903 m -11.2 m/s 402.30 MHz Traunreut (DE) 0.00 km FOUND
S1520525 RS41 2021-03-07 00:58:22 47.8106 13.1038 356 ° 20 km/h 943 m -3.7 m/s 402.30 MHz Koppl (AT) 0.00 km UNKNOWN
S1520372 RS41 2021-03-06 13:16:42 47.6719 13.0847 188 ° 9 km/h 850 m -1.7 m/s 402.30 MHz Hallein (AT) 0.00 km NEED ATTENTION
S1520457 RS41 2021-03-06 06:31:28 47.7583 12.4603 278 ° 7 km/h 1262 m -11.5 m/s 402.30 MHz Kössen (AT) 0.00 km FOUND
S1430081 RS41 2021-03-06 00:55:13 47.6285 12.5818 154 ° 13 km/h 2057 m -4.1 m/s 402.30 MHz Kirchdorf in Tirol (AT) 0.00 km FOUND
S1520461 RS41 2021-03-05 12:32:37 48.0207 13.0344 233 ° 7 km/h 789 m -9.4 m/s 402.30 MHz Mattsee (AT) 0.00 km FOUND
S1420726 RS41 2021-03-05 06:49:40 47.9407 13.2695 111 ° 35 km/h 1005 m -6.6 m/s 402.30 MHz Neumarkt am Wallersee (AT) 0.00 km FOUND
S1520469 RS41 2021-03-05 01:30:30 48.2452 13.9262 115 ° 30 km/h 511 m -5.4 m/s 402.30 MHz Bad Schallerbach (AT) 0.00 km UNKNOWN
S1510251 RS41 2021-03-04 13:12:01 48.3144 13.1967 81 ° 9 km/h 393 m -3.1 m/s 402.30 MHz Altheim (AT) 0.00 km UNKNOWN
S1520458 RS41 2021-03-04 06:57:51 48.3006 12.7543 72 ° 9 km/h 600 m -2.9 m/s 402.30 MHz Hochburg-Ach (AT) 0.00 km FOUND
S1520496 RS41 2021-03-04 06:17:04 47.611 14.3189 81 ° 46 km/h 7247 m -4.3 m/s 402.30 MHz Spital am Pyhrn (AT) 0.00 km UNKNOWN
S1530295 RS41 2021-03-03 12:55:30 48.1508 12.1946 78 ° 2 km/h 558 m -4.9 m/s 402.30 MHz Waldkraiburg (DE) 0.00 km FOUND
S1520493 RS41 2021-03-03 06:52:00 48.114 12.1315 44 ° 7 km/h 639 m -6.3 m/s 402.30 MHz Waldkraiburg (DE) 0.00 km FOUND
S1510250 RS41 2021-03-03 00:40:01 48.1857 11.9339 12 ° 7 km/h 661 m -11.8 m/s 402.30 MHz Erding (DE) 0.00 km FOUND
S1521245 RS41 2021-03-02 13:12:30 48.2733 11.6744 187 ° 7 km/h 554 m -3.8 m/s 402.30 MHz Unterschleißheim (DE) 0.00 km FOUND
S1530284 RS41 2021-03-02 06:45:32 48.1978 11.4935 321 ° 7 km/h 616 m -5.2 m/s 402.30 MHz Dachau (DE) 0.00 km UNKNOWN
S1440887 RS41 2021-03-02 02:11:32 48.2176 11.3552 251 ° 11 km/h 574 m -1.6 m/s 402.30 MHz Olching (DE) 0.00 km UNKNOWN
S1440890 RS41 2021-03-01 13:04:00 48.0585 11.333 232 ° 20 km/h 710 m -5.6 m/s 402.30 MHz Starnberg (DE) 0.00 km FOUND
S1440884 RS41 2021-03-01 07:49:09 47.8327 11.1617 292 ° 20 km/h 1019 m -2.3 m/s 402.30 MHz Weilheim in Oberbayern (DE) 0.00 km LOST
S1440889 RS41 2021-03-01 01:51:45 47.8052 11.4564 283 ° 22 km/h 992 m -2.6 m/s 402.30 MHz Geretsried (DE) 0.00 km FOUND
S1521227 RS41 2021-02-28 13:07:32 47.8598 11.8593 239 ° 19 km/h 788 m -4.8 m/s 402.30 MHz Rosenheim (DE) 0.00 km FOUND
S1520471 RS41 2021-02-28 07:39:24 47.7764 11.625 298 ° 19 km/h 935 m -2.6 m/s 402.30 MHz Geretsried (DE) 0.00 km FOUND
S1350289 RS41 2021-02-28 01:48:51 47.7219 11.1537 262 ° 15 km/h 1155 m -2.3 m/s 404.70 MHz Weilheim in Oberbayern (DE) 0.00 km FOUND
S1241035 RS41 2021-02-27 13:36:25 47.7118 11.422 238 ° 11 km/h 1099 m -4.6 m/s 404.70 MHz Geretsried (DE) 0.00 km FOUND
S1520375 RS41 2021-02-27 07:20:53 47.7311 12.3656 151 ° 6 km/h 1516 m -3.4 m/s 402.30 MHz Kössen (AT) 0.00 km UNKNOWN
S1530270 RS41 2021-02-27 00:51:26 48.1388 12.8933 159 ° 17 km/h 525 m -3.9 m/s 402.30 MHz Hochburg-Ach (AT) 0.00 km FOUND
S1440858 RS41 2021-02-26 13:09:50 48.4494 12.9857 88 ° 11 km/h 666 m -1.7 m/s 402.30 MHz Braunau am Inn (AT) 0.00 km UNKNOWN
S1520403 RS41 2021-02-26 07:03:55 48.4197 12.6969 101 ° 31 km/h 696 m -3.1 m/s 402.30 MHz Braunau am Inn (AT) 0.00 km UNKNOWN
S1530274 RS41 2021-02-26 00:41:25 48.4518 12.2758 79 ° 17 km/h 1109 m -3.9 m/s 402.30 MHz Landshut (DE) 0.00 km FOUND
S1520389 RS41 2021-02-25 12:58:26 48.3988 11.88 168 ° 2 km/h 550 m -4.3 m/s 402.30 MHz Erding (DE) 0.00 km FOUND
S2260703 RS41 2021-02-25 06:37:17 48.2564 11.8126 63 ° 22 km/h 595 m -16.1 m/s 402.30 MHz Erding (DE) 0.00 km FOUND
S1521229 RS41 2021-02-25 01:53:19 48.4152 11.7407 339 ° 11 km/h 576 m -2.1 m/s 402.30 MHz Freising (DE) 0.00 km UNKNOWN
S2260973 RS41 2021-02-24 13:03:56 48.1271 11.261 250 ° 11 km/h 735 m -5.6 m/s 402.30 MHz Fürstenfeldbruck (DE) 0.00 km FOUND
S2260986 RS41 2021-02-24 07:15:19 47.7625 11.4089 348 ° 7 km/h 836 m -3.2 m/s 402.30 MHz Geretsried (DE) 0.00 km FOUND
S2251044 RS41 2021-02-24 01:02:47 47.7686 11.6815 60 ° 19 km/h 1298 m -3.7 m/s 402.30 MHz Geretsried (DE) 0.00 km FOUND
S1440044 RS41 2021-02-23 06:40:34 48.1987 12.0468 4 ° 24 km/h 667 m -5.3 m/s 402.30 MHz Erding (DE) 0.00 km FOUND
S1530276 RS41 2021-02-23 00:47:10 48.2988 12.1164 62 ° 11 km/h 659 m -8.4 m/s 402.30 MHz Erding (DE) 0.00 km FOUND
S1520378 RS41 2021-02-22 13:13:54 48.6276 12.4188 257 ° 9 km/h 454 m -3.9 m/s 402.30 MHz Landshut (DE) 0.00 km FOUND
S1241021 RS41 2021-02-22 06:54:46 48.5286 12.2071 321 ° 13 km/h 636 m -7.7 m/s 402.30 MHz Landshut (DE) 0.00 km UNKNOWN
S1520393 RS41 2021-02-22 01:00:36 48.6647 11.8642 304 ° 20 km/h 802 m -3.3 m/s 402.30 MHz Landshut (DE) 0.00 km UNKNOWN
S1520394 RS41 2021-02-21 13:18:59 48.36 12.0854 285 ° 26 km/h 631 m -4.7 m/s 402.30 MHz Erding (DE) 0.00 km FOUND
S1520495 RS41 2021-02-21 07:15:30 48.163 12.211 275 ° 15 km/h 602 m -3.5 m/s 402.30 MHz Waldkraiburg (DE) 0.00 km LOST
S1530265 RS41 2021-02-21 00:51:14 48.0877 12.3475 357 ° 17 km/h 772 m -5.4 m/s 402.30 MHz Waldkraiburg (DE) 0.00 km FOUND
S1530267 RS41 2021-02-20 12:59:30 47.9366 12.4923 275 ° 11 km/h 823 m -4.3 m/s 402.30 MHz Traunreut (DE) 0.00 km FOUND
S1520405 RS41 2021-02-20 06:48:39 47.9447 12.5127 330 ° 9 km/h 793 m -6.8 m/s 402.30 MHz Traunreut (DE) 0.00 km FOUND
S1520396 RS41 2021-02-20 01:13:56 47.8335 12.939 320 ° 19 km/h 542 m -10.8 m/s 402.30 MHz Bergheim (AT) 0.00 km FOUND
S1520383 RS41 2021-02-19 13:06:21 47.7213 12.9109 213 ° 7 km/h 717 m -4.0 m/s 402.30 MHz Grossgmain (AT) 0.00 km FOUND
S1241030 RS41 2021-02-19 06:24:56 47.9206 12.7697 90 ° 26 km/h 784 m -7.0 m/s 402.30 MHz Sankt Georgen bei Salzburg (AT) 0.00 km FOUND
S1520527 RS41 2021-02-19 01:05:59 48.4654 13.4753 314 ° 19 km/h 588 m -5.2 m/s 402.30 MHz Schärding (AT) 0.00 km FOUND
S1520497 RS41 2021-02-18 14:03:04 47.971 13.5837 276 ° 17 km/h 738 m -2.2 m/s 402.30 MHz Lenzing (AT) 0.00 km UNKNOWN
S1530263 RS41 2021-02-18 07:50:47 47.7852 13.3509 332 ° 13 km/h 1201 m -2.5 m/s 402.30 MHz Sankt Gilgen (AT) 0.00 km UNKNOWN
S1530259 RS41 2021-02-18 00:35:07 47.7932 12.6555 23 ° 4 km/h 1167 m -5.1 m/s 402.30 MHz Traunreut (DE) 0.00 km FOUND
S1530260 RS41 2021-02-17 12:42:52 47.9424 12.8278 89 ° 24 km/h 698 m -5.5 m/s 402.30 MHz Sankt Georgen bei Salzburg (AT) 0.00 km NEED ATTENTION
S1520728 RS41 2021-02-17 06:49:02 48.2427 13.1736 79 ° 30 km/h 429 m -4.2 m/s 402.30 MHz Altheim (AT) 0.00 km UNKNOWN
S1520406 RS41 2021-02-17 00:45:34 48.2506 13.2088 50 ° 13 km/h 454 m -6.6 m/s 402.30 MHz Altheim (AT) 0.00 km FOUND
S1510544 RS41 2021-02-16 13:21:22 47.471 12.9517 112 ° 37 km/h 2638 m -2.8 m/s 402.30 MHz Saalfelden am Steinernen Meer (AT) 0.00 km UNKNOWN
S1530266 RS41 2021-02-16 07:02:52 47.2144 12.8122 127 ° 65 km/h 3593 m -5.2 m/s 402.30 MHz Bruck an der Großglocknerstraße (AT) 0.00 km UNKNOWN
S1530283 RS41 2021-02-16 01:18:18 47.1036 13.1053 141 ° 87 km/h 3798 m -0.9 m/s 402.30 MHz Badgastein (AT) 0.00 km UNKNOWN
S1510545 RS41 2021-02-15 12:40:31 47.4945 12.3298 79 ° 19 km/h 1953 m -4.8 m/s 402.30 MHz Ellmau (AT) 0.00 km UNKNOWN
S1510546 RS41 2021-02-15 07:32:50 46.6428 12.3045 174 ° 61 km/h 3323 m -2.2 m/s 402.30 MHz Brunico (IT) 0.00 km UNKNOWN
S1521246 RS41 2021-02-15 00:33:58 47.3396 11.9666 80 ° 17 km/h 2432 m -6.6 m/s 402.30 MHz Alpbach (AT) 0.00 km UNKNOWN
S1530273 RS41 2021-02-14 12:29:35 47.3794 11.7106 239 ° 9 km/h 1487 m -8.6 m/s 402.30 MHz Schwaz (AT) 0.00 km UNKNOWN
S1520532 RS41 2021-02-14 07:20:44 46.7332 11.8439 201 ° 61 km/h 4560 m -2.7 m/s 402.30 MHz Brunico (IT) 0.00 km UNKNOWN
S1520533 RS41 2021-02-14 00:49:43 47.4449 11.7045 297 ° 46 km/h 2055 m -3.9 m/s 402.30 MHz Eben am Achensee (AT) 0.00 km UNKNOWN
S1521225 RS41 2021-02-13 13:03:29 47.5181 12.1967 292 ° 28 km/h 2266 m -3.2 m/s 402.30 MHz Söll (AT) 0.00 km LOST
S1521243 RS41 2021-02-13 06:35:13 47.7874 12.318 266 ° 44 km/h 1195 m -8.3 m/s 402.30 MHz Kössen (AT) 0.00 km FOUND
S1521228 RS41 2021-02-13 00:34:53 47.8483 12.7382 265 ° 24 km/h 874 m -5.8 m/s 402.30 MHz Traunreut (DE) 0.00 km FOUND
S1520379 RS41 2021-02-12 13:15:05 47.5471 14.1136 268 ° 13 km/h 1762 m -2.9 m/s 402.30 MHz Stainach (AT) 0.00 km UNKNOWN
S1521247 RS41 2021-02-12 07:00:00 47.6169 13.717 286 ° 17 km/h 1723 m -7.0 m/s 402.30 MHz Bad Aussee (AT) 0.00 km UNKNOWN
S1520384 RS41 2021-02-12 01:08:33 47.4239 13.8439 164 ° 19 km/h 2046 m -3.3 m/s 402.30 MHz Gröbming (AT) 0.00 km UNKNOWN
S2261001 RS41 2021-02-11 13:29:38 47.5555 14.101 110 ° 24 km/h 1811 m -3.0 m/s 402.30 MHz Stainach (AT) 0.00 km UNKNOWN
S2260997 RS41 2021-02-11 06:25:00 47.9667 13.1385 120 ° 33 km/h 855 m -13.2 m/s 402.30 MHz Mattsee (AT) 0.00 km FOUND
S2260721 RS41 2021-02-11 01:42:18 48.3466 13.9893 178 ° 9 km/h 323 m -2.5 m/s 402.30 MHz Hartkirchen (AT) 0.00 km FOUND
S2260994 RS41 2021-02-10 12:42:11 48.4932 12.8698 291 ° 17 km/h 1067 m -3.7 m/s 402.30 MHz Braunau am Inn (AT) 0.00 km UNKNOWN
S2260945 RS41 2021-02-10 08:04:08 48.7864 14.1875 226 ° 20 km/h 1192 m -1.7 m/s 402.30 MHz Český Krumlov (CZ) 0.00 km UNKNOWN
S1241028 RS41 2021-02-10 01:02:29 48.5347 13.8016 321 ° 11 km/h 885 m -4.2 m/s 402.30 MHz Sarleinsbach (AT) 0.00 km UNKNOWN
S2260729 RS41 2021-02-09 13:27:45 48.8009 14.2507 291 ° 7 km/h 961 m -2.4 m/s 402.30 MHz Český Krumlov (CZ) 0.00 km UNKNOWN
S2270043 RS41 2021-02-09 07:51:42 48.7462 14.6338 57 ° 22 km/h 822 m -1.7 m/s 402.30 MHz Kaplice (CZ) 0.00 km UNKNOWN
S2260893 RS41 2021-02-09 01:06:52 48.7153 14.0523 67 ° 28 km/h 1053 m -3.2 m/s 402.30 MHz Ulrichsberg (AT) 0.00 km UNKNOWN
S2260946 RS41 2021-02-08 12:30:06 48.5887 12.504 123 ° 7 km/h 695 m -8.9 m/s 402.30 MHz Landshut (DE) 0.00 km UNKNOWN
S1520390 RS41 2021-02-08 08:02:53 48.7878 13.1637 92 ° 30 km/h 928 m -1.9 m/s 402.30 MHz Deggendorf (DE) 0.00 km UNKNOWN
S2260998 RS41 2021-02-08 01:03:03 48.7316 12.7976 130 ° 48 km/h 1508 m -3.6 m/s 402.30 MHz Deggendorf (DE) 0.00 km FOUND
S1520392 RS41 2021-02-07 12:46:11 48.9503 12.7653 48 ° 2 km/h 1775 m -3.7 m/s 402.30 MHz Straubing (DE) 0.00 km FOUND
S2260948 RS41 2021-02-07 06:35:01 48.7933 13.1419 70 ° 30 km/h 1983 m -7.1 m/s 402.30 MHz Deggendorf (DE) 0.00 km UNKNOWN
S1520385 RS41 2021-02-07 00:58:58 48.8208 13.6745 282 ° 24 km/h 1210 m -6.1 m/s 402.30 MHz Ulrichsberg (AT) 0.00 km UNKNOWN
S1420918 RS41 2021-02-06 13:58:03 48.5035 14.9408 254 ° 22 km/h 997 m -2.6 m/s 402.30 MHz Grossgerungs (AT) 0.00 km UNKNOWN
S2260987 RS41 2021-02-06 07:23:58 48.3987 14.0554 333 ° 9 km/h 598 m -3.0 m/s 402.30 MHz Sankt Martin im Mühlkreis (AT) 0.00 km FOUND
S1520382 RS41 2021-02-06 01:53:46 48.3365 14.8271 163 ° 9 km/h 740 m -1.7 m/s 402.30 MHz Königswiesen (AT) 0.00 km FOUND
S2260932 RS41 2021-02-05 12:38:43 48.3722 13.5471 316 ° 13 km/h 510 m -5.7 m/s 402.30 MHz Andorf (AT) 0.00 km FOUND
S1520391 RS41 2021-02-05 07:51:52 48.3467 14.737 240 ° 15 km/h 658 m -1.7 m/s 402.30 MHz Tragwein (AT) 0.00 km FOUND
S2260931 RS41 2021-02-05 01:16:56 48.3075 14.0309 154 ° 4 km/h 330 m -3.8 m/s 402.30 MHz Eferding (AT) 0.00 km UNKNOWN
S2260940 RS41 2021-02-04 13:18:56 47.9988 14.405 124 ° 26 km/h 493 m -4.5 m/s 402.30 MHz Garsten (AT) 0.00 km UNKNOWN
S1520386 RS41 2021-02-04 07:52:16 47.7388 15.6182 116 ° 70 km/h 1591 m -7.3 m/s 402.30 MHz Neuberg an der Mürz (AT) 0.00 km UNKNOWN
S2260720 RS41 2021-02-04 01:06:05 48.1567 14.9444 84 ° 28 km/h 435 m -3.9 m/s 402.30 MHz Sankt Georgen am Ybbsfelde (AT) 0.00 km FOUND
S1520528 RS41 2021-02-03 13:06:17 48.3252 14.2143 350 ° 7 km/h 465 m -2.7 m/s 402.30 MHz Wilhering (AT) 0.00 km FOUND
S2260934 RS41 2021-02-03 01:43:18 47.7275 14.7762 118 ° 56 km/h 1796 m -9.5 m/s 402.30 MHz Landl (AT) 0.00 km UNKNOWN
S1520398 RS41 2021-02-02 12:52:50 47.6932 13.2455 22 ° 17 km/h 1411 m -7.7 m/s 402.30 MHz Faistenau (AT) 0.00 km UNKNOWN
S2260995 RS41 2021-02-02 06:28:33 47.5363 12.7597 86 ° 41 km/h 2245 m -9.8 m/s 402.30 MHz Leogang (AT) 0.00 km UNKNOWN
S2260935 RS41 2021-02-02 01:29:02 47.2768 12.9491 111 ° 57 km/h 3448 m -2.2 m/s 402.30 MHz Taxenbach (AT) 0.00 km UNKNOWN
S2260648 RS41 2021-02-01 12:45:25 48.068 12.6981 315 ° 9 km/h 636 m -6.3 m/s 402.30 MHz Ostermiething (AT) 0.00 km FOUND
S1520534 RS41 2021-02-01 07:38:31 47.8782 13.0217 166 ° 9 km/h 527 m -1.6 m/s 402.30 MHz Anthering (AT) 0.00 km FOUND
S1520387 RS41 2021-02-01 01:03:05 47.7552 12.6342 44 ° 11 km/h 1037 m -3.8 m/s 402.30 MHz Kössen (AT) 0.00 km FOUND
S1520388 RS41 2021-01-31 13:14:32 47.7225 12.7013 80 ° 17 km/h 1636 m -2.9 m/s 402.30 MHz Grossgmain (AT) 0.00 km UNKNOWN
S1520381 RS41 2021-01-31 07:05:23 47.8047 12.7896 78 ° 9 km/h 1200 m -3.5 m/s 402.30 MHz Grossgmain (AT) 0.00 km FOUND
S1521230 RS41 2021-01-31 01:43:42 47.8209 13.4045 286 ° 13 km/h 1116 m -2.3 m/s 402.30 MHz Sankt Lorenz (AT) 0.00 km UNKNOWN
S1530286 RS41 2021-01-30 12:33:48 47.6716 13.2327 106 ° 30 km/h 1772 m -7.3 m/s 402.30 MHz Kuchl (AT) 0.00 km UNKNOWN
S1530285 RS41 2021-01-30 06:52:48 47.0515 13.3949 127 ° 131 km/h 4114 m -6.1 m/s 402.30 MHz Sankt Michael im Lungau (AT) 0.00 km UNKNOWN
S1520380 RS41 2021-01-30 01:05:30 46.9955 13.0905 137 ° 65 km/h 4068 m -4.8 m/s 402.30 MHz Obervellach (AT) 0.00 km UNKNOWN
S1520395 RS41 2021-01-29 13:25:52 47.5762 13.6726 95 ° 56 km/h 1943 m -3.7 m/s 402.30 MHz Bad Goisern (AT) 0.00 km NEED ATTENTION
S1520494 RS41 2021-01-29 06:38:27 47.7357 13.5846 76 ° 39 km/h 1778 m -2.8 m/s 402.30 MHz Bad Ischl (AT) 0.00 km UNKNOWN
S1520498 RS41 2021-01-29 01:15:39 46.8282 13.6746 121 ° 59 km/h 2469 m -4.3 m/s 402.30 MHz Radenthein (AT) 0.00 km UNKNOWN
S1530269 RS41 2021-01-28 13:02:26 47.0446 13.4204 112 ° 44 km/h 2981 m -3.2 m/s 402.30 MHz Sankt Michael im Lungau (AT) 0.00 km UNKNOWN
S2260938 RS41 2021-01-28 07:54:41 45.7715 13.3527 270 ° 19 km/h 155 m -2.1 m/s 402.30 MHz Cervignano del Friuli (IT) 0.00 km FOUND
S1440080 RS41 2021-01-28 01:14:56 45.9895 12.6544 291 ° 6 km/h 189 m -3.2 m/s 402.30 MHz Pordenone (IT) 0.00 km UNKNOWN
S1530264 RS41 2021-01-27 14:26:22 46.772 12.2901 143 ° 69 km/h 3908 m -5.5 m/s 402.30 MHz Brunico (IT) 0.00 km UNKNOWN
S2270090 RS41 2021-01-26 13:57:55 46.3746 13.394 141 ° 31 km/h 1838 m -4.1 m/s 402.30 MHz Bovec (SI) 0.00 km UNKNOWN
S1520731 RS41 2021-01-26 06:40:36 47.1277 12.8996 157 ° 70 km/h 4887 m -4.5 m/s 402.30 MHz Rauris (AT) 0.00 km UNKNOWN
S2260977 RS41 2021-01-26 01:23:58 47.1244 13.4087 132 ° 69 km/h 3697 m -2.7 m/s 402.30 MHz Sankt Michael im Lungau (AT) 0.00 km UNKNOWN
S2260959 RS41 2021-01-25 12:56:59 47.9106 13.134 7 ° 9 km/h 683 m -2.8 m/s 402.30 MHz Henndorf am Wallersee (AT) 0.00 km FOUND
S1440081 RS41 2021-01-25 06:57:14 47.8805 13.3095 337 ° 7 km/h 918 m -6.5 m/s 402.30 MHz Mondsee (AT) 0.00 km FOUND
S1420917 RS41 2021-01-25 00:46:09 48.0216 13.1053 90 ° 7 km/h 666 m -5.7 m/s 402.30 MHz Mattsee (AT) 0.00 km FOUND
S2260933 RS41 2021-01-24 13:48:40 48.8203 14.66 82 ° 48 km/h 699 m -2.8 m/s 402.30 MHz Trhové Sviny (CZ) 0.00 km UNKNOWN
S2260999 RS41 2021-01-24 07:14:24 48.5531 14.1448 72 ° 26 km/h 873 m -4.3 m/s 402.30 MHz Vorderweissenbach (AT) 0.00 km FOUND
S1530275 RS41 2021-01-24 01:46:29 48.5656 14.0345 38 ° 2 km/h 812 m -3.0 m/s 402.30 MHz Haslach an der Mühl (AT) 0.00 km NEED ATTENTION
S2260991 RS41 2021-01-23 13:01:19 48.9192 13.3304 129 ° 24 km/h 1594 m -4.3 m/s 402.30 MHz Deggendorf (DE) 0.00 km UNKNOWN
S2260941 RS41 2021-01-23 06:46:52 48.8042 12.349 85 ° 52 km/h 628 m -1.7 m/s 402.30 MHz Straubing (DE) 0.00 km NEED ATTENTION
S1650619 RS41 2021-01-23 00:15:30 48.9181 12.2205 331 ° 31 km/h 1029 m -3.4 m/s 402.30 MHz Regensburg (DE) 0.00 km FOUND
S2260942 RS41 2021-01-22 12:42:35 48.809 13.834 53 ° 39 km/h 1413 m -5.2 m/s 402.30 MHz Ulrichsberg (AT) 0.00 km UNKNOWN
S1520377 RS41 2021-01-22 06:20:41 48.529 13.0165 82 ° 56 km/h 1053 m -7.2 m/s 402.30 MHz Braunau am Inn (AT) 0.00 km UNKNOWN
S1650610 RS41 2021-01-22 00:04:31 48.7631 12.7177 358 ° 43 km/h 732 m -3.8 m/s 402.30 MHz Straubing (DE) 0.00 km FOUND
S1420916 RS41 2021-01-21 12:48:01 48.7609 13.9684 60 ° 43 km/h 1224 m -5.5 m/s 402.30 MHz Ulrichsberg (AT) 0.00 km UNKNOWN
S1530261 RS41 2021-01-21 07:05:18 48.7793 14.0161 67 ° 19 km/h 1200 m -4.1 m/s 402.30 MHz Ulrichsberg (AT) 0.00 km UNKNOWN
S2260727 RS41 2021-01-21 00:22:37 48.5503 12.2875 343 ° 24 km/h 575 m -2.2 m/s 402.30 MHz Landshut (DE) 0.00 km UNKNOWN
S2270073 RS41 2021-01-20 13:50:11 48.5393 15.5372 19 ° 15 km/h 655 m -1.9 m/s 402.30 MHz Gföhl (AT) 0.00 km FOUND
S2260739 RS41 2021-01-20 06:08:28 48.0797 12.8682 355 ° 22 km/h 576 m -4.9 m/s 402.30 MHz Ostermiething (AT) 0.00 km NEED ATTENTION
S2260939 RS41 2021-01-20 00:38:17 47.8956 13.77 345 ° 11 km/h 639 m -3.4 m/s 402.30 MHz Altmünster (AT) 0.00 km UNKNOWN
S1641130 RS41 2021-01-19 12:16:50 47.2056 13.1177 117 ° 76 km/h 4259 m -3.9 m/s 402.30 MHz Bad Hofgastein (AT) 0.00 km UNKNOWN
S2260724 RS41 2021-01-19 07:41:51 46.4778 14.5406 41 ° 13 km/h 1312 m -2.8 m/s 402.30 MHz Bad Eisenkappel (AT) 0.00 km FOUND
S2260985 RS41 2021-01-19 01:40:28 47.0091 15.0516 25 ° 20 km/h 860 m -3.1 m/s 402.30 MHz Maria Lankowitz (AT) 0.00 km FOUND
S2260726 RS41 2021-01-18 12:30:27 47.4221 12.6854 128 ° 44 km/h 2816 m -3.4 m/s 402.30 MHz Leogang (AT) 0.00 km UNKNOWN
S2260723 RS41 2021-01-18 07:31:05 47.441 14.1756 126 ° 69 km/h 2519 m -2.2 m/s 402.30 MHz Irdning (AT) 0.00 km UNKNOWN
S2260944 RS41 2021-01-18 01:22:52 47.3848 13.6476 142 ° 80 km/h 3124 m -3.5 m/s 402.30 MHz Schladming (AT) 0.00 km UNKNOWN
S2260307 RS41 2021-01-17 13:04:07 47.1305 13.2567 128 ° 52 km/h 2776 m -4.9 m/s 402.30 MHz Badgastein (AT) 0.00 km UNKNOWN
S2251241 RS41 2021-01-17 07:41:51 46.6144 13.5666 112 ° 22 km/h 2125 m -1.8 m/s 402.30 MHz Bleiberg ob Villach (AT) 0.00 km FOUND
S2270044 RS41 2021-01-17 00:29:46 47.0774 13.0995 147 ° 78 km/h 3311 m -8.9 m/s 402.30 MHz Badgastein (AT) 0.00 km UNKNOWN
S1520729 RS41 2021-01-16 13:52:43 46.0486 13.0149 329 ° 2 km/h 211 m -1.7 m/s 402.30 MHz Codroipo (IT) 0.00 km FOUND
S2260781 RS41 2021-01-16 06:46:30 46.7093 12.573 182 ° 85 km/h 3744 m -6.7 m/s 402.30 MHz Lienz (AT) 0.00 km FOUND
S2260930 RS41 2021-01-16 00:18:40 47.0985 12.1657 173 ° 83 km/h 4790 m -4.3 m/s 402.30 MHz Neukirchen am Großvenediger (AT) 0.00 km UNKNOWN
S2260891 RS41 2021-01-15 12:44:25 47.0421 13.6821 150 ° 57 km/h 2596 m -8.4 m/s 402.30 MHz Sankt Michael im Lungau (AT) 0.00 km UNKNOWN
S2260767 RS41 2021-01-15 07:43:17 46.6762 14.4701 77 ° 6 km/h 682 m -2.2 m/s 402.30 MHz Poggersdorf (AT) 0.00 km NEED ATTENTION
S2260765 RS41 2021-01-15 00:45:26 47.0788 13.7373 136 ° 39 km/h 3449 m -4.0 m/s 402.30 MHz Tamsweg (AT) 0.00 km UNKNOWN
S2260869 RS41 2021-01-14 12:51:21 46.6737 14.6384 307 ° 9 km/h 550 m -3.7 m/s 402.30 MHz Völkermarkt (AT) 0.00 km FOUND
S2251453 RS41 2021-01-14 06:48:51 46.4561 14.7487 136 ° 28 km/h 1680 m -3.7 m/s 402.30 MHz Solčava (SI) 0.00 km UNKNOWN
S2260889 RS41 2021-01-14 01:14:30 46.1595 15.531 71 ° 26 km/h 605 m -2.3 m/s 402.30 MHz Podčetrtek (SI) 0.00 km FOUND
S2270064 RS41 2021-01-13 13:49:01 46.2173 15.536 96 ° 4 km/h 342 m -1.8 m/s 402.30 MHz Šmarje (SI) 0.00 km LOST
S2260908 RS41 2021-01-13 06:52:48 46.9787 14.4007 153 ° 22 km/h 1412 m -2.7 m/s 402.30 MHz Friesach (AT) 0.00 km FOUND
S1610292 RS41 2021-01-13 01:48:25 47.3194 15.6734 136 ° 11 km/h 831 m -1.7 m/s 402.30 MHz Birkfeld (AT) 0.00 km FOUND
S2260992 RS41 2021-01-12 13:07:34 47.983 15.1161 69 ° 41 km/h 894 m -3.9 m/s 402.30 MHz Scheibbs (AT) 0.00 km UNKNOWN
S2260947 RS41 2021-01-12 08:06:01 47.8339 16.1239 124 ° 4 km/h 616 m -2.8 m/s 402.30 MHz Bad Fischau (AT) 0.00 km FOUND
S2251717 RS41 2021-01-12 07:46:13 47.8941 14.2973 96 ° 54 km/h 1211 m -2.2 m/s 404.70 MHz Molln (AT) 0.00 km UNKNOWN
S2251240 RS41 2021-01-12 00:58:27 48.0031 13.9031 49 ° 9 km/h 556 m -3.2 m/s 402.30 MHz Vorchdorf (AT) 0.00 km UNKNOWN
S2260634 RS41 2021-01-11 13:10:03 48.032 13.923 354 ° 4 km/h 542 m -4.2 m/s 402.30 MHz Vorchdorf (AT) 0.00 km UNKNOWN
S2270074 RS41 2021-01-11 06:57:24 47.8954 13.6863 23 ° 4 km/h 824 m -4.0 m/s 402.30 MHz Altmünster (AT) 0.00 km UNKNOWN
S1520732 RS41 2021-01-11 01:24:28 47.7657 13.5422 294 ° 9 km/h 1495 m -3.1 m/s 402.30 MHz Strobl (AT) 0.00 km UNKNOWN
S2260925 RS41 2021-01-10 13:45:16 48.1062 14.435 197 ° 7 km/h 396 m -1.9 m/s 402.30 MHz Dietach (AT) 0.00 km LOST
S2260912 RS41 2021-01-10 07:06:22 48.0752 15.0463 271 ° 2 km/h 397 m -6.0 m/s 402.30 MHz Steinakirchen am Forst (AT) 0.00 km FOUND
S2251239 RS41 2021-01-10 00:41:22 48.1563 14.6102 349 ° 4 km/h 433 m -9.3 m/s 402.30 MHz Sankt Pantaleon (AT) 0.00 km FOUND
S2260820 RS41 2021-01-09 12:45:50 48.2056 14.6956 64 ° 6 km/h 344 m -7.3 m/s 402.30 MHz Perg (AT) 0.00 km UNKNOWN
S0441266 RS41 2021-01-09 06:45:52 48.1525 14.5653 68 ° 19 km/h 448 m -8.3 m/s 402.30 MHz Sankt Valentin (AT) 0.00 km NEED ATTENTION
S2260773 RS41 2021-01-09 01:03:17 48.1848 14.6274 94 ° 15 km/h 320 m -3.6 m/s 402.30 MHz Sankt Pantaleon (AT) 0.00 km LOST
S2260822 RS41 2021-01-08 13:06:42 48.3548 14.5586 84 ° 7 km/h 475 m -2.9 m/s 402.30 MHz Pregarten (AT) 0.00 km FOUND
S0441153 RS41 2021-01-08 06:46:53 48.3418 14.246 89 ° 4 km/h 661 m -7.0 m/s 402.30 MHz Lichtenhag (AT) 0.00 km FOUND
S2260906 RS41 2021-01-08 01:14:21 48.627 14.6271 65 ° 17 km/h 959 m -3.4 m/s 402.30 MHz Rainbach im Mühlkreis (AT) 0.00 km UNKNOWN
S2251455 RS41 2021-01-07 12:20:24 48.4663 12.9193 70 ° 19 km/h 853 m -8.0 m/s 402.30 MHz Braunau am Inn (AT) 0.00 km UNKNOWN
S2260936 RS41 2021-01-07 06:38:01 48.3755 13.3857 61 ° 20 km/h 392 m -5.7 m/s 402.30 MHz Schärding (AT) 0.00 km UNKNOWN
S2270479 RS41 2021-01-07 00:40:20 48.3432 12.7587 97 ° 39 km/h 856 m -4.2 m/s 402.30 MHz Braunau am Inn (AT) 0.00 km FOUND
S2251171 RS41 2021-01-06 13:25:57 48.5472 12.6889 77 ° 20 km/h 1160 m -2.3 m/s 402.30 MHz Straubing (DE) 0.00 km FOUND
S2270513 RS41 2021-01-06 06:49:28 48.4663 11.9891 178 ° 9 km/h 578 m -3.3 m/s 402.30 MHz Landshut (DE) 0.00 km FOUND
S2260996 RS41 2021-01-06 00:55:23 48.6416 12.1273 196 ° 13 km/h 636 m -3.4 m/s 402.30 MHz Landshut (DE) 0.00 km UNKNOWN
S2260784 RS41 2021-01-05 13:15:05 48.6106 12.5455 136 ° 4 km/h 578 m -3.0 m/s 402.30 MHz Straubing (DE) 0.00 km FOUND
S2251172 RS41 2021-01-05 07:08:14 48.4762 12.1582 334 ° 6 km/h 677 m -2.9 m/s 402.30 MHz Landshut (DE) 0.00 km FOUND
S1740153 RS41 2021-01-05 00:41:33 48.3508 12.3035 267 ° 15 km/h 822 m -6.2 m/s 402.30 MHz Waldkraiburg (DE) 0.00 km LOST
S2260786 RS41 2021-01-04 12:29:25 48.1842 12.4432 301 ° 6 km/h 819 m -16.2 m/s 402.30 MHz Waldkraiburg (DE) 0.00 km LOST
S2260782 RS41 2021-01-04 07:13:06 48.3569 12.4167 262 ° 9 km/h 824 m -3.6 m/s 402.30 MHz Waldkraiburg (DE) 0.00 km LOST
S2270482 RS41 2021-01-04 01:47:05 48.4305 12.9151 274 ° 13 km/h 560 m -1.9 m/s 402.30 MHz Braunau am Inn (AT) 0.00 km UNKNOWN
S2270049 RS41 2021-01-03 13:31:36 48.586 12.9152 33 ° 9 km/h 743 m -1.9 m/s 402.30 MHz Deggendorf (DE) 0.00 km FOUND
S2260731 RS41 2021-01-03 07:07:16 48.5895 12.4243 20 ° 9 km/h 578 m -2.2 m/s 402.30 MHz Landshut (DE) 0.00 km FOUND
S2270076 RS41 2021-01-03 00:44:21 48.3328 12.8026 8 ° 9 km/h 953 m -6.0 m/s 402.30 MHz Braunau am Inn (AT) 0.00 km UNKNOWN
S2270051 RS41 2021-01-02 13:37:20 48.5863 13.791 271 ° 22 km/h 811 m -2.2 m/s 402.30 MHz Sarleinsbach (AT) 0.00 km UNKNOWN
S2260748 RS41 2021-01-02 06:52:49 48.3778 13.471 310 ° 20 km/h 450 m -6.8 m/s 402.30 MHz Taufkirchen an der Pram (AT) 0.00 km FOUND
S2270500 RS41 2021-01-02 00:47:09 48.3724 13.4292 298 ° 13 km/h 522 m -6.3 m/s 402.30 MHz Taufkirchen an der Pram (AT) 0.00 km FOUND
S2270530 RS41 2021-01-01 13:11:38 48.4221 14.1504 71 ° 2 km/h 683 m -3.7 m/s 402.30 MHz Herzogsdorf (AT) 0.00 km FOUND
S1641129 RS41 2021-01-01 06:52:22 48.2548 14.1261 286 ° 9 km/h 409 m -6.9 m/s 402.30 MHz Alkoven (AT) 0.00 km FOUND
S2260988 RS41 2021-01-01 01:51:55 48.3408 14.5973 349 ° 9 km/h 543 m -2.3 m/s 402.30 MHz Tragwein (AT) 0.00 km NEED ATTENTION
S2270497 RS41 2020-12-31 13:00:33 48.4146 14.1816 342 ° 7 km/h 704 m -5.0 m/s 402.30 MHz Gramastetten (AT) 0.00 km FOUND
S1740165 RS41 2020-12-31 06:41:15 48.3602 14.1052 154 ° 2 km/h 474 m -8.9 m/s 402.30 MHz Walding (AT) 0.00 km FOUND
S1610304 RS41 2020-12-31 01:11:53 48.6066 14.8594 57 ° 30 km/h 926 m -3.7 m/s 402.30 MHz Grossgerungs (AT) 0.00 km UNKNOWN
S2260755 RS41 2020-12-30 13:14:18 49.006 15.0533 140 ° 13 km/h 746 m -3.6 m/s 402.30 MHz Litschau (AT) 0.00 km FOUND
S2270502 RS41 2020-12-30 06:31:00 48.7702 14.1616 43 ° 6 km/h 1233 m -9.9 m/s 402.30 MHz Český Krumlov (CZ) 0.00 km UNKNOWN
S2270098 RS41 2020-12-30 01:13:50 49.3638 15.2222 296 ° 7 km/h 1003 m -3.0 m/s 402.30 MHz Pelhřimov (CZ) 0.00 km UNKNOWN
S2260890 RS41 2020-12-29 12:44:36 49.3118 15.2097 57 ° 28 km/h 932 m -5.4 m/s 402.30 MHz Pelhřimov (CZ) 0.00 km UNKNOWN
S2260870 RS41 2020-12-29 06:05:19 48.6796 12.9268 33 ° 30 km/h 714 m -3.7 m/s 402.30 MHz Deggendorf (DE) 0.00 km FOUND
S2260625 RS41 2020-12-29 01:21:35 49.5066 14.8114 105 ° 43 km/h 1064 m -2.4 m/s 402.30 MHz Tábor (CZ) 0.00 km UNKNOWN
S2260725 RS41 2020-12-28 12:56:33 49.4753 14.6855 319 ° 46 km/h 946 m -5.8 m/s 402.30 MHz Tábor (CZ) 0.00 km LOST
S2260926 RS41 2020-12-28 07:15:43 48.8714 12.1519 260 ° 20 km/h 597 m -2.6 m/s 404.70 MHz Regensburg (DE) 0.00 km FOUND
S2270495 RS41 2020-12-28 06:03:06 48.8296 12.1871 330 ° 19 km/h 610 m -3.0 m/s 402.30 MHz Regensburg (DE) 0.00 km FOUND
S2260757 RS41 2020-12-28 03:23:08 50.1346 14.7364 11 ° 50 km/h 3333 m -3.2 m/s 404.70 MHz Čelákovice (CZ) 0.00 km FOUND
S2270498 RS41 2020-12-27 23:52:51 48.8241 12.195 342 ° 33 km/h 842 m -5.0 m/s 402.30 MHz Regensburg (DE) 0.00 km FOUND
S2260772 RS41 2020-12-27 14:27:59 48.6611 14.5481 328 ° 41 km/h 1068 m -3.1 m/s 404.70 MHz Kaplice (CZ) 0.00 km FOUND
S2260742 RS41 2020-12-27 12:18:01 48.3966 12.1455 343 ° 17 km/h 884 m -2.3 m/s 402.30 MHz Landshut (DE) 0.00 km UNKNOWN
S2270083 RS41 2020-12-27 06:38:12 48.0175 12.0116 326 ° 22 km/h 746 m -3.6 m/s 402.30 MHz Rosenheim (DE) 0.00 km UNKNOWN
S2260929 RS41 2020-12-27 01:10:09 47.9746 11.6027 351 ° 13 km/h 723 m -4.3 m/s 404.70 MHz Unterhaching (DE) 0.00 km NEED ATTENTION
S2260310 RS41 2020-12-27 00:11:49 47.91 11.4691 353 ° 19 km/h 737 m -2.2 m/s 402.30 MHz Geretsried (DE) 0.00 km FOUND
S2260744 RS41 2020-12-26 12:51:45 47.6228 13.5308 43 ° 13 km/h 1819 m -4.2 m/s 402.30 MHz Bad Goisern (AT) 0.00 km UNKNOWN
S0441137 RS41 2020-12-26 06:40:45 47.3035 11.9189 149 ° 24 km/h 1962 m -4.2 m/s 402.30 MHz Fügen (AT) 0.00 km UNKNOWN
S0441645 RS41 2020-12-26 00:42:16 47.5502 12.994 176 ° 24 km/h 3675 m -5.1 m/s 402.30 MHz Golling an der Salzach (AT) 0.00 km UNKNOWN
S2270504 RS41 2020-12-25 12:54:22 48.1381 13.4283 131 ° 26 km/h 739 m -1.9 m/s 402.30 MHz Waldzell (AT) 0.00 km FOUND
S2260785 RS41 2020-12-25 06:23:25 48.2123 13.3699 62 ° 44 km/h 596 m -8.6 m/s 402.30 MHz Mettmach (AT) 0.00 km FOUND
S2260937 RS41 2020-12-25 00:33:07 48.1779 13.5798 93 ° 22 km/h 671 m -2.5 m/s 402.30 MHz Eberschwang (AT) 0.00 km UNKNOWN
S2270514 RS41 2020-12-24 12:52:58 48.2521 15.7523 66 ° 41 km/h 291 m -4.7 m/s 402.30 MHz Böheimkirchen (AT) 0.00 km FOUND
S2270077 RS41 2020-12-24 06:28:29 48.6836 14.0685 95 ° 31 km/h 1032 m -4.1 m/s 402.30 MHz Ulrichsberg (AT) 0.00 km UNKNOWN
S2270481 RS41 2020-12-24 00:13:27 48.4333 13.6719 122 ° 15 km/h 662 m -4.4 m/s 402.30 MHz Sankt Florian am Inn (AT) 0.00 km UNKNOWN
S2270635 RS41 2020-12-23 12:48:53 48.098 14.3149 68 ° 6 km/h 435 m -4.9 m/s 402.30 MHz Sierning (AT) 0.00 km LOST
S2251233 RS41 2020-12-23 07:20:02 47.729 14.9604 105 ° 24 km/h 1550 m -5.1 m/s 402.30 MHz Landl (AT) 0.00 km UNKNOWN
S2260728 RS41 2020-12-23 00:35:59 47.9715 14.4872 90 ° 33 km/h 801 m -8.4 m/s 402.30 MHz Behamberg (AT) 0.00 km UNKNOWN
S2270461 RS41 2020-12-22 12:35:27 47.8502 13.8679 93 ° 28 km/h 1369 m -12.2 m/s 402.30 MHz Ebensee (AT) 0.00 km UNKNOWN
S2270093 RS41 2020-12-22 07:45:21 47.0742 15.0621 280 ° 6 km/h 1074 m -2.6 m/s 402.30 MHz Maria Lankowitz (AT) 0.00 km FOUND
S2260788 RS41 2020-12-22 00:59:04 47.4702 13.4675 108 ° 19 km/h 2319 m -3.1 m/s 402.30 MHz Eben im Pongau (AT) 0.00 km UNKNOWN
S2260793 RS41 2020-12-21 12:50:45 47.5647 13.2509 41 ° 9 km/h 2067 m -4.2 m/s 402.30 MHz Golling an der Salzach (AT) 0.00 km UNKNOWN
S2251236 RS41 2020-12-21 06:47:12 47.9166 13.4305 66 ° 11 km/h 816 m -5.3 m/s 402.30 MHz Sankt Georgen im Attergau (AT) 0.00 km UNKNOWN
S2270449 RS41 2020-12-21 02:39:16 48.8166 14.3149 45 ° 13 km/h 771 m -2.6 m/s 402.30 MHz Český Krumlov (CZ) 0.00 km UNKNOWN
S2260730 RS41 2020-12-20 13:03:05 48.7166 13.0199 358 ° 6 km/h 754 m -3.8 m/s 402.30 MHz Deggendorf (DE) 0.00 km UNKNOWN
S2251480 RS41 2020-12-20 07:13:05 48.6413 12.8361 309 ° 9 km/h 714 m -4.3 m/s 402.30 MHz Deggendorf (DE) 0.00 km UNKNOWN
S2251232 RS41 2020-12-20 01:15:41 48.5782 12.6952 322 ° 17 km/h 793 m -3.5 m/s 402.30 MHz Straubing (DE) 0.00 km UNKNOWN
S2251457 RS41 2020-12-19 14:05:26 48.7327 12.6551 309 ° 20 km/h 643 m -1.8 m/s 402.30 MHz Straubing (DE) 0.00 km UNKNOWN
S2270097 RS41 2020-12-19 06:58:53 48.4977 12.2778 329 ° 9 km/h 785 m -5.7 m/s 402.30 MHz Landshut (DE) 0.00 km FOUND
S2270493 RS41 2020-12-19 00:49:52 48.4087 12.1944 314 ° 11 km/h 1203 m -8.9 m/s 402.30 MHz Landshut (DE) 0.00 km UNKNOWN
S2260783 RS41 2020-12-18 13:47:42 48.2242 12.4806 256 ° 17 km/h 669 m -2.4 m/s 402.30 MHz Waldkraiburg (DE) 0.00 km NEED ATTENTION
S2260722 RS41 2020-12-18 06:35:22 48.1541 12.3407 324 ° 11 km/h 754 m -12.6 m/s 402.30 MHz Waldkraiburg (DE) 0.00 km FOUND
S2270450 RS41 2020-12-18 00:59:57 48.2337 12.8137 278 ° 7 km/h 547 m -12.3 m/s 402.30 MHz Hochburg-Ach (AT) 0.00 km UNKNOWN
S2251231 RS41 2020-12-17 12:43:02 48.4062 12.637 96 ° 35 km/h 1334 m -4.2 m/s 402.30 MHz Waldkraiburg (DE) 0.00 km FOUND
S2270050 RS41 2020-12-17 07:32:20 48.1161 12.9647 49 ° 6 km/h 603 m -2.7 m/s 402.30 MHz Eggelsberg (AT) 0.00 km FOUND
S2260792 RS41 2020-12-17 01:07:11 48.0634 12.6405 293 ° 11 km/h 644 m -3.5 m/s 402.30 MHz Traunreut (DE) 0.00 km FOUND
S2270094 RS41 2020-12-16 13:04:51 48.4663 12.4284 276 ° 28 km/h 1158 m -3.0 m/s 402.30 MHz Landshut (DE) 0.00 km UNKNOWN
S2270075 RS41 2020-12-16 08:12:22 48.8464 13.2073 313 ° 9 km/h 1212 m -2.2 m/s 402.30 MHz Deggendorf (DE) 0.00 km UNKNOWN
S2270085 RS41 2020-12-16 02:13:46 48.9262 13.1723 97 ° 9 km/h 1363 m -3.2 m/s 402.30 MHz Deggendorf (DE) 0.00 km UNKNOWN
S2260796 RS41 2020-12-15 13:13:28 48.716 12.9901 202 ° 4 km/h 800 m -2.9 m/s 402.30 MHz Deggendorf (DE) 0.00 km FOUND
S2260819 RS41 2020-12-15 07:03:45 48.6865 12.7197 270 ° 26 km/h 499 m -1.8 m/s 402.30 MHz Straubing (DE) 0.00 km FOUND
S2270086 RS41 2020-12-15 02:42:00 48.425 13.0638 281 ° 22 km/h 615 m -1.8 m/s 404.70 MHz Braunau am Inn (AT) 0.00 km UNKNOWN
S2260768 RS41 2020-12-15 00:14:49 48.4423 12.3707 320 ° 31 km/h 1034 m -2.8 m/s 402.30 MHz Landshut (DE) 0.00 km UNKNOWN
S2270439 RS41 2020-12-14 13:14:16 47.7634 13.3735 8 ° 7 km/h 1298 m -3.8 m/s 402.30 MHz Sankt Gilgen (AT) 0.00 km UNKNOWN
S2270069 RS41 2020-12-14 06:38:35 47.496 12.7011 69 ° 17 km/h 2081 m -5.5 m/s 402.30 MHz Leogang (AT) 0.00 km UNKNOWN
S2260911 RS41 2020-12-14 00:44:04 47.3141 12.8508 165 ° 26 km/h 4358 m -4.5 m/s 402.30 MHz Zell am See (AT) 0.00 km UNKNOWN
S2260791 RS41 2020-12-13 12:28:15 47.5511 12.4007 135 ° 26 km/h 2088 m -9.3 m/s 402.30 MHz Kirchdorf in Tirol (AT) 0.00 km UNKNOWN
S2260635 RS41 2020-12-13 06:45:49 47.6958 12.4941 130 ° 31 km/h 1736 m -3.8 m/s 402.30 MHz Kössen (AT) 0.00 km UNKNOWN
S2260756 RS41 2020-12-13 00:56:14 47.9804 12.6326 78 ° 39 km/h 800 m -4.2 m/s 402.30 MHz Traunreut (DE) 0.00 km FOUND
S2260818 RS41 2020-12-12 13:37:11 48.3882 13.0615 301 ° 7 km/h 621 m -2.9 m/s 402.30 MHz Braunau am Inn (AT) 0.00 km FOUND
S2260630 RS41 2020-12-12 06:53:32 48.2563 12.5793 264 ° 15 km/h 566 m -4.9 m/s 402.30 MHz Waldkraiburg (DE) 0.00 km FOUND
S2270072 RS41 2020-12-12 01:11:55 48.2559 12.7434 309 ° 13 km/h 534 m -4.2 m/s 402.30 MHz Hochburg-Ach (AT) 0.00 km UNKNOWN
S2270071 RS41 2020-12-11 12:22:06 47.9986 12.2504 19 ° 20 km/h 1817 m -6.4 m/s 402.30 MHz Rosenheim (DE) 0.00 km FOUND
S2260907 RS41 2020-12-11 07:04:02 47.7967 12.7837 281 ° 17 km/h 1326 m -3.4 m/s 402.30 MHz Grossgmain (AT) 0.00 km UNKNOWN
S2270081 RS41 2020-12-11 01:18:22 47.6809 12.6804 75 ° 19 km/h 1921 m -2.1 m/s 402.30 MHz Grossgmain (AT) 0.00 km UNKNOWN
S2270079 RS41 2020-12-10 13:17:47 48.2577 12.3782 205 ° 4 km/h 746 m -2.5 m/s 402.30 MHz Waldkraiburg (DE) 0.00 km UNKNOWN
S2260868 RS41 2020-12-10 07:12:10 48.4158 12.1469 115 ° 7 km/h 671 m -3.0 m/s 402.30 MHz Landshut (DE) 0.00 km UNKNOWN
S2260892 RS41 2020-12-10 00:57:46 48.662 12.3482 95 ° 17 km/h 542 m -3.8 m/s 402.30 MHz Landshut (DE) 0.00 km UNKNOWN
S2241789 RS41 2020-12-09 12:55:45 48.952 12.3192 288 ° 24 km/h 970 m -5.6 m/s 402.30 MHz Regensburg (DE) 0.00 km FOUND
S2260787 RS41 2020-12-09 06:37:05 48.8967 11.7912 126 ° 9 km/h 800 m -3.9 m/s 402.30 MHz Regensburg (DE) 0.00 km FOUND
S2260894 RS41 2020-12-09 00:58:15 49.3183 12.2514 325 ° 39 km/h 1351 m -2.7 m/s 402.30 MHz Schwandorf (DE) 0.00 km FOUND
S2260795 RS41 2020-12-08 13:07:20 49.4132 12.7871 240 ° 19 km/h 789 m -3.9 m/s 402.30 MHz Domažlice (CZ) 0.00 km FOUND
S2260632 RS41 2020-12-08 07:48:16 49.5845 13.4556 359 ° 15 km/h 1034 m -2.2 m/s 402.30 MHz Přeštice (CZ) 0.00 km FOUND
S2260570 RS41 2020-12-08 01:35:12 49.3012 13.1802 276 ° 17 km/h 689 m -2.1 m/s 402.30 MHz Klatovy (CZ) 0.00 km UNKNOWN
S2270065 RS41 2020-12-07 12:56:06 49.3775 12.5979 333 ° 9 km/h 792 m -12.5 m/s 402.30 MHz Domažlice (CZ) 0.00 km FOUND
S2260766 RS41 2020-12-07 07:06:58 49.593 12.3054 345 ° 13 km/h 697 m -3.5 m/s 402.30 MHz Weiden in der Oberpfalz (DE) 0.00 km UNKNOWN
S2270007 RS41 2020-12-07 01:06:45 49.7443 11.7963 29 ° 20 km/h 618 m -2.8 m/s 402.30 MHz Weiden in der Oberpfalz (DE) 0.00 km UNKNOWN
S2260636 RS41 2020-12-06 12:51:34 49.6391 12.5154 315 ° 41 km/h 1273 m -3.5 m/s 402.30 MHz Tachov (CZ) 0.00 km FOUND
S2260628 RS41 2020-12-06 07:33:47 50.3597 12.653 311 ° 43 km/h 996 m -4.3 m/s 402.30 MHz Nejdek (CZ) 0.00 km FOUND
S2270091 RS41 2020-12-06 01:38:52 49.6866 12.7152 289 ° 20 km/h 745 m -8.3 m/s 404.70 MHz Tachov (CZ) 0.00 km UNKNOWN
S2260629 RS41 2020-12-05 23:59:50 49.3102 11.7674 317 ° 70 km/h 979 m -4.7 m/s 402.30 MHz Amberg (DE) 0.00 km FOUND
S2270082 RS41 2020-12-05 13:22:18 50.2891 13.1796 162 ° 4 km/h 970 m -2.9 m/s 402.30 MHz Klášterec nad Ohří (CZ) 0.00 km UNKNOWN
S2270008 RS41 2020-12-05 07:30:52 50.4593 13.0454 5 ° 80 km/h 1234 m -3.6 m/s 402.30 MHz Klášterec nad Ohří (CZ) 0.00 km UNKNOWN
S2270089 RS41 2020-12-05 01:06:54 49.9766 12.8417 252 ° 22 km/h 821 m -3.1 m/s 402.30 MHz Mariánské Lázně (CZ) 0.00 km UNKNOWN
S2260797 RS41 2020-12-04 12:30:00 49.2256 12.6807 337 ° 26 km/h 878 m -5.3 m/s 402.30 MHz Domažlice (CZ) 0.00 km FOUND
S2270092 RS41 2020-12-04 06:26:05 49.0157 12.2874 1 ° 37 km/h 1013 m -5.7 m/s 402.30 MHz Regensburg (DE) 0.00 km FOUND
S2270131 RS41 2020-12-04 00:47:39 48.8259 12.6416 336 ° 30 km/h 1009 m -12.1 m/s 402.30 MHz Straubing (DE) 0.00 km UNKNOWN
S2270088 RS41 2020-12-03 12:28:36 48.6911 12.2455 352 ° 15 km/h 600 m -8.1 m/s 402.30 MHz Landshut (DE) 0.00 km UNKNOWN
S2270673 RS41 2020-12-03 09:11:30 49.2027 12.5072 36 ° 11 km/h 667 m -2.4 m/s 402.30 MHz Schwandorf (DE) 0.00 km FOUND
S2270087 RS41 2020-12-03 00:43:26 48.8532 12.1555 123 ° 4 km/h 931 m -4.2 m/s 402.30 MHz Regensburg (DE) 0.00 km FOUND
S2270095 RS41 2020-12-02 13:56:03 48.6364 11.4428 254 ° 22 km/h 625 m -2.1 m/s 402.30 MHz Pfaffenhofen an der Ilm (DE) 0.00 km UNKNOWN
S1610302 RS41 2020-12-02 07:50:04 48.3508 11.1999 233 ° 26 km/h 633 m -1.9 m/s 402.30 MHz Aichach (DE) 0.00 km UNKNOWN
S1610301 RS41 2020-12-02 01:19:03 48.3673 11.2441 301 ° 9 km/h 625 m -3.1 m/s 402.30 MHz Aichach (DE) 0.00 km UNKNOWN
S1610288 RS41 2020-12-01 12:55:19 48.5061 11.9058 22 ° 19 km/h 713 m -2.8 m/s 402.30 MHz Freising (DE) 0.00 km UNKNOWN
S1610281 RS41 2020-12-01 07:14:35 48.3405 12.6144 82 ° 22 km/h 804 m -2.1 m/s 402.30 MHz Waldkraiburg (DE) 0.00 km FOUND
S1520556 RS41 2020-12-01 01:37:44 48.2577 12.9598 333 ° 7 km/h 428 m -2.5 m/s 402.30 MHz Braunau am Inn (AT) 0.00 km UNKNOWN
S1520554 RS41 2020-11-30 14:04:24 48.0373 13.2683 244 ° 7 km/h 768 m -4.1 m/s 402.30 MHz Lengau (AT) 0.00 km UNKNOWN
S1610289 RS41 2020-11-30 06:40:31 47.9738 12.0175 269 ° 11 km/h 896 m -7.4 m/s 402.30 MHz Rosenheim (DE) 0.00 km UNKNOWN
S1610280 RS41 2020-11-30 00:42:31 47.9339 11.8615 288 ° 19 km/h 902 m -5.6 m/s 402.30 MHz Vaterstetten (DE) 0.00 km UNKNOWN
S1740155 RS41 2020-11-29 13:33:07 47.7497 11.3876 239 ° 24 km/h 1001 m -2.4 m/s 402.30 MHz Geretsried (DE) 0.00 km FOUND
S1610286 RS41 2020-11-29 07:39:36 47.7639 11.3517 264 ° 7 km/h 931 m -2.1 m/s 402.30 MHz Geretsried (DE) 0.00 km FOUND
S1610306 RS41 2020-11-29 00:50:28 47.969 11.64 266 ° 30 km/h 774 m -6.1 m/s 402.30 MHz Unterhaching (DE) 0.00 km FOUND
S1610287 RS41 2020-11-28 12:33:21 48.3104 11.4119 253 ° 13 km/h 625 m -11.9 m/s 402.30 MHz Dachau (DE) 0.00 km FOUND
S1740152 RS41 2020-11-28 06:43:17 48.3489 11.4149 262 ° 6 km/h 583 m -9.8 m/s 402.30 MHz Dachau (DE) 0.00 km FOUND
S1630396 RS41 2020-11-28 01:01:30 48.3865 11.6419 229 ° 7 km/h 573 m -11.6 m/s 402.30 MHz Freising (DE) 0.00 km FOUND
S1610303 RS41 2020-11-27 13:49:25 48.3902 11.9797 259 ° 17 km/h 553 m -2.6 m/s 402.30 MHz Erding (DE) 0.00 km FOUND
S1740154 RS41 2020-11-27 06:42:20 48.3169 12.0599 326 ° 6 km/h 617 m -10.1 m/s 402.30 MHz Erding (DE) 0.00 km FOUND
S1740163 RS41 2020-11-27 01:51:54 48.3351 12.5471 144 ° 6 km/h 709 m -1.7 m/s 402.30 MHz Waldkraiburg (DE) 0.00 km LOST
S1610291 RS41 2020-11-26 12:40:57 48.3054 12.2246 341 ° 6 km/h 684 m -5.9 m/s 402.30 MHz Waldkraiburg (DE) 0.00 km UNKNOWN
S1740151 RS41 2020-11-26 08:52:31 48.2859 12.5385 236 ° 6 km/h 687 m -2.3 m/s 402.30 MHz Waldkraiburg (DE) 0.00 km FOUND
S1620391 RS41 2020-11-26 02:16:18 48.3919 12.6859 356 ° 9 km/h 682 m -2.4 m/s 402.30 MHz Waldkraiburg (DE) 0.00 km FOUND
S1610290 RS41 2020-11-25 12:41:07 48.4968 11.891 283 ° 7 km/h 600 m -2.8 m/s 402.30 MHz Freising (DE) 0.00 km FOUND
S1610305 RS41 2020-11-25 06:49:47 48.3054 12.1544 274 ° 4 km/h 727 m -13.9 m/s 402.30 MHz Erding (DE) 0.00 km FOUND
S1520730 RS41 2020-11-25 01:34:17 48.2532 12.2091 286 ° 9 km/h 699 m -3.6 m/s 402.30 MHz Waldkraiburg (DE) 0.00 km UNKNOWN
S1610283 RS41 2020-11-24 13:09:26 48.0166 11.8252 275 ° 13 km/h 743 m -3.8 m/s 402.30 MHz Vaterstetten (DE) 0.00 km FOUND
S1520551 RS41 2020-11-24 00:37:38 47.7464 12.429 348 ° 11 km/h 1206 m -10.6 m/s 402.30 MHz Kössen (AT) 0.00 km UNKNOWN
S1520555 RS41 2020-11-23 13:01:46 47.8101 13.7681 137 ° 11 km/h 1573 m -4.4 m/s 402.30 MHz Ebensee (AT) 0.00 km UNKNOWN
S1610285 RS41 2020-11-23 00:44:29 47.8734 13.327 116 ° 15 km/h 1160 m -5.9 m/s 402.30 MHz Mondsee (AT) 0.00 km UNKNOWN
S1610284 RS41 2020-11-22 12:36:59 47.7452 12.7318 98 ° 11 km/h 1427 m -6.3 m/s 402.30 MHz Grossgmain (AT) 0.00 km UNKNOWN
S1520553 RS41 2020-11-22 00:42:56 47.4702 12.1262 80 ° 7 km/h 1999 m -5.7 m/s 402.30 MHz Hopfgarten im Brixental (AT) 0.00 km UNKNOWN
S1740164 RS41 2020-11-21 13:20:00 46.7909 11.2742 202 ° 65 km/h 4054 m -2.8 m/s 402.30 MHz Merano (IT) 0.00 km UNKNOWN
S0410078 RS41 2020-11-21 00:36:02 47.009 11.0414 209 ° 109 km/h 5035 m -5.9 m/s 402.30 MHz Sölden (AT) 0.00 km UNKNOWN
S0441151 RS41 2020-11-20 12:53:36 47.3898 11.9288 268 ° 4 km/h 1247 m -5.6 m/s 402.30 MHz Alpbach (AT) 0.00 km UNKNOWN
S0441651 RS41 2020-11-20 01:19:28 48.1288 13.101 71 ° 31 km/h 587 m -3.7 m/s 402.30 MHz Schalchen (AT) 0.00 km UNKNOWN
S0441148 RS41 2020-11-19 13:21:05 48.3619 13.7114 91 ° 13 km/h 559 m -3.2 m/s 402.30 MHz Raab (AT) 0.00 km UNKNOWN
S2260774 RS41 2020-11-19 01:18:15 48.0794 12.5451 35 ° 17 km/h 624 m -2.4 m/s 402.30 MHz Traunreut (DE) 0.00 km FOUND
S2270080 RS41 2020-11-18 12:49:14 47.7069 12.2282 98 ° 7 km/h 1760 m -10.2 m/s 402.30 MHz Niederndorf (AT) 0.00 km UNKNOWN
S2260928 RS41 2020-11-18 01:23:58 46.9762 12.1166 192 ° 24 km/h 4203 m -2.7 m/s 402.30 MHz Brunico (IT) 0.00 km UNKNOWN
S2260764 RS41 2020-11-17 13:11:08 47.0135 12.3757 190 ° 57 km/h 4140 m -4.4 m/s 402.30 MHz Virgen (AT) 0.00 km UNKNOWN
S2241793 RS41 2020-11-17 00:56:58 47.1499 12.1824 184 ° 22 km/h 4029 m -3.1 m/s 402.30 MHz Neukirchen am Großvenediger (AT) 0.00 km UNKNOWN
S2241790 RS41 2020-11-16 12:44:20 48.2262 12.8035 97 ° 24 km/h 558 m -10.9 m/s 402.30 MHz Hochburg-Ach (AT) 0.00 km FOUND
S2270101 RS41 2020-11-16 00:42:54 48.2979 12.87 63 ° 17 km/h 678 m -12.1 m/s 402.30 MHz Braunau am Inn (AT) 0.00 km FOUND
S2241792 RS41 2020-11-15 13:09:33 48.2653 12.8659 270 ° 13 km/h 555 m -3.4 m/s 402.30 MHz Braunau am Inn (AT) 0.00 km NEED ATTENTION
S2260763 RS41 2020-11-15 01:17:27 47.9794 12.7499 342 ° 11 km/h 643 m -3.8 m/s 402.30 MHz Ostermiething (AT) 0.00 km LOST
S2270102 RS41 2020-11-14 13:52:58 48.1007 13.0116 227 ° 2 km/h 579 m -2.4 m/s 402.30 MHz Eggelsberg (AT) 0.00 km UNKNOWN
S2270009 RS41 2020-11-14 01:23:45 48.2995 13.3406 273 ° 4 km/h 424 m -2.8 m/s 402.30 MHz Altheim (AT) 0.00 km FOUND
S2260627 RS41 2020-11-13 13:22:24 48.2725 13.1555 259 ° 9 km/h 398 m -4.4 m/s 402.30 MHz Sankt Peter (AT) 0.00 km FOUND
S0370701 RS41 2020-11-13 00:07:51 48.0143 12.2234 118 ° 13 km/h 920 m -6.3 m/s 402.30 MHz Rosenheim (DE) 0.00 km FOUND
S2260770 RS41 2020-11-12 13:56:16 48.0365 13.0759 152 ° 9 km/h 650 m -2.5 m/s 402.30 MHz Eggelsberg (AT) 0.00 km FOUND
S2270010 RS41 2020-11-12 01:00:09 48.0862 12.2902 337 ° 6 km/h 789 m -7.7 m/s 402.30 MHz Waldkraiburg (DE) 0.00 km UNKNOWN
S2270011 RS41 2020-11-11 12:43:57 48.5262 11.985 277 ° 11 km/h 740 m -7.4 m/s 402.30 MHz Landshut (DE) 0.00 km UNKNOWN
S2241791 RS41 2020-11-11 00:55:17 48.3985 12.2337 338 ° 11 km/h 846 m -10.3 m/s 402.30 MHz Landshut (DE) 0.00 km UNKNOWN
S2270100 RS41 2020-11-10 13:30:33 48.4581 12.2416 121 ° 6 km/h 938 m -2.6 m/s 402.30 MHz Landshut (DE) 0.00 km UNKNOWN
S2251029 RS41 2020-11-10 01:05:31 48.2849 12.3718 59 ° 11 km/h 875 m -5.1 m/s 402.30 MHz Waldkraiburg (DE) 0.00 km FOUND
S2260311 RS41 2020-11-09 13:56:30 48.4852 12.4803 89 ° 6 km/h 951 m -2.4 m/s 402.30 MHz Landshut (DE) 0.00 km FOUND
S2260309 RS41 2020-11-09 01:12:03 48.5048 11.9508 303 ° 4 km/h 509 m -4.8 m/s 402.30 MHz Landshut (DE) 0.00 km FOUND
S2260909 RS41 2020-11-08 12:41:41 48.3999 11.9131 175 ° 2 km/h 589 m -10.5 m/s 402.30 MHz Erding (DE) 0.00 km FOUND
S2260631 RS41 2020-11-08 01:50:28 48.3575 12.2616 7 ° 11 km/h 641 m -2.3 m/s 402.30 MHz Waldkraiburg (DE) 0.00 km UNKNOWN
S2260626 RS41 2020-11-07 13:05:10 48.7276 11.7254 264 ° 19 km/h 726 m -4.3 m/s 402.30 MHz Ingolstadt (DE) 0.00 km UNKNOWN
S2260633 RS41 2020-11-07 01:03:31 48.6454 11.2823 286 ° 17 km/h 604 m -4.2 m/s 402.30 MHz Neuburg an der Donau (DE) 0.00 km FOUND
S2251719 RS41 2020-11-06 13:24:20 48.5615 10.8509 26 ° 4 km/h 480 m -3.0 m/s 402.30 MHz Neusäß (DE) 0.00 km FOUND
S2260798 RS41 2020-11-06 01:10:33 48.3077 10.675 256 ° 20 km/h 649 m -3.2 m/s 402.30 MHz Neusäß (DE) 0.00 km UNKNOWN
S2260821 RS41 2020-11-05 02:09:15 48.2277 12.1823 246 ° 17 km/h 702 m -1.6 m/s 402.30 MHz Waldkraiburg (DE) 0.00 km FOUND
S0441998 RS41 2020-11-04 12:30:06 48.5884 11.9275 183 ° 15 km/h 792 m -10.8 m/s 402.30 MHz Landshut (DE) 0.00 km UNKNOWN
S2260789 RS41 2020-11-04 00:43:17 49.0745 12.4664 129 ° 31 km/h 1196 m -9.6 m/s 402.30 MHz Straubing (DE) 0.00 km FOUND
S2260769 RS41 2020-11-03 01:21:46 48.5512 12.2327 87 ° 31 km/h 605 m -3.6 m/s 402.30 MHz Landshut (DE) 0.00 km UNKNOWN
S2260811 RS41 2020-11-02 13:24:54 47.9247 11.9443 99 ° 15 km/h 981 m -3.4 m/s 402.30 MHz Rosenheim (DE) 0.00 km UNKNOWN
S2260982 RS41 2020-11-02 00:45:07 47.3936 12.1353 112 ° 44 km/h 2923 m -2.9 m/s 402.30 MHz Westendorf (AT) 0.00 km UNKNOWN
S2251028 RS41 2020-11-01 13:33:48 47.5299 12.8179 135 ° 22 km/h 2313 m -1.9 m/s 402.30 MHz Saalfelden am Steinernen Meer (AT) 0.00 km NEED ATTENTION
S2260771 RS41 2020-11-01 01:50:31 47.5748 12.9696 95 ° 15 km/h 2101 m -2.2 m/s 402.30 MHz Hallein (AT) 0.00 km UNKNOWN
S2270099 RS41 2020-10-31 13:38:18 47.5348 12.9266 71 ° 15 km/h 2299 m -4.8 m/s 402.30 MHz Saalfelden am Steinernen Meer (AT) 0.00 km UNKNOWN
S2251722 RS41 2020-10-31 01:49:03 46.891 12.8334 152 ° 6 km/h 2788 m -1.9 m/s 402.30 MHz Dölsach (AT) 0.00 km UNKNOWN
S2270511 RS41 2020-10-30 13:30:23 46.7644 12.8853 130 ° 46 km/h 2859 m -2.6 m/s 402.30 MHz Dölsach (AT) 0.00 km FOUND
S2260817 RS41 2020-10-30 00:18:49 47.1576 12.7602 136 ° 104 km/h 4804 m -6.5 m/s 402.30 MHz Piesendorf (AT) 0.00 km UNKNOWN
S2270515 RS41 2020-10-29 13:03:30 47.5178 13.6484 108 ° 30 km/h 2224 m -4.5 m/s 402.30 MHz Bad Goisern (AT) 0.00 km UNKNOWN
S0410795 RS41 2020-10-29 01:21:29 48.6884 13.9451 74 ° 31 km/h 972 m -2.1 m/s 402.30 MHz Ulrichsberg (AT) 0.00 km UNKNOWN
S0441157 RS41 2020-10-28 13:14:43 48.7417 13.6264 51 ° 44 km/h 1354 m -5.4 m/s 402.30 MHz Esternberg (AT) 0.00 km UNKNOWN
S0450002 RS41 2020-10-28 00:58:00 48.4083 12.6727 2 ° 24 km/h 862 m -4.5 m/s 402.30 MHz Waldkraiburg (DE) 0.00 km UNKNOWN
S0450029 RS41 2020-10-27 13:02:23 49.2201 13.0151 6 ° 22 km/h 1007 m -3.2 m/s 402.30 MHz Kdyně (CZ) 0.00 km FOUND
S0450026 RS41 2020-10-27 00:54:50 49.4155 12.7128 71 ° 31 km/h 1071 m -3.7 m/s 402.30 MHz Domažlice (CZ) 0.00 km FOUND
S2251720 RS41 2020-10-26 12:18:15 49.1959 12.7769 101 ° 31 km/h 1140 m -5.3 m/s 402.30 MHz Kdyně (CZ) 0.00 km FOUND
S0450033 RS41 2020-10-26 00:57:00 48.9497 13.4097 284 ° 17 km/h 1465 m -5.3 m/s 402.30 MHz Vimperk (CZ) 0.00 km UNKNOWN
S0450347 RS41 2020-10-25 12:42:59 48.4153 13.1337 272 ° 11 km/h 638 m -11.6 m/s 402.30 MHz Sankt Peter (AT) 0.00 km UNKNOWN
S0450398 RS41 2020-10-25 01:59:58 47.9368 13.1308 317 ° 9 km/h 1301 m -2.2 m/s 402.30 MHz Mattsee (AT) 0.00 km FOUND
S2270148 RS41 2020-10-24 13:38:53 48.3386 13.2715 50 ° 9 km/h 391 m -3.5 m/s 402.30 MHz Altheim (AT) 0.00 km UNKNOWN
S2251721 RS41 2020-10-24 00:58:52 48.8402 13.5405 86 ° 30 km/h 1107 m -2.9 m/s 402.30 MHz Vimperk (CZ) 0.00 km UNKNOWN
S2260743 RS41 2020-10-23 13:03:49 49.1222 14.0907 38 ° 13 km/h 876 m -3.2 m/s 402.30 MHz Vodňany (CZ) 0.00 km FOUND
S2270485 RS41 2020-10-23 00:56:40 48.7292 13.944 95 ° 30 km/h 1343 m -6.0 m/s 402.30 MHz Ulrichsberg (AT) 0.00 km UNKNOWN
S2251458 RS41 2020-10-22 12:56:00 48.8684 13.6951 116 ° 15 km/h 1377 m -6.7 m/s 402.30 MHz Vimperk (CZ) 0.00 km UNKNOWN
S2270503 RS41 2020-10-22 01:16:14 48.929 13.7214 193 ° 19 km/h 1194 m -4.5 m/s 402.30 MHz Vimperk (CZ) 0.00 km UNKNOWN
S2260741 RS41 2020-10-21 01:21:55 48.3324 13.6757 298 ° 30 km/h 557 m -3.6 m/s 402.30 MHz Raab (AT) 0.00 km UNKNOWN
S2260751 RS41 2020-10-20 12:39:35 48.2438 13.0126 255 ° 7 km/h 438 m -9.4 m/s 402.30 MHz Braunau am Inn (AT) 0.00 km FOUND
S0450343 RS41 2020-10-20 00:52:32 47.7897 12.9438 34 ° 11 km/h 1134 m -5.9 m/s 402.30 MHz Viehausen (AT) 0.00 km UNKNOWN
S0441158 RS41 2020-10-19 13:27:22 47.9489 13.2866 264 ° 19 km/h 839 m -2.2 m/s 402.30 MHz Strasswalchen (AT) 0.00 km FOUND
S2270499 RS41 2020-10-19 01:29:27 48.2338 13.5018 125 ° 7 km/h 675 m -3.0 m/s 402.30 MHz Ried im Innkreis (AT) 0.00 km UNKNOWN
S2270441 RS41 2020-10-18 13:14:51 47.995 12.8066 118 ° 22 km/h 725 m -3.1 m/s 402.30 MHz Sankt Georgen bei Salzburg (AT) 0.00 km FOUND
S2260312 RS41 2020-10-18 01:51:55 47.7923 12.5877 93 ° 15 km/h 953 m -2.1 m/s 402.30 MHz Traunreut (DE) 0.00 km NEED ATTENTION
S2270512 RS41 2020-10-17 12:52:45 48.0914 12.3878 121 ° 13 km/h 909 m -12.6 m/s 402.30 MHz Waldkraiburg (DE) 0.00 km FOUND
S2270448 RS41 2020-10-17 01:30:54 47.9224 12.2544 138 ° 15 km/h 902 m -3.0 m/s 402.30 MHz Rosenheim (DE) 0.00 km FOUND
S2270445 RS41 2020-10-16 13:37:59 47.9675 11.7157 92 ° 19 km/h 803 m -2.3 m/s 402.30 MHz Unterhaching (DE) 0.00 km FOUND
S0450401 RS41 2020-10-16 01:24:24 48.147 11.4238 41 ° 15 km/h 639 m -3.1 m/s 402.30 MHz Germering (DE) 0.00 km FOUND
S2251454 RS41 2020-10-15 12:46:41 48.4376 11.4535 233 ° 9 km/h 641 m -4.1 m/s 402.30 MHz Pfaffenhofen an der Ilm (DE) 0.00 km FOUND
S0441662 RS41 2020-10-15 01:01:19 48.3721 11.4865 133 ° 9 km/h 586 m -5.1 m/s 402.30 MHz Unterschleißheim (DE) 0.00 km FOUND
S2260754 RS41 2020-10-14 12:55:41 48.3714 11.6024 131 ° 26 km/h 574 m -7.9 m/s 402.30 MHz Unterschleißheim (DE) 0.00 km FOUND
S2260753 RS41 2020-10-14 01:24:04 48.437 11.4559 176 ° 26 km/h 598 m -3.1 m/s 402.30 MHz Pfaffenhofen an der Ilm (DE) 0.00 km FOUND
S2260752 RS41 2020-10-13 13:29:21 48.406 11.5956 228 ° 4 km/h 507 m -3.0 m/s 402.30 MHz Freising (DE) 0.00 km FOUND
S0450209 RS41 2020-10-13 01:52:06 47.7957 11.7172 138 ° 20 km/h 1426 m -2.3 m/s 402.30 MHz Geretsried (DE) 0.00 km UNKNOWN
S0450348 RS41 2020-10-12 12:42:32 48.0527 11.7007 141 ° 19 km/h 712 m -6.9 m/s 402.30 MHz Unterhaching (DE) 0.00 km FOUND
S0441857 RS41 2020-10-12 01:00:55 48.1694 11.6541 122 ° 11 km/h 591 m -4.1 m/s 402.30 MHz München (DE) 0.00 km FOUND
S0510633 RS41 2020-10-11 12:55:43 48.6414 12.0797 63 ° 9 km/h 834 m -5.7 m/s 402.30 MHz Landshut (DE) 0.00 km FOUND
S0510475 RS41 2020-10-11 00:56:57 48.5735 12.514 119 ° 9 km/h 838 m -6.4 m/s 402.30 MHz Landshut (DE) 0.00 km FOUND
S0450406 RS41 2020-10-10 13:01:45 48.7152 12.9464 105 ° 33 km/h 700 m -5.4 m/s 402.30 MHz Deggendorf (DE) 0.00 km FOUND
S0510634 RS41 2020-10-10 01:56:04 48.6938 13.3396 82 ° 13 km/h 1057 m -1.6 m/s 402.30 MHz Passau (DE) 0.00 km UNKNOWN
S0450439 RS41 2020-10-09 12:49:16 48.3726 12.7584 59 ° 7 km/h 974 m -5.6 m/s 402.30 MHz Braunau am Inn (AT) 0.00 km FOUND
S0441997 RS41 2020-10-09 01:15:40 48.0199 13.3618 86 ° 30 km/h 897 m -4.0 m/s 402.30 MHz Pöndorf (AT) 0.00 km UNKNOWN
S0450440 RS41 2020-10-08 13:48:38 47.4768 13.3777 118 ° 54 km/h 2611 m -2.4 m/s 402.30 MHz Abtenau (AT) 0.00 km UNKNOWN
S0450219 RS41 2020-10-08 01:01:14 47.1368 13.1645 150 ° 54 km/h 3562 m -5.8 m/s 404.70 MHz Badgastein (AT) 0.00 km UNKNOWN
S0441996 RS41 2020-10-07 13:24:22 47.9029 12.7882 78 ° 43 km/h 829 m -4.9 m/s 404.70 MHz Sankt Georgen bei Salzburg (AT) 0.00 km FOUND
S0450444 RS41 2020-10-07 01:48:09 48.6446 13.7541 111 ° 30 km/h 1211 m -1.7 m/s 402.30 MHz Ulrichsberg (AT) 0.00 km UNKNOWN
S0450400 RS41 2020-10-06 12:37:58 48.3989 12.8439 8 ° 13 km/h 905 m -11.7 m/s 402.30 MHz Braunau am Inn (AT) 0.00 km FOUND
S0510632 RS41 2020-10-05 13:19:09 48.7468 12.8333 73 ° 15 km/h 839 m -3.9 m/s 402.30 MHz Deggendorf (DE) 0.00 km FOUND
S0450402 RS41 2020-10-05 07:57:34 49.3007 12.2438 113 ° 44 km/h 1055 m -1.9 m/s 402.30 MHz Schwandorf (DE) 0.00 km FOUND
S0450404 RS41 2020-10-05 01:03:55 49.2746 12.3124 353 ° 39 km/h 1501 m -3.0 m/s 402.30 MHz Schwandorf (DE) 0.00 km FOUND
S0441152 RS41 2020-10-04 13:40:23 49.4155 12.9968 42 ° 26 km/h 522 m -3.7 m/s 402.30 MHz Kdyně (CZ) 0.00 km FOUND
S0450208 RS41 2020-10-04 01:01:09 49.4006 12.0246 307 ° 11 km/h 798 m -5.8 m/s 402.30 MHz Schwandorf (DE) 0.00 km FOUND
S0450443 RS41 2020-10-03 13:27:30 49.7085 11.4504 91 ° 57 km/h 857 m -3.5 m/s 402.30 MHz Lauf an der Pegnitz (DE) 0.00 km LOST
S0450397 RS41 2020-10-03 00:41:25 48.8888 11.8767 324 ° 59 km/h 756 m -7.2 m/s 402.30 MHz Regensburg (DE) 0.00 km NEED ATTENTION
S0441921 RS41 2020-10-02 13:25:47 48.9745 12.6767 340 ° 50 km/h 1381 m -2.5 m/s 402.30 MHz Straubing (DE) 0.00 km UNKNOWN
S0410026 RS41 2020-10-02 00:51:01 48.408 12.2263 137 ° 13 km/h 842 m -6.1 m/s 402.30 MHz Landshut (DE) 0.00 km FOUND
S0450407 RS41 2020-10-01 12:40:33 48.3957 12.0069 79 ° 7 km/h 791 m -11.8 m/s 402.30 MHz Erding (DE) 0.00 km FOUND
S0450405 RS41 2020-10-01 01:41:59 47.8617 12.1125 294 ° 7 km/h 1045 m -1.8 m/s 402.30 MHz Rosenheim (DE) 0.00 km UNKNOWN
S0441166 RS41 2020-09-30 13:25:20 47.9943 12.0691 227 ° 9 km/h 1062 m -4.0 m/s 402.30 MHz Rosenheim (DE) 0.00 km FOUND
S0450344 RS41 2020-09-30 06:28:15 47.9779 11.952 96 ° 17 km/h 1318 m -12.7 m/s 402.30 MHz Rosenheim (DE) 0.00 km UNKNOWN
S0450346 RS41 2020-09-30 01:39:58 47.7026 12.4118 94 ° 13 km/h 1252 m -1.8 m/s 402.30 MHz Kössen (AT) 0.00 km UNKNOWN
S0441647 RS41 2020-09-29 12:48:24 47.7711 12.2981 92 ° 50 km/h 1436 m -6.0 m/s 402.30 MHz Kössen (AT) 0.00 km UNKNOWN
S0370702 RS41 2020-09-29 07:34:06 47.2907 12.3808 145 ° 43 km/h 2957 m -2.4 m/s 402.30 MHz Bramberg am Wildkogel (AT) 0.00 km UNKNOWN
S0441656 RS41 2020-09-29 01:09:22 47.6268 12.1024 115 ° 24 km/h 1921 m -3.0 m/s 402.30 MHz Kufstein (AT) 0.00 km UNKNOWN
S0410025 RS41 2020-09-28 13:04:40 48.0044 11.4347 349 ° 7 km/h 772 m -4.7 m/s 402.30 MHz Starnberg (DE) 0.00 km FOUND
S0441156 RS41 2020-09-28 07:57:57 48.0028 10.8183 142 ° 19 km/h 905 m -1.6 m/s 402.30 MHz Landsberg am Lech (DE) 0.00 km UNKNOWN
S0441155 RS41 2020-09-28 00:52:57 48.5727 11.3812 230 ° 26 km/h 632 m -7.2 m/s 402.30 MHz Pfaffenhofen an der Ilm (DE) 0.00 km UNKNOWN
S0450025 RS41 2020-09-27 12:41:51 48.4945 11.4128 28 ° 15 km/h 653 m -3.6 m/s 402.30 MHz Pfaffenhofen an der Ilm (DE) 0.00 km FOUND
S0510478 RS41 2020-09-27 07:20:55 48.4724 11.5075 63 ° 17 km/h 603 m -2.2 m/s 402.30 MHz Pfaffenhofen an der Ilm (DE) 0.00 km LOST
S0450035 RS41 2020-09-27 02:01:52 48.5504 11.7945 57 ° 35 km/h 621 m -2.3 m/s 402.30 MHz Freising (DE) 0.00 km LOST
S0441149 RS41 2020-09-26 12:39:18 48.3565 11.7665 67 ° 41 km/h 546 m -5.6 m/s 402.30 MHz Freising (DE) 0.00 km FOUND
S0441136 RS41 2020-09-26 07:25:37 48.4366 11.7056 81 ° 31 km/h 580 m -2.5 m/s 402.30 MHz Freising (DE) 0.00 km FOUND
S0441141 RS41 2020-09-26 02:15:09 48.7062 11.7134 93 ° 46 km/h 745 m -2.6 m/s 402.30 MHz Ingolstadt (DE) 0.00 km UNKNOWN
S0450210 RS41 2020-09-25 13:27:04 49.3882 12.2191 96 ° 22 km/h 941 m -2.4 m/s 402.30 MHz Schwandorf (DE) 0.00 km UNKNOWN
S0410028 RS41 2020-09-25 06:40:00 48.9184 12.3105 109 ° 26 km/h 982 m -5.4 m/s 402.30 MHz Regensburg (DE) 0.00 km UNKNOWN
S0441109 RS41 2020-09-25 01:18:29 49.2187 12.9247 94 ° 35 km/h 1486 m -4.5 m/s 402.30 MHz Kdyně (CZ) 0.00 km UNKNOWN
S0450178 RS41 2020-09-24 12:42:37 48.7353 12.7468 66 ° 9 km/h 1007 m -4.7 m/s 402.30 MHz Deggendorf (DE) 0.00 km FOUND
S0450534 RS41 2020-09-24 06:58:32 48.3692 12.9857 33 ° 24 km/h 587 m -3.5 m/s 402.30 MHz Braunau am Inn (AT) 0.00 km FOUND
S0450532 RS41 2020-09-24 00:56:42 48.4191 12.7045 74 ° 22 km/h 1146 m -4.3 m/s 402.30 MHz Braunau am Inn (AT) 0.00 km FOUND
S0410027 RS41 2020-09-23 13:31:07 48.4768 12.2291 70 ° 24 km/h 871 m -2.5 m/s 402.30 MHz Landshut (DE) 0.00 km FOUND
S0440697 RS41 2020-09-23 06:57:05 48.4697 12.0538 58 ° 20 km/h 622 m -12.5 m/s 402.30 MHz Landshut (DE) 0.00 km FOUND
S0410077 RS41 2020-09-23 00:54:40 48.5963 11.9224 83 ° 15 km/h 892 m -8.0 m/s 402.30 MHz Landshut (DE) 0.00 km UNKNOWN
S0410075 RS41 2020-09-22 13:25:20 48.6928 11.853 101 ° 4 km/h 1114 m -4.2 m/s 402.30 MHz Landshut (DE) 0.00 km UNKNOWN
S0410798 RS41 2020-09-22 07:19:38 48.5066 11.6387 338 ° 15 km/h 925 m -3.7 m/s 402.30 MHz Pfaffenhofen an der Ilm (DE) 0.00 km FOUND
S0450535 RS41 2020-09-22 01:00:18 48.428 11.5867 358 ° 7 km/h 742 m -6.7 m/s 402.30 MHz Freising (DE) 0.00 km UNKNOWN
S0441197 RS41 2020-09-21 13:02:32 48.3552 11.3525 268 ° 6 km/h 830 m -6.6 m/s 402.30 MHz Dachau (DE) 0.00 km FOUND
S0450460 RS41 2020-09-21 07:12:14 48.2228 11.3058 22 ° 9 km/h 682 m -5.2 m/s 402.30 MHz Olching (DE) 0.00 km FOUND
S0450450 RS41 2020-09-21 01:40:14 48.2759 11.1956 337 ° 11 km/h 731 m -2.2 m/s 402.30 MHz Fürstenfeldbruck (DE) 0.00 km UNKNOWN
S0510628 RS41 2020-09-20 12:36:44 48.3117 11.5488 258 ° 7 km/h 910 m -7.5 m/s 402.30 MHz Unterschleißheim (DE) 0.00 km FOUND
S0441215 RS41 2020-09-20 06:51:51 48.24 11.678 262 ° 4 km/h 577 m -9.6 m/s 402.30 MHz Unterschleißheim (DE) 0.00 km FOUND
S0510553 RS41 2020-09-20 01:43:18 48.3024 11.7559 324 ° 11 km/h 650 m -2.1 m/s 402.30 MHz Freising (DE) 0.00 km FOUND
S0510557 RS41 2020-09-19 12:50:57 48.2718 11.8165 265 ° 4 km/h 614 m -5.3 m/s 402.30 MHz Erding (DE) 0.00 km FOUND
S0441758 RS41 2020-09-19 07:00:29 48.3118 11.6827 268 ° 15 km/h 540 m -9.4 m/s 402.30 MHz Unterschleißheim (DE) 0.00 km FOUND
S0440471 RS41 2020-09-19 00:55:12 48.4053 11.4641 304 ° 35 km/h 861 m -4.7 m/s 402.30 MHz Pfaffenhofen an der Ilm (DE) 0.00 km FOUND
S0441135 RS41 2020-09-18 12:49:11 48.3548 10.9567 260 ° 26 km/h 591 m -4.6 m/s 402.30 MHz Augsburg (DE) 0.00 km UNKNOWN
S0450442 RS41 2020-09-18 07:39:58 48.2014 10.7238 258 ° 28 km/h 723 m -1.9 m/s 402.30 MHz Königsbrunn (DE) 0.00 km FOUND
S0510477 RS41 2020-09-18 01:59:20 48.1301 10.8414 275 ° 41 km/h 797 m -2.3 m/s 402.30 MHz Landsberg am Lech (DE) 0.00 km UNKNOWN
S0441165 RS41 2020-09-17 13:22:50 48.1034 11.4977 239 ° 19 km/h 806 m -1.7 m/s 402.30 MHz München (DE) 0.00 km FOUND
S0450441 RS41 2020-09-17 07:05:02 47.9936 11.6137 300 ° 7 km/h 1158 m -5.5 m/s 402.30 MHz Unterhaching (DE) 0.00 km FOUND
S0450801 RS41 2020-09-17 02:00:57 47.8274 11.6269 182 ° 9 km/h 1449 m -1.9 m/s 402.30 MHz Geretsried (DE) 0.00 km FOUND
S0410076 RS41 2020-09-16 13:14:20 48.1545 11.5096 128 ° 17 km/h 684 m -4.7 m/s 402.30 MHz München (DE) 0.00 km FOUND
S0450027 RS41 2020-09-16 07:28:41 48.1299 11.3704 80 ° 17 km/h 686 m -4.4 m/s 402.30 MHz Germering (DE) 0.00 km UNKNOWN
S0450030 RS41 2020-09-16 00:57:10 48.2618 11.3021 69 ° 15 km/h 727 m -5.2 m/s 402.30 MHz Olching (DE) 0.00 km UNKNOWN
S0410046 RS41 2020-09-15 12:59:44 48.5102 11.3591 75 ° 4 km/h 624 m -5.0 m/s 402.30 MHz Pfaffenhofen an der Ilm (DE) 0.00 km LOST
S0450037 RS41 2020-09-15 07:07:39 48.5102 11.334 74 ° 11 km/h 612 m -3.3 m/s 402.30 MHz Pfaffenhofen an der Ilm (DE) 0.00 km UNKNOWN
S0410074 RS41 2020-09-15 00:59:33 48.523 11.3485 336 ° 7 km/h 653 m -6.7 m/s 402.30 MHz Pfaffenhofen an der Ilm (DE) 0.00 km FOUND
S0410193 RS41 2020-09-14 12:54:07 48.5733 11.2399 289 ° 15 km/h 634 m -15.3 m/s 402.30 MHz Aichach (DE) 0.00 km LOST
S0410198 RS41 2020-09-14 08:11:04 48.5637 10.8473 295 ° 11 km/h 480 m -3.2 m/s 402.30 MHz Neusäß (DE) 0.00 km FOUND
S0441659 RS41 2020-09-14 01:20:49 48.3563 11.1433 301 ° 28 km/h 661 m -4.0 m/s 402.30 MHz Aichach (DE) 0.00 km UNKNOWN
S0441658 RS41 2020-09-13 12:57:52 48.1333 11.3429 250 ° 13 km/h 1054 m -4.9 m/s 402.30 MHz Germering (DE) 0.00 km FOUND
S0410210 RS41 2020-09-13 08:06:03 47.9118 11.2721 335 ° 13 km/h 812 m -2.1 m/s 402.30 MHz Starnberg (DE) 0.00 km FOUND
S0441923 RS41 2020-09-13 01:47:22 47.966 11.7067 199 ° 13 km/h 1154 m -2.3 m/s 402.30 MHz Unterhaching (DE) 0.00 km NEED ATTENTION
S0441139 RS41 2020-09-12 12:54:33 48.3164 11.9715 171 ° 9 km/h 684 m -4.4 m/s 402.30 MHz Erding (DE) 0.00 km FOUND
S0441922 RS41 2020-09-12 07:59:17 48.334 12.1523 264 ° 13 km/h 794 m -1.8 m/s 402.30 MHz Erding (DE) 0.00 km FOUND
S0450345 RS41 2020-09-12 01:09:01 48.3436 12.0872 292 ° 19 km/h 803 m -3.2 m/s 402.30 MHz Erding (DE) 0.00 km UNKNOWN
S0441140 RS41 2020-09-11 12:51:11 48.3872 12.1882 199 ° 6 km/h 1202 m -13.6 m/s 402.30 MHz Landshut (DE) 0.00 km FOUND
S0450175 RS41 2020-09-11 07:17:09 48.3815 12.2545 311 ° 13 km/h 1103 m -3.3 m/s 402.30 MHz Landshut (DE) 0.00 km FOUND
S0410047 RS41 2020-09-11 00:36:47 48.3785 12.105 274 ° 9 km/h 1185 m -12.9 m/s 402.30 MHz Erding (DE) 0.00 km UNKNOWN
S0441192 RS41 2020-09-10 13:34:48 48.4889 12.4388 282 ° 9 km/h 1162 m -1.9 m/s 402.30 MHz Landshut (DE) 0.00 km UNKNOWN
S0410201 RS41 2020-09-10 07:04:13 48.3644 12.2721 108 ° 4 km/h 902 m -6.2 m/s 402.30 MHz Waldkraiburg (DE) 0.00 km FOUND
S0510556 RS41 2020-09-10 01:03:53 48.4411 12.5745 115 ° 22 km/h 813 m -5.1 m/s 402.30 MHz Waldkraiburg (DE) 0.00 km FOUND
S0450515 RS41 2020-09-09 13:11:47 48.6468 11.9234 77 ° 9 km/h 886 m -4.4 m/s 402.30 MHz Landshut (DE) 0.00 km UNKNOWN
S0450525 RS41 2020-09-09 07:06:32 48.4637 11.5878 339 ° 9 km/h 945 m -4.4 m/s 402.30 MHz Pfaffenhofen an der Ilm (DE) 0.00 km FOUND
S0450545 RS41 2020-09-09 02:03:11 48.4217 11.3646 311 ° 15 km/h 633 m -2.2 m/s 402.30 MHz Pfaffenhofen an der Ilm (DE) 0.00 km UNKNOWN
S0441412 RS41 2020-09-08 13:02:20 48.0215 11.228 203 ° 4 km/h 930 m -4.8 m/s 402.30 MHz Starnberg (DE) 0.00 km FOUND
S0440473 RS41 2020-09-08 06:40:40 47.8434 11.1977 278 ° 9 km/h 1037 m -11.2 m/s 402.30 MHz Weilheim in Oberbayern (DE) 0.00 km NEED ATTENTION
S0370699 RS41 2020-09-08 00:52:43 47.8867 11.4208 324 ° 13 km/h 1126 m -4.6 m/s 402.30 MHz Geretsried (DE) 0.00 km FOUND
S0441154 RS41 2020-09-07 13:15:30 48.3488 12.4636 290 ° 9 km/h 1155 m -3.0 m/s 402.30 MHz Waldkraiburg (DE) 0.00 km UNKNOWN
S0450804 RS41 2020-09-07 07:59:22 48.6104 13.1126 327 ° 13 km/h 1239 m -2.1 m/s 402.30 MHz Passau (DE) 0.00 km FOUND
S0441757 RS41 2020-09-07 00:59:22 48.6003 12.6434 105 ° 4 km/h 813 m -5.7 m/s 402.30 MHz Straubing (DE) 0.00 km FOUND
S0441411 RS41 2020-09-06 12:59:35 48.7 12.8585 137 ° 7 km/h 750 m -5.5 m/s 402.30 MHz Deggendorf (DE) 0.00 km UNKNOWN
S0441217 RS41 2020-09-06 07:21:22 48.5268 13.2352 136 ° 7 km/h 696 m -3.8 m/s 402.30 MHz Passau (DE) 0.00 km UNKNOWN
S0510614 RS41 2020-09-06 01:31:13 48.5691 13.4552 139 ° 24 km/h 746 m -2.5 m/s 402.30 MHz Passau (DE) 0.00 km NEED ATTENTION
S0510630 RS41 2020-09-05 12:38:17 48.3984 12.9741 94 ° 15 km/h 691 m -10.7 m/s 402.30 MHz Braunau am Inn (AT) 0.00 km FOUND
S0450803 RS41 2020-09-05 06:39:35 48.2883 12.7328 71 ° 19 km/h 946 m -16.1 m/s 402.30 MHz Hochburg-Ach (AT) 0.00 km FOUND
S0450458 RS41 2020-09-05 00:36:26 48.1866 12.4578 339 ° 11 km/h 697 m -12.1 m/s 402.30 MHz Waldkraiburg (DE) 0.00 km UNKNOWN
S0441191 RS41 2020-09-04 12:46:50 48.1227 12.3456 103 ° 6 km/h 719 m -3.8 m/s 402.30 MHz Waldkraiburg (DE) 0.00 km UNKNOWN
S0441199 RS41 2020-09-04 07:02:34 47.8747 12.3824 115 ° 6 km/h 924 m -3.9 m/s 402.30 MHz Traunreut (DE) 0.00 km UNKNOWN
S0510629 RS41 2020-09-04 01:44:08 47.5166 12.6581 108 ° 44 km/h 2295 m -3.1 m/s 402.30 MHz Fieberbrunn (AT) 0.00 km UNKNOWN
S0450461 RS41 2020-09-03 12:27:10 47.4572 12.0336 64 ° 20 km/h 2393 m -5.1 m/s 402.30 MHz Wörgl (AT) 0.00 km UNKNOWN
S0450516 RS41 2020-09-03 06:48:12 47.5564 11.817 107 ° 17 km/h 2040 m -14.1 m/s 402.30 MHz Achenkirch (AT) 0.00 km UNKNOWN
S0450034 RS41 2020-09-03 00:39:59 47.917 12.1084 121 ° 4 km/h 1215 m -6.1 m/s 402.30 MHz Rosenheim (DE) 0.00 km UNKNOWN
S0450456 RS41 2020-09-02 12:36:23 48.1795 11.8004 211 ° 4 km/h 612 m -13.8 m/s 402.30 MHz Vaterstetten (DE) 0.00 km FOUND
S0510611 RS41 2020-09-02 06:46:48 48.1552 11.6554 76 ° 2 km/h 641 m -5.9 m/s 402.30 MHz München (DE) 0.00 km FOUND
S0510620 RS41 2020-09-02 01:14:51 48.2644 11.8207 235 ° 11 km/h 746 m -4.0 m/s 402.30 MHz Erding (DE) 0.00 km FOUND
S0441756 RS41 2020-09-01 13:26:20 48.1937 11.8531 16 ° 7 km/h 596 m -3.0 m/s 402.30 MHz Vaterstetten (DE) 0.00 km FOUND
S0450455 RS41 2020-09-01 07:50:44 48.0901 11.5843 147 ° 9 km/h 694 m -3.6 m/s 402.30 MHz Unterhaching (DE) 0.00 km FOUND
S0510626 RS41 2020-09-01 01:36:19 48.3313 11.4073 187 ° 17 km/h 799 m -2.7 m/s 402.30 MHz Dachau (DE) 0.00 km UNKNOWN
S0370698 RS41 2020-08-31 12:38:49 48.8174 12.0105 143 ° 7 km/h 595 m -10.7 m/s 402.30 MHz Regensburg (DE) 0.00 km FOUND
S0441780 RS41 2020-08-31 06:41:59 48.6374 12.1872 69 ° 9 km/h 590 m -12.2 m/s 402.30 MHz Landshut (DE) 0.00 km FOUND
S0450452 RS41 2020-08-31 01:15:08 48.7952 12.576 117 ° 48 km/h 932 m -3.9 m/s 402.30 MHz Straubing (DE) 0.00 km FOUND
S0370471 RS41 2020-08-30 13:07:34 49.6372 12.1229 217 ° 19 km/h 659 m -3.1 m/s 402.30 MHz Weiden in der Oberpfalz (DE) 0.00 km FOUND
S0441457 RS41 2020-08-30 07:24:32 49.4656 12.3428 230 ° 44 km/h 911 m -4.7 m/s 402.30 MHz Schwandorf (DE) 0.00 km UNKNOWN
S0510636 RS41 2020-08-30 00:28:59 49.3904 12.5373 239 ° 11 km/h 824 m -2.8 m/s 402.30 MHz Domažlice (CZ) 0.00 km FOUND
S0510608 RS41 2020-08-29 13:19:04 49.4346 12.9861 24 ° 17 km/h 543 m -2.5 m/s 402.30 MHz Domažlice (CZ) 0.00 km FOUND
S0510623 RS41 2020-08-29 06:58:05 49.0725 12.7864 55 ° 24 km/h 1259 m -6.4 m/s 402.30 MHz Straubing (DE) 0.00 km UNKNOWN
S0450032 RS41 2020-08-29 01:08:25 49.1097 13.0424 65 ° 35 km/h 1369 m -6.1 m/s 402.30 MHz Deggendorf (DE) 0.00 km UNKNOWN
S0440726 RS41 2020-08-28 12:51:55 48.718 12.7891 310 ° 15 km/h 610 m -7.6 m/s 402.30 MHz Deggendorf (DE) 0.00 km UNKNOWN
S0510615 RS41 2020-08-28 00:55:27 48.2674 13.2384 237 ° 4 km/h 430 m -5.7 m/s 402.30 MHz Altheim (AT) 0.00 km UNKNOWN
S0441150 RS41 2020-08-27 13:39:56 48.0804 13.9924 191 ° 11 km/h 472 m -2.5 m/s 402.30 MHz Steinerkirchen an der Traun (AT) 0.00 km LOST
S0450016 RS41 2020-08-27 06:41:09 47.8049 12.987 94 ° 15 km/h 1170 m -8.1 m/s 402.30 MHz Viehausen (AT) 0.00 km UNKNOWN
S0441190 RS41 2020-08-27 01:04:15 47.9008 13.3447 100 ° 22 km/h 1017 m -4.3 m/s 402.30 MHz Tiefgraben (AT) 0.00 km UNKNOWN
S0441108 RS41 2020-08-26 13:04:18 48.0693 13.7604 78 ° 43 km/h 582 m -4.2 m/s 402.30 MHz Schwanenstadt (AT) 0.00 km UNKNOWN
S0430355 RS41 2020-08-26 07:53:08 48.1175 14.809 78 ° 33 km/h 460 m -1.8 m/s 402.30 MHz Amstetten (AT) 0.00 km UNKNOWN
S0441189 RS41 2020-08-26 02:10:14 48.077 14.6119 64 ° 7 km/h 458 m -2.5 m/s 402.30 MHz Weistrach (AT) 0.00 km UNKNOWN
S0441924 RS41 2020-08-25 12:49:02 47.8098 13.2665 34 ° 6 km/h 1262 m -3.4 m/s 402.30 MHz Thalgau (AT) 0.00 km UNKNOWN
S0441195 RS41 2020-08-25 07:15:37 47.4498 13.1056 120 ° 20 km/h 2731 m -3.1 m/s 402.30 MHz Werfen (AT) 0.00 km UNKNOWN
S0510607 RS41 2020-08-25 01:56:45 47.4819 13.2082 135 ° 26 km/h 2497 m -1.6 m/s 402.30 MHz Werfen (AT) 0.00 km UNKNOWN
S0430364 RS41 2020-08-24 12:40:31 48.5549 12.3785 64 ° 13 km/h 778 m -7.6 m/s 402.30 MHz Landshut (DE) 0.00 km FOUND
S0441193 RS41 2020-08-24 07:03:54 48.4286 12.5609 96 ° 19 km/h 944 m -6.5 m/s 402.30 MHz Waldkraiburg (DE) 0.00 km FOUND
S0430359 RS41 2020-08-24 01:19:51 48.2678 12.8424 139 ° 19 km/h 549 m -4.9 m/s 402.30 MHz Braunau am Inn (AT) 0.00 km UNKNOWN
S0450802 RS41 2020-08-23 12:54:35 48.5251 12.7424 77 ° 28 km/h 972 m -6.3 m/s 402.30 MHz Braunau am Inn (AT) 0.00 km UNKNOWN
S0441843 RS41 2020-08-23 07:05:34 48.4869 12.8302 98 ° 9 km/h 716 m -4.6 m/s 402.30 MHz Braunau am Inn (AT) 0.00 km UNKNOWN
S0410029 RS41 2020-08-23 01:46:28 48.3288 12.9385 70 ° 26 km/h 589 m -2.8 m/s 402.30 MHz Braunau am Inn (AT) 0.00 km UNKNOWN
S0510612 RS41 2020-08-22 13:12:59 48.8326 12.5656 121 ° 31 km/h 910 m -6.9 m/s 402.30 MHz Straubing (DE) 0.00 km FOUND
S0450005 RS41 2020-08-22 06:56:07 48.5699 12.1612 160 ° 22 km/h 507 m -3.1 m/s 402.30 MHz Landshut (DE) 0.00 km UNKNOWN
S0430358 RS41 2020-08-22 01:30:31 48.6193 12.3412 319 ° 11 km/h 460 m -3.1 m/s 402.30 MHz Landshut (DE) 0.00 km UNKNOWN
S0370697 RS41 2020-08-21 13:25:15 48.4872 12.2846 322 ° 6 km/h 1113 m -2.6 m/s 402.30 MHz Landshut (DE) 0.00 km FOUND
S0370482 RS41 2020-08-21 07:11:08 48.4076 12.1258 27 ° 20 km/h 1033 m -4.4 m/s 402.30 MHz Landshut (DE) 0.00 km FOUND
S0410194 RS41 2020-08-21 02:03:26 48.4016 12.5953 307 ° 24 km/h 896 m -1.8 m/s 402.30 MHz Waldkraiburg (DE) 0.00 km FOUND
S0510621 RS41 2020-08-20 13:15:39 48.0879 12.2124 350 ° 7 km/h 787 m -3.6 m/s 402.30 MHz Waldkraiburg (DE) 0.00 km FOUND
S0441198 RS41 2020-08-20 07:04:20 47.8927 12.0378 108 ° 13 km/h 1274 m -5.1 m/s 402.30 MHz Rosenheim (DE) 0.00 km FOUND
S0510613 RS41 2020-08-20 01:06:21 47.8079 12.3016 97 ° 4 km/h 907 m -4.4 m/s 402.30 MHz Rosenheim (DE) 0.00 km UNKNOWN
S0430357 RS41 2020-08-19 13:27:06 47.4677 12.6054 62 ° 6 km/h 1201 m -3.6 m/s 402.30 MHz Fieberbrunn (AT) 0.00 km FOUND
S0441201 RS41 2020-08-19 07:24:07 47.515 12.4104 67 ° 17 km/h 1477 m -2.6 m/s 402.30 MHz Sankt Johann in Tirol (AT) 0.00 km UNKNOWN
S0440703 RS41 2020-08-19 01:40:35 48.1135 12.5618 137 ° 15 km/h 632 m -2.2 m/s 402.30 MHz Waldkraiburg (DE) 0.00 km UNKNOWN
S0410055 RS41 2020-08-18 13:37:21 48.544 12.1535 69 ° 17 km/h 478 m -3.3 m/s 402.30 MHz Landshut (DE) 0.00 km UNKNOWN
S0430368 RS41 2020-08-18 07:19:18 48.4273 12.1318 101 ° 24 km/h 954 m -4.0 m/s 402.30 MHz Landshut (DE) 0.00 km FOUND
S0440707 RS41 2020-08-18 01:03:56 48.4202 11.9797 83 ° 22 km/h 669 m -3.8 m/s 402.30 MHz Erding (DE) 0.00 km FOUND
S0450006 RS41 2020-08-17 13:35:20 48.6952 11.8806 62 ° 17 km/h 1010 m -3.2 m/s 402.30 MHz Landshut (DE) 0.00 km UNKNOWN
S0510625 RS41 2020-08-17 07:05:57 48.4139 11.8822 107 ° 22 km/h 691 m -4.3 m/s 402.30 MHz Freising (DE) 0.00 km FOUND
S0410030 RS41 2020-08-17 00:36:31 48.3356 11.7182 350 ° 11 km/h 925 m -16.3 m/s 402.30 MHz Freising (DE) 0.00 km FOUND
S0410196 RS41 2020-08-16 14:07:07 48.3346 12.1516 334 ° 6 km/h 1510 m -2.9 m/s 402.30 MHz Erding (DE) 0.00 km FOUND
S0370700 RS41 2020-08-16 06:44:06 48.2313 11.7835 264 ° 15 km/h 1204 m -8.5 m/s 402.30 MHz Erding (DE) 0.00 km FOUND
S0410048 RS41 2020-08-16 01:25:03 48.1375 11.9275 263 ° 11 km/h 1173 m -4.0 m/s 402.30 MHz Vaterstetten (DE) 0.00 km NEED ATTENTION
S0430360 RS41 2020-08-15 06:36:06 48.2295 11.6245 82 ° 20 km/h 698 m -14.8 m/s 402.30 MHz Unterschleißheim (DE) 0.00 km FOUND
S0410793 RS41 2020-08-15 01:43:49 48.2271 11.8534 82 ° 22 km/h 732 m -2.2 m/s 402.30 MHz Erding (DE) 0.00 km FOUND
S0430356 RS41 2020-08-14 13:14:03 48.3854 11.6387 80 ° 20 km/h 699 m -5.3 m/s 402.30 MHz Freising (DE) 0.00 km FOUND
S0410796 RS41 2020-08-14 06:36:21 48.3047 11.6458 93 ° 30 km/h 813 m -12.7 m/s 402.30 MHz Unterschleißheim (DE) 0.00 km FOUND
S0441216 RS41 2020-08-14 01:27:31 48.3326 11.8219 69 ° 24 km/h 669 m -3.1 m/s 402.30 MHz Erding (DE) 0.00 km FOUND
S0410204 RS41 2020-08-13 13:18:35 48.4564 11.569 125 ° 50 km/h 810 m -5.0 m/s 402.30 MHz Pfaffenhofen an der Ilm (DE) 0.00 km NEED ATTENTION
S0370485 RS41 2020-08-13 07:07:48 48.2715 11.6946 309 ° 6 km/h 595 m -5.2 m/s 402.30 MHz Unterschleißheim (DE) 0.00 km FOUND
S0450038 RS41 2020-08-13 01:16:00 48.1505 11.9203 51 ° 11 km/h 813 m -4.0 m/s 402.30 MHz Vaterstetten (DE) 0.00 km FOUND
S0441646 RS41 2020-08-12 13:05:47 48.0651 11.7955 247 ° 13 km/h 851 m -6.0 m/s 402.30 MHz Vaterstetten (DE) 0.00 km FOUND
S0410197 RS41 2020-08-12 06:41:17 48.0789 11.587 274 ° 9 km/h 849 m -13.0 m/s 402.30 MHz Unterhaching (DE) 0.00 km FOUND
S0450001 RS41 2020-08-12 01:10:16 48.0364 11.8184 278 ° 15 km/h 967 m -5.1 m/s 402.30 MHz Vaterstetten (DE) 0.00 km FOUND
S0441844 RS41 2020-08-11 12:41:27 48.1119 11.729 270 ° 13 km/h 693 m -13.9 m/s 402.30 MHz Vaterstetten (DE) 0.00 km FOUND
S0441218 RS41 2020-08-11 07:04:33 48.0721 11.7256 37 ° 11 km/h 815 m -5.2 m/s 402.30 MHz Vaterstetten (DE) 0.00 km LOST
S0440723 RS41 2020-08-11 01:11:56 48.1716 11.7383 12 ° 7 km/h 624 m -4.0 m/s 402.30 MHz Vaterstetten (DE) 0.00 km FOUND
S0450179 RS41 2020-08-10 12:56:24 48.2933 11.6148 287 ° 19 km/h 705 m -6.8 m/s 402.30 MHz Unterschleißheim (DE) 0.00 km FOUND
S0440722 RS41 2020-08-10 07:00:30 48.2487 11.5399 289 ° 13 km/h 693 m -4.1 m/s 402.30 MHz Unterschleißheim (DE) 0.00 km FOUND
S0410794 RS41 2020-08-10 00:54:11 48.186 11.4715 284 ° 24 km/h 698 m -5.5 m/s 402.30 MHz Dachau (DE) 0.00 km UNKNOWN
S0441845 RS41 2020-08-09 13:18:42 48.0737 11.4241 273 ° 17 km/h 828 m -4.0 m/s 402.30 MHz Germering (DE) 0.00 km NEED ATTENTION
S0410203 RS41 2020-08-09 08:00:39 47.8906 11.3041 276 ° 19 km/h 936 m -2.2 m/s 402.30 MHz Starnberg (DE) 0.00 km UNKNOWN
S0440706 RS41 2020-08-09 01:53:58 47.8373 11.3831 288 ° 20 km/h 1488 m -1.9 m/s 404.70 MHz Geretsried (DE) 0.00 km FOUND
S0441194 RS41 2020-08-08 13:04:26 47.8994 11.1614 124 ° 9 km/h 1332 m -6.1 m/s 404.70 MHz Weilheim in Oberbayern (DE) 0.00 km FOUND
S0430369 RS41 2020-08-08 01:24:50 47.7404 10.9993 300 ° 7 km/h 1041 m -2.3 m/s 402.30 MHz Weilheim in Oberbayern (DE) 0.00 km FOUND
S0410199 RS41 2020-08-07 13:16:41 47.8208 11.0299 249 ° 20 km/h 1191 m -3.9 m/s 402.30 MHz Weilheim in Oberbayern (DE) 0.00 km FOUND
S0441202 RS41 2020-08-07 07:05:45 47.8548 10.8861 276 ° 17 km/h 1088 m -5.3 m/s 402.30 MHz Weilheim in Oberbayern (DE) 0.00 km FOUND
S0440708 RS41 2020-08-07 01:14:41 47.9973 10.9663 285 ° 20 km/h 831 m -2.8 m/s 402.30 MHz Landsberg am Lech (DE) 0.00 km FOUND
S0440721 RS41 2020-08-06 13:05:33 48.1268 11.0706 272 ° 28 km/h 765 m -7.2 m/s 402.30 MHz Fürstenfeldbruck (DE) 0.00 km FOUND
S0370473 RS41 2020-08-06 07:12:50 48.0132 11.1066 269 ° 15 km/h 880 m -3.6 m/s 402.30 MHz Starnberg (DE) 0.00 km UNKNOWN
S0510635 RS41 2020-08-06 01:18:59 48.018 11.0208 286 ° 22 km/h 824 m -5.1 m/s 402.30 MHz Landsberg am Lech (DE) 0.00 km FOUND
S0441200 RS41 2020-08-05 13:23:41 47.907 10.8903 284 ° 33 km/h 1036 m -2.8 m/s 402.30 MHz Landsberg am Lech (DE) 0.00 km FOUND
S0370472 RS41 2020-08-05 06:54:35 47.6899 10.882 247 ° 35 km/h 1283 m -4.1 m/s 402.30 MHz Weilheim in Oberbayern (DE) 0.00 km FOUND
S0450544 RS41 2020-08-05 01:25:49 47.6788 10.7246 308 ° 11 km/h 874 m -2.6 m/s 402.30 MHz Reutte (AT) 0.00 km LOST
S0370469 RS41 2020-08-04 14:03:46 47.9791 11.1441 199 ° 4 km/h 853 m -2.2 m/s 402.30 MHz Starnberg (DE) 0.00 km UNKNOWN
S0410797 RS41 2020-08-04 07:05:20 48.2804 11.1576 167 ° 31 km/h 715 m -5.3 m/s 402.30 MHz Fürstenfeldbruck (DE) 0.00 km FOUND
S0441204 RS41 2020-08-04 02:18:07 48.7483 11.2406 187 ° 44 km/h 840 m -2.3 m/s 402.30 MHz Neuburg an der Donau (DE) 0.00 km UNKNOWN
S0441859 RS41 2020-08-03 14:23:51 48.7729 12.0557 209 ° 19 km/h 1158 m -5.2 m/s 402.30 MHz Landshut (DE) 0.00 km UNKNOWN
S0370179 RS41 2020-08-02 14:02:01 48.6928 12.3414 126 ° 9 km/h 578 m -4.6 m/s 402.30 MHz Landshut (DE) 0.00 km FOUND
S0370486 RS41 2020-08-02 07:24:07 48.501 12.1822 90 ° 20 km/h 617 m -3.5 m/s 402.30 MHz Landshut (DE) 0.00 km UNKNOWN
S0430365 RS41 2020-08-02 00:51:28 48.3633 11.8664 52 ° 26 km/h 799 m -7.6 m/s 402.30 MHz Erding (DE) 0.00 km FOUND
S0441196 RS41 2020-08-01 19:33:11 48.1771 12.0241 47 ° 44 km/h 1042 m -4.8 m/s 402.30 MHz Erding (DE) 0.00 km FOUND
S0510554 RS41 2020-08-01 13:14:38 47.999 12.0021 187 ° 6 km/h 1057 m -5.3 m/s 402.30 MHz Rosenheim (DE) 0.00 km FOUND
S0510610 RS41 2020-08-01 08:07:02 47.844 12.1217 130 ° 11 km/h 1112 m -2.0 m/s 402.30 MHz Rosenheim (DE) 0.00 km FOUND
S0370483 RS41 2020-08-01 01:27:42 47.9536 11.9126 330 ° 11 km/h 1016 m -3.4 m/s 402.30 MHz Rosenheim (DE) 0.00 km FOUND
S0440737 RS41 2020-07-31 13:14:26 48.0305 11.7898 113 ° 11 km/h 1150 m -4.9 m/s 402.30 MHz Vaterstetten (DE) 0.00 km FOUND
S0450531 RS41 2020-07-31 06:51:45 47.9862 11.8785 101 ° 11 km/h 987 m -4.8 m/s 402.30 MHz Vaterstetten (DE) 0.00 km FOUND
S0441848 RS41 2020-07-31 00:58:22 48.0109 12.077 325 ° 6 km/h 793 m -5.1 m/s 402.30 MHz Rosenheim (DE) 0.00 km UNKNOWN
S0440698 RS41 2020-07-30 13:08:35 48.1984 12.4749 58 ° 4 km/h 752 m -4.7 m/s 402.30 MHz Waldkraiburg (DE) 0.00 km UNKNOWN
S0450454 RS41 2020-07-30 06:48:11 48.1489 12.2652 63 ° 11 km/h 764 m -7.8 m/s 402.30 MHz Waldkraiburg (DE) 0.00 km UNKNOWN
S0441655 RS41 2020-07-30 00:58:45 48.1639 12.6642 341 ° 11 km/h 543 m -3.4 m/s 402.30 MHz Hochburg-Ach (AT) 0.00 km FOUND
S0410195 RS41 2020-07-29 12:42:20 48.2631 12.6378 32 ° 6 km/h 472 m -5.5 m/s 402.30 MHz Waldkraiburg (DE) 0.00 km UNKNOWN
S0450039 RS41 2020-07-29 06:40:49 48.2224 12.6207 103 ° 17 km/h 611 m -9.8 m/s 402.30 MHz Waldkraiburg (DE) 0.00 km UNKNOWN
S0441846 RS41 2020-07-29 01:34:54 48.466 13.4655 38 ° 17 km/h 505 m -3.1 m/s 402.30 MHz Schärding (AT) 0.00 km UNKNOWN
S0450176 RS41 2020-07-28 13:02:18 48.4193 12.8224 73 ° 20 km/h 812 m -6.6 m/s 402.30 MHz Braunau am Inn (AT) 0.00 km UNKNOWN
S0441648 RS41 2020-07-28 07:20:39 48.2005 12.7632 32 ° 17 km/h 501 m -4.7 m/s 402.30 MHz Hochburg-Ach (AT) 0.00 km UNKNOWN
S0450036 RS41 2020-07-28 00:44:43 48.1689 12.5231 26 ° 22 km/h 634 m -9.6 m/s 402.30 MHz Waldkraiburg (DE) 0.00 km UNKNOWN
S0510351 RS41 2020-07-27 12:41:01 48.0201 12.3895 261 ° 13 km/h 847 m -13.4 m/s 402.30 MHz Traunreut (DE) 0.00 km UNKNOWN
S0450542 RS41 2020-07-27 06:56:47 47.7054 12.8042 62 ° 9 km/h 1765 m -4.2 m/s 402.30 MHz Grossgmain (AT) 0.00 km UNKNOWN
S0450453 RS41 2020-07-27 00:51:01 47.7492 12.726 84 ° 26 km/h 1499 m -6.2 m/s 402.30 MHz Grossgmain (AT) 0.00 km UNKNOWN
S0450457 RS41 2020-07-26 12:45:49 48.251 12.2467 56 ° 20 km/h 936 m -9.0 m/s 402.30 MHz Waldkraiburg (DE) 0.00 km UNKNOWN
S0450546 RS41 2020-07-26 07:40:56 48.5039 12.6651 138 ° 43 km/h 667 m -3.3 m/s 402.30 MHz Waldkraiburg (DE) 0.00 km UNKNOWN
S0450529 RS41 2020-07-26 01:53:32 48.2265 12.6791 326 ° 26 km/h 536 m -3.0 m/s 402.30 MHz Hochburg-Ach (AT) 0.00 km FOUND
S0410073 RS41 2020-07-25 13:20:59 48.0925 11.8882 279 ° 7 km/h 728 m -4.2 m/s 402.30 MHz Vaterstetten (DE) 0.00 km FOUND
S0441205 RS41 2020-07-25 06:35:19 48.1206 11.6795 66 ° 22 km/h 638 m -12.7 m/s 402.30 MHz Unterhaching (DE) 0.00 km FOUND
S0440736 RS41 2020-07-25 00:45:09 48.1931 11.9629 89 ° 37 km/h 794 m -6.5 m/s 402.30 MHz Erding (DE) 0.00 km FOUND
S0441110 RS41 2020-07-24 12:57:54 48.5176 12.1418 104 ° 20 km/h 615 m -7.5 m/s 402.30 MHz Landshut (DE) 0.00 km UNKNOWN
S0441657 RS41 2020-07-24 07:24:23 48.4384 12.6361 73 ° 11 km/h 672 m -3.2 m/s 402.30 MHz Waldkraiburg (DE) 0.00 km UNKNOWN
S0430367 RS41 2020-07-24 00:40:20 48.3666 12.3073 110 ° 11 km/h 1014 m -16.2 m/s 402.30 MHz Waldkraiburg (DE) 0.00 km UNKNOWN
S0450459 RS41 2020-07-23 13:52:10 48.1952 13.1193 85 ° 20 km/h 463 m -2.9 m/s 402.30 MHz Mauerkirchen (AT) 0.00 km UNKNOWN
S0370484 RS41 2020-07-23 07:26:26 48.1273 12.9645 69 ° 24 km/h 582 m -3.9 m/s 402.30 MHz Eggelsberg (AT) 0.00 km UNKNOWN
S0441654 RS41 2020-07-23 00:32:34 48.2171 12.4342 78 ° 6 km/h 853 m -6.1 m/s 402.30 MHz Waldkraiburg (DE) 0.00 km UNKNOWN
S0410200 RS41 2020-07-22 12:34:55 48.3364 12.4266 111 ° 19 km/h 1707 m -10.8 m/s 402.30 MHz Waldkraiburg (DE) 0.00 km UNKNOWN
S0450530 RS41 2020-07-22 07:27:49 48.2869 12.8536 304 ° 2 km/h 538 m -3.9 m/s 402.30 MHz Braunau am Inn (AT) 0.00 km LOST
S0430366 RS41 2020-07-22 01:01:41 48.3225 12.8295 136 ° 15 km/h 609 m -5.8 m/s 402.30 MHz Braunau am Inn (AT) 0.00 km UNKNOWN
S0440725 RS41 2020-07-21 13:20:04 48.2244 12.9975 103 ° 13 km/h 396 m -2.2 m/s 402.30 MHz Braunau am Inn (AT) 0.00 km FOUND
S0441650 RS41 2020-07-21 06:46:31 48.1781 12.5673 59 ° 13 km/h 599 m -10.9 m/s 402.30 MHz Waldkraiburg (DE) 0.00 km UNKNOWN
S0440705 RS41 2020-07-21 00:57:58 48.2503 12.5926 23 ° 13 km/h 511 m -4.3 m/s 402.30 MHz Waldkraiburg (DE) 0.00 km UNKNOWN
S0450177 RS41 2020-07-20 12:46:06 48.3472 12.1789 67 ° 15 km/h 752 m -15.4 m/s 402.30 MHz Erding (DE) 0.00 km FOUND
S0441660 RS41 2020-07-20 06:53:03 48.1956 11.8383 63 ° 13 km/h 612 m -6.6 m/s 402.30 MHz Vaterstetten (DE) 0.00 km FOUND
S0370474 RS41 2020-07-20 00:56:12 48.2142 11.7174 35 ° 13 km/h 565 m -12.8 m/s 402.30 MHz Vaterstetten (DE) 0.00 km UNKNOWN
S0410202 RS41 2020-07-19 13:12:42 48.0361 11.4898 26 ° 11 km/h 739 m -3.0 m/s 402.30 MHz Unterhaching (DE) 0.00 km FOUND
S0370470 RS41 2020-07-19 06:31:29 47.972 11.4924 15 ° 7 km/h 776 m -4.6 m/s 402.30 MHz Starnberg (DE) 0.00 km FOUND
S0441661 RS41 2020-07-19 01:53:05 47.6302 11.1057 64 ° 4 km/h 1426 m -2.2 m/s 402.30 MHz Garmisch-Partenkirchen (DE) 0.00 km UNKNOWN
S0510627 RS41 2020-07-18 13:17:43 47.5652 10.8483 159 ° 7 km/h 1467 m -3.2 m/s 402.30 MHz Reutte (AT) 0.00 km UNKNOWN
S0450462 RS41 2020-07-18 06:33:07 47.4629 10.9655 222 ° 7 km/h 2247 m -12.9 m/s 402.30 MHz Ehrwald (AT) 0.00 km UNKNOWN
R2820688 RS41 2020-07-18 01:13:03 47.0083 11.0529 158 ° 35 km/h 3598 m -4.2 m/s 402.30 MHz Sölden (AT) 0.00 km UNKNOWN
R2820639 RS41 2020-07-17 12:42:59 47.427 11.2479 184 ° 22 km/h 1581 m -14.0 m/s 402.30 MHz Leutasch (AT) 0.00 km UNKNOWN
S0510349 RS41 2020-07-17 06:59:44 47.3628 11.3719 126 ° 17 km/h 2459 m -6.1 m/s 402.30 MHz Rum (AT) 0.00 km UNKNOWN
S0510354 RS41 2020-07-17 00:51:50 47.6698 12.0937 129 ° 15 km/h 1554 m -8.8 m/s 402.30 MHz Niederndorf (AT) 0.00 km UNKNOWN
R4240759 RS41 2020-07-16 12:48:00 47.8973 12.0607 103 ° 35 km/h 1206 m -5.5 m/s 402.30 MHz Rosenheim (DE) 0.00 km FOUND
R2820553 RS41 2020-07-16 08:45:30 47.6625 12.1595 96 ° 26 km/h 1818 m -3.9 m/s 402.30 MHz Niederndorf (AT) 0.00 km UNKNOWN
R4240450 RS41 2020-07-16 00:44:12 47.8498 11.8818 113 ° 28 km/h 1225 m -3.2 m/s 402.30 MHz Rosenheim (DE) 0.00 km UNKNOWN
S0450533 RS41 2020-07-15 13:22:16 48.3662 12.0725 73 ° 41 km/h 2053 m -2.8 m/s 402.30 MHz Erding (DE) 0.00 km FOUND
R2820591 RS41 2020-07-15 08:06:41 48.2867 11.9687 173 ° 19 km/h 752 m -2.2 m/s 402.30 MHz Erding (DE) 0.00 km FOUND
S0450541 RS41 2020-07-15 01:46:26 48.347 11.8787 26 ° 22 km/h 773 m -2.8 m/s 402.30 MHz Erding (DE) 0.00 km FOUND
R2830674 RS41 2020-07-14 13:09:30 48.343 11.7641 102 ° 9 km/h 666 m -3.9 m/s 402.30 MHz Freising (DE) 0.00 km UNKNOWN
R2820641 RS41 2020-07-14 07:09:04 48.2749 11.5761 262 ° 4 km/h 600 m -4.9 m/s 402.30 MHz Unterschleißheim (DE) 0.00 km LOST
R2830673 RS41 2020-07-14 02:30:01 48.2695 11.6334 293 ° 19 km/h 585 m -2.4 m/s 402.30 MHz Unterschleißheim (DE) 0.00 km FOUND
S0450543 RS41 2020-07-13 12:54:45 48.1508 11.6567 239 ° 24 km/h 613 m -6.7 m/s 402.30 MHz München (DE) 0.00 km FOUND
R4240757 RS41 2020-07-13 06:52:13 47.9948 11.8778 275 ° 39 km/h 1051 m -4.6 m/s 402.30 MHz Vaterstetten (DE) 0.00 km UNKNOWN
R2820606 RS41 2020-07-13 00:54:41 47.9989 11.9218 275 ° 33 km/h 897 m -5.4 m/s 402.30 MHz Vaterstetten (DE) 0.00 km UNKNOWN
S0450451 RS41 2020-07-12 12:46:46 47.9215 12.2677 206 ° 15 km/h 956 m -6.9 m/s 402.30 MHz Rosenheim (DE) 0.00 km UNKNOWN
R4240763 RS41 2020-07-12 06:15:02 48.0117 12.6706 279 ° 11 km/h 775 m -5.8 m/s 402.30 MHz Traunreut (DE) 0.00 km UNKNOWN
S0510352 RS41 2020-07-12 00:54:14 48.1344 12.3403 327 ° 7 km/h 690 m -5.0 m/s 402.30 MHz Waldkraiburg (DE) 0.00 km UNKNOWN
R2751238 RS41 2020-07-11 13:28:44 48.9787 12.9657 186 ° 20 km/h 1642 m -2.6 m/s 402.30 MHz Deggendorf (DE) 0.00 km FOUND
R2811153 RS41 2020-07-11 07:19:03 48.8333 12.6287 124 ° 9 km/h 864 m -5.3 m/s 402.30 MHz Straubing (DE) 0.00 km FOUND
R2811158 RS41 2020-07-11 01:31:32 48.7699 12.807 83 ° 19 km/h 721 m -2.8 m/s 402.30 MHz Deggendorf (DE) 0.00 km UNKNOWN
R2811143 RS41 2020-07-10 13:12:33 48.6987 12.5424 55 ° 33 km/h 556 m -5.7 m/s 402.30 MHz Straubing (DE) 0.00 km UNKNOWN
R2820605 RS41 2020-07-10 08:00:05 48.5646 13.0574 325 ° 11 km/h 647 m -2.3 m/s 402.30 MHz Passau (DE) 0.00 km UNKNOWN
R4240850 RS41 2020-07-10 01:12:23 48.2928 12.4424 82 ° 30 km/h 853 m -4.8 m/s 402.30 MHz Waldkraiburg (DE) 0.00 km UNKNOWN
R2810791 RS41 2020-07-09 12:32:08 48.2581 12.5631 89 ° 9 km/h 755 m -8.1 m/s 402.30 MHz Waldkraiburg (DE) 0.00 km UNKNOWN
R4240846 RS41 2020-07-09 07:49:41 48.0888 13.1797 82 ° 13 km/h 557 m -3.2 m/s 402.30 MHz Munderfing (AT) 0.00 km UNKNOWN
R4240443 RS41 2020-07-09 02:29:57 47.8249 13.0954 73 ° 17 km/h 967 m -2.8 m/s 402.30 MHz Hallwang (AT) 0.00 km UNKNOWN
R2751138 RS41 2020-07-08 13:21:05 48.0434 13.126 88 ° 17 km/h 642 m -4.1 m/s 402.30 MHz Munderfing (AT) 0.00 km UNKNOWN
R2830687 RS41 2020-07-08 06:53:40 48.0309 12.6338 87 ° 20 km/h 648 m -9.1 m/s 402.30 MHz Traunreut (DE) 0.00 km LOST
R2830706 RS41 2020-07-08 01:22:40 47.9487 13.1098 50 ° 15 km/h 868 m -4.0 m/s 402.30 MHz Mattsee (AT) 0.00 km FOUND
R2811163 RS41 2020-07-07 12:44:37 47.8731 12.3151 148 ° 11 km/h 999 m -10.4 m/s 402.30 MHz Rosenheim (DE) 0.00 km UNKNOWN
R2810668 RS41 2020-07-07 07:10:30 47.5134 12.676 86 ° 15 km/h 2241 m -5.2 m/s 402.30 MHz Fieberbrunn (AT) 0.00 km UNKNOWN
R2751241 RS41 2020-07-07 00:49:16 47.84 12.6268 119 ° 22 km/h 1043 m -8.5 m/s 402.30 MHz Traunreut (DE) 0.00 km UNKNOWN
DF67B59F DFM06 2020-07-06 14:17:51 48.4465 14.151 101 ° 83 km/h 2743 m -1.6 m/s MHz Herzogsdorf (AT) 0.00 km UNKNOWN
R2820638 RS41 2020-07-06 12:47:06 48.6059 12.8213 122 ° 28 km/h 1045 m -5.6 m/s 402.30 MHz Deggendorf (DE) 0.00 km UNKNOWN
R2751132 RS41 2020-07-06 07:13:59 48.6182 13.0044 84 ° 28 km/h 799 m -4.0 m/s 402.30 MHz Deggendorf (DE) 0.00 km UNKNOWN
R2751214 RS41 2020-07-06 01:40:08 48.4458 12.5964 108 ° 46 km/h 1020 m -2.7 m/s 402.30 MHz Waldkraiburg (DE) 0.00 km UNKNOWN
R2830685 RS41 2020-07-05 13:02:21 48.0587 11.7989 83 ° 31 km/h 851 m -5.5 m/s 402.30 MHz Vaterstetten (DE) 0.00 km LOST
R2820654 RS41 2020-07-05 07:36:58 47.7898 11.7037 91 ° 30 km/h 1502 m -3.0 m/s 402.30 MHz Geretsried (DE) 0.00 km NEED ATTENTION
R2820533 RS41 2020-07-05 01:23:30 47.7617 11.5747 87 ° 22 km/h 1027 m -4.1 m/s 402.30 MHz Geretsried (DE) 0.00 km FOUND
R2820652 RS41 2020-07-04 13:54:40 48.1741 11.7811 132 ° 20 km/h 600 m -2.3 m/s 402.30 MHz Vaterstetten (DE) 0.00 km FOUND
R2820575 RS41 2020-07-04 07:36:39 48.1632 11.4924 62 ° 15 km/h 650 m -3.8 m/s 402.30 MHz München (DE) 0.00 km FOUND
R2820590 RS41 2020-07-04 01:01:42 48.2622 11.5897 82 ° 13 km/h 589 m -5.4 m/s 402.30 MHz Unterschleißheim (DE) 0.00 km LOST
R4240842 RS41 2020-07-03 13:05:10 48.4686 12.0985 97 ° 22 km/h 635 m -5.9 m/s 402.30 MHz Landshut (DE) 0.00 km FOUND
R2820693 RS41 2020-07-03 07:20:55 48.6519 12.6042 119 ° 17 km/h 557 m -3.7 m/s 402.30 MHz Straubing (DE) 0.00 km UNKNOWN
R2751240 RS41 2020-07-03 02:15:17 49.0725 13.3038 112 ° 46 km/h 1560 m -2.7 m/s 402.30 MHz Sušice (CZ) 0.00 km UNKNOWN
R4240221 RS41 2020-07-02 14:07:07 48.7212 13.1094 148 ° 20 km/h 821 m -2.0 m/s 402.30 MHz Deggendorf (DE) 0.00 km UNKNOWN
R4240715 RS41 2020-07-02 07:28:35 48.5538 12.5677 96 ° 19 km/h 869 m -3.1 m/s 402.30 MHz Landshut (DE) 0.00 km UNKNOWN
R4240729 RS41 2020-07-02 00:44:02 48.3614 12.2545 110 ° 59 km/h 1458 m -6.2 m/s 402.30 MHz Waldkraiburg (DE) 0.00 km UNKNOWN
R2820527 RS41 2020-07-01 12:43:38 48.5094 12.1865 71 ° 11 km/h 681 m -9.3 m/s 402.30 MHz Landshut (DE) 0.00 km FOUND
R4240844 RS41 2020-07-01 07:55:28 48.6489 13.0078 43 ° 17 km/h 753 m -2.3 m/s 402.30 MHz Deggendorf (DE) 0.00 km UNKNOWN
R2820689 RS41 2020-07-01 02:08:29 48.5237 13.2839 50 ° 7 km/h 549 m -2.1 m/s 402.30 MHz Passau (DE) 0.00 km UNKNOWN
R2830626 RS41 2020-06-30 12:46:26 48.3525 12.7008 73 ° 22 km/h 1101 m -11.5 m/s 402.30 MHz Braunau am Inn (AT) 0.00 km UNKNOWN
R4240710 RS41 2020-06-30 07:28:34 48.3371 13.4133 128 ° 7 km/h 433 m -3.5 m/s 402.30 MHz Aurolzmünster (AT) 0.00 km UNKNOWN
R2830543 RS41 2020-06-30 01:07:58 48.236 12.919 57 ° 17 km/h 470 m -6.8 m/s 402.30 MHz Braunau am Inn (AT) 0.00 km UNKNOWN
R2830708 RS41 2020-06-29 14:01:43 48.2676 13.6762 95 ° 26 km/h 557 m -1.5 m/s 402.30 MHz Kallham (AT) 0.00 km FOUND
R2830676 RS41 2020-06-29 08:39:26 48.9296 13.4392 76 ° 22 km/h 1539 m -5.0 m/s 402.30 MHz Vimperk (CZ) 0.00 km UNKNOWN
R2830686 RS41 2020-06-29 08:32:52 48.8269 12.7585 90 ° 9 km/h 835 m -4.5 m/s 404.70 MHz Straubing (DE) 0.00 km UNKNOWN
R2820695 RS41 2020-06-29 01:29:55 48.8517 12.226 183 ° 13 km/h 1075 m -5.3 m/s 402.30 MHz Regensburg (DE) 0.00 km UNKNOWN
R2830482 RS41 2020-06-28 12:56:03 48.5629 12.0061 119 ° 26 km/h 691 m -6.6 m/s 402.30 MHz Landshut (DE) 0.00 km UNKNOWN
R2820711 RS41 2020-06-28 06:41:20 48.3611 11.7057 19 ° 17 km/h 727 m -8.2 m/s 402.30 MHz Freising (DE) 0.00 km FOUND
R2820576 RS41 2020-06-28 01:29:26 48.4113 11.9364 56 ° 24 km/h 699 m -3.3 m/s 402.30 MHz Erding (DE) 0.00 km FOUND
R4240851 RS41 2020-06-27 12:54:24 48.5211 11.911 40 ° 17 km/h 799 m -8.4 m/s 402.30 MHz Landshut (DE) 0.00 km FOUND
R2830680 RS41 2020-06-27 06:51:04 48.3672 11.8622 107 ° 17 km/h 838 m -8.6 m/s 402.30 MHz Erding (DE) 0.00 km UNKNOWN
R2751242 RS41 2020-06-27 01:40:42 48.5133 12.1886 42 ° 19 km/h 591 m -3.0 m/s 402.30 MHz Landshut (DE) 0.00 km UNKNOWN
R2811156 RS41 2020-06-26 13:14:24 48.0916 12.1745 48 ° 33 km/h 806 m -4.0 m/s 402.30 MHz Waldkraiburg (DE) 0.00 km UNKNOWN
R4240713 RS41 2020-06-26 06:38:40 47.9371 11.8356 49 ° 7 km/h 1185 m -9.2 m/s 402.30 MHz Vaterstetten (DE) 0.00 km UNKNOWN
R2820529 RS41 2020-06-26 00:41:47 47.86 11.6405 182 ° 2 km/h 1529 m -8.7 m/s 402.30 MHz Geretsried (DE) 0.00 km UNKNOWN
R2830679 RS41 2020-06-25 13:01:14 47.7252 11.5321 128 ° 9 km/h 1675 m -5.1 m/s 402.30 MHz Geretsried (DE) 0.00 km NEED ATTENTION
R2751131 RS41 2020-06-25 01:11:53 47.7484 11.4654 246 ° 7 km/h 1344 m -3.5 m/s 402.30 MHz Geretsried (DE) 0.00 km FOUND
R2820694 RS41 2020-06-24 13:39:05 47.5141 11.791 317 ° 6 km/h 2286 m -3.8 m/s 402.30 MHz Achenkirch (AT) 0.00 km UNKNOWN
R2820714 RS41 2020-06-24 06:42:37 47.7954 11.446 261 ° 19 km/h 1232 m -13.8 m/s 402.30 MHz Geretsried (DE) 0.00 km FOUND
R2820696 RS41 2020-06-24 00:48:05 47.9164 11.3369 266 ° 19 km/h 1026 m -8.0 m/s 402.30 MHz Starnberg (DE) 0.00 km FOUND
R2751239 RS41 2020-06-23 13:09:32 47.9516 11.3198 218 ° 11 km/h 1050 m -4.2 m/s 402.30 MHz Starnberg (DE) 0.00 km UNKNOWN
R2820531 RS41 2020-06-23 07:53:56 47.599 11.2719 287 ° 13 km/h 1635 m -2.8 m/s 402.30 MHz Garmisch-Partenkirchen (DE) 0.00 km UNKNOWN
R4240220 RS41 2020-06-23 00:40:56 47.9024 11.294 214 ° 19 km/h 1066 m -5.0 m/s 402.30 MHz Starnberg (DE) 0.00 km UNKNOWN
R2820589 RS41 2020-06-22 13:45:52 47.6414 11.4817 155 ° 15 km/h 1873 m -2.5 m/s 402.30 MHz Achenkirch (AT) 0.00 km UNKNOWN
R2830753 RS41 2020-06-22 07:36:38 47.5547 11.5177 159 ° 11 km/h 1975 m -2.7 m/s 402.30 MHz Achenkirch (AT) 0.00 km UNKNOWN
R4240841 RS41 2020-06-22 01:38:24 47.6805 11.5116 119 ° 22 km/h 1502 m -2.7 m/s 402.30 MHz Geretsried (DE) 0.00 km UNKNOWN
R4240849 RS41 2020-06-21 12:42:26 48.1407 11.1423 114 ° 15 km/h 778 m -9.6 m/s 402.30 MHz Fürstenfeldbruck (DE) 0.00 km FOUND
R4240845 RS41 2020-06-21 08:04:52 47.9922 10.8606 96 ° 15 km/h 932 m -1.8 m/s 402.30 MHz Landsberg am Lech (DE) 0.00 km UNKNOWN
R4240721 RS41 2020-06-21 00:59:08 48.2205 11.1594 97 ° 28 km/h 690 m -7.3 m/s 402.30 MHz Fürstenfeldbruck (DE) 0.00 km UNKNOWN
R4240711 RS41 2020-06-20 13:54:29 48.2386 11.3121 127 ° 20 km/h 1197 m -5.5 m/s 404.70 MHz Olching (DE) 0.00 km FOUND
R4240150 RS41 2020-06-20 12:21:11 48.1546 11.6054 81 ° 17 km/h 609 m -2.0 m/s 402.30 MHz München (DE) 0.00 km NEED ATTENTION
R4240712 RS41 2020-06-20 06:41:57 48.2354 11.3781 109 ° 22 km/h 802 m -1.9 m/s 402.30 MHz Olching (DE) 0.00 km FOUND
R4240719 RS41 2020-06-20 01:17:59 48.2885 11.4128 93 ° 41 km/h 747 m -2.7 m/s 402.30 MHz Dachau (DE) 0.00 km FOUND
R4240847 RS41 2020-06-19 13:09:50 48.5381 11.4954 96 ° 20 km/h 807 m -4.8 m/s 402.30 MHz Pfaffenhofen an der Ilm (DE) 0.00 km UNKNOWN
R4240714 RS41 2020-06-19 07:14:18 48.4912 11.1079 76 ° 28 km/h 643 m -6.0 m/s 402.30 MHz Aichach (DE) 0.00 km UNKNOWN
R2810747 RS41 2020-06-19 01:50:36 48.6197 11.179 76 ° 37 km/h 626 m -4.4 m/s 402.30 MHz Neuburg an der Donau (DE) 0.00 km UNKNOWN
R2820568 RS41 2020-06-18 14:08:38 48.9059 11.0152 112 ° 9 km/h 1529 m -2.9 m/s 402.30 MHz Neuburg an der Donau (DE) 0.00 km LOST
R2750174 RS41 2020-06-18 08:06:15 48.7691 10.866 113 ° 15 km/h 689 m -3.6 m/s 402.30 MHz Neuburg an der Donau (DE) 0.00 km NEED ATTENTION
R2810816 RS41 2020-06-18 02:10:12 48.8386 10.8744 104 ° 30 km/h 880 m -2.3 m/s 402.30 MHz Neuburg an der Donau (DE) 0.00 km NEED ATTENTION
R2830754 RS41 2020-06-17 19:29:49 48.7147 10.9795 71 ° 20 km/h 458 m -4.2 m/s 402.30 MHz Neuburg an der Donau (DE) 0.00 km FOUND
R2751227 RS41 2020-06-17 12:43:57 48.5973 10.9536 254 ° 35 km/h 547 m -11.5 m/s 402.30 MHz Aichach (DE) 0.00 km UNKNOWN
R2830752 RS41 2020-06-17 07:37:47 48.6835 10.5837 233 ° 6 km/h 624 m -2.8 m/s 402.30 MHz Dillingen (DE) 0.00 km FOUND
R4240730 RS41 2020-06-17 01:41:51 48.6899 10.7995 251 ° 6 km/h 461 m -3.3 m/s 402.30 MHz Dillingen (DE) 0.00 km LOST
R2811142 RS41 2020-06-16 12:54:13 48.5814 11.062 128 ° 11 km/h 571 m -6.5 m/s 402.30 MHz Aichach (DE) 0.00 km FOUND
R2820509 RS41 2020-06-16 07:18:59 48.4579 10.9441 139 ° 11 km/h 596 m -3.8 m/s 402.30 MHz Augsburg (DE) 0.00 km UNKNOWN
R2740486 RS41 2020-06-16 00:49:37 48.3305 11.0854 89 ° 26 km/h 664 m -9.9 m/s 402.30 MHz Augsburg (DE) 0.00 km UNKNOWN
R2811090 RS41 2020-06-15 12:58:01 48.2735 11.1631 86 ° 37 km/h 688 m -4.5 m/s 402.30 MHz Fürstenfeldbruck (DE) 0.00 km UNKNOWN
R2810770 RS41 2020-06-15 06:53:18 48.2671 11.1769 86 ° 46 km/h 758 m -3.4 m/s 402.30 MHz Fürstenfeldbruck (DE) 0.00 km UNKNOWN
R2810774 RS41 2020-06-15 00:28:27 48.3831 11.274 88 ° 46 km/h 739 m -5.2 m/s 402.30 MHz Aichach (DE) 0.00 km UNKNOWN
R2751230 RS41 2020-06-14 13:47:06 48.4158 10.7361 100 ° 24 km/h 633 m -1.5 m/s 402.30 MHz Neusäß (DE) 0.00 km UNKNOWN
R2820653 RS41 2020-06-14 06:54:00 48.2968 10.9682 58 ° 24 km/h 589 m -3.3 m/s 402.30 MHz Königsbrunn (DE) 0.00 km UNKNOWN
R2820600 RS41 2020-06-14 01:28:08 48.4052 10.8085 54 ° 44 km/h 626 m -4.8 m/s 402.30 MHz Neusäß (DE) 0.00 km UNKNOWN
R2820666 RS41 2020-06-13 19:03:25 48.525 11.079 123 ° 26 km/h 621 m -4.1 m/s 402.30 MHz Aichach (DE) 0.00 km UNKNOWN
R2820564 RS41 2020-06-13 12:54:53 48.6525 10.8784 162 ° 6 km/h 461 m -3.0 m/s 402.30 MHz Neuburg an der Donau (DE) 0.00 km NEED ATTENTION
R2810754 RS41 2020-06-13 07:14:41 48.5762 10.8777 127 ° 13 km/h 502 m -4.1 m/s 402.30 MHz Neusäß (DE) 0.00 km FOUND
R2820661 RS41 2020-06-13 01:02:00 48.5438 11.1404 283 ° 13 km/h 585 m -5.4 m/s 402.30 MHz Aichach (DE) 0.00 km FOUND
R2811097 RS41 2020-06-12 13:00:10 48.6028 11.4239 286 ° 28 km/h 784 m -3.9 m/s 402.30 MHz Pfaffenhofen an der Ilm (DE) 0.00 km FOUND
R2820573 RS41 2020-06-12 06:19:07 48.4315 11.4583 292 ° 28 km/h 798 m -5.4 m/s 402.30 MHz Pfaffenhofen an der Ilm (DE) 0.00 km FOUND
R2810719 RS41 2020-06-12 00:43:04 48.3875 11.1117 269 ° 31 km/h 678 m -8.8 m/s 402.30 MHz Aichach (DE) 0.00 km UNKNOWN
R2820571 RS41 2020-06-11 13:29:09 48.6158 10.4457 245 ° 7 km/h 664 m -3.2 m/s 402.30 MHz Dillingen (DE) 0.00 km UNKNOWN
R2751217 RS41 2020-06-11 07:27:31 48.4028 10.5331 137 ° 9 km/h 624 m -3.5 m/s 402.30 MHz Dillingen (DE) 0.00 km UNKNOWN
R2820447 RS41 2020-06-11 00:50:43 48.3483 10.8268 153 ° 13 km/h 658 m -5.6 m/s 402.30 MHz Neusäß (DE) 0.00 km UNKNOWN
R2820662 RS41 2020-06-10 13:29:11 48.6119 10.4591 191 ° 22 km/h 661 m -3.4 m/s 402.30 MHz Dillingen (DE) 0.00 km UNKNOWN
R2830667 RS41 2020-06-10 08:04:51 48.6533 10.2556 173 ° 24 km/h 638 m -2.9 m/s 402.30 MHz Giengen (DE) 0.00 km FOUND
R2810789 RS41 2020-06-10 00:57:37 48.5252 10.8159 179 ° 15 km/h 532 m -7.5 m/s 402.30 MHz Neusäß (DE) 0.00 km UNKNOWN
R2810729 RS41 2020-06-09 12:51:26 48.6507 10.894 239 ° 24 km/h 518 m -6.4 m/s 402.30 MHz Neuburg an der Donau (DE) 0.00 km FOUND
R2830669 RS41 2020-06-09 07:41:39 48.8464 10.703 223 ° 19 km/h 685 m -3.2 m/s 402.30 MHz Dillingen (DE) 0.00 km FOUND
R2811146 RS41 2020-06-09 01:29:12 48.7772 10.902 257 ° 22 km/h 763 m -5.1 m/s 402.30 MHz Neuburg an der Donau (DE) 0.00 km UNKNOWN
R2810780 RS41 2020-06-08 13:22:25 48.9529 11.4027 243 ° 20 km/h 1433 m -12.6 m/s 402.30 MHz Ingolstadt (DE) 0.00 km UNKNOWN
R2820704 RS41 2020-06-08 07:35:48 48.9309 11.6832 262 ° 9 km/h 757 m -2.3 m/s 402.30 MHz Ingolstadt (DE) 0.00 km FOUND
R2751058 RS41 2020-06-08 02:02:03 49.0361 11.9827 292 ° 6 km/h 542 m -2.0 m/s 402.30 MHz Regensburg (DE) 0.00 km NEED ATTENTION
R2820558 RS41 2020-06-07 13:10:58 48.7528 12.0712 140 ° 28 km/h 1180 m -11.0 m/s 404.70 MHz Landshut (DE) 0.00 km FOUND
R2820567 RS41 2020-06-07 12:20:43 48.8481 12.1502 131 ° 31 km/h 1123 m -4.2 m/s 402.30 MHz Regensburg (DE) 0.00 km UNKNOWN
R2820707 RS41 2020-06-07 07:21:08 48.8895 12.0549 196 ° 7 km/h 987 m -3.8 m/s 402.30 MHz Regensburg (DE) 0.00 km FOUND
R2810750 RS41 2020-06-07 00:46:58 48.7471 12.0822 351 ° 15 km/h 938 m -8.1 m/s 402.30 MHz Landshut (DE) 0.00 km FOUND
R2820550 RS41 2020-06-06 14:32:43 49.0848 13.0506 64 ° 26 km/h 1291 m -2.3 m/s 404.70 MHz Deggendorf (DE) 0.00 km UNKNOWN
R2820680 RS41 2020-06-06 11:44:50 48.6594 12.4395 53 ° 20 km/h 437 m -6.6 m/s 402.30 MHz Landshut (DE) 0.00 km FOUND
R2811162 RS41 2020-06-06 08:00:42 49.1357 13.4586 64 ° 93 km/h 1863 m -2.8 m/s 402.30 MHz Sušice (CZ) 0.00 km UNKNOWN
R2830769 RS41 2020-06-06 01:13:51 48.5061 13.0886 74 ° 41 km/h 812 m -3.1 m/s 402.30 MHz Schärding (AT) 0.00 km UNKNOWN
R2810792 RS41 2020-06-05 12:25:50 48.4649 12.5124 75 ° 48 km/h 1778 m -9.0 m/s 402.30 MHz Landshut (DE) 0.00 km UNKNOWN
R2810820 RS41 2020-06-05 06:32:07 48.6758 12.1561 106 ° 26 km/h 623 m -5.9 m/s 402.30 MHz Landshut (DE) 0.00 km UNKNOWN
R2830770 RS41 2020-06-05 00:39:07 48.908 12.5367 88 ° 48 km/h 897 m -4.0 m/s 402.30 MHz Straubing (DE) 0.00 km FOUND
R2820569 RS41 2020-06-04 13:17:44 48.7408 12.3622 34 ° 44 km/h 2301 m -4.4 m/s 402.30 MHz Straubing (DE) 0.00 km FOUND
R2811145 RS41 2020-06-04 07:23:39 48.421 12.2196 72 ° 19 km/h 897 m -2.7 m/s 402.30 MHz Landshut (DE) 0.00 km FOUND
R2820510 RS41 2020-06-04 02:10:16 48.1448 12.3695 5 ° 4 km/h 624 m -1.9 m/s 402.30 MHz Waldkraiburg (DE) 0.00 km UNKNOWN
R2830755 RS41 2020-06-03 13:09:12 47.9783 11.8007 136 ° 9 km/h 1285 m -5.9 m/s 402.30 MHz Vaterstetten (DE) 0.00 km LOST
R2810771 RS41 2020-06-03 06:46:15 47.8656 11.4967 55 ° 11 km/h 1006 m -9.9 m/s 402.30 MHz Geretsried (DE) 0.00 km FOUND
R2820705 RS41 2020-06-03 00:49:25 47.7603 11.4136 39 ° 6 km/h 1387 m -7.7 m/s 402.30 MHz Geretsried (DE) 0.00 km UNKNOWN
R2810813 RS41 2020-06-02 12:56:47 47.7364 11.2283 286 ° 6 km/h 1395 m -6.9 m/s 402.30 MHz Weilheim in Oberbayern (DE) 0.00 km FOUND
R2820644 RS41 2020-06-02 06:52:09 47.7567 11.1449 257 ° 9 km/h 1212 m -5.4 m/s 402.30 MHz Weilheim in Oberbayern (DE) 0.00 km FOUND
R2820643 RS41 2020-06-02 01:53:16 47.5643 11.2381 262 ° 6 km/h 1564 m -3.2 m/s 402.30 MHz Garmisch-Partenkirchen (DE) 0.00 km UNKNOWN
R2751237 RS41 2020-06-01 13:16:11 47.8667 10.7887 210 ° 22 km/h 924 m -2.6 m/s 402.30 MHz Kaufbeuren (DE) 0.00 km LOST
R2820023 RS41 2020-06-01 06:39:52 47.9363 10.8747 274 ° 39 km/h 1092 m -13.9 m/s 402.30 MHz Landsberg am Lech (DE) 0.00 km FOUND
R2830696 RS41 2020-06-01 02:01:32 47.5949 10.5588 9 ° 7 km/h 937 m -2.2 m/s 402.30 MHz Reutte (AT) 0.00 km FOUND
R4240766 RS41 2020-05-31 13:05:47 48.1317 10.3937 239 ° 19 km/h 725 m -4.0 m/s 404.70 MHz Memmingen (DE) 0.00 km FOUND
R2820021 RS41 2020-05-31 07:26:52 48.1259 10.2475 257 ° 15 km/h 711 m -2.1 m/s 402.30 MHz Memmingen (DE) 0.00 km FOUND
R2820642 RS41 2020-05-31 01:05:22 47.9142 11.0338 242 ° 20 km/h 869 m -4.6 m/s 402.30 MHz Weilheim in Oberbayern (DE) 0.00 km UNKNOWN
R2810773 RS41 2020-05-30 13:05:31 47.9897 10.8958 227 ° 33 km/h 916 m -3.2 m/s 402.30 MHz Landsberg am Lech (DE) 0.00 km UNKNOWN
R2810815 RS41 2020-05-30 06:48:46 47.9567 10.908 278 ° 13 km/h 934 m -6.4 m/s 402.30 MHz Landsberg am Lech (DE) 0.00 km UNKNOWN
R2751216 RS41 2020-05-30 01:19:33 47.8958 10.6797 260 ° 31 km/h 907 m -3.2 m/s 402.30 MHz Kaufbeuren (DE) 0.00 km UNKNOWN
R2820446 RS41 2020-05-29 13:21:06 47.8135 10.3805 236 ° 33 km/h 964 m -4.4 m/s 402.30 MHz Kempten (DE) 0.00 km FOUND
R2820645 RS41 2020-05-29 08:07:05 47.6426 9.89679 260 ° 26 km/h 961 m -1.6 m/s 402.30 MHz Wangen im Allgäu (DE) 0.00 km LOST
R2820549 RS41 2020-05-29 01:37:23 47.503 10.3103 269 ° 17 km/h 1331 m -2.9 m/s 402.30 MHz Sonthofen (DE) 0.00 km UNKNOWN
R2751060 RS41 2020-05-28 13:56:12 47.2366 11.5999 147 ° 24 km/h 2280 m -3.2 m/s 402.30 MHz Wattens (AT) 0.00 km UNKNOWN
R2820562 RS41 2020-05-28 06:40:03 47.7086 11.6751 129 ° 22 km/h 1593 m -7.6 m/s 402.30 MHz Achenkirch (AT) 0.00 km UNKNOWN
R2811088 RS41 2020-05-28 01:01:03 47.6257 11.6146 233 ° 6 km/h 1814 m -2.6 m/s 402.30 MHz Achenkirch (AT) 0.00 km UNKNOWN
R2820574 RS41 2020-05-27 13:19:26 47.4508 10.849 213 ° 11 km/h 2000 m -0.6 m/s 402.30 MHz Ehrwald (AT) 0.00 km UNKNOWN
R2810790 RS41 2020-05-27 07:09:46 47.3787 10.814 309 ° 19 km/h 2305 m -4.9 m/s 402.30 MHz Ehrwald (AT) 0.00 km UNKNOWN
R2820561 RS41 2020-05-27 01:54:46 46.9858 10.644 251 ° 22 km/h 3115 m -5.7 m/s 402.30 MHz Pfunds (AT) 0.00 km UNKNOWN
R2751229 RS41 2020-05-26 13:10:55 46.9286 11.2825 191 ° 59 km/h 3945 m -5.8 m/s 402.30 MHz Neustift im Stubaital (AT) 0.00 km UNKNOWN
R2751313 RS41 2020-05-26 07:01:09 46.8777 11.3552 181 ° 65 km/h 3936 m -4.1 m/s 402.30 MHz Steinach am Brenner (AT) 0.00 km UNKNOWN
R2811083 RS41 2020-05-26 00:59:56 46.9894 11.5463 188 ° 65 km/h 3840 m -4.0 m/s 402.30 MHz Steinach am Brenner (AT) 0.00 km UNKNOWN
DF617F0C DFM 2020-05-25 14:16:44 48.299 10.9859 149 ° 17 km/h 15609 m -20.9 m/s 405.310 MHz Königsbrunn (DE) 0.00 km UNKNOWN
R2820565 RS41 2020-05-25 12:48:27 47.1649 11.6879 102 ° 39 km/h 3017 m -11.4 m/s 402.30 MHz Mayrhofen (AT) 0.00 km UNKNOWN
R2810123 RS41 2020-05-25 07:37:54 46.4927 12.365 177 ° 20 km/h 2826 m -0.4 m/s 402.30 MHz Belluno (IT) 0.00 km UNKNOWN
R2820560 RS41 2020-05-25 01:15:57 47.0714 12.3443 155 ° 78 km/h 4207 m -6.4 m/s 402.30 MHz Virgen (AT) 0.00 km UNKNOWN
R2820451 RS41 2020-05-24 12:46:55 47.8378 12.2506 98 ° 39 km/h 1035 m -7.5 m/s 402.30 MHz Rosenheim (DE) 0.00 km FOUND
R2830515 RS41 2020-05-24 06:52:50 47.9257 12.3847 99 ° 46 km/h 912 m -6.9 m/s 404.70 MHz Traunreut (DE) 0.00 km UNKNOWN
R2820665 RS41 2020-05-24 01:14:23 48.5717 13.0366 80 ° 39 km/h 581 m -3.1 m/s 404.70 MHz Passau (DE) 0.00 km UNKNOWN
R2820528 RS41 2020-05-23 14:23:15 48.3878 13.6876 47 ° 11 km/h 609 m -2.6 m/s 404.70 MHz Natternbach (AT) 0.00 km UNKNOWN
R2751226 RS41 2020-05-23 08:04:11 47.8856 13.1874 126 ° 20 km/h 926 m -2.4 m/s 402.30 MHz Henndorf am Wallersee (AT) 0.00 km FOUND
R2820548 RS41 2020-05-23 01:04:53 47.7096 12.27 68 ° 15 km/h 1334 m -6.1 m/s 402.30 MHz Niederndorf (AT) 0.00 km UNKNOWN
R2830672 RS41 2020-05-22 12:59:33 47.3952 11.8302 134 ° 7 km/h 1582 m -6.5 m/s 402.30 MHz Jenbach (AT) 0.00 km UNKNOWN
R2830771 RS41 2020-05-22 06:51:30 47.2511 11.8182 122 ° 20 km/h 2596 m -5.9 m/s 402.30 MHz Mayrhofen (AT) 0.00 km UNKNOWN
R2820646 RS41 2020-05-22 01:39:23 47.382 12.1966 114 ° 28 km/h 2363 m -2.5 m/s 402.30 MHz Westendorf (AT) 0.00 km UNKNOWN
R2810720 RS41 2020-05-21 12:46:15 47.783 11.6482 121 ° 9 km/h 1650 m -12.9 m/s 402.30 MHz Geretsried (DE) 0.00 km UNKNOWN
R2820598 RS41 2020-05-21 08:01:22 47.2233 11.4462 163 ° 7 km/h 1245 m -3.1 m/s 402.30 MHz Sistrans (AT) 0.00 km UNKNOWN
R2830693 RS41 2020-05-21 00:53:42 47.6572 11.427 236 ° 9 km/h 2066 m -9.6 m/s 402.30 MHz Geretsried (DE) 0.00 km UNKNOWN
R2820599 RS41 2020-05-20 13:24:24 47.5235 11.4548 253 ° 11 km/h 1776 m -2.1 m/s 402.30 MHz Achenkirch (AT) 0.00 km UNKNOWN
R2820555 RS41 2020-05-20 07:13:23 47.8052 11.5045 131 ° 7 km/h 1357 m -7.0 m/s 402.30 MHz Geretsried (DE) 0.00 km NEED ATTENTION
R2820649 RS41 2020-05-20 00:52:43 47.9054 11.3269 219 ° 44 km/h 1152 m -4.8 m/s 402.30 MHz Starnberg (DE) 0.00 km UNKNOWN
R2811159 RS41 2020-05-19 13:17:31 47.9775 11.3301 218 ° 22 km/h 1080 m -4.4 m/s 402.30 MHz Starnberg (DE) 0.00 km UNKNOWN
R2820648 RS41 2020-05-19 06:48:32 48.0315 11.3676 223 ° 4 km/h 793 m -4.6 m/s 402.30 MHz Starnberg (DE) 0.00 km UNKNOWN
R2820448 RS41 2020-05-19 00:50:38 48.0885 11.6966 229 ° 22 km/h 781 m -6.0 m/s 402.30 MHz Unterhaching (DE) 0.00 km UNKNOWN
R2820556 RS41 2020-05-18 13:13:45 48.2399 11.9262 143 ° 7 km/h 653 m -5.5 m/s 402.30 MHz Erding (DE) 0.00 km FOUND
R2810788 RS41 2020-05-18 06:56:50 48.1241 11.6882 268 ° 7 km/h 691 m -5.3 m/s 404.70 MHz Vaterstetten (DE) 0.00 km FOUND
R2820445 RS41 2020-05-18 00:50:58 48.0855 11.8158 251 ° 15 km/h 926 m -13.9 m/s 402.30 MHz Vaterstetten (DE) 0.00 km LOST
R2830671 RS41 2020-05-17 13:49:01 48.096 12.4533 281 ° 7 km/h 645 m -2.1 m/s 402.30 MHz Waldkraiburg (DE) 0.00 km FOUND
R2820559 RS41 2020-05-17 06:41:22 48.2054 12.2689 101 ° 6 km/h 963 m -11.5 m/s 402.30 MHz Waldkraiburg (DE) 0.00 km UNKNOWN
R2820663 RS41 2020-05-17 00:53:59 48.6313 13.216 146 ° 7 km/h 898 m -6.2 m/s 402.30 MHz Passau (DE) 0.00 km UNKNOWN
R2820563 RS41 2020-05-16 13:07:09 48.6691 12.9233 236 ° 9 km/h 827 m -5.0 m/s 402.30 MHz Deggendorf (DE) 0.00 km UNKNOWN
R2810814 RS41 2020-05-16 07:10:05 48.5456 12.8377 310 ° 9 km/h 696 m -4.6 m/s 402.30 MHz Deggendorf (DE) 0.00 km UNKNOWN
R2810755 RS41 2020-05-16 00:53:08 48.4584 12.6706 322 ° 7 km/h 758 m -4.2 m/s 402.30 MHz Waldkraiburg (DE) 0.00 km UNKNOWN
R2830692 RS41 2020-05-15 13:25:24 48.43 12.5065 95 ° 11 km/h 1103 m -3.0 m/s 402.30 MHz Waldkraiburg (DE) 0.00 km FOUND
R2820706 RS41 2020-05-15 06:51:02 48.3812 11.8236 265 ° 30 km/h 684 m -5.2 m/s 402.30 MHz Freising (DE) 0.00 km FOUND
R2751057 RS41 2020-05-15 01:09:30 48.7297 12.3854 252 ° 26 km/h 622 m -3.5 m/s 402.30 MHz Straubing (DE) 0.00 km UNKNOWN
R4240848 RS41 2020-05-14 13:12:59 48.7344 12.9537 235 ° 24 km/h 879 m -4.0 m/s 402.30 MHz Deggendorf (DE) 0.00 km UNKNOWN
R2811099 RS41 2020-05-14 07:08:45 48.6157 13.1805 302 ° 2 km/h 1210 m -3.8 m/s 402.30 MHz Passau (DE) 0.00 km UNKNOWN
R3350476 RS41 2020-05-14 01:03:46 48.6585 12.851 154 ° 2 km/h 809 m -6.5 m/s 402.30 MHz Deggendorf (DE) 0.00 km UNKNOWN
R2820566 RS41 2020-05-13 13:02:28 48.8986 13.2781 81 ° 33 km/h 1762 m -4.3 m/s 402.30 MHz Deggendorf (DE) 0.00 km UNKNOWN
R2830751 RS41 2020-05-13 07:29:43 48.6382 13.4454 139 ° 15 km/h 700 m -3.1 m/s 402.30 MHz Passau (DE) 0.00 km UNKNOWN
R3350056 RS41 2020-05-13 00:44:32 48.4862 12.8765 275 ° 15 km/h 771 m -6.1 m/s 402.30 MHz Braunau am Inn (AT) 0.00 km UNKNOWN
R3350027 RS41 2020-05-12 13:59:25 48.2482 13.5821 133 ° 6 km/h 621 m -3.0 m/s 402.30 MHz Taiskirchen im Innkreis (AT) 0.00 km UNKNOWN
R2811154 RS41 2020-05-12 07:26:47 48.1791 13.025 353 ° 7 km/h 473 m -2.7 m/s 402.30 MHz Neukirchen an der Enknach (AT) 0.00 km UNKNOWN
R2820596 RS41 2020-05-12 00:44:28 48.2375 12.1701 160 ° 24 km/h 862 m -7.9 m/s 402.30 MHz Waldkraiburg (DE) 0.00 km NEED ATTENTION
R2820692 RS41 2020-05-11 14:01:35 48.6996 12.1679 187 ° 9 km/h 844 m -1.6 m/s 402.30 MHz Landshut (DE) 0.00 km UNKNOWN
R2820534 RS41 2020-05-11 06:45:30 48.5799 11.8184 301 ° 44 km/h 915 m -6.6 m/s 402.30 MHz Freising (DE) 0.00 km UNKNOWN
R2811160 RS41 2020-05-11 00:53:59 48.4845 12.0752 291 ° 28 km/h 590 m -6.3 m/s 402.30 MHz Landshut (DE) 0.00 km UNKNOWN
R2820691 RS41 2020-05-10 12:38:56 48.3188 12.3193 51 ° 24 km/h 1496 m -4.9 m/s 402.30 MHz Waldkraiburg (DE) 0.00 km FOUND
R2820713 RS41 2020-05-10 06:48:47 48.4028 12.1065 62 ° 41 km/h 973 m -17.4 m/s 402.30 MHz Landshut (DE) 0.00 km UNKNOWN
R2830545 RS41 2020-05-10 00:39:22 48.1985 12.2003 345 ° 15 km/h 920 m -7.9 m/s 402.30 MHz Waldkraiburg (DE) 0.00 km NEED ATTENTION
R2820687 RS41 2020-05-09 13:03:42 48.1864 12.2857 164 ° 9 km/h 835 m -6.7 m/s 402.30 MHz Waldkraiburg (DE) 0.00 km UNKNOWN
R4240718 RS41 2020-05-09 06:49:58 48.1715 12.4362 102 ° 9 km/h 795 m -6.2 m/s 402.30 MHz Waldkraiburg (DE) 0.00 km UNKNOWN
R4240725 RS41 2020-05-09 01:07:49 48.1306 12.534 329 ° 6 km/h 582 m -4.2 m/s 402.30 MHz Waldkraiburg (DE) 0.00 km UNKNOWN
R3440044 RS41 2020-05-08 12:37:28 48.0189 12.1377 134 ° 11 km/h 1016 m -14.0 m/s 402.30 MHz Rosenheim (DE) 0.00 km UNKNOWN
R2830670 RS41 2020-05-08 07:09:42 47.915 12.4504 83 ° 17 km/h 871 m -4.0 m/s 402.30 MHz Traunreut (DE) 0.00 km UNKNOWN
R4240716 RS41 2020-05-08 01:57:46 47.8056 12.5222 132 ° 9 km/h 860 m -2.7 m/s 402.30 MHz Kössen (AT) 0.00 km UNKNOWN
R4240726 RS41 2020-05-07 13:24:38 47.8389 11.5458 70 ° 13 km/h 1655 m -11.2 m/s 404.70 MHz Geretsried (DE) 0.00 km FOUND
R2750415 RS41 2020-05-07 11:18:00 48.0477 11.6107 1 ° 15 km/h 10512 m 0.0 m/s 402.30 MHz Unterhaching (DE) 0.00 km UNKNOWN
R2820579 RS41 2020-05-07 06:39:14 47.5885 11.3032 58 ° 7 km/h 1703 m -9.7 m/s 402.30 MHz Garmisch-Partenkirchen (DE) 0.00 km UNKNOWN
R4240709 RS41 2020-05-07 01:22:06 47.2179 11.1983 102 ° 9 km/h 1709 m -3.6 m/s 402.30 MHz Oberperfuss (AT) 0.00 km UNKNOWN
R2811091 RS41 2020-05-06 13:14:53 47.6855 11.8419 52 ° 6 km/h 1938 m -4.2 m/s 402.30 MHz Achenkirch (AT) 0.00 km UNKNOWN
R2820508 RS41 2020-05-06 07:34:19 47.3333 12.7606 139 ° 41 km/h 3012 m -2.5 m/s 402.30 MHz Zell am See (AT) 0.00 km UNKNOWN
R2810798 RS41 2020-05-06 01:12:09 47.5726 12.9468 141 ° 17 km/h 2025 m -4.3 m/s 402.30 MHz Hallein (AT) 0.00 km UNKNOWN
R4240727 RS41 2020-05-05 13:07:04 47.7932 13.898 117 ° 13 km/h 1375 m -4.1 m/s 402.30 MHz Ebensee (AT) 0.00 km UNKNOWN
R4240765 RS41 2020-05-05 06:45:05 47.884 12.8831 107 ° 119 km/h 12098 m -6.2 m/s 402.30 MHz Oberndorf bei Salzburg (AT) 0.00 km UNKNOWN
R2820506 RS41 2020-05-05 01:46:10 47.4005 14.4461 131 ° 37 km/h 2337 m -1.4 m/s 402.30 MHz Trieben (AT) 0.00 km UNKNOWN
R2820640 RS41 2020-05-04 12:47:03 47.7355 12.9451 106 ° 24 km/h 1728 m -6.6 m/s 402.30 MHz Grossgmain (AT) 0.00 km NEED ATTENTION
R2820502 RS41 2020-05-04 07:21:32 47.1989 13.2636 121 ° 54 km/h 3523 m -3.3 m/s 402.30 MHz Grossarl (AT) 0.00 km UNKNOWN
R4240681 RS41 2020-05-04 01:14:53 47.2974 13.0918 132 ° 67 km/h 3476 m -3.5 m/s 402.30 MHz Goldegg (AT) 0.00 km UNKNOWN
R2830690 RS41 2020-05-03 12:50:51 47.4835 12.5047 121 ° 17 km/h 2320 m -5.3 m/s 402.30 MHz Fieberbrunn (AT) 0.00 km FOUND
R2820664 RS41 2020-05-03 07:17:55 47.1739 12.8124 144 ° 44 km/h 3909 m -2.3 m/s 402.30 MHz Bruck an der Großglocknerstraße (AT) 0.00 km UNKNOWN
R2820708 RS41 2020-05-03 00:43:30 47.667 12.4697 99 ° 30 km/h 1914 m -10.1 m/s 402.30 MHz Kössen (AT) 0.00 km UNKNOWN
R2811082 RS41 2020-05-02 13:47:58 47.8997 13.5213 70 ° 33 km/h 740 m -3.4 m/s 402.30 MHz Sankt Georgen im Attergau (AT) 0.00 km UNKNOWN
R2820572 RS41 2020-05-02 08:05:52 47.822 13.2238 100 ° 46 km/h 1105 m -2.7 m/s 402.30 MHz Hof bei Salzburg (AT) 0.00 km NEED ATTENTION
R2820697 RS41 2020-05-02 02:14:42 47.9165 13.4185 72 ° 22 km/h 790 m -2.3 m/s 402.30 MHz Sankt Georgen im Attergau (AT) 0.00 km UNKNOWN
R4240717 RS41 2020-05-01 13:04:04 48.2838 12.5759 79 ° 15 km/h 740 m -5.4 m/s 402.30 MHz Waldkraiburg (DE) 0.00 km UNKNOWN
R3440060 RS41 2020-05-01 07:52:48 48.3444 13.1872 68 ° 17 km/h 542 m -2.5 m/s 402.30 MHz Altheim (AT) 0.00 km UNKNOWN
R3350033 RS41 2020-05-01 01:51:43 48.6782 12.8671 84 ° 50 km/h 726 m -2.4 m/s 402.30 MHz Deggendorf (DE) 0.00 km UNKNOWN
R3350014 RS41 2020-04-30 13:54:21 48.7863 13.0734 77 ° 22 km/h 1578 m -1.9 m/s 402.30 MHz Deggendorf (DE) 0.00 km UNKNOWN
R3350349 RS41 2020-04-30 07:14:02 48.3632 12.6444 84 ° 4 km/h 950 m -4.0 m/s 402.30 MHz Waldkraiburg (DE) 0.00 km UNKNOWN
R4240852 RS41 2020-04-30 00:42:44 48.1408 12.1594 79 ° 26 km/h 876 m -10.4 m/s 402.30 MHz Waldkraiburg (DE) 0.00 km UNKNOWN
R2830677 RS41 2020-04-29 13:32:03 48.4812 12.0904 77 ° 28 km/h 646 m -3.5 m/s 402.30 MHz Landshut (DE) 0.00 km FOUND
R3440061 RS41 2020-04-29 06:42:06 48.3733 11.7888 75 ° 39 km/h 746 m -14.1 m/s 402.30 MHz Freising (DE) 0.00 km FOUND
R3350039 RS41 2020-04-29 00:27:22 48.4043 11.9578 98 ° 13 km/h 981 m -5.1 m/s 402.30 MHz Erding (DE) 0.00 km FOUND
R3350351 RS41 2020-04-28 13:48:06 48.637 11.8817 109 ° 17 km/h 969 m -4.3 m/s 404.70 MHz Landshut (DE) 0.00 km UNKNOWN
R2820637 RS41 2020-04-28 02:10:08 48.1362 12.4406 17 ° 9 km/h 625 m -2.6 m/s 404.70 MHz Waldkraiburg (DE) 0.00 km UNKNOWN
R2740552 RS41 2020-04-27 12:43:32 48.2942 12.0683 340 ° 9 km/h 661 m -13.8 m/s 404.70 MHz Erding (DE) 0.00 km FOUND
R4240760 RS41 2020-04-27 07:42:47 48.2296 12.1351 359 ° 19 km/h 856 m -3.3 m/s 404.70 MHz Erding (DE) 0.00 km UNKNOWN
R2830678 RS41 2020-04-27 00:47:56 48.1978 11.862 301 ° 22 km/h 649 m -2.6 m/s 402.30 MHz Vaterstetten (DE) 0.00 km UNKNOWN
R3350477 RS41 2020-04-26 12:39:11 48.0753 11.6882 122 ° 11 km/h 875 m -12.2 m/s 402.30 MHz Unterhaching (DE) 0.00 km FOUND
R2830691 RS41 2020-04-26 06:38:40 47.9541 11.7058 233 ° 13 km/h 961 m -9.5 m/s 402.30 MHz Unterhaching (DE) 0.00 km FOUND
R2820690 RS41 2020-04-26 00:51:56 47.8834 12.0495 100 ° 20 km/h 1708 m -5.0 m/s 402.30 MHz Rosenheim (DE) 0.00 km UNKNOWN
R2811013 RS41 2020-04-25 12:47:57 47.9331 12.1968 135 ° 15 km/h 1117 m -5.6 m/s 402.30 MHz Rosenheim (DE) 0.00 km UNKNOWN
R2751027 RS41 2020-04-25 07:41:47 47.5737 12.8269 106 ° 54 km/h 2010 m -5.1 m/s 402.30 MHz Saalfelden am Steinernen Meer (AT) 0.00 km UNKNOWN
R2830724 RS41 2020-04-25 01:20:50 47.7598 12.3038 39 ° 19 km/h 1165 m -3.2 m/s 402.30 MHz Kössen (AT) 0.00 km UNKNOWN
R2820703 RS41 2020-04-24 12:47:33 47.8865 11.8636 98 ° 35 km/h 1528 m -7.6 m/s 402.30 MHz Rosenheim (DE) 0.00 km UNKNOWN
R2811155 RS41 2020-04-24 07:20:01 47.694 11.5975 95 ° 35 km/h 1579 m -4.0 m/s 402.30 MHz Geretsried (DE) 0.00 km UNKNOWN
R2751225 RS41 2020-04-24 00:51:33 47.887 11.7302 96 ° 19 km/h 1286 m -3.8 m/s 402.30 MHz Geretsried (DE) 0.00 km UNKNOWN
R2820022 RS41 2020-04-23 13:11:59 47.7725 10.9361 179 ° 7 km/h 1223 m -3.5 m/s 402.30 MHz Weilheim in Oberbayern (DE) 0.00 km UNKNOWN
R3350392 RS41 2020-04-23 06:49:48 47.6852 10.8675 124 ° 13 km/h 1046 m -8.3 m/s 402.30 MHz Reutte (AT) 0.00 km UNKNOWN
R2811012 RS41 2020-04-23 01:17:03 47.4767 11.0828 101 ° 9 km/h 1908 m -3.8 m/s 402.30 MHz Garmisch-Partenkirchen (DE) 0.00 km UNKNOWN
R2810991 RS41 2020-04-22 13:25:17 47.9599 10.6101 239 ° 30 km/h 866 m -2.5 m/s 402.30 MHz Kaufbeuren (DE) 0.00 km UNKNOWN
R2820676 RS41 2020-04-22 07:05:45 47.9671 10.6457 267 ° 13 km/h 899 m -5.1 m/s 402.30 MHz Kaufbeuren (DE) 0.00 km UNKNOWN
R2830648 RS41 2020-04-22 00:57:48 47.9831 10.8799 274 ° 37 km/h 890 m -6.1 m/s 402.30 MHz Landsberg am Lech (DE) 0.00 km UNKNOWN
R2830726 RS41 2020-04-21 12:59:53 47.9307 11.3882 264 ° 44 km/h 1251 m -6.7 m/s 402.30 MHz Starnberg (DE) 0.00 km FOUND
R2830712 RS41 2020-04-21 06:49:53 47.9509 11.6231 273 ° 44 km/h 1062 m -9.3 m/s 402.30 MHz Unterhaching (DE) 0.00 km LOST
R2830647 RS41 2020-04-21 01:07:34 48.0163 11.9193 263 ° 41 km/h 866 m -3.7 m/s 402.30 MHz Vaterstetten (DE) 0.00 km FOUND
R3351006 RS41 2020-04-20 13:27:23 48.1573 12.3537 247 ° 56 km/h 716 m -3.9 m/s 402.30 MHz Waldkraiburg (DE) 0.00 km UNKNOWN
R2830722 RS41 2020-04-20 06:42:32 48.0561 12.1192 263 ° 33 km/h 882 m -12.4 m/s 402.30 MHz Rosenheim (DE) 0.00 km UNKNOWN
R2830723 RS41 2020-04-20 00:38:34 48.0501 12.2047 263 ° 52 km/h 926 m -9.8 m/s 402.30 MHz Rosenheim (DE) 0.00 km UNKNOWN
R3350041 RS41 2020-04-19 13:15:37 47.8575 13.0665 193 ° 9 km/h 937 m -2.9 m/s 402.30 MHz Hallwang (AT) 0.00 km FOUND
R3410191 RS41 2020-04-19 07:50:56 47.6729 13.4924 106 ° 20 km/h 1636 m -3.7 m/s 402.30 MHz Strobl (AT) 0.00 km UNKNOWN
R3410016 RS41 2020-04-19 01:18:34 47.8329 13.1008 27 ° 26 km/h 962 m -3.5 m/s 402.30 MHz Hallwang (AT) 0.00 km UNKNOWN
R3330153 RS41 2020-04-18 12:52:08 47.9499 12.7629 144 ° 15 km/h 747 m -8.6 m/s 402.30 MHz Sankt Georgen bei Salzburg (AT) 0.00 km UNKNOWN
R3350967 RS41 2020-04-18 06:32:47 47.9671 12.453 83 ° 13 km/h 858 m -10.0 m/s 402.30 MHz Traunreut (DE) 0.00 km UNKNOWN
R3350955 RS41 2020-04-18 01:40:28 47.7213 13.2714 211 ° 9 km/h 1391 m -2.3 m/s 402.30 MHz Faistenau (AT) 0.00 km UNKNOWN
R2830709 RS41 2020-04-17 13:01:10 47.8658 12.986 142 ° 15 km/h 1095 m -6.2 m/s 402.30 MHz Anthering (AT) 0.00 km FOUND
R3410203 RS41 2020-04-17 07:28:56 47.8382 13.1422 4 ° 4 km/h 986 m -4.1 m/s 402.30 MHz Eugendorf (AT) 0.00 km FOUND
R3410015 RS41 2020-04-17 02:35:12 47.5874 13.7108 133 ° 22 km/h 2077 m -3.7 m/s 402.30 MHz Bad Aussee (AT) 0.00 km LOST
R2810995 RS41 2020-04-16 13:56:59 48.2831 13.0149 144 ° 4 km/h 424 m -1.6 m/s 402.30 MHz Braunau am Inn (AT) 0.00 km UNKNOWN
R3410181 RS41 2020-04-16 07:40:39 48.503 12.518 102 ° 2 km/h 1342 m -2.1 m/s 402.30 MHz Landshut (DE) 0.00 km UNKNOWN
R2830725 RS41 2020-04-16 00:44:23 48.2175 12.0613 292 ° 24 km/h 998 m -5.5 m/s 402.30 MHz Erding (DE) 0.00 km FOUND
R3410193 RS41 2020-04-15 12:25:13 47.8847 11.5841 10 ° 4 km/h 1705 m -6.1 m/s 402.30 MHz Geretsried (DE) 0.00 km UNKNOWN
R3350956 RS41 2020-04-15 06:53:13 47.5471 11.5613 202 ° 4 km/h 1838 m -3.8 m/s 402.30 MHz Achenkirch (AT) 0.00 km UNKNOWN
R2830711 RS41 2020-04-15 01:31:57 47.2521 11.4901 74 ° 6 km/h 975 m -3.1 m/s 402.30 MHz Absam (AT) 0.00 km UNKNOWN
R3350828 RS41 2020-04-14 13:00:28 46.9701 12.1896 154 ° 26 km/h 3750 m -6.6 m/s 402.30 MHz Virgen (AT) 0.00 km UNKNOWN
R3350805 RS41 2020-04-14 06:38:28 47.3859 12.9672 125 ° 65 km/h 3114 m -13.4 m/s 402.30 MHz Saalfelden am Steinernen Meer (AT) 0.00 km UNKNOWN
R2820196 RS41 2020-04-14 00:36:23 47.8263 13.5884 139 ° 7 km/h 1403 m -5.3 m/s 402.30 MHz Bad Ischl (AT) 0.00 km UNKNOWN
R3341196 RS41 2020-04-13 12:46:34 47.9227 13.2122 79 ° 24 km/h 984 m -5.4 m/s 402.30 MHz Neumarkt am Wallersee (AT) 0.00 km FOUND
R2751234 RS41 2020-04-13 07:56:39 47.8428 13.9216 81 ° 26 km/h 1057 m -3.9 m/s 402.30 MHz Scharnstein (AT) 0.00 km UNKNOWN
R2811014 RS41 2020-04-13 01:05:11 47.965 13.4135 39 ° 28 km/h 835 m -4.7 m/s 402.30 MHz Frankenmarkt (AT) 0.00 km UNKNOWN
R2751257 RS41 2020-04-12 13:14:53 48.3461 13.4547 216 ° 6 km/h 504 m -4.5 m/s 402.30 MHz Andorf (AT) 0.00 km UNKNOWN
R3410198 RS41 2020-04-12 06:36:42 48.2359 12.8992 41 ° 6 km/h 455 m -7.0 m/s 402.30 MHz Braunau am Inn (AT) 0.00 km UNKNOWN
R2750518 RS41 2020-04-12 00:43:53 48.1857 13.4304 355 ° 6 km/h 670 m -11.6 m/s 402.30 MHz Mehrnbach (AT) 0.00 km UNKNOWN
R2830710 RS41 2020-04-11 13:07:19 48.0165 13.1203 227 ° 2 km/h 671 m -3.6 m/s 402.30 MHz Mattsee (AT) 0.00 km FOUND
R2751117 RS41 2020-04-11 06:37:53 48.0178 12.9136 102 ° 19 km/h 753 m -13.3 m/s 402.30 MHz Bürmoos (AT) 0.00 km FOUND
R3350953 RS41 2020-04-11 01:14:14 47.8131 13.0477 80 ° 15 km/h 1033 m -4.2 m/s 402.30 MHz Salzburg (AT) 0.00 km UNKNOWN
R3350964 RS41 2020-04-10 13:41:50 47.7684 12.7794 228 ° 15 km/h 1383 m -4.5 m/s 402.30 MHz Grossgmain (AT) 0.00 km UNKNOWN
R3350936 RS41 2020-04-10 06:55:05 47.8475 12.1833 231 ° 9 km/h 1112 m -3.9 m/s 402.30 MHz Rosenheim (DE) 0.00 km UNKNOWN
R3350806 RS41 2020-04-10 01:03:49 47.8482 12.0821 334 ° 7 km/h 1026 m -3.1 m/s 402.30 MHz Rosenheim (DE) 0.00 km UNKNOWN
R2620435 RS41 2020-04-09 14:19:34 47.8656 12.678 177 ° 13 km/h 825 m -2.1 m/s 402.30 MHz Traunreut (DE) 0.00 km UNKNOWN
R3410007 RS41 2020-04-09 06:36:58 48.0482 12.3188 97 ° 17 km/h 905 m -12.3 m/s 402.30 MHz Waldkraiburg (DE) 0.00 km UNKNOWN
R2751123 RS41 2020-04-09 02:02:19 48.0514 12.3645 93 ° 24 km/h 775 m -2.3 m/s 402.30 MHz Waldkraiburg (DE) 0.00 km UNKNOWN
R3350813 RS41 2020-04-08 13:19:14 48.3535 11.9635 125 ° 6 km/h 669 m -3.8 m/s 402.30 MHz Erding (DE) 0.00 km FOUND
R3350350 RS41 2020-04-08 06:47:05 48.2803 12.021 306 ° 13 km/h 609 m -2.9 m/s 402.30 MHz Erding (DE) 0.00 km FOUND
R3410186 RS41 2020-04-08 01:03:09 48.3092 12.3539 287 ° 30 km/h 1057 m -4.8 m/s 402.30 MHz Waldkraiburg (DE) 0.00 km UNKNOWN
R2811001 RS41 2020-04-07 12:58:29 48.2667 12.2318 265 ° 15 km/h 930 m -6.0 m/s 402.30 MHz Waldkraiburg (DE) 0.00 km FOUND
R3350401 RS41 2020-04-07 07:12:45 48.1709 12.3173 140 ° 7 km/h 693 m -3.6 m/s 402.30 MHz Waldkraiburg (DE) 0.00 km UNKNOWN
R2810997 RS41 2020-04-07 00:48:15 48.3347 12.0701 120 ° 9 km/h 873 m -2.7 m/s 402.30 MHz Erding (DE) 0.00 km FOUND
R2811102 RS41 2020-04-06 12:37:50 48.5764 12.765 34 ° 11 km/h 1023 m -10.7 m/s 402.30 MHz Deggendorf (DE) 0.00 km UNKNOWN
R2811000 RS41 2020-04-06 06:36:03 48.4506 12.3234 41 ° 19 km/h 876 m -9.8 m/s 402.30 MHz Landshut (DE) 0.00 km FOUND
R3351042 RS41 2020-04-06 00:41:50 48.4328 11.8557 295 ° 19 km/h 610 m -3.5 m/s 402.30 MHz Freising (DE) 0.00 km FOUND
R2811116 RS41 2020-04-05 12:35:13 48.3187 12.0837 252 ° 13 km/h 687 m -8.5 m/s 402.30 MHz Erding (DE) 0.00 km FOUND
R2810998 RS41 2020-04-05 07:01:58 48.0226 11.6311 288 ° 20 km/h 759 m -2.5 m/s 402.30 MHz Unterhaching (DE) 0.00 km FOUND
R2810993 RS41 2020-04-05 00:46:33 48.1332 12.352 280 ° 43 km/h 707 m -5.1 m/s 402.30 MHz Waldkraiburg (DE) 0.00 km UNKNOWN
R2751118 RS41 2020-04-04 13:42:24 48.0201 13.0325 233 ° 9 km/h 721 m -2.5 m/s 402.30 MHz Mattsee (AT) 0.00 km FOUND
R2810987 RS41 2020-04-04 06:39:25 48.0711 12.8283 205 ° 6 km/h 597 m -7.4 m/s 402.30 MHz Ostermiething (AT) 0.00 km UNKNOWN
R2820101 RS41 2020-04-04 01:58:22 48.0045 13.8798 102 ° 17 km/h 561 m -2.2 m/s 402.30 MHz Vorchdorf (AT) 0.00 km UNKNOWN
R2820530 RS41 2020-04-03 12:33:55 48.2644 12.9937 155 ° 11 km/h 404 m -10.3 m/s 402.30 MHz Braunau am Inn (AT) 0.00 km UNKNOWN
R3350957 RS41 2020-04-03 07:16:53 48.1023 13.2305 81 ° 13 km/h 662 m -3.0 m/s 402.30 MHz Munderfing (AT) 0.00 km UNKNOWN
R3350400 RS41 2020-04-03 01:55:17 48.0851 13.3709 102 ° 22 km/h 812 m -1.5 m/s 402.30 MHz Waldzell (AT) 0.00 km UNKNOWN
R3350380 RS41 2020-04-02 13:21:44 48.113 12.6437 176 ° 15 km/h 593 m -2.9 m/s 402.30 MHz Ostermiething (AT) 0.00 km UNKNOWN
R2830721 RS41 2020-04-02 06:35:20 48.0986 12.3279 324 ° 2 km/h 744 m -4.4 m/s 402.30 MHz Waldkraiburg (DE) 0.00 km UNKNOWN
R2830714 RS41 2020-04-02 01:00:33 48.1061 12.579 313 ° 11 km/h 639 m -3.4 m/s 402.30 MHz Traunreut (DE) 0.00 km UNKNOWN
R3350978 RS41 2020-04-01 13:20:17 48.0014 12.2948 251 ° 9 km/h 795 m -4.3 m/s 402.30 MHz Rosenheim (DE) 0.00 km UNKNOWN
R3350970 RS41 2020-04-01 01:47:01 47.3734 11.6979 51 ° 17 km/h 2117 m -2.2 m/s 402.30 MHz Schwaz (AT) 0.00 km UNKNOWN
R3350958 RS41 2020-03-31 12:46:43 47.5631 11.4397 281 ° 6 km/h 1918 m -5.9 m/s 402.30 MHz Achenkirch (AT) 0.00 km UNKNOWN
R3350962 RS41 2020-03-31 00:39:10 47.7886 11.9308 249 ° 7 km/h 1261 m -8.1 m/s 402.30 MHz Rosenheim (DE) 0.00 km UNKNOWN
R3351030 RS41 2020-03-30 13:06:52 48.0487 12.7502 237 ° 2 km/h 560 m -3.1 m/s 402.30 MHz Ostermiething (AT) 0.00 km UNKNOWN
R2830713 RS41 2020-03-30 01:20:31 48.1476 12.7707 154 ° 11 km/h 538 m -2.6 m/s 402.30 MHz Hochburg-Ach (AT) 0.00 km UNKNOWN
R3410014 RS41 2020-03-29 12:35:26 48.1464 12.3079 153 ° 13 km/h 878 m -4.5 m/s 402.30 MHz Waldkraiburg (DE) 0.00 km UNKNOWN
R3350402 RS41 2020-03-29 02:00:02 47.831 12.3047 94 ° 20 km/h 1016 m -2.1 m/s 402.30 MHz Rosenheim (DE) 0.00 km UNKNOWN
R3350719 RS41 2020-03-28 13:12:48 47.9318 11.4309 169 ° 9 km/h 1477 m -3.1 m/s 402.30 MHz Geretsried (DE) 0.00 km FOUND
R3350966 RS41 2020-03-28 00:51:23 48.1464 11.3849 304 ° 9 km/h 851 m -3.0 m/s 402.30 MHz Germering (DE) 0.00 km FOUND
R3350935 RS41 2020-03-27 13:35:30 48.558 11.0014 268 ° 28 km/h 625 m -4.5 m/s 402.30 MHz Aichach (DE) 0.00 km UNKNOWN
R3350457 RS41 2020-03-27 01:42:36 48.5994 10.6007 255 ° 30 km/h 544 m -2.3 m/s 402.30 MHz Dillingen (DE) 0.00 km UNKNOWN
R3410187 RS41 2020-03-26 12:48:38 48.5892 10.7944 258 ° 30 km/h 597 m -7.4 m/s 402.30 MHz Neusäß (DE) 0.00 km UNKNOWN
R3410009 RS41 2020-03-26 01:44:59 48.6357 10.5304 259 ° 43 km/h 609 m -2.6 m/s 402.30 MHz Dillingen (DE) 0.00 km UNKNOWN
R3350093 RS41 2020-03-25 13:20:08 47.8593 9.54447 237 ° 50 km/h 774 m -3.9 m/s 402.30 MHz Weingarten (DE) 0.00 km FOUND
R3341200 RS41 2020-03-25 01:38:36 47.8197 9.40471 251 ° 63 km/h 1339 m -3.8 m/s 402.30 MHz Ravensburg (DE) 0.00 km UNKNOWN
R3350355 RS41 2020-03-24 13:25:26 47.4996 9.44782 265 ° 26 km/h 1486 m -1.9 m/s 402.30 MHz Arbon (CH) 0.00 km UNKNOWN
R3341049 RS41 2020-03-24 00:55:43 47.4637 10.5673 296 ° 26 km/h 2060 m -3.2 m/s 402.30 MHz Reutte (AT) 0.00 km UNKNOWN
R3351040 RS41 2020-03-23 12:39:45 47.5076 10.9603 245 ° 13 km/h 2207 m -3.8 m/s 402.30 MHz Garmisch-Partenkirchen (DE) 0.00 km UNKNOWN
R3351039 RS41 2020-03-23 00:37:06 47.7143 11.4517 335 ° 6 km/h 1722 m -9.3 m/s 402.30 MHz Geretsried (DE) 0.00 km UNKNOWN
R3410011 RS41 2020-03-22 13:39:10 47.561 11.7632 308 ° 7 km/h 2235 m -1.3 m/s 402.30 MHz Achenkirch (AT) 0.00 km UNKNOWN
R3410010 RS41 2020-03-22 01:18:34 48.0805 12.3984 257 ° 43 km/h 679 m -3.1 m/s 402.30 MHz Waldkraiburg (DE) 0.00 km UNKNOWN
R3351009 RS41 2020-03-21 12:54:42 48.1285 12.6679 253 ° 31 km/h 600 m -3.1 m/s 402.30 MHz Ostermiething (AT) 0.00 km FOUND
R3350397 RS41 2020-03-21 01:13:53 48.1745 12.1075 131 ° 20 km/h 976 m -2.3 m/s 402.30 MHz Erding (DE) 0.00 km UNKNOWN
R3410183 RS41 2020-03-20 13:08:42 48.5217 12.2361 216 ° 4 km/h 683 m -7.0 m/s 402.30 MHz Landshut (DE) 0.00 km FOUND
R3410194 RS41 2020-03-20 01:15:49 48.5416 11.9929 298 ° 17 km/h 856 m -2.5 m/s 402.30 MHz Landshut (DE) 0.00 km NEED ATTENTION
R3410185 RS41 2020-03-19 13:14:48 48.4838 11.7919 65 ° 13 km/h 1894 m -4.1 m/s 402.30 MHz Freising (DE) 0.00 km FOUND
R3410188 RS41 2020-03-19 01:31:08 48.2181 11.5523 334 ° 4 km/h 1372 m -2.9 m/s 402.30 MHz Unterschleißheim (DE) 0.00 km FOUND
R3410018 RS41 2020-03-18 12:37:07 48.078 11.4045 285 ° 7 km/h 1232 m -8.5 m/s 402.30 MHz Germering (DE) 0.00 km FOUND
R3350395 RS41 2020-03-18 01:13:43 47.6498 11.4038 196 ° 7 km/h 1645 m -3.6 m/s 402.30 MHz Geretsried (DE) 0.00 km UNKNOWN
R3410192 RS41 2020-03-17 12:48:51 48.0784 12.0534 167 ° 7 km/h 960 m -11.7 m/s 402.30 MHz Vaterstetten (DE) 0.00 km LOST
R3350881 RS41 2020-03-17 00:34:11 48.2155 11.9463 43 ° 6 km/h 775 m -13.3 m/s 402.30 MHz Erding (DE) 0.00 km FOUND
R3410182 RS41 2020-03-16 13:25:37 48.3507 12.3155 197 ° 13 km/h 1115 m -3.9 m/s 402.30 MHz Waldkraiburg (DE) 0.00 km FOUND
R3350767 RS41 2020-03-16 00:41:53 48.28 12.1979 40 ° 6 km/h 936 m -8.7 m/s 402.30 MHz Waldkraiburg (DE) 0.00 km FOUND
R3350049 RS41 2020-03-15 12:56:59 48.0067 12.1996 317 ° 17 km/h 1016 m -5.6 m/s 402.30 MHz Rosenheim (DE) 0.00 km NEED ATTENTION
R3330154 RS41 2020-03-15 00:58:18 47.5529 12.2929 178 ° 6 km/h 2422 m -3.9 m/s 402.30 MHz Ellmau (AT) 0.00 km UNKNOWN
R3410017 RS41 2020-03-14 13:33:02 48.216 13.0655 300 ° 15 km/h 455 m -2.3 m/s 402.30 MHz Burgkirchen (AT) 0.00 km UNKNOWN
R3410468 RS41 2020-03-14 00:37:29 48.2299 13.367 49 ° 17 km/h 528 m -8.0 m/s 402.30 MHz Mehrnbach (AT) 0.00 km UNKNOWN
R3430638 RS41 2020-03-13 13:19:50 48.2398 14.5866 98 ° 33 km/h 298 m -1.6 m/s 402.30 MHz Naarn im Machland (AT) 0.00 km FOUND
R3350031 RS41 2020-03-13 00:51:54 48.42 13.8423 109 ° 35 km/h 689 m -7.1 m/s 402.30 MHz Natternbach (AT) 0.00 km UNKNOWN
R3420697 RS41 2020-03-12 12:32:10 48.4224 13.3971 78 ° 50 km/h 424 m -13.5 m/s 402.30 MHz Schärding (AT) 0.00 km UNKNOWN
R3350965 RS41 2020-03-12 01:58:35 47.7707 14.5004 94 ° 7 km/h 1204 m -2.0 m/s 402.30 MHz Grossraming (AT) 0.00 km UNKNOWN
R3410466 RS41 2020-03-11 12:44:13 47.684 13.0694 79 ° 46 km/h 1546 m -12.1 m/s 402.30 MHz Hallein (AT) 0.00 km UNKNOWN
R3350467 RS41 2020-03-11 01:13:30 47.1658 12.9834 131 ° 96 km/h 3863 m -2.7 m/s 402.30 MHz Rauris (AT) 0.00 km UNKNOWN
R3350028 RS41 2020-03-10 12:34:28 47.3605 12.2104 155 ° 89 km/h 3813 m -7.7 m/s 402.30 MHz Westendorf (AT) 0.00 km UNKNOWN
R3350644 RS41 2020-03-10 00:50:48 47.598 12.0351 89 ° 35 km/h 1908 m -4.9 m/s 402.30 MHz Schwoich (AT) 0.00 km UNKNOWN
R3350441 RS41 2020-03-09 13:37:58 48.5471 12.3632 113 ° 30 km/h 777 m -2.6 m/s 402.30 MHz Landshut (DE) 0.00 km FOUND
R3350747 RS41 2020-03-09 00:44:28 48.3644 12.1187 53 ° 13 km/h 743 m -8.1 m/s 402.30 MHz Erding (DE) 0.00 km FOUND
R3350589 RS41 2020-03-08 13:37:31 47.7389 11.8197 94 ° 20 km/h 1626 m -2.4 m/s 402.30 MHz Achenkirch (AT) 0.00 km NEED ATTENTION
R3410189 RS41 2020-03-08 01:01:29 47.4638 11.4149 87 ° 17 km/h 2163 m -4.0 m/s 402.30 MHz Thaur (AT) 0.00 km UNKNOWN
R3410013 RS41 2020-03-07 13:32:34 48.076 12.2693 142 ° 24 km/h 789 m -3.6 m/s 402.30 MHz Waldkraiburg (DE) 0.00 km UNKNOWN
R3340987 RS41 2020-03-07 01:03:49 48.3828 12.4652 89 ° 52 km/h 899 m -4.1 m/s 402.30 MHz Waldkraiburg (DE) 0.00 km UNKNOWN
R3350357 RS41 2020-03-06 12:40:03 48.6928 12.5756 69 ° 52 km/h 601 m -5.9 m/s 402.30 MHz Straubing (DE) 0.00 km FOUND
R3430596 RS41 2020-03-06 01:14:46 48.7694 12.8574 85 ° 76 km/h 2201 m -5.2 m/s 402.30 MHz Deggendorf (DE) 0.00 km UNKNOWN
R3350768 RS41 2020-03-05 12:34:22 47.9454 12.8287 307 ° 19 km/h 1152 m -10.6 m/s 402.30 MHz Sankt Georgen bei Salzburg (AT) 0.00 km FOUND
R3350766 RS41 2020-03-05 00:44:34 47.4697 12.6311 81 ° 28 km/h 2478 m -7.2 m/s 402.30 MHz Fieberbrunn (AT) 0.00 km UNKNOWN
R3410465 RS41 2020-03-04 13:07:09 47.5593 12.4489 116 ° 17 km/h 1917 m -4.2 m/s 402.30 MHz Kirchdorf in Tirol (AT) 0.00 km FOUND
R3350356 RS41 2020-03-04 01:04:52 48.1306 12.311 61 ° 20 km/h 695 m -4.3 m/s 402.30 MHz Waldkraiburg (DE) 0.00 km UNKNOWN
R3340145 RS41 2020-03-03 12:49:18 48.416 12.1632 101 ° 35 km/h 803 m -10.9 m/s 402.30 MHz Landshut (DE) 0.00 km FOUND
R3420773 RS41 2020-03-03 00:53:16 48.665 12.1387 76 ° 39 km/h 622 m -7.3 m/s 402.30 MHz Landshut (DE) 0.00 km FOUND
R3350054 RS41 2020-03-02 12:42:07 48.4447 12.6946 293 ° 31 km/h 759 m -7.8 m/s 402.30 MHz Braunau am Inn (AT) 0.00 km UNKNOWN
R3430639 RS41 2020-03-02 00:51:59 48.5279 12.932 76 ° 63 km/h 778 m -3.5 m/s 402.30 MHz Braunau am Inn (AT) 0.00 km FOUND
R3410602 RS41 2020-03-01 12:41:26 48.4978 13.3491 27 ° 15 km/h 896 m -12.0 m/s 402.30 MHz Schärding (AT) 0.00 km UNKNOWN
R3341107 RS41 2020-03-01 00:51:57 48.3499 13.7091 96 ° 37 km/h 719 m -7.7 m/s 402.30 MHz Raab (AT) 0.00 km UNKNOWN
R3350818 RS41 2020-02-29 12:36:44 48.0678 13.3153 300 ° 26 km/h 842 m -11.9 m/s 402.30 MHz Pöndorf (AT) 0.00 km UNKNOWN
R3410012 RS41 2020-02-29 01:16:22 47.0807 14.3007 46 ° 7 km/h 1923 m -3.4 m/s 402.30 MHz Murau (AT) 0.00 km UNKNOWN
R3430640 RS41 2020-02-28 13:08:52 46.6542 14.0287 133 ° 22 km/h 975 m -5.3 m/s 402.30 MHz Velden am Wörthersee (AT) 0.00 km FOUND
R3440125 RS41 2020-02-28 00:45:52 47.4401 13.4735 118 ° 69 km/h 2506 m -8.4 m/s 404.70 MHz Radstadt (AT) 0.00 km UNKNOWN
R3341125 RS41 2020-02-28 00:27:16 47.4351 13.7368 126 ° 128 km/h 3089 m -9.0 m/s 402.30 MHz Schladming (AT) 0.00 km UNKNOWN
R3350347 RS41 2020-02-27 12:53:18 47.7239 14.3084 11 ° 7 km/h 1958 m -3.5 m/s 402.30 MHz Windischgarsten (AT) 0.00 km UNKNOWN
R3350765 RS41 2020-02-27 01: